<?xml version="1.0" encoding="UTF-8" standalone="no" ?>
<gpx xmlns="http://www.topografix.com/GPX/1/1" xmlns:xsi="http://www.w3.org/2001/XMLSchema-instance" xsi:schemaLocation="http://www.topografix.com/GPX/1/1 http://www.topografix.com/GPX/1/1/gpx.xsd" version="1.1" creator="VisuGPX - https://www.visugpx.com">
  <metadata>
    <name>Champagnat Cyclisme sur route</name>
  </metadata>
  <trk>
    <name><![CDATA[Champagnat Cyclisme sur route_1]]></name>
    <trkseg>
      <trkpt lat="46.48268" lon="5.36834">
        <ele>265.4</ele>
        <time>2022-04-16T10:16:04Z</time>
      </trkpt>
      <trkpt lat="46.48258" lon="5.36821">
        <ele>265</ele>
        <time>2022-04-16T10:16:05Z</time>
      </trkpt>
      <trkpt lat="46.48248" lon="5.36811">
        <ele>264</ele>
        <time>2022-04-16T10:16:06Z</time>
      </trkpt>
      <trkpt lat="46.48237" lon="5.36801">
        <ele>262.4</ele>
        <time>2022-04-16T10:16:07Z</time>
      </trkpt>
      <trkpt lat="46.48226" lon="5.36791">
        <ele>261.8</ele>
        <time>2022-04-16T10:16:08Z</time>
      </trkpt>
      <trkpt lat="46.48214" lon="5.36782">
        <ele>261.2</ele>
        <time>2022-04-16T10:16:09Z</time>
      </trkpt>
      <trkpt lat="46.48192" lon="5.36763">
        <ele>259.8</ele>
        <time>2022-04-16T10:16:11Z</time>
      </trkpt>
      <trkpt lat="46.48168" lon="5.36745">
        <ele>258.4</ele>
        <time>2022-04-16T10:16:13Z</time>
      </trkpt>
      <trkpt lat="46.48157" lon="5.36735">
        <ele>257.2</ele>
        <time>2022-04-16T10:16:14Z</time>
      </trkpt>
      <trkpt lat="46.48136" lon="5.36719">
        <ele>256.2</ele>
        <time>2022-04-16T10:16:16Z</time>
      </trkpt>
      <trkpt lat="46.48119" lon="5.36706">
        <ele>254.6</ele>
        <time>2022-04-16T10:16:18Z</time>
      </trkpt>
      <trkpt lat="46.48113" lon="5.367">
        <ele>254.2</ele>
        <time>2022-04-16T10:16:19Z</time>
      </trkpt>
      <trkpt lat="46.4811" lon="5.36693">
        <ele>253.4</ele>
        <time>2022-04-16T10:16:20Z</time>
      </trkpt>
      <trkpt lat="46.4811" lon="5.36684">
        <ele>253</ele>
        <time>2022-04-16T10:16:21Z</time>
      </trkpt>
      <trkpt lat="46.48113" lon="5.36676">
        <ele>252</ele>
        <time>2022-04-16T10:16:22Z</time>
      </trkpt>
      <trkpt lat="46.48124" lon="5.36663">
        <ele>251</ele>
        <time>2022-04-16T10:16:24Z</time>
      </trkpt>
      <trkpt lat="46.4813" lon="5.36657">
        <ele>250.4</ele>
        <time>2022-04-16T10:16:25Z</time>
      </trkpt>
      <trkpt lat="46.48149" lon="5.36638">
        <ele>249.2</ele>
        <time>2022-04-16T10:16:28Z</time>
      </trkpt>
      <trkpt lat="46.48155" lon="5.3663">
        <ele>248.4</ele>
        <time>2022-04-16T10:16:29Z</time>
      </trkpt>
      <trkpt lat="46.48161" lon="5.36623">
        <ele>247.6</ele>
        <time>2022-04-16T10:16:30Z</time>
      </trkpt>
      <trkpt lat="46.48177" lon="5.36613">
        <ele>247.2</ele>
        <time>2022-04-16T10:16:32Z</time>
      </trkpt>
      <trkpt lat="46.48184" lon="5.36609">
        <ele>247</ele>
        <time>2022-04-16T10:16:33Z</time>
      </trkpt>
      <trkpt lat="46.48192" lon="5.36606">
        <ele>246.8</ele>
        <time>2022-04-16T10:16:34Z</time>
      </trkpt>
      <trkpt lat="46.48207" lon="5.36599">
        <ele>246.8</ele>
        <time>2022-04-16T10:16:36Z</time>
      </trkpt>
      <trkpt lat="46.48214" lon="5.36594">
        <ele>246.8</ele>
        <time>2022-04-16T10:16:37Z</time>
      </trkpt>
      <trkpt lat="46.48219" lon="5.36586">
        <ele>246.8</ele>
        <time>2022-04-16T10:16:38Z</time>
      </trkpt>
      <trkpt lat="46.48222" lon="5.36576">
        <ele>246.8</ele>
        <time>2022-04-16T10:16:39Z</time>
      </trkpt>
      <trkpt lat="46.48225" lon="5.36567">
        <ele>247</ele>
        <time>2022-04-16T10:16:40Z</time>
      </trkpt>
      <trkpt lat="46.48235" lon="5.36549">
        <ele>247</ele>
        <time>2022-04-16T10:16:42Z</time>
      </trkpt>
      <trkpt lat="46.48272" lon="5.3651">
        <ele>246.4</ele>
        <time>2022-04-16T10:16:48Z</time>
      </trkpt>
      <trkpt lat="46.48304" lon="5.36475">
        <ele>245.4</ele>
        <time>2022-04-16T10:16:53Z</time>
      </trkpt>
      <trkpt lat="46.48329" lon="5.36448">
        <ele>244.2</ele>
        <time>2022-04-16T10:16:57Z</time>
      </trkpt>
      <trkpt lat="46.48335" lon="5.36441">
        <ele>243.8</ele>
        <time>2022-04-16T10:16:58Z</time>
      </trkpt>
      <trkpt lat="46.48347" lon="5.36427">
        <ele>243</ele>
        <time>2022-04-16T10:17:00Z</time>
      </trkpt>
      <trkpt lat="46.48385" lon="5.36386">
        <ele>242</ele>
        <time>2022-04-16T10:17:06Z</time>
      </trkpt>
      <trkpt lat="46.48391" lon="5.3638">
        <ele>241.6</ele>
        <time>2022-04-16T10:17:07Z</time>
      </trkpt>
      <trkpt lat="46.48405" lon="5.36367">
        <ele>241.2</ele>
        <time>2022-04-16T10:17:09Z</time>
      </trkpt>
      <trkpt lat="46.48424" lon="5.36355">
        <ele>240.8</ele>
        <time>2022-04-16T10:17:12Z</time>
      </trkpt>
      <trkpt lat="46.48432" lon="5.36352">
        <ele>240.8</ele>
        <time>2022-04-16T10:17:13Z</time>
      </trkpt>
      <trkpt lat="46.48451" lon="5.36348">
        <ele>240.6</ele>
        <time>2022-04-16T10:17:16Z</time>
      </trkpt>
      <trkpt lat="46.48505" lon="5.36339">
        <ele>240</ele>
        <time>2022-04-16T10:17:24Z</time>
      </trkpt>
      <trkpt lat="46.48518" lon="5.36337">
        <ele>240</ele>
        <time>2022-04-16T10:17:26Z</time>
      </trkpt>
      <trkpt lat="46.4858" lon="5.36327">
        <ele>239.6</ele>
        <time>2022-04-16T10:17:35Z</time>
      </trkpt>
      <trkpt lat="46.48607" lon="5.36323">
        <ele>239</ele>
        <time>2022-04-16T10:17:39Z</time>
      </trkpt>
      <trkpt lat="46.48615" lon="5.3632">
        <ele>238.8</ele>
        <time>2022-04-16T10:17:40Z</time>
      </trkpt>
      <trkpt lat="46.48622" lon="5.36314">
        <ele>238.6</ele>
        <time>2022-04-16T10:17:41Z</time>
      </trkpt>
      <trkpt lat="46.48627" lon="5.36306">
        <ele>238.2</ele>
        <time>2022-04-16T10:17:42Z</time>
      </trkpt>
      <trkpt lat="46.48632" lon="5.36297">
        <ele>238</ele>
        <time>2022-04-16T10:17:43Z</time>
      </trkpt>
      <trkpt lat="46.48635" lon="5.36285">
        <ele>237.6</ele>
        <time>2022-04-16T10:17:44Z</time>
      </trkpt>
      <trkpt lat="46.48639" lon="5.36248">
        <ele>236.8</ele>
        <time>2022-04-16T10:17:47Z</time>
      </trkpt>
      <trkpt lat="46.48642" lon="5.36222">
        <ele>235.8</ele>
        <time>2022-04-16T10:17:49Z</time>
      </trkpt>
      <trkpt lat="46.48645" lon="5.36171">
        <ele>234.4</ele>
        <time>2022-04-16T10:17:53Z</time>
      </trkpt>
      <trkpt lat="46.4865" lon="5.36134">
        <ele>233.8</ele>
        <time>2022-04-16T10:17:56Z</time>
      </trkpt>
      <trkpt lat="46.48658" lon="5.36098">
        <ele>233.4</ele>
        <time>2022-04-16T10:17:59Z</time>
      </trkpt>
      <trkpt lat="46.48667" lon="5.36055">
        <ele>233.2</ele>
        <time>2022-04-16T10:18:03Z</time>
      </trkpt>
      <trkpt lat="46.48677" lon="5.36008">
        <ele>233.2</ele>
        <time>2022-04-16T10:18:08Z</time>
      </trkpt>
      <trkpt lat="46.48678" lon="5.36001">
        <ele>233.4</ele>
        <time>2022-04-16T10:18:09Z</time>
      </trkpt>
      <trkpt lat="46.48685" lon="5.35954">
        <ele>234.6</ele>
        <time>2022-04-16T10:18:14Z</time>
      </trkpt>
      <trkpt lat="46.48687" lon="5.35942">
        <ele>234.6</ele>
        <time>2022-04-16T10:18:15Z</time>
      </trkpt>
      <trkpt lat="46.48692" lon="5.35913">
        <ele>235.2</ele>
        <time>2022-04-16T10:18:18Z</time>
      </trkpt>
      <trkpt lat="46.48695" lon="5.35902">
        <ele>235.2</ele>
        <time>2022-04-16T10:18:19Z</time>
      </trkpt>
      <trkpt lat="46.48718" lon="5.35842">
        <ele>234.4</ele>
        <time>2022-04-16T10:18:25Z</time>
      </trkpt>
      <trkpt lat="46.48727" lon="5.35822">
        <ele>233.6</ele>
        <time>2022-04-16T10:18:27Z</time>
      </trkpt>
      <trkpt lat="46.48747" lon="5.35776">
        <ele>232.4</ele>
        <time>2022-04-16T10:18:32Z</time>
      </trkpt>
      <trkpt lat="46.48774" lon="5.35714">
        <ele>232</ele>
        <time>2022-04-16T10:18:39Z</time>
      </trkpt>
      <trkpt lat="46.48805" lon="5.35644">
        <ele>232</ele>
        <time>2022-04-16T10:18:47Z</time>
      </trkpt>
      <trkpt lat="46.48813" lon="5.35628">
        <ele>232</ele>
        <time>2022-04-16T10:18:49Z</time>
      </trkpt>
      <trkpt lat="46.48838" lon="5.35569">
        <ele>232.2</ele>
        <time>2022-04-16T10:18:56Z</time>
      </trkpt>
      <trkpt lat="46.48866" lon="5.35504">
        <ele>232.4</ele>
        <time>2022-04-16T10:19:04Z</time>
      </trkpt>
      <trkpt lat="46.48897" lon="5.35434">
        <ele>232.2</ele>
        <time>2022-04-16T10:19:12Z</time>
      </trkpt>
      <trkpt lat="46.48908" lon="5.35408">
        <ele>232.2</ele>
        <time>2022-04-16T10:19:15Z</time>
      </trkpt>
      <trkpt lat="46.4894" lon="5.35335">
        <ele>232.4</ele>
        <time>2022-04-16T10:19:23Z</time>
      </trkpt>
      <trkpt lat="46.48944" lon="5.35326">
        <ele>232.4</ele>
        <time>2022-04-16T10:19:24Z</time>
      </trkpt>
      <trkpt lat="46.48971" lon="5.35265">
        <ele>231.8</ele>
        <time>2022-04-16T10:19:31Z</time>
      </trkpt>
      <trkpt lat="46.49002" lon="5.35194">
        <ele>231.8</ele>
        <time>2022-04-16T10:19:40Z</time>
      </trkpt>
      <trkpt lat="46.4902" lon="5.35157">
        <ele>232.2</ele>
        <time>2022-04-16T10:19:45Z</time>
      </trkpt>
      <trkpt lat="46.49023" lon="5.3515">
        <ele>232.4</ele>
        <time>2022-04-16T10:19:46Z</time>
      </trkpt>
      <trkpt lat="46.49037" lon="5.3512">
        <ele>232.6</ele>
        <time>2022-04-16T10:19:50Z</time>
      </trkpt>
      <trkpt lat="46.49042" lon="5.35113">
        <ele>232.6</ele>
        <time>2022-04-16T10:19:51Z</time>
      </trkpt>
      <trkpt lat="46.4907" lon="5.35087">
        <ele>232.8</ele>
        <time>2022-04-16T10:19:56Z</time>
      </trkpt>
      <trkpt lat="46.49119" lon="5.35045">
        <ele>232.4</ele>
        <time>2022-04-16T10:20:04Z</time>
      </trkpt>
      <trkpt lat="46.49152" lon="5.35018">
        <ele>231.2</ele>
        <time>2022-04-16T10:20:09Z</time>
      </trkpt>
      <trkpt lat="46.49193" lon="5.34978">
        <ele>231.2</ele>
        <time>2022-04-16T10:20:16Z</time>
      </trkpt>
      <trkpt lat="46.49229" lon="5.34926">
        <ele>230.6</ele>
        <time>2022-04-16T10:20:23Z</time>
      </trkpt>
      <trkpt lat="46.49258" lon="5.34881">
        <ele>230.4</ele>
        <time>2022-04-16T10:20:29Z</time>
      </trkpt>
      <trkpt lat="46.4928" lon="5.34855">
        <ele>230.4</ele>
        <time>2022-04-16T10:20:33Z</time>
      </trkpt>
      <trkpt lat="46.49291" lon="5.34846">
        <ele>230.4</ele>
        <time>2022-04-16T10:20:35Z</time>
      </trkpt>
      <trkpt lat="46.49304" lon="5.34839">
        <ele>230.6</ele>
        <time>2022-04-16T10:20:37Z</time>
      </trkpt>
      <trkpt lat="46.49324" lon="5.34833">
        <ele>230.4</ele>
        <time>2022-04-16T10:20:40Z</time>
      </trkpt>
      <trkpt lat="46.49374" lon="5.34825">
        <ele>230.4</ele>
        <time>2022-04-16T10:20:48Z</time>
      </trkpt>
      <trkpt lat="46.49386" lon="5.34822">
        <ele>230.6</ele>
        <time>2022-04-16T10:20:50Z</time>
      </trkpt>
      <trkpt lat="46.4941" lon="5.34811">
        <ele>230.8</ele>
        <time>2022-04-16T10:20:54Z</time>
      </trkpt>
      <trkpt lat="46.49449" lon="5.34777">
        <ele>230.4</ele>
        <time>2022-04-16T10:21:01Z</time>
      </trkpt>
      <trkpt lat="46.49469" lon="5.34757">
        <ele>230</ele>
        <time>2022-04-16T10:21:04Z</time>
      </trkpt>
      <trkpt lat="46.49484" lon="5.34742">
        <ele>229.6</ele>
        <time>2022-04-16T10:21:06Z</time>
      </trkpt>
      <trkpt lat="46.49491" lon="5.34734">
        <ele>229</ele>
        <time>2022-04-16T10:21:07Z</time>
      </trkpt>
      <trkpt lat="46.49506" lon="5.34716">
        <ele>227.4</ele>
        <time>2022-04-16T10:21:09Z</time>
      </trkpt>
      <trkpt lat="46.49521" lon="5.34698">
        <ele>226</ele>
        <time>2022-04-16T10:21:11Z</time>
      </trkpt>
      <trkpt lat="46.49528" lon="5.34689">
        <ele>225.2</ele>
        <time>2022-04-16T10:21:12Z</time>
      </trkpt>
      <trkpt lat="46.49535" lon="5.3468">
        <ele>224.6</ele>
        <time>2022-04-16T10:21:13Z</time>
      </trkpt>
      <trkpt lat="46.49558" lon="5.34652">
        <ele>223.4</ele>
        <time>2022-04-16T10:21:16Z</time>
      </trkpt>
      <trkpt lat="46.49574" lon="5.34633">
        <ele>221.6</ele>
        <time>2022-04-16T10:21:18Z</time>
      </trkpt>
      <trkpt lat="46.49581" lon="5.34623">
        <ele>221</ele>
        <time>2022-04-16T10:21:19Z</time>
      </trkpt>
      <trkpt lat="46.49594" lon="5.34603">
        <ele>220.6</ele>
        <time>2022-04-16T10:21:21Z</time>
      </trkpt>
      <trkpt lat="46.49619" lon="5.34566">
        <ele>219.6</ele>
        <time>2022-04-16T10:21:25Z</time>
      </trkpt>
      <trkpt lat="46.49626" lon="5.34559">
        <ele>219.4</ele>
        <time>2022-04-16T10:21:26Z</time>
      </trkpt>
      <trkpt lat="46.49638" lon="5.34547">
        <ele>219</ele>
        <time>2022-04-16T10:21:28Z</time>
      </trkpt>
      <trkpt lat="46.49642" lon="5.34543">
        <ele>219</ele>
        <time>2022-04-16T10:21:29Z</time>
      </trkpt>
      <trkpt lat="46.49646" lon="5.34541">
        <ele>218.8</ele>
        <time>2022-04-16T10:21:30Z</time>
      </trkpt>
      <trkpt lat="46.49653" lon="5.34532">
        <ele>218.8</ele>
        <time>2022-04-16T10:21:32Z</time>
      </trkpt>
      <trkpt lat="46.49656" lon="5.34526">
        <ele>218.8</ele>
        <time>2022-04-16T10:21:33Z</time>
      </trkpt>
      <trkpt lat="46.49658" lon="5.3452">
        <ele>218.8</ele>
        <time>2022-04-16T10:21:34Z</time>
      </trkpt>
      <trkpt lat="46.49668" lon="5.34484">
        <ele>219.2</ele>
        <time>2022-04-16T10:21:39Z</time>
      </trkpt>
      <trkpt lat="46.49674" lon="5.34468">
        <ele>219.4</ele>
        <time>2022-04-16T10:21:41Z</time>
      </trkpt>
      <trkpt lat="46.49684" lon="5.34438">
        <ele>219.8</ele>
        <time>2022-04-16T10:21:45Z</time>
      </trkpt>
      <trkpt lat="46.49696" lon="5.34401">
        <ele>220.4</ele>
        <time>2022-04-16T10:21:50Z</time>
      </trkpt>
      <trkpt lat="46.497" lon="5.34389">
        <ele>220.6</ele>
        <time>2022-04-16T10:21:52Z</time>
      </trkpt>
      <trkpt lat="46.49708" lon="5.34357">
        <ele>221.2</ele>
        <time>2022-04-16T10:21:56Z</time>
      </trkpt>
      <trkpt lat="46.4971" lon="5.34342">
        <ele>221.2</ele>
        <time>2022-04-16T10:21:58Z</time>
      </trkpt>
      <trkpt lat="46.49714" lon="5.34329">
        <ele>221.4</ele>
        <time>2022-04-16T10:22:00Z</time>
      </trkpt>
      <trkpt lat="46.49722" lon="5.34308">
        <ele>222.4</ele>
        <time>2022-04-16T10:22:03Z</time>
      </trkpt>
      <trkpt lat="46.49724" lon="5.34299">
        <ele>222.6</ele>
        <time>2022-04-16T10:22:04Z</time>
      </trkpt>
      <trkpt lat="46.49739" lon="5.34264">
        <ele>223.2</ele>
        <time>2022-04-16T10:22:09Z</time>
      </trkpt>
      <trkpt lat="46.49748" lon="5.34249">
        <ele>223.8</ele>
        <time>2022-04-16T10:22:11Z</time>
      </trkpt>
      <trkpt lat="46.49769" lon="5.34221">
        <ele>224</ele>
        <time>2022-04-16T10:22:16Z</time>
      </trkpt>
      <trkpt lat="46.49772" lon="5.34216">
        <ele>224</ele>
        <time>2022-04-16T10:22:17Z</time>
      </trkpt>
      <trkpt lat="46.49788" lon="5.3419">
        <ele>223.6</ele>
        <time>2022-04-16T10:22:21Z</time>
      </trkpt>
      <trkpt lat="46.49818" lon="5.3414">
        <ele>223.6</ele>
        <time>2022-04-16T10:22:29Z</time>
      </trkpt>
      <trkpt lat="46.49847" lon="5.34092">
        <ele>223.8</ele>
        <time>2022-04-16T10:22:36Z</time>
      </trkpt>
      <trkpt lat="46.49877" lon="5.34055">
        <ele>223.2</ele>
        <time>2022-04-16T10:22:42Z</time>
      </trkpt>
      <trkpt lat="46.49912" lon="5.34015">
        <ele>223</ele>
        <time>2022-04-16T10:22:49Z</time>
      </trkpt>
      <trkpt lat="46.49939" lon="5.33985">
        <ele>224.2</ele>
        <time>2022-04-16T10:22:55Z</time>
      </trkpt>
      <trkpt lat="46.49954" lon="5.33969">
        <ele>224.8</ele>
        <time>2022-04-16T10:22:58Z</time>
      </trkpt>
      <trkpt lat="46.49983" lon="5.33939">
        <ele>225.8</ele>
        <time>2022-04-16T10:23:04Z</time>
      </trkpt>
      <trkpt lat="46.49993" lon="5.3393">
        <ele>226.2</ele>
        <time>2022-04-16T10:23:06Z</time>
      </trkpt>
      <trkpt lat="46.50008" lon="5.33913">
        <ele>226.2</ele>
        <time>2022-04-16T10:23:09Z</time>
      </trkpt>
      <trkpt lat="46.50045" lon="5.33868">
        <ele>225.8</ele>
        <time>2022-04-16T10:23:16Z</time>
      </trkpt>
      <trkpt lat="46.50093" lon="5.33817">
        <ele>224.6</ele>
        <time>2022-04-16T10:23:24Z</time>
      </trkpt>
      <trkpt lat="46.50099" lon="5.3381">
        <ele>224.4</ele>
        <time>2022-04-16T10:23:25Z</time>
      </trkpt>
      <trkpt lat="46.50143" lon="5.33765">
        <ele>223.6</ele>
        <time>2022-04-16T10:23:32Z</time>
      </trkpt>
      <trkpt lat="46.50172" lon="5.33737">
        <ele>223.6</ele>
        <time>2022-04-16T10:23:37Z</time>
      </trkpt>
      <trkpt lat="46.50178" lon="5.33732">
        <ele>223.6</ele>
        <time>2022-04-16T10:23:38Z</time>
      </trkpt>
      <trkpt lat="46.50195" lon="5.33717">
        <ele>223.6</ele>
        <time>2022-04-16T10:23:41Z</time>
      </trkpt>
      <trkpt lat="46.502" lon="5.33711">
        <ele>223.6</ele>
        <time>2022-04-16T10:23:42Z</time>
      </trkpt>
      <trkpt lat="46.50232" lon="5.33674">
        <ele>223.8</ele>
        <time>2022-04-16T10:23:48Z</time>
      </trkpt>
      <trkpt lat="46.50238" lon="5.33667">
        <ele>223.8</ele>
        <time>2022-04-16T10:23:49Z</time>
      </trkpt>
      <trkpt lat="46.50261" lon="5.3364">
        <ele>224</ele>
        <time>2022-04-16T10:23:53Z</time>
      </trkpt>
      <trkpt lat="46.50295" lon="5.33598">
        <ele>223.8</ele>
        <time>2022-04-16T10:23:59Z</time>
      </trkpt>
      <trkpt lat="46.50313" lon="5.3358">
        <ele>223.4</ele>
        <time>2022-04-16T10:24:02Z</time>
      </trkpt>
      <trkpt lat="46.50325" lon="5.33569">
        <ele>223.4</ele>
        <time>2022-04-16T10:24:04Z</time>
      </trkpt>
      <trkpt lat="46.50361" lon="5.33534">
        <ele>222.6</ele>
        <time>2022-04-16T10:24:10Z</time>
      </trkpt>
      <trkpt lat="46.50373" lon="5.33522">
        <ele>222.4</ele>
        <time>2022-04-16T10:24:12Z</time>
      </trkpt>
      <trkpt lat="46.50384" lon="5.3351">
        <ele>222</ele>
        <time>2022-04-16T10:24:14Z</time>
      </trkpt>
      <trkpt lat="46.50403" lon="5.33492">
        <ele>221.6</ele>
        <time>2022-04-16T10:24:17Z</time>
      </trkpt>
      <trkpt lat="46.50439" lon="5.33448">
        <ele>221</ele>
        <time>2022-04-16T10:24:23Z</time>
      </trkpt>
      <trkpt lat="46.50444" lon="5.33439">
        <ele>221</ele>
        <time>2022-04-16T10:24:24Z</time>
      </trkpt>
      <trkpt lat="46.50449" lon="5.3343">
        <ele>220.8</ele>
        <time>2022-04-16T10:24:25Z</time>
      </trkpt>
      <trkpt lat="46.50457" lon="5.3341">
        <ele>220.6</ele>
        <time>2022-04-16T10:24:27Z</time>
      </trkpt>
      <trkpt lat="46.5046" lon="5.334">
        <ele>220.2</ele>
        <time>2022-04-16T10:24:28Z</time>
      </trkpt>
      <trkpt lat="46.50463" lon="5.33377">
        <ele>220</ele>
        <time>2022-04-16T10:24:30Z</time>
      </trkpt>
      <trkpt lat="46.50467" lon="5.33343">
        <ele>219.6</ele>
        <time>2022-04-16T10:24:33Z</time>
      </trkpt>
      <trkpt lat="46.50468" lon="5.33289">
        <ele>219</ele>
        <time>2022-04-16T10:24:38Z</time>
      </trkpt>
      <trkpt lat="46.50468" lon="5.3328">
        <ele>219</ele>
        <time>2022-04-16T10:24:39Z</time>
      </trkpt>
      <trkpt lat="46.5047" lon="5.33249">
        <ele>219.2</ele>
        <time>2022-04-16T10:24:42Z</time>
      </trkpt>
      <trkpt lat="46.5047" lon="5.33241">
        <ele>219.2</ele>
        <time>2022-04-16T10:24:43Z</time>
      </trkpt>
      <trkpt lat="46.5047" lon="5.33213">
        <ele>219.4</ele>
        <time>2022-04-16T10:24:46Z</time>
      </trkpt>
      <trkpt lat="46.50471" lon="5.33187">
        <ele>219.8</ele>
        <time>2022-04-16T10:24:49Z</time>
      </trkpt>
      <trkpt lat="46.50472" lon="5.33132">
        <ele>220</ele>
        <time>2022-04-16T10:24:54Z</time>
      </trkpt>
      <trkpt lat="46.50473" lon="5.33069">
        <ele>219.4</ele>
        <time>2022-04-16T10:24:59Z</time>
      </trkpt>
      <trkpt lat="46.50473" lon="5.33028">
        <ele>218</ele>
        <time>2022-04-16T10:25:02Z</time>
      </trkpt>
      <trkpt lat="46.50474" lon="5.32999">
        <ele>216.6</ele>
        <time>2022-04-16T10:25:04Z</time>
      </trkpt>
      <trkpt lat="46.50474" lon="5.32969">
        <ele>215.8</ele>
        <time>2022-04-16T10:25:06Z</time>
      </trkpt>
      <trkpt lat="46.50474" lon="5.32955">
        <ele>215.4</ele>
        <time>2022-04-16T10:25:07Z</time>
      </trkpt>
      <trkpt lat="46.50475" lon="5.32925">
        <ele>214</ele>
        <time>2022-04-16T10:25:09Z</time>
      </trkpt>
      <trkpt lat="46.50475" lon="5.3291">
        <ele>212.8</ele>
        <time>2022-04-16T10:25:10Z</time>
      </trkpt>
      <trkpt lat="46.50475" lon="5.3288">
        <ele>211.4</ele>
        <time>2022-04-16T10:25:12Z</time>
      </trkpt>
      <trkpt lat="46.50476" lon="5.32849">
        <ele>210.2</ele>
        <time>2022-04-16T10:25:14Z</time>
      </trkpt>
      <trkpt lat="46.50476" lon="5.32819">
        <ele>209.2</ele>
        <time>2022-04-16T10:25:16Z</time>
      </trkpt>
      <trkpt lat="46.50477" lon="5.32804">
        <ele>208.2</ele>
        <time>2022-04-16T10:25:17Z</time>
      </trkpt>
      <trkpt lat="46.50477" lon="5.32749">
        <ele>206.6</ele>
        <time>2022-04-16T10:25:21Z</time>
      </trkpt>
      <trkpt lat="46.50478" lon="5.32722">
        <ele>206</ele>
        <time>2022-04-16T10:25:23Z</time>
      </trkpt>
      <trkpt lat="46.50478" lon="5.32684">
        <ele>205.6</ele>
        <time>2022-04-16T10:25:26Z</time>
      </trkpt>
      <trkpt lat="46.50479" lon="5.32633">
        <ele>205.4</ele>
        <time>2022-04-16T10:25:30Z</time>
      </trkpt>
      <trkpt lat="46.50476" lon="5.32546">
        <ele>205</ele>
        <time>2022-04-16T10:25:37Z</time>
      </trkpt>
      <trkpt lat="46.50474" lon="5.3251">
        <ele>204.6</ele>
        <time>2022-04-16T10:25:40Z</time>
      </trkpt>
      <trkpt lat="46.5047" lon="5.32461">
        <ele>203.8</ele>
        <time>2022-04-16T10:25:44Z</time>
      </trkpt>
      <trkpt lat="46.50465" lon="5.32427">
        <ele>203.4</ele>
        <time>2022-04-16T10:25:47Z</time>
      </trkpt>
      <trkpt lat="46.5046" lon="5.32404">
        <ele>203.4</ele>
        <time>2022-04-16T10:25:49Z</time>
      </trkpt>
      <trkpt lat="46.50458" lon="5.32393">
        <ele>203.4</ele>
        <time>2022-04-16T10:25:50Z</time>
      </trkpt>
      <trkpt lat="46.50441" lon="5.32316">
        <ele>203.2</ele>
        <time>2022-04-16T10:25:57Z</time>
      </trkpt>
      <trkpt lat="46.50436" lon="5.32285">
        <ele>203</ele>
        <time>2022-04-16T10:26:00Z</time>
      </trkpt>
      <trkpt lat="46.50432" lon="5.3222">
        <ele>203</ele>
        <time>2022-04-16T10:26:06Z</time>
      </trkpt>
      <trkpt lat="46.50433" lon="5.32211">
        <ele>202.8</ele>
        <time>2022-04-16T10:26:07Z</time>
      </trkpt>
      <trkpt lat="46.50437" lon="5.32202">
        <ele>202.6</ele>
        <time>2022-04-16T10:26:08Z</time>
      </trkpt>
      <trkpt lat="46.50448" lon="5.3219">
        <ele>202.6</ele>
        <time>2022-04-16T10:26:10Z</time>
      </trkpt>
      <trkpt lat="46.50459" lon="5.3218">
        <ele>202.4</ele>
        <time>2022-04-16T10:26:12Z</time>
      </trkpt>
      <trkpt lat="46.50467" lon="5.32165">
        <ele>202.4</ele>
        <time>2022-04-16T10:26:14Z</time>
      </trkpt>
      <trkpt lat="46.50487" lon="5.32104">
        <ele>202.4</ele>
        <time>2022-04-16T10:26:21Z</time>
      </trkpt>
      <trkpt lat="46.50518" lon="5.32042">
        <ele>203</ele>
        <time>2022-04-16T10:26:29Z</time>
      </trkpt>
      <trkpt lat="46.50522" lon="5.32035">
        <ele>202.8</ele>
        <time>2022-04-16T10:26:30Z</time>
      </trkpt>
      <trkpt lat="46.50543" lon="5.32005">
        <ele>202.8</ele>
        <time>2022-04-16T10:26:35Z</time>
      </trkpt>
      <trkpt lat="46.50554" lon="5.31988">
        <ele>203</ele>
        <time>2022-04-16T10:26:38Z</time>
      </trkpt>
      <trkpt lat="46.50561" lon="5.31971">
        <ele>203.6</ele>
        <time>2022-04-16T10:26:41Z</time>
      </trkpt>
      <trkpt lat="46.50567" lon="5.31953">
        <ele>204.6</ele>
        <time>2022-04-16T10:26:44Z</time>
      </trkpt>
      <trkpt lat="46.50573" lon="5.31937">
        <ele>205.2</ele>
        <time>2022-04-16T10:26:47Z</time>
      </trkpt>
      <trkpt lat="46.50576" lon="5.31926">
        <ele>205.8</ele>
        <time>2022-04-16T10:26:49Z</time>
      </trkpt>
      <trkpt lat="46.50583" lon="5.31904">
        <ele>207.2</ele>
        <time>2022-04-16T10:26:53Z</time>
      </trkpt>
      <trkpt lat="46.50588" lon="5.31887">
        <ele>208.4</ele>
        <time>2022-04-16T10:26:56Z</time>
      </trkpt>
      <trkpt lat="46.5059" lon="5.31882">
        <ele>208.4</ele>
        <time>2022-04-16T10:26:57Z</time>
      </trkpt>
      <trkpt lat="46.50603" lon="5.31852">
        <ele>209</ele>
        <time>2022-04-16T10:27:03Z</time>
      </trkpt>
      <trkpt lat="46.50608" lon="5.31836">
        <ele>209.4</ele>
        <time>2022-04-16T10:27:06Z</time>
      </trkpt>
      <trkpt lat="46.50614" lon="5.3182">
        <ele>210</ele>
        <time>2022-04-16T10:27:09Z</time>
      </trkpt>
      <trkpt lat="46.50618" lon="5.31809">
        <ele>210.6</ele>
        <time>2022-04-16T10:27:11Z</time>
      </trkpt>
      <trkpt lat="46.50626" lon="5.31783">
        <ele>211.8</ele>
        <time>2022-04-16T10:27:15Z</time>
      </trkpt>
      <trkpt lat="46.50628" lon="5.31776">
        <ele>211.8</ele>
        <time>2022-04-16T10:27:16Z</time>
      </trkpt>
      <trkpt lat="46.50635" lon="5.31756">
        <ele>212.2</ele>
        <time>2022-04-16T10:27:19Z</time>
      </trkpt>
      <trkpt lat="46.50645" lon="5.31737">
        <ele>212.2</ele>
        <time>2022-04-16T10:27:22Z</time>
      </trkpt>
      <trkpt lat="46.50653" lon="5.31726">
        <ele>212.4</ele>
        <time>2022-04-16T10:27:24Z</time>
      </trkpt>
      <trkpt lat="46.50663" lon="5.31717">
        <ele>212.4</ele>
        <time>2022-04-16T10:27:26Z</time>
      </trkpt>
      <trkpt lat="46.50668" lon="5.31714">
        <ele>212.4</ele>
        <time>2022-04-16T10:27:27Z</time>
      </trkpt>
      <trkpt lat="46.50673" lon="5.31712">
        <ele>212.4</ele>
        <time>2022-04-16T10:27:28Z</time>
      </trkpt>
      <trkpt lat="46.50685" lon="5.3171">
        <ele>212.4</ele>
        <time>2022-04-16T10:27:30Z</time>
      </trkpt>
      <trkpt lat="46.50696" lon="5.31709">
        <ele>212.4</ele>
        <time>2022-04-16T10:27:32Z</time>
      </trkpt>
      <trkpt lat="46.50743" lon="5.31704">
        <ele>212.4</ele>
        <time>2022-04-16T10:27:40Z</time>
      </trkpt>
      <trkpt lat="46.50755" lon="5.31703">
        <ele>212.4</ele>
        <time>2022-04-16T10:27:42Z</time>
      </trkpt>
      <trkpt lat="46.50773" lon="5.31706">
        <ele>212.2</ele>
        <time>2022-04-16T10:27:45Z</time>
      </trkpt>
      <trkpt lat="46.50784" lon="5.31712">
        <ele>212.2</ele>
        <time>2022-04-16T10:27:47Z</time>
      </trkpt>
      <trkpt lat="46.508" lon="5.31725">
        <ele>212.6</ele>
        <time>2022-04-16T10:27:50Z</time>
      </trkpt>
      <trkpt lat="46.50822" lon="5.31741">
        <ele>213</ele>
        <time>2022-04-16T10:27:54Z</time>
      </trkpt>
      <trkpt lat="46.50833" lon="5.31745">
        <ele>213.2</ele>
        <time>2022-04-16T10:27:56Z</time>
      </trkpt>
      <trkpt lat="46.50844" lon="5.31745">
        <ele>213.4</ele>
        <time>2022-04-16T10:27:58Z</time>
      </trkpt>
      <trkpt lat="46.50854" lon="5.3174">
        <ele>213.6</ele>
        <time>2022-04-16T10:28:00Z</time>
      </trkpt>
      <trkpt lat="46.50877" lon="5.31717">
        <ele>214</ele>
        <time>2022-04-16T10:28:05Z</time>
      </trkpt>
      <trkpt lat="46.50926" lon="5.31667">
        <ele>213.8</ele>
        <time>2022-04-16T10:28:14Z</time>
      </trkpt>
      <trkpt lat="46.50963" lon="5.31627">
        <ele>212.8</ele>
        <time>2022-04-16T10:28:20Z</time>
      </trkpt>
      <trkpt lat="46.50974" lon="5.31615">
        <ele>212.2</ele>
        <time>2022-04-16T10:28:22Z</time>
      </trkpt>
      <trkpt lat="46.51007" lon="5.31583">
        <ele>211.8</ele>
        <time>2022-04-16T10:28:28Z</time>
      </trkpt>
      <trkpt lat="46.51031" lon="5.31557">
        <ele>213</ele>
        <time>2022-04-16T10:28:33Z</time>
      </trkpt>
      <trkpt lat="46.51035" lon="5.3155">
        <ele>213</ele>
        <time>2022-04-16T10:28:34Z</time>
      </trkpt>
      <trkpt lat="46.51038" lon="5.31541">
        <ele>213.2</ele>
        <time>2022-04-16T10:28:35Z</time>
      </trkpt>
      <trkpt lat="46.51046" lon="5.3151">
        <ele>213.2</ele>
        <time>2022-04-16T10:28:38Z</time>
      </trkpt>
      <trkpt lat="46.51061" lon="5.31444">
        <ele>211.8</ele>
        <time>2022-04-16T10:28:44Z</time>
      </trkpt>
      <trkpt lat="46.51066" lon="5.31422">
        <ele>210.4</ele>
        <time>2022-04-16T10:28:46Z</time>
      </trkpt>
      <trkpt lat="46.5107" lon="5.31398">
        <ele>209.6</ele>
        <time>2022-04-16T10:28:48Z</time>
      </trkpt>
      <trkpt lat="46.51071" lon="5.31386">
        <ele>209.4</ele>
        <time>2022-04-16T10:28:49Z</time>
      </trkpt>
      <trkpt lat="46.51072" lon="5.31375">
        <ele>209.2</ele>
        <time>2022-04-16T10:28:50Z</time>
      </trkpt>
      <trkpt lat="46.5107" lon="5.31339">
        <ele>208.4</ele>
        <time>2022-04-16T10:28:53Z</time>
      </trkpt>
      <trkpt lat="46.51072" lon="5.31327">
        <ele>208</ele>
        <time>2022-04-16T10:28:54Z</time>
      </trkpt>
      <trkpt lat="46.51074" lon="5.31315">
        <ele>207.8</ele>
        <time>2022-04-16T10:28:55Z</time>
      </trkpt>
      <trkpt lat="46.51086" lon="5.31295">
        <ele>207.4</ele>
        <time>2022-04-16T10:28:57Z</time>
      </trkpt>
      <trkpt lat="46.51093" lon="5.31286">
        <ele>207</ele>
        <time>2022-04-16T10:28:58Z</time>
      </trkpt>
      <trkpt lat="46.511" lon="5.31276">
        <ele>207</ele>
        <time>2022-04-16T10:28:59Z</time>
      </trkpt>
      <trkpt lat="46.51124" lon="5.31249">
        <ele>205.8</ele>
        <time>2022-04-16T10:29:02Z</time>
      </trkpt>
      <trkpt lat="46.51138" lon="5.3123">
        <ele>204.8</ele>
        <time>2022-04-16T10:29:04Z</time>
      </trkpt>
      <trkpt lat="46.5116" lon="5.31205">
        <ele>203.6</ele>
        <time>2022-04-16T10:29:07Z</time>
      </trkpt>
      <trkpt lat="46.51181" lon="5.31182">
        <ele>203</ele>
        <time>2022-04-16T10:29:10Z</time>
      </trkpt>
      <trkpt lat="46.51194" lon="5.31164">
        <ele>202.6</ele>
        <time>2022-04-16T10:29:12Z</time>
      </trkpt>
      <trkpt lat="46.51221" lon="5.31134">
        <ele>202</ele>
        <time>2022-04-16T10:29:16Z</time>
      </trkpt>
      <trkpt lat="46.51239" lon="5.31105">
        <ele>201.8</ele>
        <time>2022-04-16T10:29:19Z</time>
      </trkpt>
      <trkpt lat="46.51246" lon="5.31097">
        <ele>201.4</ele>
        <time>2022-04-16T10:29:20Z</time>
      </trkpt>
      <trkpt lat="46.51254" lon="5.31091">
        <ele>200.8</ele>
        <time>2022-04-16T10:29:21Z</time>
      </trkpt>
      <trkpt lat="46.51262" lon="5.31087">
        <ele>200.6</ele>
        <time>2022-04-16T10:29:22Z</time>
      </trkpt>
      <trkpt lat="46.51269" lon="5.31084">
        <ele>200.4</ele>
        <time>2022-04-16T10:29:23Z</time>
      </trkpt>
      <trkpt lat="46.51292" lon="5.3108">
        <ele>199.6</ele>
        <time>2022-04-16T10:29:26Z</time>
      </trkpt>
      <trkpt lat="46.51352" lon="5.31079">
        <ele>200</ele>
        <time>2022-04-16T10:29:34Z</time>
      </trkpt>
      <trkpt lat="46.51374" lon="5.31078">
        <ele>200.4</ele>
        <time>2022-04-16T10:29:37Z</time>
      </trkpt>
      <trkpt lat="46.5143" lon="5.31076">
        <ele>200.4</ele>
        <time>2022-04-16T10:29:45Z</time>
      </trkpt>
      <trkpt lat="46.51483" lon="5.31076">
        <ele>200</ele>
        <time>2022-04-16T10:29:53Z</time>
      </trkpt>
      <trkpt lat="46.51541" lon="5.31078">
        <ele>200.6</ele>
        <time>2022-04-16T10:30:02Z</time>
      </trkpt>
      <trkpt lat="46.51547" lon="5.31078">
        <ele>200.6</ele>
        <time>2022-04-16T10:30:03Z</time>
      </trkpt>
      <trkpt lat="46.51588" lon="5.31084">
        <ele>200.6</ele>
        <time>2022-04-16T10:30:10Z</time>
      </trkpt>
      <trkpt lat="46.51632" lon="5.31103">
        <ele>201.4</ele>
        <time>2022-04-16T10:30:18Z</time>
      </trkpt>
      <trkpt lat="46.51637" lon="5.31105">
        <ele>201.6</ele>
        <time>2022-04-16T10:30:19Z</time>
      </trkpt>
      <trkpt lat="46.51647" lon="5.31105">
        <ele>201.6</ele>
        <time>2022-04-16T10:30:21Z</time>
      </trkpt>
      <trkpt lat="46.51652" lon="5.31104">
        <ele>201.8</ele>
        <time>2022-04-16T10:30:22Z</time>
      </trkpt>
      <trkpt lat="46.51665" lon="5.31103">
        <ele>202.2</ele>
        <time>2022-04-16T10:30:25Z</time>
      </trkpt>
      <trkpt lat="46.51669" lon="5.31104">
        <ele>202.6</ele>
        <time>2022-04-16T10:30:26Z</time>
      </trkpt>
      <trkpt lat="46.51671" lon="5.31106">
        <ele>202.8</ele>
        <time>2022-04-16T10:30:27Z</time>
      </trkpt>
      <trkpt lat="46.51674" lon="5.31111">
        <ele>203.4</ele>
        <time>2022-04-16T10:30:30Z</time>
      </trkpt>
      <trkpt lat="46.51683" lon="5.31128">
        <ele>203.6</ele>
        <time>2022-04-16T10:30:34Z</time>
      </trkpt>
      <trkpt lat="46.51694" lon="5.31146">
        <ele>203.6</ele>
        <time>2022-04-16T10:30:37Z</time>
      </trkpt>
      <trkpt lat="46.51704" lon="5.31157">
        <ele>203.4</ele>
        <time>2022-04-16T10:30:39Z</time>
      </trkpt>
      <trkpt lat="46.51721" lon="5.31171">
        <ele>203.2</ele>
        <time>2022-04-16T10:30:42Z</time>
      </trkpt>
      <trkpt lat="46.51734" lon="5.31177">
        <ele>202.8</ele>
        <time>2022-04-16T10:30:44Z</time>
      </trkpt>
      <trkpt lat="46.51741" lon="5.31179">
        <ele>202.4</ele>
        <time>2022-04-16T10:30:45Z</time>
      </trkpt>
      <trkpt lat="46.51763" lon="5.31181">
        <ele>201</ele>
        <time>2022-04-16T10:30:48Z</time>
      </trkpt>
      <trkpt lat="46.5177" lon="5.31182">
        <ele>200.8</ele>
        <time>2022-04-16T10:30:49Z</time>
      </trkpt>
      <trkpt lat="46.51794" lon="5.31182">
        <ele>199.6</ele>
        <time>2022-04-16T10:30:52Z</time>
      </trkpt>
      <trkpt lat="46.51811" lon="5.31182">
        <ele>198</ele>
        <time>2022-04-16T10:30:54Z</time>
      </trkpt>
      <trkpt lat="46.5182" lon="5.31183">
        <ele>197.6</ele>
        <time>2022-04-16T10:30:55Z</time>
      </trkpt>
      <trkpt lat="46.51837" lon="5.31188">
        <ele>196.6</ele>
        <time>2022-04-16T10:30:57Z</time>
      </trkpt>
      <trkpt lat="46.51853" lon="5.31197">
        <ele>196</ele>
        <time>2022-04-16T10:30:59Z</time>
      </trkpt>
      <trkpt lat="46.51879" lon="5.31228">
        <ele>195.6</ele>
        <time>2022-04-16T10:31:03Z</time>
      </trkpt>
      <trkpt lat="46.51885" lon="5.31236">
        <ele>195.4</ele>
        <time>2022-04-16T10:31:04Z</time>
      </trkpt>
      <trkpt lat="46.51917" lon="5.31285">
        <ele>194.8</ele>
        <time>2022-04-16T10:31:10Z</time>
      </trkpt>
      <trkpt lat="46.5195" lon="5.31336">
        <ele>194.8</ele>
        <time>2022-04-16T10:31:17Z</time>
      </trkpt>
      <trkpt lat="46.51992" lon="5.31396">
        <ele>195.4</ele>
        <time>2022-04-16T10:31:26Z</time>
      </trkpt>
      <trkpt lat="46.52018" lon="5.31436">
        <ele>196.6</ele>
        <time>2022-04-16T10:31:32Z</time>
      </trkpt>
      <trkpt lat="46.52031" lon="5.31453">
        <ele>197</ele>
        <time>2022-04-16T10:31:35Z</time>
      </trkpt>
      <trkpt lat="46.52046" lon="5.31478">
        <ele>197.6</ele>
        <time>2022-04-16T10:31:39Z</time>
      </trkpt>
      <trkpt lat="46.52054" lon="5.31489">
        <ele>197.6</ele>
        <time>2022-04-16T10:31:41Z</time>
      </trkpt>
      <trkpt lat="46.52077" lon="5.31522">
        <ele>198.6</ele>
        <time>2022-04-16T10:31:47Z</time>
      </trkpt>
      <trkpt lat="46.52087" lon="5.31537">
        <ele>199.4</ele>
        <time>2022-04-16T10:31:50Z</time>
      </trkpt>
      <trkpt lat="46.52091" lon="5.31543">
        <ele>199.6</ele>
        <time>2022-04-16T10:31:51Z</time>
      </trkpt>
      <trkpt lat="46.5211" lon="5.31572">
        <ele>200.8</ele>
        <time>2022-04-16T10:31:57Z</time>
      </trkpt>
      <trkpt lat="46.52127" lon="5.31598">
        <ele>201.4</ele>
        <time>2022-04-16T10:32:02Z</time>
      </trkpt>
      <trkpt lat="46.5213" lon="5.31604">
        <ele>201.6</ele>
        <time>2022-04-16T10:32:03Z</time>
      </trkpt>
      <trkpt lat="46.52134" lon="5.31608">
        <ele>201.8</ele>
        <time>2022-04-16T10:32:04Z</time>
      </trkpt>
      <trkpt lat="46.52152" lon="5.31634">
        <ele>203</ele>
        <time>2022-04-16T10:32:09Z</time>
      </trkpt>
      <trkpt lat="46.52157" lon="5.3164">
        <ele>203</ele>
        <time>2022-04-16T10:32:10Z</time>
      </trkpt>
      <trkpt lat="46.52191" lon="5.31686">
        <ele>203.8</ele>
        <time>2022-04-16T10:32:19Z</time>
      </trkpt>
      <trkpt lat="46.52203" lon="5.31703">
        <ele>204</ele>
        <time>2022-04-16T10:32:22Z</time>
      </trkpt>
      <trkpt lat="46.52221" lon="5.31729">
        <ele>205</ele>
        <time>2022-04-16T10:32:27Z</time>
      </trkpt>
      <trkpt lat="46.52224" lon="5.31734">
        <ele>205.2</ele>
        <time>2022-04-16T10:32:28Z</time>
      </trkpt>
      <trkpt lat="46.52228" lon="5.31739">
        <ele>205.4</ele>
        <time>2022-04-16T10:32:29Z</time>
      </trkpt>
      <trkpt lat="46.52239" lon="5.31755">
        <ele>206.2</ele>
        <time>2022-04-16T10:32:32Z</time>
      </trkpt>
      <trkpt lat="46.52249" lon="5.3177">
        <ele>206.6</ele>
        <time>2022-04-16T10:32:35Z</time>
      </trkpt>
      <trkpt lat="46.5226" lon="5.31784">
        <ele>207.2</ele>
        <time>2022-04-16T10:32:38Z</time>
      </trkpt>
      <trkpt lat="46.52284" lon="5.31819">
        <ele>208</ele>
        <time>2022-04-16T10:32:45Z</time>
      </trkpt>
      <trkpt lat="46.52287" lon="5.31824">
        <ele>208</ele>
        <time>2022-04-16T10:32:46Z</time>
      </trkpt>
      <trkpt lat="46.52294" lon="5.31833">
        <ele>208.2</ele>
        <time>2022-04-16T10:32:48Z</time>
      </trkpt>
      <trkpt lat="46.52318" lon="5.31868">
        <ele>209.2</ele>
        <time>2022-04-16T10:32:55Z</time>
      </trkpt>
      <trkpt lat="46.52322" lon="5.31872">
        <ele>209.2</ele>
        <time>2022-04-16T10:32:56Z</time>
      </trkpt>
      <trkpt lat="46.52331" lon="5.31886">
        <ele>210.4</ele>
        <time>2022-04-16T10:32:59Z</time>
      </trkpt>
      <trkpt lat="46.52338" lon="5.31895">
        <ele>210.6</ele>
        <time>2022-04-16T10:33:01Z</time>
      </trkpt>
      <trkpt lat="46.52348" lon="5.3191">
        <ele>211.4</ele>
        <time>2022-04-16T10:33:04Z</time>
      </trkpt>
      <trkpt lat="46.52369" lon="5.31939">
        <ele>211.8</ele>
        <time>2022-04-16T10:33:09Z</time>
      </trkpt>
      <trkpt lat="46.52399" lon="5.31981">
        <ele>211.2</ele>
        <time>2022-04-16T10:33:15Z</time>
      </trkpt>
      <trkpt lat="46.52427" lon="5.32021">
        <ele>210</ele>
        <time>2022-04-16T10:33:20Z</time>
      </trkpt>
      <trkpt lat="46.52444" lon="5.32045">
        <ele>208.8</ele>
        <time>2022-04-16T10:33:23Z</time>
      </trkpt>
      <trkpt lat="46.52468" lon="5.32079">
        <ele>207.2</ele>
        <time>2022-04-16T10:33:27Z</time>
      </trkpt>
      <trkpt lat="46.52475" lon="5.32087">
        <ele>207.2</ele>
        <time>2022-04-16T10:33:28Z</time>
      </trkpt>
      <trkpt lat="46.52487" lon="5.32105">
        <ele>206</ele>
        <time>2022-04-16T10:33:30Z</time>
      </trkpt>
      <trkpt lat="46.52511" lon="5.32139">
        <ele>204.8</ele>
        <time>2022-04-16T10:33:34Z</time>
      </trkpt>
      <trkpt lat="46.52524" lon="5.32156">
        <ele>204.2</ele>
        <time>2022-04-16T10:33:36Z</time>
      </trkpt>
      <trkpt lat="46.52531" lon="5.32164">
        <ele>203.8</ele>
        <time>2022-04-16T10:33:37Z</time>
      </trkpt>
      <trkpt lat="46.52562" lon="5.32191">
        <ele>202.6</ele>
        <time>2022-04-16T10:33:41Z</time>
      </trkpt>
      <trkpt lat="46.52598" lon="5.3221">
        <ele>201.2</ele>
        <time>2022-04-16T10:33:45Z</time>
      </trkpt>
      <trkpt lat="46.52607" lon="5.32214">
        <ele>200.6</ele>
        <time>2022-04-16T10:33:46Z</time>
      </trkpt>
      <trkpt lat="46.52617" lon="5.32218">
        <ele>200</ele>
        <time>2022-04-16T10:33:47Z</time>
      </trkpt>
      <trkpt lat="46.52636" lon="5.32229">
        <ele>198.6</ele>
        <time>2022-04-16T10:33:49Z</time>
      </trkpt>
      <trkpt lat="46.52654" lon="5.32242">
        <ele>197.4</ele>
        <time>2022-04-16T10:33:51Z</time>
      </trkpt>
      <trkpt lat="46.52679" lon="5.32264">
        <ele>196.2</ele>
        <time>2022-04-16T10:33:54Z</time>
      </trkpt>
      <trkpt lat="46.52693" lon="5.32279">
        <ele>194.8</ele>
        <time>2022-04-16T10:33:56Z</time>
      </trkpt>
      <trkpt lat="46.52706" lon="5.32295">
        <ele>193.2</ele>
        <time>2022-04-16T10:33:58Z</time>
      </trkpt>
      <trkpt lat="46.52722" lon="5.32316">
        <ele>192.8</ele>
        <time>2022-04-16T10:34:01Z</time>
      </trkpt>
      <trkpt lat="46.52759" lon="5.3236">
        <ele>194</ele>
        <time>2022-04-16T10:34:08Z</time>
      </trkpt>
      <trkpt lat="46.52764" lon="5.32365">
        <ele>194.4</ele>
        <time>2022-04-16T10:34:09Z</time>
      </trkpt>
      <trkpt lat="46.52787" lon="5.32392">
        <ele>195.4</ele>
        <time>2022-04-16T10:34:14Z</time>
      </trkpt>
      <trkpt lat="46.52831" lon="5.3244">
        <ele>194.6</ele>
        <time>2022-04-16T10:34:23Z</time>
      </trkpt>
      <trkpt lat="46.52864" lon="5.32476">
        <ele>194.6</ele>
        <time>2022-04-16T10:34:30Z</time>
      </trkpt>
      <trkpt lat="46.529" lon="5.32511">
        <ele>195.4</ele>
        <time>2022-04-16T10:34:37Z</time>
      </trkpt>
      <trkpt lat="46.52945" lon="5.32557">
        <ele>195.6</ele>
        <time>2022-04-16T10:34:46Z</time>
      </trkpt>
      <trkpt lat="46.52973" lon="5.32585">
        <ele>195.8</ele>
        <time>2022-04-16T10:34:52Z</time>
      </trkpt>
      <trkpt lat="46.52986" lon="5.32598">
        <ele>196.4</ele>
        <time>2022-04-16T10:34:55Z</time>
      </trkpt>
      <trkpt lat="46.52998" lon="5.32611">
        <ele>196.8</ele>
        <time>2022-04-16T10:34:58Z</time>
      </trkpt>
      <trkpt lat="46.53009" lon="5.32622">
        <ele>197.2</ele>
        <time>2022-04-16T10:35:01Z</time>
      </trkpt>
      <trkpt lat="46.53015" lon="5.32629">
        <ele>198.2</ele>
        <time>2022-04-16T10:35:03Z</time>
      </trkpt>
      <trkpt lat="46.53025" lon="5.3264">
        <ele>199.2</ele>
        <time>2022-04-16T10:35:06Z</time>
      </trkpt>
      <trkpt lat="46.53031" lon="5.32646">
        <ele>200</ele>
        <time>2022-04-16T10:35:08Z</time>
      </trkpt>
      <trkpt lat="46.53034" lon="5.32649">
        <ele>200.4</ele>
        <time>2022-04-16T10:35:09Z</time>
      </trkpt>
      <trkpt lat="46.53046" lon="5.32662">
        <ele>200.8</ele>
        <time>2022-04-16T10:35:13Z</time>
      </trkpt>
      <trkpt lat="46.53052" lon="5.32668">
        <ele>201</ele>
        <time>2022-04-16T10:35:15Z</time>
      </trkpt>
      <trkpt lat="46.5306" lon="5.32677">
        <ele>201.4</ele>
        <time>2022-04-16T10:35:18Z</time>
      </trkpt>
      <trkpt lat="46.53068" lon="5.32687">
        <ele>202.4</ele>
        <time>2022-04-16T10:35:21Z</time>
      </trkpt>
      <trkpt lat="46.53074" lon="5.32693">
        <ele>203</ele>
        <time>2022-04-16T10:35:23Z</time>
      </trkpt>
      <trkpt lat="46.5308" lon="5.32699">
        <ele>203.6</ele>
        <time>2022-04-16T10:35:25Z</time>
      </trkpt>
      <trkpt lat="46.531" lon="5.32721">
        <ele>204.8</ele>
        <time>2022-04-16T10:35:32Z</time>
      </trkpt>
      <trkpt lat="46.53103" lon="5.32724">
        <ele>205</ele>
        <time>2022-04-16T10:35:33Z</time>
      </trkpt>
      <trkpt lat="46.53114" lon="5.32737">
        <ele>206</ele>
        <time>2022-04-16T10:35:37Z</time>
      </trkpt>
      <trkpt lat="46.53122" lon="5.32747">
        <ele>206.6</ele>
        <time>2022-04-16T10:35:40Z</time>
      </trkpt>
      <trkpt lat="46.53132" lon="5.3276">
        <ele>207.2</ele>
        <time>2022-04-16T10:35:44Z</time>
      </trkpt>
      <trkpt lat="46.5315" lon="5.32783">
        <ele>208</ele>
        <time>2022-04-16T10:35:51Z</time>
      </trkpt>
      <trkpt lat="46.53155" lon="5.3279">
        <ele>208.2</ele>
        <time>2022-04-16T10:35:53Z</time>
      </trkpt>
      <trkpt lat="46.5317" lon="5.32816">
        <ele>209.2</ele>
        <time>2022-04-16T10:36:00Z</time>
      </trkpt>
      <trkpt lat="46.53172" lon="5.3282">
        <ele>209.6</ele>
        <time>2022-04-16T10:36:01Z</time>
      </trkpt>
      <trkpt lat="46.53171" lon="5.32831">
        <ele>210.2</ele>
        <time>2022-04-16T10:36:04Z</time>
      </trkpt>
      <trkpt lat="46.5317" lon="5.32833">
        <ele>210.4</ele>
        <time>2022-04-16T10:36:05Z</time>
      </trkpt>
      <trkpt lat="46.53169" lon="5.32837">
        <ele>211.8</ele>
        <time>2022-04-16T10:36:08Z</time>
      </trkpt>
      <trkpt lat="46.53169" lon="5.32837">
        <ele>212.2</ele>
        <time>2022-04-16T10:36:09Z</time>
      </trkpt>
      <trkpt lat="46.53169" lon="5.32837">
        <ele>212.8</ele>
        <time>2022-04-16T10:36:10Z</time>
      </trkpt>
      <trkpt lat="46.5317" lon="5.32838">
        <ele>213.6</ele>
        <time>2022-04-16T10:36:13Z</time>
      </trkpt>
      <trkpt lat="46.53172" lon="5.32835">
        <ele>214</ele>
        <time>2022-04-16T10:36:57Z</time>
      </trkpt>
      <trkpt lat="46.53175" lon="5.32833">
        <ele>214</ele>
        <time>2022-04-16T10:36:58Z</time>
      </trkpt>
      <trkpt lat="46.53179" lon="5.32833">
        <ele>213.8</ele>
        <time>2022-04-16T10:36:59Z</time>
      </trkpt>
      <trkpt lat="46.53184" lon="5.32838">
        <ele>213.6</ele>
        <time>2022-04-16T10:37:01Z</time>
      </trkpt>
      <trkpt lat="46.5319" lon="5.32852">
        <ele>213</ele>
        <time>2022-04-16T10:37:04Z</time>
      </trkpt>
      <trkpt lat="46.53193" lon="5.32856">
        <ele>212.6</ele>
        <time>2022-04-16T10:37:05Z</time>
      </trkpt>
      <trkpt lat="46.53195" lon="5.32862">
        <ele>212.6</ele>
        <time>2022-04-16T10:37:06Z</time>
      </trkpt>
      <trkpt lat="46.53206" lon="5.32883">
        <ele>212.6</ele>
        <time>2022-04-16T10:37:10Z</time>
      </trkpt>
      <trkpt lat="46.53211" lon="5.32894">
        <ele>212.6</ele>
        <time>2022-04-16T10:37:12Z</time>
      </trkpt>
      <trkpt lat="46.53219" lon="5.3291">
        <ele>214</ele>
        <time>2022-04-16T10:37:15Z</time>
      </trkpt>
      <trkpt lat="46.53221" lon="5.32915">
        <ele>214.2</ele>
        <time>2022-04-16T10:37:16Z</time>
      </trkpt>
      <trkpt lat="46.53226" lon="5.32924">
        <ele>214.8</ele>
        <time>2022-04-16T10:37:18Z</time>
      </trkpt>
      <trkpt lat="46.53228" lon="5.32929">
        <ele>215.4</ele>
        <time>2022-04-16T10:37:19Z</time>
      </trkpt>
      <trkpt lat="46.5324" lon="5.32954">
        <ele>216.4</ele>
        <time>2022-04-16T10:37:24Z</time>
      </trkpt>
      <trkpt lat="46.5325" lon="5.32973">
        <ele>217.2</ele>
        <time>2022-04-16T10:37:28Z</time>
      </trkpt>
      <trkpt lat="46.5326" lon="5.32992">
        <ele>217.4</ele>
        <time>2022-04-16T10:37:32Z</time>
      </trkpt>
      <trkpt lat="46.53269" lon="5.33012">
        <ele>218.4</ele>
        <time>2022-04-16T10:37:36Z</time>
      </trkpt>
      <trkpt lat="46.53272" lon="5.33018">
        <ele>218.6</ele>
        <time>2022-04-16T10:37:37Z</time>
      </trkpt>
      <trkpt lat="46.53297" lon="5.33059">
        <ele>219</ele>
        <time>2022-04-16T10:37:45Z</time>
      </trkpt>
      <trkpt lat="46.5332" lon="5.3309">
        <ele>219.6</ele>
        <time>2022-04-16T10:37:51Z</time>
      </trkpt>
      <trkpt lat="46.53337" lon="5.33112">
        <ele>220</ele>
        <time>2022-04-16T10:37:55Z</time>
      </trkpt>
      <trkpt lat="46.53376" lon="5.33165">
        <ele>220.2</ele>
        <time>2022-04-16T10:38:04Z</time>
      </trkpt>
      <trkpt lat="46.53411" lon="5.33215">
        <ele>219.8</ele>
        <time>2022-04-16T10:38:12Z</time>
      </trkpt>
      <trkpt lat="46.53453" lon="5.33272">
        <ele>219.4</ele>
        <time>2022-04-16T10:38:21Z</time>
      </trkpt>
      <trkpt lat="46.5349" lon="5.33323">
        <ele>219.2</ele>
        <time>2022-04-16T10:38:29Z</time>
      </trkpt>
      <trkpt lat="46.53528" lon="5.33375">
        <ele>218.6</ele>
        <time>2022-04-16T10:38:37Z</time>
      </trkpt>
      <trkpt lat="46.53543" lon="5.33396">
        <ele>218.4</ele>
        <time>2022-04-16T10:38:40Z</time>
      </trkpt>
      <trkpt lat="46.53574" lon="5.3344">
        <ele>217.6</ele>
        <time>2022-04-16T10:38:46Z</time>
      </trkpt>
      <trkpt lat="46.53579" lon="5.33447">
        <ele>217.4</ele>
        <time>2022-04-16T10:38:47Z</time>
      </trkpt>
      <trkpt lat="46.53595" lon="5.33468">
        <ele>216.4</ele>
        <time>2022-04-16T10:38:50Z</time>
      </trkpt>
      <trkpt lat="46.53605" lon="5.33482">
        <ele>216</ele>
        <time>2022-04-16T10:38:52Z</time>
      </trkpt>
      <trkpt lat="46.53624" lon="5.33509">
        <ele>215.4</ele>
        <time>2022-04-16T10:38:56Z</time>
      </trkpt>
      <trkpt lat="46.53627" lon="5.33514">
        <ele>215.2</ele>
        <time>2022-04-16T10:38:57Z</time>
      </trkpt>
      <trkpt lat="46.53629" lon="5.33518">
        <ele>215.2</ele>
        <time>2022-04-16T10:38:58Z</time>
      </trkpt>
      <trkpt lat="46.5363" lon="5.33524">
        <ele>215.2</ele>
        <time>2022-04-16T10:39:01Z</time>
      </trkpt>
      <trkpt lat="46.53632" lon="5.33525">
        <ele>215.2</ele>
        <time>2022-04-16T10:39:02Z</time>
      </trkpt>
      <trkpt lat="46.53638" lon="5.33523">
        <ele>215</ele>
        <time>2022-04-16T10:39:04Z</time>
      </trkpt>
      <trkpt lat="46.5365" lon="5.33513">
        <ele>215</ele>
        <time>2022-04-16T10:39:07Z</time>
      </trkpt>
      <trkpt lat="46.53659" lon="5.33506">
        <ele>214.8</ele>
        <time>2022-04-16T10:39:09Z</time>
      </trkpt>
      <trkpt lat="46.53664" lon="5.33502">
        <ele>214.6</ele>
        <time>2022-04-16T10:39:10Z</time>
      </trkpt>
      <trkpt lat="46.53685" lon="5.33481">
        <ele>214.6</ele>
        <time>2022-04-16T10:39:15Z</time>
      </trkpt>
      <trkpt lat="46.53695" lon="5.33473">
        <ele>215</ele>
        <time>2022-04-16T10:39:17Z</time>
      </trkpt>
      <trkpt lat="46.53705" lon="5.3347">
        <ele>215.8</ele>
        <time>2022-04-16T10:39:19Z</time>
      </trkpt>
      <trkpt lat="46.5373" lon="5.33481">
        <ele>216.2</ele>
        <time>2022-04-16T10:39:23Z</time>
      </trkpt>
      <trkpt lat="46.5377" lon="5.33505">
        <ele>215.6</ele>
        <time>2022-04-16T10:39:29Z</time>
      </trkpt>
      <trkpt lat="46.53805" lon="5.3353">
        <ele>213.8</ele>
        <time>2022-04-16T10:39:34Z</time>
      </trkpt>
      <trkpt lat="46.53819" lon="5.33537">
        <ele>213</ele>
        <time>2022-04-16T10:39:36Z</time>
      </trkpt>
      <trkpt lat="46.53832" lon="5.33545">
        <ele>212.4</ele>
        <time>2022-04-16T10:39:38Z</time>
      </trkpt>
      <trkpt lat="46.53861" lon="5.33558">
        <ele>211.4</ele>
        <time>2022-04-16T10:39:42Z</time>
      </trkpt>
      <trkpt lat="46.53868" lon="5.3356">
        <ele>211.4</ele>
        <time>2022-04-16T10:39:43Z</time>
      </trkpt>
      <trkpt lat="46.53909" lon="5.33564">
        <ele>211</ele>
        <time>2022-04-16T10:39:48Z</time>
      </trkpt>
      <trkpt lat="46.53935" lon="5.33566">
        <ele>210.2</ele>
        <time>2022-04-16T10:39:51Z</time>
      </trkpt>
      <trkpt lat="46.53963" lon="5.33567">
        <ele>209</ele>
        <time>2022-04-16T10:39:54Z</time>
      </trkpt>
      <trkpt lat="46.53972" lon="5.33568">
        <ele>208.2</ele>
        <time>2022-04-16T10:39:55Z</time>
      </trkpt>
      <trkpt lat="46.53981" lon="5.33568">
        <ele>208</ele>
        <time>2022-04-16T10:39:56Z</time>
      </trkpt>
      <trkpt lat="46.54001" lon="5.33571">
        <ele>206.6</ele>
        <time>2022-04-16T10:39:58Z</time>
      </trkpt>
      <trkpt lat="46.5402" lon="5.33577">
        <ele>205.6</ele>
        <time>2022-04-16T10:40:00Z</time>
      </trkpt>
      <trkpt lat="46.5403" lon="5.33581">
        <ele>205</ele>
        <time>2022-04-16T10:40:01Z</time>
      </trkpt>
      <trkpt lat="46.54039" lon="5.33587">
        <ele>204</ele>
        <time>2022-04-16T10:40:02Z</time>
      </trkpt>
      <trkpt lat="46.54057" lon="5.33598">
        <ele>202.6</ele>
        <time>2022-04-16T10:40:04Z</time>
      </trkpt>
      <trkpt lat="46.54066" lon="5.33604">
        <ele>202.2</ele>
        <time>2022-04-16T10:40:05Z</time>
      </trkpt>
      <trkpt lat="46.54084" lon="5.33615">
        <ele>201.4</ele>
        <time>2022-04-16T10:40:07Z</time>
      </trkpt>
      <trkpt lat="46.54108" lon="5.3363">
        <ele>200.2</ele>
        <time>2022-04-16T10:40:10Z</time>
      </trkpt>
      <trkpt lat="46.54115" lon="5.33634">
        <ele>200</ele>
        <time>2022-04-16T10:40:11Z</time>
      </trkpt>
      <trkpt lat="46.54148" lon="5.33647">
        <ele>200</ele>
        <time>2022-04-16T10:40:16Z</time>
      </trkpt>
      <trkpt lat="46.54182" lon="5.33651">
        <ele>201.4</ele>
        <time>2022-04-16T10:40:22Z</time>
      </trkpt>
      <trkpt lat="46.54203" lon="5.33653">
        <ele>202.4</ele>
        <time>2022-04-16T10:40:26Z</time>
      </trkpt>
      <trkpt lat="46.54212" lon="5.33655">
        <ele>203</ele>
        <time>2022-04-16T10:40:28Z</time>
      </trkpt>
      <trkpt lat="46.54222" lon="5.33655">
        <ele>203.6</ele>
        <time>2022-04-16T10:40:30Z</time>
      </trkpt>
      <trkpt lat="46.54238" lon="5.33657">
        <ele>204.4</ele>
        <time>2022-04-16T10:40:33Z</time>
      </trkpt>
      <trkpt lat="46.54248" lon="5.33657">
        <ele>204.6</ele>
        <time>2022-04-16T10:40:35Z</time>
      </trkpt>
      <trkpt lat="46.54254" lon="5.33657">
        <ele>204.8</ele>
        <time>2022-04-16T10:40:36Z</time>
      </trkpt>
      <trkpt lat="46.54284" lon="5.33659">
        <ele>205.4</ele>
        <time>2022-04-16T10:40:41Z</time>
      </trkpt>
      <trkpt lat="46.54328" lon="5.33662">
        <ele>204.8</ele>
        <time>2022-04-16T10:40:47Z</time>
      </trkpt>
      <trkpt lat="46.54376" lon="5.33672">
        <ele>203</ele>
        <time>2022-04-16T10:40:53Z</time>
      </trkpt>
      <trkpt lat="46.54417" lon="5.3369">
        <ele>202</ele>
        <time>2022-04-16T10:40:59Z</time>
      </trkpt>
      <trkpt lat="46.54434" lon="5.33698">
        <ele>202.2</ele>
        <time>2022-04-16T10:41:02Z</time>
      </trkpt>
      <trkpt lat="46.54449" lon="5.33705">
        <ele>202.8</ele>
        <time>2022-04-16T10:41:05Z</time>
      </trkpt>
      <trkpt lat="46.54453" lon="5.33707">
        <ele>203</ele>
        <time>2022-04-16T10:41:06Z</time>
      </trkpt>
      <trkpt lat="46.54466" lon="5.33712">
        <ele>204.4</ele>
        <time>2022-04-16T10:41:09Z</time>
      </trkpt>
      <trkpt lat="46.54471" lon="5.33713">
        <ele>204.6</ele>
        <time>2022-04-16T10:41:10Z</time>
      </trkpt>
      <trkpt lat="46.54484" lon="5.33719">
        <ele>205.4</ele>
        <time>2022-04-16T10:41:13Z</time>
      </trkpt>
      <trkpt lat="46.54491" lon="5.33722">
        <ele>205.8</ele>
        <time>2022-04-16T10:41:15Z</time>
      </trkpt>
      <trkpt lat="46.54498" lon="5.33726">
        <ele>206.4</ele>
        <time>2022-04-16T10:41:17Z</time>
      </trkpt>
      <trkpt lat="46.54502" lon="5.33729">
        <ele>206.8</ele>
        <time>2022-04-16T10:41:18Z</time>
      </trkpt>
      <trkpt lat="46.54517" lon="5.33739">
        <ele>208</ele>
        <time>2022-04-16T10:41:22Z</time>
      </trkpt>
      <trkpt lat="46.54525" lon="5.33743">
        <ele>208.6</ele>
        <time>2022-04-16T10:41:24Z</time>
      </trkpt>
      <trkpt lat="46.54528" lon="5.33744">
        <ele>209</ele>
        <time>2022-04-16T10:41:25Z</time>
      </trkpt>
      <trkpt lat="46.54542" lon="5.33751">
        <ele>210</ele>
        <time>2022-04-16T10:41:29Z</time>
      </trkpt>
      <trkpt lat="46.54548" lon="5.33755">
        <ele>210.4</ele>
        <time>2022-04-16T10:41:31Z</time>
      </trkpt>
      <trkpt lat="46.54558" lon="5.3376">
        <ele>211.2</ele>
        <time>2022-04-16T10:41:34Z</time>
      </trkpt>
      <trkpt lat="46.54572" lon="5.33765">
        <ele>212.2</ele>
        <time>2022-04-16T10:41:38Z</time>
      </trkpt>
      <trkpt lat="46.54575" lon="5.33767">
        <ele>212.4</ele>
        <time>2022-04-16T10:41:39Z</time>
      </trkpt>
      <trkpt lat="46.54586" lon="5.33772">
        <ele>213.2</ele>
        <time>2022-04-16T10:41:42Z</time>
      </trkpt>
      <trkpt lat="46.54597" lon="5.33774">
        <ele>214.2</ele>
        <time>2022-04-16T10:41:45Z</time>
      </trkpt>
      <trkpt lat="46.54601" lon="5.33775">
        <ele>214.4</ele>
        <time>2022-04-16T10:41:46Z</time>
      </trkpt>
      <trkpt lat="46.54622" lon="5.3378">
        <ele>215.2</ele>
        <time>2022-04-16T10:41:51Z</time>
      </trkpt>
      <trkpt lat="46.54636" lon="5.33784">
        <ele>215.4</ele>
        <time>2022-04-16T10:41:54Z</time>
      </trkpt>
      <trkpt lat="46.54672" lon="5.3379">
        <ele>215.4</ele>
        <time>2022-04-16T10:42:00Z</time>
      </trkpt>
      <trkpt lat="46.54715" lon="5.33785">
        <ele>214.2</ele>
        <time>2022-04-16T10:42:06Z</time>
      </trkpt>
      <trkpt lat="46.54723" lon="5.33783">
        <ele>214</ele>
        <time>2022-04-16T10:42:07Z</time>
      </trkpt>
      <trkpt lat="46.54755" lon="5.33779">
        <ele>212.8</ele>
        <time>2022-04-16T10:42:11Z</time>
      </trkpt>
      <trkpt lat="46.54772" lon="5.33779">
        <ele>212</ele>
        <time>2022-04-16T10:42:13Z</time>
      </trkpt>
      <trkpt lat="46.5478" lon="5.33779">
        <ele>211.4</ele>
        <time>2022-04-16T10:42:14Z</time>
      </trkpt>
      <trkpt lat="46.54821" lon="5.33781">
        <ele>210.6</ele>
        <time>2022-04-16T10:42:19Z</time>
      </trkpt>
      <trkpt lat="46.54838" lon="5.33782">
        <ele>209.4</ele>
        <time>2022-04-16T10:42:21Z</time>
      </trkpt>
      <trkpt lat="46.54846" lon="5.33782">
        <ele>209</ele>
        <time>2022-04-16T10:42:22Z</time>
      </trkpt>
      <trkpt lat="46.5487" lon="5.33778">
        <ele>208.2</ele>
        <time>2022-04-16T10:42:25Z</time>
      </trkpt>
      <trkpt lat="46.54893" lon="5.33773">
        <ele>208</ele>
        <time>2022-04-16T10:42:28Z</time>
      </trkpt>
      <trkpt lat="46.54938" lon="5.33775">
        <ele>207.4</ele>
        <time>2022-04-16T10:42:34Z</time>
      </trkpt>
      <trkpt lat="46.54945" lon="5.33777">
        <ele>207.2</ele>
        <time>2022-04-16T10:42:35Z</time>
      </trkpt>
      <trkpt lat="46.54992" lon="5.33788">
        <ele>206.6</ele>
        <time>2022-04-16T10:42:42Z</time>
      </trkpt>
      <trkpt lat="46.55004" lon="5.33792">
        <ele>206.8</ele>
        <time>2022-04-16T10:42:44Z</time>
      </trkpt>
      <trkpt lat="46.55034" lon="5.33803">
        <ele>207</ele>
        <time>2022-04-16T10:42:49Z</time>
      </trkpt>
      <trkpt lat="46.5507" lon="5.33828">
        <ele>207.4</ele>
        <time>2022-04-16T10:42:56Z</time>
      </trkpt>
      <trkpt lat="46.55096" lon="5.33856">
        <ele>208.4</ele>
        <time>2022-04-16T10:43:02Z</time>
      </trkpt>
      <trkpt lat="46.55103" lon="5.33867">
        <ele>209</ele>
        <time>2022-04-16T10:43:04Z</time>
      </trkpt>
      <trkpt lat="46.5511" lon="5.33877">
        <ele>209.4</ele>
        <time>2022-04-16T10:43:06Z</time>
      </trkpt>
      <trkpt lat="46.55122" lon="5.33893">
        <ele>210</ele>
        <time>2022-04-16T10:43:09Z</time>
      </trkpt>
      <trkpt lat="46.55147" lon="5.33929">
        <ele>210.6</ele>
        <time>2022-04-16T10:43:16Z</time>
      </trkpt>
      <trkpt lat="46.55154" lon="5.33939">
        <ele>211</ele>
        <time>2022-04-16T10:43:18Z</time>
      </trkpt>
      <trkpt lat="46.55162" lon="5.33956">
        <ele>211.8</ele>
        <time>2022-04-16T10:43:21Z</time>
      </trkpt>
      <trkpt lat="46.55172" lon="5.33978">
        <ele>212.8</ele>
        <time>2022-04-16T10:43:25Z</time>
      </trkpt>
      <trkpt lat="46.55178" lon="5.33993">
        <ele>214</ele>
        <time>2022-04-16T10:43:28Z</time>
      </trkpt>
      <trkpt lat="46.55184" lon="5.34015">
        <ele>215</ele>
        <time>2022-04-16T10:43:32Z</time>
      </trkpt>
      <trkpt lat="46.55186" lon="5.34027">
        <ele>215.6</ele>
        <time>2022-04-16T10:43:34Z</time>
      </trkpt>
      <trkpt lat="46.55187" lon="5.34039">
        <ele>216</ele>
        <time>2022-04-16T10:43:36Z</time>
      </trkpt>
      <trkpt lat="46.5519" lon="5.3405">
        <ele>216.6</ele>
        <time>2022-04-16T10:43:38Z</time>
      </trkpt>
      <trkpt lat="46.55196" lon="5.34067">
        <ele>217.2</ele>
        <time>2022-04-16T10:43:41Z</time>
      </trkpt>
      <trkpt lat="46.55203" lon="5.34084">
        <ele>217.4</ele>
        <time>2022-04-16T10:43:44Z</time>
      </trkpt>
      <trkpt lat="46.55204" lon="5.34089">
        <ele>217.4</ele>
        <time>2022-04-16T10:43:45Z</time>
      </trkpt>
      <trkpt lat="46.55206" lon="5.34094">
        <ele>217.6</ele>
        <time>2022-04-16T10:43:46Z</time>
      </trkpt>
      <trkpt lat="46.55213" lon="5.34111">
        <ele>218.2</ele>
        <time>2022-04-16T10:43:49Z</time>
      </trkpt>
      <trkpt lat="46.55215" lon="5.34116">
        <ele>218.2</ele>
        <time>2022-04-16T10:43:50Z</time>
      </trkpt>
      <trkpt lat="46.55217" lon="5.34122">
        <ele>218.6</ele>
        <time>2022-04-16T10:43:51Z</time>
      </trkpt>
      <trkpt lat="46.55221" lon="5.34144">
        <ele>219</ele>
        <time>2022-04-16T10:43:54Z</time>
      </trkpt>
      <trkpt lat="46.55222" lon="5.34149">
        <ele>219.2</ele>
        <time>2022-04-16T10:43:55Z</time>
      </trkpt>
      <trkpt lat="46.55222" lon="5.34157">
        <ele>219.2</ele>
        <time>2022-04-16T10:43:56Z</time>
      </trkpt>
      <trkpt lat="46.55223" lon="5.34165">
        <ele>219.2</ele>
        <time>2022-04-16T10:43:57Z</time>
      </trkpt>
      <trkpt lat="46.55226" lon="5.34183">
        <ele>219.4</ele>
        <time>2022-04-16T10:43:59Z</time>
      </trkpt>
      <trkpt lat="46.55228" lon="5.34193">
        <ele>219.6</ele>
        <time>2022-04-16T10:44:00Z</time>
      </trkpt>
      <trkpt lat="46.55233" lon="5.34222">
        <ele>219.2</ele>
        <time>2022-04-16T10:44:03Z</time>
      </trkpt>
      <trkpt lat="46.55235" lon="5.34231">
        <ele>219</ele>
        <time>2022-04-16T10:44:04Z</time>
      </trkpt>
      <trkpt lat="46.55239" lon="5.34239">
        <ele>219</ele>
        <time>2022-04-16T10:44:05Z</time>
      </trkpt>
      <trkpt lat="46.55248" lon="5.34254">
        <ele>218.6</ele>
        <time>2022-04-16T10:44:07Z</time>
      </trkpt>
      <trkpt lat="46.55267" lon="5.34274">
        <ele>218</ele>
        <time>2022-04-16T10:44:10Z</time>
      </trkpt>
      <trkpt lat="46.55279" lon="5.34286">
        <ele>217.8</ele>
        <time>2022-04-16T10:44:12Z</time>
      </trkpt>
      <trkpt lat="46.55286" lon="5.34292">
        <ele>217.8</ele>
        <time>2022-04-16T10:44:13Z</time>
      </trkpt>
      <trkpt lat="46.55313" lon="5.3432">
        <ele>216.8</ele>
        <time>2022-04-16T10:44:17Z</time>
      </trkpt>
      <trkpt lat="46.55335" lon="5.34342">
        <ele>215.8</ele>
        <time>2022-04-16T10:44:20Z</time>
      </trkpt>
      <trkpt lat="46.55343" lon="5.34351">
        <ele>215.2</ele>
        <time>2022-04-16T10:44:21Z</time>
      </trkpt>
      <trkpt lat="46.55355" lon="5.34364">
        <ele>214.6</ele>
        <time>2022-04-16T10:44:23Z</time>
      </trkpt>
      <trkpt lat="46.55382" lon="5.34393">
        <ele>213.4</ele>
        <time>2022-04-16T10:44:27Z</time>
      </trkpt>
      <trkpt lat="46.55395" lon="5.34407">
        <ele>213.2</ele>
        <time>2022-04-16T10:44:29Z</time>
      </trkpt>
      <trkpt lat="46.5542" lon="5.34434">
        <ele>212.4</ele>
        <time>2022-04-16T10:44:33Z</time>
      </trkpt>
      <trkpt lat="46.55432" lon="5.34446">
        <ele>212.2</ele>
        <time>2022-04-16T10:44:35Z</time>
      </trkpt>
      <trkpt lat="46.5547" lon="5.34486">
        <ele>212.2</ele>
        <time>2022-04-16T10:44:42Z</time>
      </trkpt>
      <trkpt lat="46.55512" lon="5.34525">
        <ele>212.4</ele>
        <time>2022-04-16T10:44:50Z</time>
      </trkpt>
      <trkpt lat="46.55555" lon="5.34548">
        <ele>213</ele>
        <time>2022-04-16T10:44:57Z</time>
      </trkpt>
      <trkpt lat="46.55613" lon="5.34568">
        <ele>211.8</ele>
        <time>2022-04-16T10:45:05Z</time>
      </trkpt>
      <trkpt lat="46.5562" lon="5.34571">
        <ele>211.6</ele>
        <time>2022-04-16T10:45:06Z</time>
      </trkpt>
      <trkpt lat="46.55628" lon="5.34573">
        <ele>211.2</ele>
        <time>2022-04-16T10:45:07Z</time>
      </trkpt>
      <trkpt lat="46.55665" lon="5.34576">
        <ele>210</ele>
        <time>2022-04-16T10:45:11Z</time>
      </trkpt>
      <trkpt lat="46.55684" lon="5.34575">
        <ele>209</ele>
        <time>2022-04-16T10:45:13Z</time>
      </trkpt>
      <trkpt lat="46.55694" lon="5.34575">
        <ele>207.6</ele>
        <time>2022-04-16T10:45:14Z</time>
      </trkpt>
      <trkpt lat="46.55703" lon="5.34576">
        <ele>206.6</ele>
        <time>2022-04-16T10:45:15Z</time>
      </trkpt>
      <trkpt lat="46.55724" lon="5.34579">
        <ele>205.2</ele>
        <time>2022-04-16T10:45:17Z</time>
      </trkpt>
      <trkpt lat="46.55743" lon="5.34583">
        <ele>203.8</ele>
        <time>2022-04-16T10:45:19Z</time>
      </trkpt>
      <trkpt lat="46.55763" lon="5.34588">
        <ele>202.8</ele>
        <time>2022-04-16T10:45:21Z</time>
      </trkpt>
      <trkpt lat="46.55783" lon="5.34593">
        <ele>201.8</ele>
        <time>2022-04-16T10:45:23Z</time>
      </trkpt>
      <trkpt lat="46.55802" lon="5.34598">
        <ele>201.2</ele>
        <time>2022-04-16T10:45:25Z</time>
      </trkpt>
      <trkpt lat="46.55811" lon="5.346">
        <ele>200.6</ele>
        <time>2022-04-16T10:45:26Z</time>
      </trkpt>
      <trkpt lat="46.55846" lon="5.34607">
        <ele>199.6</ele>
        <time>2022-04-16T10:45:30Z</time>
      </trkpt>
      <trkpt lat="46.55854" lon="5.34609">
        <ele>199.6</ele>
        <time>2022-04-16T10:45:31Z</time>
      </trkpt>
      <trkpt lat="46.5591" lon="5.34624">
        <ele>199.2</ele>
        <time>2022-04-16T10:45:38Z</time>
      </trkpt>
      <trkpt lat="46.55927" lon="5.34629">
        <ele>199.2</ele>
        <time>2022-04-16T10:45:40Z</time>
      </trkpt>
      <trkpt lat="46.55973" lon="5.34641">
        <ele>199</ele>
        <time>2022-04-16T10:45:46Z</time>
      </trkpt>
      <trkpt lat="46.56011" lon="5.34651">
        <ele>199.6</ele>
        <time>2022-04-16T10:45:52Z</time>
      </trkpt>
      <trkpt lat="46.56056" lon="5.34662">
        <ele>200</ele>
        <time>2022-04-16T10:45:59Z</time>
      </trkpt>
      <trkpt lat="46.56111" lon="5.34675">
        <ele>200.2</ele>
        <time>2022-04-16T10:46:08Z</time>
      </trkpt>
      <trkpt lat="46.56133" lon="5.34678">
        <ele>200.6</ele>
        <time>2022-04-16T10:46:12Z</time>
      </trkpt>
      <trkpt lat="46.56138" lon="5.34678">
        <ele>200.8</ele>
        <time>2022-04-16T10:46:13Z</time>
      </trkpt>
      <trkpt lat="46.56157" lon="5.3468">
        <ele>201.8</ele>
        <time>2022-04-16T10:46:17Z</time>
      </trkpt>
      <trkpt lat="46.56167" lon="5.3468">
        <ele>202.2</ele>
        <time>2022-04-16T10:46:19Z</time>
      </trkpt>
      <trkpt lat="46.56181" lon="5.34679">
        <ele>202.8</ele>
        <time>2022-04-16T10:46:22Z</time>
      </trkpt>
      <trkpt lat="46.56194" lon="5.34676">
        <ele>203</ele>
        <time>2022-04-16T10:46:25Z</time>
      </trkpt>
      <trkpt lat="46.56207" lon="5.34671">
        <ele>203.8</ele>
        <time>2022-04-16T10:46:28Z</time>
      </trkpt>
      <trkpt lat="46.56223" lon="5.34664">
        <ele>205</ele>
        <time>2022-04-16T10:46:32Z</time>
      </trkpt>
      <trkpt lat="46.56227" lon="5.34662">
        <ele>205.2</ele>
        <time>2022-04-16T10:46:33Z</time>
      </trkpt>
      <trkpt lat="46.5624" lon="5.34658">
        <ele>206</ele>
        <time>2022-04-16T10:46:36Z</time>
      </trkpt>
      <trkpt lat="46.5627" lon="5.34649">
        <ele>207</ele>
        <time>2022-04-16T10:46:43Z</time>
      </trkpt>
      <trkpt lat="46.56295" lon="5.34646">
        <ele>208.2</ele>
        <time>2022-04-16T10:46:49Z</time>
      </trkpt>
      <trkpt lat="46.56303" lon="5.34646">
        <ele>208.6</ele>
        <time>2022-04-16T10:46:51Z</time>
      </trkpt>
      <trkpt lat="46.56319" lon="5.34648">
        <ele>209.2</ele>
        <time>2022-04-16T10:46:55Z</time>
      </trkpt>
      <trkpt lat="46.56323" lon="5.34649">
        <ele>209.2</ele>
        <time>2022-04-16T10:46:56Z</time>
      </trkpt>
      <trkpt lat="46.56332" lon="5.34652">
        <ele>209.6</ele>
        <time>2022-04-16T10:46:58Z</time>
      </trkpt>
      <trkpt lat="46.56337" lon="5.34654">
        <ele>209.8</ele>
        <time>2022-04-16T10:46:59Z</time>
      </trkpt>
      <trkpt lat="46.56361" lon="5.34667">
        <ele>210.2</ele>
        <time>2022-04-16T10:47:04Z</time>
      </trkpt>
      <trkpt lat="46.56366" lon="5.34669">
        <ele>210.4</ele>
        <time>2022-04-16T10:47:05Z</time>
      </trkpt>
      <trkpt lat="46.56401" lon="5.34677">
        <ele>210.2</ele>
        <time>2022-04-16T10:47:11Z</time>
      </trkpt>
      <trkpt lat="46.56427" lon="5.34688">
        <ele>209.8</ele>
        <time>2022-04-16T10:47:15Z</time>
      </trkpt>
      <trkpt lat="46.56448" lon="5.347">
        <ele>209.2</ele>
        <time>2022-04-16T10:47:18Z</time>
      </trkpt>
      <trkpt lat="46.56477" lon="5.34716">
        <ele>208.6</ele>
        <time>2022-04-16T10:47:22Z</time>
      </trkpt>
      <trkpt lat="46.56499" lon="5.34728">
        <ele>208.2</ele>
        <time>2022-04-16T10:47:25Z</time>
      </trkpt>
      <trkpt lat="46.56522" lon="5.34741">
        <ele>207.4</ele>
        <time>2022-04-16T10:47:28Z</time>
      </trkpt>
      <trkpt lat="46.5653" lon="5.34746">
        <ele>206.2</ele>
        <time>2022-04-16T10:47:29Z</time>
      </trkpt>
      <trkpt lat="46.56545" lon="5.34755">
        <ele>204.8</ele>
        <time>2022-04-16T10:47:31Z</time>
      </trkpt>
      <trkpt lat="46.56561" lon="5.34764">
        <ele>203.8</ele>
        <time>2022-04-16T10:47:33Z</time>
      </trkpt>
      <trkpt lat="46.5657" lon="5.34768">
        <ele>202.6</ele>
        <time>2022-04-16T10:47:34Z</time>
      </trkpt>
      <trkpt lat="46.56578" lon="5.34772">
        <ele>202.2</ele>
        <time>2022-04-16T10:47:35Z</time>
      </trkpt>
      <trkpt lat="46.56587" lon="5.34773">
        <ele>201.2</ele>
        <time>2022-04-16T10:47:36Z</time>
      </trkpt>
      <trkpt lat="46.56597" lon="5.34772">
        <ele>200.8</ele>
        <time>2022-04-16T10:47:37Z</time>
      </trkpt>
      <trkpt lat="46.56605" lon="5.34767">
        <ele>200.4</ele>
        <time>2022-04-16T10:47:38Z</time>
      </trkpt>
      <trkpt lat="46.56613" lon="5.3476">
        <ele>200.2</ele>
        <time>2022-04-16T10:47:39Z</time>
      </trkpt>
      <trkpt lat="46.56625" lon="5.34738">
        <ele>199.6</ele>
        <time>2022-04-16T10:47:41Z</time>
      </trkpt>
      <trkpt lat="46.56635" lon="5.34715">
        <ele>199</ele>
        <time>2022-04-16T10:47:43Z</time>
      </trkpt>
      <trkpt lat="46.56648" lon="5.34697">
        <ele>198.4</ele>
        <time>2022-04-16T10:47:45Z</time>
      </trkpt>
      <trkpt lat="46.56664" lon="5.34688">
        <ele>198</ele>
        <time>2022-04-16T10:47:47Z</time>
      </trkpt>
      <trkpt lat="46.56673" lon="5.34685">
        <ele>197.6</ele>
        <time>2022-04-16T10:47:48Z</time>
      </trkpt>
      <trkpt lat="46.5672" lon="5.34669">
        <ele>196.8</ele>
        <time>2022-04-16T10:47:54Z</time>
      </trkpt>
      <trkpt lat="46.56728" lon="5.34666">
        <ele>196.8</ele>
        <time>2022-04-16T10:47:55Z</time>
      </trkpt>
      <trkpt lat="46.56749" lon="5.34659">
        <ele>196.6</ele>
        <time>2022-04-16T10:47:58Z</time>
      </trkpt>
      <trkpt lat="46.56756" lon="5.34661">
        <ele>196.4</ele>
        <time>2022-04-16T10:47:59Z</time>
      </trkpt>
      <trkpt lat="46.56778" lon="5.34675">
        <ele>196.4</ele>
        <time>2022-04-16T10:48:02Z</time>
      </trkpt>
      <trkpt lat="46.56782" lon="5.34684">
        <ele>196.4</ele>
        <time>2022-04-16T10:48:03Z</time>
      </trkpt>
      <trkpt lat="46.56784" lon="5.34694">
        <ele>196.4</ele>
        <time>2022-04-16T10:48:04Z</time>
      </trkpt>
      <trkpt lat="46.56786" lon="5.34705">
        <ele>196.6</ele>
        <time>2022-04-16T10:48:05Z</time>
      </trkpt>
      <trkpt lat="46.56796" lon="5.34769">
        <ele>196.8</ele>
        <time>2022-04-16T10:48:11Z</time>
      </trkpt>
      <trkpt lat="46.5681" lon="5.34855">
        <ele>196.2</ele>
        <time>2022-04-16T10:48:19Z</time>
      </trkpt>
      <trkpt lat="46.56815" lon="5.34885">
        <ele>196.2</ele>
        <time>2022-04-16T10:48:22Z</time>
      </trkpt>
      <trkpt lat="46.56827" lon="5.34949">
        <ele>197</ele>
        <time>2022-04-16T10:48:29Z</time>
      </trkpt>
      <trkpt lat="46.56835" lon="5.34987">
        <ele>197.6</ele>
        <time>2022-04-16T10:48:34Z</time>
      </trkpt>
      <trkpt lat="46.5684" lon="5.35">
        <ele>198</ele>
        <time>2022-04-16T10:48:36Z</time>
      </trkpt>
      <trkpt lat="46.56851" lon="5.35025">
        <ele>199.2</ele>
        <time>2022-04-16T10:48:40Z</time>
      </trkpt>
      <trkpt lat="46.56854" lon="5.3503">
        <ele>199.6</ele>
        <time>2022-04-16T10:48:41Z</time>
      </trkpt>
      <trkpt lat="46.56859" lon="5.35041">
        <ele>200.2</ele>
        <time>2022-04-16T10:48:43Z</time>
      </trkpt>
      <trkpt lat="46.56867" lon="5.35058">
        <ele>200.8</ele>
        <time>2022-04-16T10:48:46Z</time>
      </trkpt>
      <trkpt lat="46.56869" lon="5.35063">
        <ele>201.2</ele>
        <time>2022-04-16T10:48:47Z</time>
      </trkpt>
      <trkpt lat="46.56877" lon="5.35078">
        <ele>202.2</ele>
        <time>2022-04-16T10:48:50Z</time>
      </trkpt>
      <trkpt lat="46.56885" lon="5.35093">
        <ele>203.2</ele>
        <time>2022-04-16T10:48:53Z</time>
      </trkpt>
      <trkpt lat="46.5689" lon="5.35102">
        <ele>204</ele>
        <time>2022-04-16T10:48:55Z</time>
      </trkpt>
      <trkpt lat="46.56894" lon="5.35112">
        <ele>204.6</ele>
        <time>2022-04-16T10:48:57Z</time>
      </trkpt>
      <trkpt lat="46.56896" lon="5.35117">
        <ele>204.6</ele>
        <time>2022-04-16T10:48:58Z</time>
      </trkpt>
      <trkpt lat="46.56898" lon="5.35122">
        <ele>205</ele>
        <time>2022-04-16T10:48:59Z</time>
      </trkpt>
      <trkpt lat="46.56899" lon="5.35127">
        <ele>205.2</ele>
        <time>2022-04-16T10:49:00Z</time>
      </trkpt>
      <trkpt lat="46.56901" lon="5.35131">
        <ele>205.6</ele>
        <time>2022-04-16T10:49:01Z</time>
      </trkpt>
      <trkpt lat="46.56908" lon="5.35145">
        <ele>206.6</ele>
        <time>2022-04-16T10:49:04Z</time>
      </trkpt>
      <trkpt lat="46.56911" lon="5.3515">
        <ele>206.6</ele>
        <time>2022-04-16T10:49:05Z</time>
      </trkpt>
      <trkpt lat="46.56922" lon="5.35163">
        <ele>207.4</ele>
        <time>2022-04-16T10:49:08Z</time>
      </trkpt>
      <trkpt lat="46.56927" lon="5.35167">
        <ele>207.6</ele>
        <time>2022-04-16T10:49:09Z</time>
      </trkpt>
      <trkpt lat="46.56932" lon="5.3517">
        <ele>207.8</ele>
        <time>2022-04-16T10:49:10Z</time>
      </trkpt>
      <trkpt lat="46.56948" lon="5.35182">
        <ele>208.2</ele>
        <time>2022-04-16T10:49:13Z</time>
      </trkpt>
      <trkpt lat="46.56954" lon="5.35187">
        <ele>208.4</ele>
        <time>2022-04-16T10:49:14Z</time>
      </trkpt>
      <trkpt lat="46.56959" lon="5.35193">
        <ele>208.4</ele>
        <time>2022-04-16T10:49:15Z</time>
      </trkpt>
      <trkpt lat="46.56969" lon="5.3521">
        <ele>208.4</ele>
        <time>2022-04-16T10:49:17Z</time>
      </trkpt>
      <trkpt lat="46.56978" lon="5.35243">
        <ele>206.6</ele>
        <time>2022-04-16T10:49:20Z</time>
      </trkpt>
      <trkpt lat="46.5698" lon="5.35254">
        <ele>206.4</ele>
        <time>2022-04-16T10:49:21Z</time>
      </trkpt>
      <trkpt lat="46.56982" lon="5.35266">
        <ele>205.4</ele>
        <time>2022-04-16T10:49:22Z</time>
      </trkpt>
      <trkpt lat="46.56988" lon="5.35291">
        <ele>204.2</ele>
        <time>2022-04-16T10:49:24Z</time>
      </trkpt>
      <trkpt lat="46.56998" lon="5.35326">
        <ele>203.4</ele>
        <time>2022-04-16T10:49:27Z</time>
      </trkpt>
      <trkpt lat="46.57005" lon="5.35349">
        <ele>203</ele>
        <time>2022-04-16T10:49:29Z</time>
      </trkpt>
      <trkpt lat="46.57026" lon="5.35412">
        <ele>202.4</ele>
        <time>2022-04-16T10:49:35Z</time>
      </trkpt>
      <trkpt lat="46.57029" lon="5.35422">
        <ele>202.4</ele>
        <time>2022-04-16T10:49:36Z</time>
      </trkpt>
      <trkpt lat="46.57035" lon="5.35456">
        <ele>202.2</ele>
        <time>2022-04-16T10:49:39Z</time>
      </trkpt>
      <trkpt lat="46.57037" lon="5.35478">
        <ele>202</ele>
        <time>2022-04-16T10:49:41Z</time>
      </trkpt>
      <trkpt lat="46.57038" lon="5.35488">
        <ele>202</ele>
        <time>2022-04-16T10:49:42Z</time>
      </trkpt>
      <trkpt lat="46.5704" lon="5.35509">
        <ele>201.8</ele>
        <time>2022-04-16T10:49:44Z</time>
      </trkpt>
      <trkpt lat="46.57042" lon="5.3554">
        <ele>201.4</ele>
        <time>2022-04-16T10:49:47Z</time>
      </trkpt>
      <trkpt lat="46.57049" lon="5.35606">
        <ele>201</ele>
        <time>2022-04-16T10:49:53Z</time>
      </trkpt>
      <trkpt lat="46.57052" lon="5.35616">
        <ele>200.6</ele>
        <time>2022-04-16T10:49:54Z</time>
      </trkpt>
      <trkpt lat="46.57055" lon="5.35625">
        <ele>200.4</ele>
        <time>2022-04-16T10:49:55Z</time>
      </trkpt>
      <trkpt lat="46.57065" lon="5.35642">
        <ele>200</ele>
        <time>2022-04-16T10:49:57Z</time>
      </trkpt>
      <trkpt lat="46.57077" lon="5.35655">
        <ele>200</ele>
        <time>2022-04-16T10:49:59Z</time>
      </trkpt>
      <trkpt lat="46.57098" lon="5.35681">
        <ele>199.6</ele>
        <time>2022-04-16T10:50:03Z</time>
      </trkpt>
      <trkpt lat="46.57133" lon="5.35724">
        <ele>199.2</ele>
        <time>2022-04-16T10:50:10Z</time>
      </trkpt>
      <trkpt lat="46.57167" lon="5.3575">
        <ele>199.8</ele>
        <time>2022-04-16T10:50:16Z</time>
      </trkpt>
      <trkpt lat="46.57218" lon="5.35782">
        <ele>200.2</ele>
        <time>2022-04-16T10:50:25Z</time>
      </trkpt>
      <trkpt lat="46.57234" lon="5.35793">
        <ele>200</ele>
        <time>2022-04-16T10:50:28Z</time>
      </trkpt>
      <trkpt lat="46.57276" lon="5.3582">
        <ele>200.2</ele>
        <time>2022-04-16T10:50:36Z</time>
      </trkpt>
      <trkpt lat="46.57296" lon="5.35832">
        <ele>200.6</ele>
        <time>2022-04-16T10:50:40Z</time>
      </trkpt>
      <trkpt lat="46.57312" lon="5.35837">
        <ele>200.8</ele>
        <time>2022-04-16T10:50:43Z</time>
      </trkpt>
      <trkpt lat="46.57329" lon="5.3584">
        <ele>201</ele>
        <time>2022-04-16T10:50:46Z</time>
      </trkpt>
      <trkpt lat="46.57335" lon="5.3584">
        <ele>201</ele>
        <time>2022-04-16T10:50:47Z</time>
      </trkpt>
      <trkpt lat="46.57352" lon="5.35836">
        <ele>201.4</ele>
        <time>2022-04-16T10:50:50Z</time>
      </trkpt>
      <trkpt lat="46.57362" lon="5.35827">
        <ele>201.6</ele>
        <time>2022-04-16T10:50:52Z</time>
      </trkpt>
      <trkpt lat="46.5737" lon="5.35816">
        <ele>201.8</ele>
        <time>2022-04-16T10:50:54Z</time>
      </trkpt>
      <trkpt lat="46.57382" lon="5.358">
        <ele>202.2</ele>
        <time>2022-04-16T10:50:57Z</time>
      </trkpt>
      <trkpt lat="46.57391" lon="5.35783">
        <ele>202.4</ele>
        <time>2022-04-16T10:51:00Z</time>
      </trkpt>
      <trkpt lat="46.57397" lon="5.35771">
        <ele>203.2</ele>
        <time>2022-04-16T10:51:02Z</time>
      </trkpt>
      <trkpt lat="46.57409" lon="5.35756">
        <ele>203.6</ele>
        <time>2022-04-16T10:51:05Z</time>
      </trkpt>
      <trkpt lat="46.57414" lon="5.35751">
        <ele>204</ele>
        <time>2022-04-16T10:51:06Z</time>
      </trkpt>
      <trkpt lat="46.57419" lon="5.35747">
        <ele>204.2</ele>
        <time>2022-04-16T10:51:07Z</time>
      </trkpt>
      <trkpt lat="46.57444" lon="5.35731">
        <ele>204.4</ele>
        <time>2022-04-16T10:51:11Z</time>
      </trkpt>
      <trkpt lat="46.57474" lon="5.35711">
        <ele>202.6</ele>
        <time>2022-04-16T10:51:15Z</time>
      </trkpt>
      <trkpt lat="46.57482" lon="5.35706">
        <ele>201.6</ele>
        <time>2022-04-16T10:51:16Z</time>
      </trkpt>
      <trkpt lat="46.5749" lon="5.35701">
        <ele>201.2</ele>
        <time>2022-04-16T10:51:17Z</time>
      </trkpt>
      <trkpt lat="46.57498" lon="5.35695">
        <ele>200.2</ele>
        <time>2022-04-16T10:51:18Z</time>
      </trkpt>
      <trkpt lat="46.57523" lon="5.35678">
        <ele>199.2</ele>
        <time>2022-04-16T10:51:21Z</time>
      </trkpt>
      <trkpt lat="46.57539" lon="5.35664">
        <ele>198.6</ele>
        <time>2022-04-16T10:51:23Z</time>
      </trkpt>
      <trkpt lat="46.57552" lon="5.35646">
        <ele>197.8</ele>
        <time>2022-04-16T10:51:25Z</time>
      </trkpt>
      <trkpt lat="46.57564" lon="5.35627">
        <ele>196.8</ele>
        <time>2022-04-16T10:51:27Z</time>
      </trkpt>
      <trkpt lat="46.57571" lon="5.35617">
        <ele>196.4</ele>
        <time>2022-04-16T10:51:28Z</time>
      </trkpt>
      <trkpt lat="46.57584" lon="5.35599">
        <ele>195.2</ele>
        <time>2022-04-16T10:51:30Z</time>
      </trkpt>
      <trkpt lat="46.576" lon="5.35586">
        <ele>194.8</ele>
        <time>2022-04-16T10:51:32Z</time>
      </trkpt>
      <trkpt lat="46.57636" lon="5.35553">
        <ele>194.2</ele>
        <time>2022-04-16T10:51:37Z</time>
      </trkpt>
      <trkpt lat="46.57657" lon="5.35532">
        <ele>193.8</ele>
        <time>2022-04-16T10:51:40Z</time>
      </trkpt>
      <trkpt lat="46.57662" lon="5.35528">
        <ele>193.8</ele>
        <time>2022-04-16T10:51:41Z</time>
      </trkpt>
      <trkpt lat="46.57694" lon="5.35506">
        <ele>194.2</ele>
        <time>2022-04-16T10:51:46Z</time>
      </trkpt>
      <trkpt lat="46.57724" lon="5.35486">
        <ele>195</ele>
        <time>2022-04-16T10:51:52Z</time>
      </trkpt>
      <trkpt lat="46.57729" lon="5.35483">
        <ele>195.4</ele>
        <time>2022-04-16T10:51:53Z</time>
      </trkpt>
      <trkpt lat="46.57745" lon="5.35471">
        <ele>197.2</ele>
        <time>2022-04-16T10:51:57Z</time>
      </trkpt>
      <trkpt lat="46.57748" lon="5.35469">
        <ele>197.4</ele>
        <time>2022-04-16T10:51:58Z</time>
      </trkpt>
      <trkpt lat="46.57755" lon="5.35464">
        <ele>198.2</ele>
        <time>2022-04-16T10:52:00Z</time>
      </trkpt>
      <trkpt lat="46.57769" lon="5.35455">
        <ele>199.4</ele>
        <time>2022-04-16T10:52:04Z</time>
      </trkpt>
      <trkpt lat="46.57775" lon="5.35449">
        <ele>200</ele>
        <time>2022-04-16T10:52:06Z</time>
      </trkpt>
      <trkpt lat="46.57782" lon="5.35443">
        <ele>200.6</ele>
        <time>2022-04-16T10:52:08Z</time>
      </trkpt>
      <trkpt lat="46.57799" lon="5.35431">
        <ele>201.8</ele>
        <time>2022-04-16T10:52:13Z</time>
      </trkpt>
      <trkpt lat="46.57802" lon="5.35429">
        <ele>202.4</ele>
        <time>2022-04-16T10:52:14Z</time>
      </trkpt>
      <trkpt lat="46.57809" lon="5.35426">
        <ele>203</ele>
        <time>2022-04-16T10:52:16Z</time>
      </trkpt>
      <trkpt lat="46.5782" lon="5.35431">
        <ele>203.6</ele>
        <time>2022-04-16T10:52:19Z</time>
      </trkpt>
      <trkpt lat="46.57824" lon="5.35441">
        <ele>204.2</ele>
        <time>2022-04-16T10:52:21Z</time>
      </trkpt>
      <trkpt lat="46.57825" lon="5.35454">
        <ele>204.4</ele>
        <time>2022-04-16T10:52:23Z</time>
      </trkpt>
      <trkpt lat="46.57829" lon="5.3549">
        <ele>204.6</ele>
        <time>2022-04-16T10:52:28Z</time>
      </trkpt>
      <trkpt lat="46.57831" lon="5.35498">
        <ele>204.6</ele>
        <time>2022-04-16T10:52:29Z</time>
      </trkpt>
      <trkpt lat="46.57847" lon="5.35543">
        <ele>204.4</ele>
        <time>2022-04-16T10:52:34Z</time>
      </trkpt>
      <trkpt lat="46.57869" lon="5.35596">
        <ele>202.8</ele>
        <time>2022-04-16T10:52:39Z</time>
      </trkpt>
      <trkpt lat="46.57873" lon="5.35608">
        <ele>202.4</ele>
        <time>2022-04-16T10:52:40Z</time>
      </trkpt>
      <trkpt lat="46.57878" lon="5.35642">
        <ele>202</ele>
        <time>2022-04-16T10:52:43Z</time>
      </trkpt>
      <trkpt lat="46.57886" lon="5.35688">
        <ele>202</ele>
        <time>2022-04-16T10:52:48Z</time>
      </trkpt>
      <trkpt lat="46.57888" lon="5.35697">
        <ele>202</ele>
        <time>2022-04-16T10:52:49Z</time>
      </trkpt>
      <trkpt lat="46.57895" lon="5.35714">
        <ele>202.4</ele>
        <time>2022-04-16T10:52:51Z</time>
      </trkpt>
      <trkpt lat="46.57904" lon="5.35731">
        <ele>202.6</ele>
        <time>2022-04-16T10:52:53Z</time>
      </trkpt>
      <trkpt lat="46.57935" lon="5.35803">
        <ele>202.8</ele>
        <time>2022-04-16T10:53:01Z</time>
      </trkpt>
      <trkpt lat="46.57937" lon="5.35826">
        <ele>202.6</ele>
        <time>2022-04-16T10:53:03Z</time>
      </trkpt>
      <trkpt lat="46.57937" lon="5.35841">
        <ele>202.2</ele>
        <time>2022-04-16T10:53:04Z</time>
      </trkpt>
      <trkpt lat="46.57932" lon="5.35863">
        <ele>201.6</ele>
        <time>2022-04-16T10:53:06Z</time>
      </trkpt>
      <trkpt lat="46.57925" lon="5.35893">
        <ele>201</ele>
        <time>2022-04-16T10:53:09Z</time>
      </trkpt>
      <trkpt lat="46.57919" lon="5.35915">
        <ele>200.4</ele>
        <time>2022-04-16T10:53:11Z</time>
      </trkpt>
      <trkpt lat="46.57911" lon="5.35962">
        <ele>199.8</ele>
        <time>2022-04-16T10:53:15Z</time>
      </trkpt>
      <trkpt lat="46.57913" lon="5.35977">
        <ele>199.4</ele>
        <time>2022-04-16T10:53:16Z</time>
      </trkpt>
      <trkpt lat="46.57917" lon="5.35988">
        <ele>199.2</ele>
        <time>2022-04-16T10:53:17Z</time>
      </trkpt>
      <trkpt lat="46.57932" lon="5.36003">
        <ele>198.6</ele>
        <time>2022-04-16T10:53:19Z</time>
      </trkpt>
      <trkpt lat="46.57939" lon="5.36008">
        <ele>198</ele>
        <time>2022-04-16T10:53:20Z</time>
      </trkpt>
      <trkpt lat="46.57954" lon="5.3602">
        <ele>197.6</ele>
        <time>2022-04-16T10:53:22Z</time>
      </trkpt>
      <trkpt lat="46.57969" lon="5.36037">
        <ele>197.2</ele>
        <time>2022-04-16T10:53:24Z</time>
      </trkpt>
      <trkpt lat="46.57974" lon="5.36044">
        <ele>197.2</ele>
        <time>2022-04-16T10:53:25Z</time>
      </trkpt>
      <trkpt lat="46.5798" lon="5.36052">
        <ele>197</ele>
        <time>2022-04-16T10:53:26Z</time>
      </trkpt>
      <trkpt lat="46.57986" lon="5.36062">
        <ele>197</ele>
        <time>2022-04-16T10:53:27Z</time>
      </trkpt>
      <trkpt lat="46.57991" lon="5.3607">
        <ele>197.4</ele>
        <time>2022-04-16T10:53:28Z</time>
      </trkpt>
      <trkpt lat="46.57995" lon="5.36077">
        <ele>197.4</ele>
        <time>2022-04-16T10:53:29Z</time>
      </trkpt>
      <trkpt lat="46.58007" lon="5.36107">
        <ele>197.6</ele>
        <time>2022-04-16T10:53:32Z</time>
      </trkpt>
      <trkpt lat="46.58019" lon="5.3614">
        <ele>198</ele>
        <time>2022-04-16T10:53:36Z</time>
      </trkpt>
      <trkpt lat="46.58025" lon="5.36156">
        <ele>198.4</ele>
        <time>2022-04-16T10:53:38Z</time>
      </trkpt>
      <trkpt lat="46.58026" lon="5.36165">
        <ele>198.6</ele>
        <time>2022-04-16T10:53:39Z</time>
      </trkpt>
      <trkpt lat="46.58024" lon="5.36183">
        <ele>199</ele>
        <time>2022-04-16T10:53:41Z</time>
      </trkpt>
      <trkpt lat="46.58025" lon="5.36193">
        <ele>199.2</ele>
        <time>2022-04-16T10:53:42Z</time>
      </trkpt>
      <trkpt lat="46.58022" lon="5.36264">
        <ele>200.2</ele>
        <time>2022-04-16T10:53:49Z</time>
      </trkpt>
      <trkpt lat="46.5802" lon="5.36291">
        <ele>200.2</ele>
        <time>2022-04-16T10:53:52Z</time>
      </trkpt>
      <trkpt lat="46.58022" lon="5.3631">
        <ele>200.2</ele>
        <time>2022-04-16T10:53:54Z</time>
      </trkpt>
      <trkpt lat="46.58028" lon="5.36337">
        <ele>200</ele>
        <time>2022-04-16T10:53:57Z</time>
      </trkpt>
      <trkpt lat="46.58031" lon="5.36345">
        <ele>200</ele>
        <time>2022-04-16T10:53:58Z</time>
      </trkpt>
      <trkpt lat="46.58054" lon="5.36381">
        <ele>200</ele>
        <time>2022-04-16T10:54:03Z</time>
      </trkpt>
      <trkpt lat="46.58072" lon="5.36408">
        <ele>200.2</ele>
        <time>2022-04-16T10:54:07Z</time>
      </trkpt>
      <trkpt lat="46.5809" lon="5.36435">
        <ele>201</ele>
        <time>2022-04-16T10:54:11Z</time>
      </trkpt>
      <trkpt lat="46.58098" lon="5.3645">
        <ele>201.2</ele>
        <time>2022-04-16T10:54:13Z</time>
      </trkpt>
      <trkpt lat="46.58106" lon="5.36464">
        <ele>201.4</ele>
        <time>2022-04-16T10:54:15Z</time>
      </trkpt>
      <trkpt lat="46.58112" lon="5.36479">
        <ele>201.6</ele>
        <time>2022-04-16T10:54:17Z</time>
      </trkpt>
      <trkpt lat="46.58127" lon="5.36528">
        <ele>201.6</ele>
        <time>2022-04-16T10:54:23Z</time>
      </trkpt>
      <trkpt lat="46.58128" lon="5.36546">
        <ele>201.6</ele>
        <time>2022-04-16T10:54:25Z</time>
      </trkpt>
      <trkpt lat="46.58126" lon="5.36563">
        <ele>201.8</ele>
        <time>2022-04-16T10:54:27Z</time>
      </trkpt>
      <trkpt lat="46.58125" lon="5.3659">
        <ele>202</ele>
        <time>2022-04-16T10:54:30Z</time>
      </trkpt>
      <trkpt lat="46.58131" lon="5.3662">
        <ele>202.2</ele>
        <time>2022-04-16T10:54:33Z</time>
      </trkpt>
      <trkpt lat="46.58136" lon="5.36636">
        <ele>202.4</ele>
        <time>2022-04-16T10:54:35Z</time>
      </trkpt>
      <trkpt lat="46.58151" lon="5.36677">
        <ele>202.2</ele>
        <time>2022-04-16T10:54:40Z</time>
      </trkpt>
      <trkpt lat="46.58181" lon="5.36743">
        <ele>201.8</ele>
        <time>2022-04-16T10:54:48Z</time>
      </trkpt>
      <trkpt lat="46.58194" lon="5.36776">
        <ele>201.4</ele>
        <time>2022-04-16T10:54:52Z</time>
      </trkpt>
      <trkpt lat="46.58197" lon="5.36783">
        <ele>201.2</ele>
        <time>2022-04-16T10:54:53Z</time>
      </trkpt>
      <trkpt lat="46.58209" lon="5.36815">
        <ele>202</ele>
        <time>2022-04-16T10:54:57Z</time>
      </trkpt>
      <trkpt lat="46.58218" lon="5.36838">
        <ele>202.6</ele>
        <time>2022-04-16T10:55:00Z</time>
      </trkpt>
      <trkpt lat="46.58236" lon="5.36881">
        <ele>203</ele>
        <time>2022-04-16T10:55:06Z</time>
      </trkpt>
      <trkpt lat="46.58255" lon="5.36929">
        <ele>203.2</ele>
        <time>2022-04-16T10:55:13Z</time>
      </trkpt>
      <trkpt lat="46.58263" lon="5.36948">
        <ele>203.8</ele>
        <time>2022-04-16T10:55:16Z</time>
      </trkpt>
      <trkpt lat="46.58275" lon="5.36973">
        <ele>204</ele>
        <time>2022-04-16T10:55:20Z</time>
      </trkpt>
      <trkpt lat="46.58288" lon="5.36986">
        <ele>204.2</ele>
        <time>2022-04-16T10:55:23Z</time>
      </trkpt>
      <trkpt lat="46.58298" lon="5.36992">
        <ele>204.2</ele>
        <time>2022-04-16T10:55:25Z</time>
      </trkpt>
      <trkpt lat="46.58313" lon="5.37001">
        <ele>204.8</ele>
        <time>2022-04-16T10:55:28Z</time>
      </trkpt>
      <trkpt lat="46.58328" lon="5.37008">
        <ele>205.2</ele>
        <time>2022-04-16T10:55:31Z</time>
      </trkpt>
      <trkpt lat="46.58369" lon="5.37028">
        <ele>206.2</ele>
        <time>2022-04-16T10:55:40Z</time>
      </trkpt>
      <trkpt lat="46.58374" lon="5.3703">
        <ele>206.4</ele>
        <time>2022-04-16T10:55:41Z</time>
      </trkpt>
      <trkpt lat="46.58383" lon="5.37035">
        <ele>207.2</ele>
        <time>2022-04-16T10:55:43Z</time>
      </trkpt>
      <trkpt lat="46.58401" lon="5.37043">
        <ele>208.2</ele>
        <time>2022-04-16T10:55:47Z</time>
      </trkpt>
      <trkpt lat="46.58409" lon="5.37047">
        <ele>208.4</ele>
        <time>2022-04-16T10:55:49Z</time>
      </trkpt>
      <trkpt lat="46.58427" lon="5.37054">
        <ele>209.4</ele>
        <time>2022-04-16T10:55:53Z</time>
      </trkpt>
      <trkpt lat="46.58448" lon="5.37065">
        <ele>210.4</ele>
        <time>2022-04-16T10:55:58Z</time>
      </trkpt>
      <trkpt lat="46.58466" lon="5.37074">
        <ele>211.6</ele>
        <time>2022-04-16T10:56:02Z</time>
      </trkpt>
      <trkpt lat="46.58474" lon="5.37079">
        <ele>211.8</ele>
        <time>2022-04-16T10:56:04Z</time>
      </trkpt>
      <trkpt lat="46.58482" lon="5.37085">
        <ele>212.2</ele>
        <time>2022-04-16T10:56:06Z</time>
      </trkpt>
      <trkpt lat="46.5849" lon="5.37093">
        <ele>212.6</ele>
        <time>2022-04-16T10:56:08Z</time>
      </trkpt>
      <trkpt lat="46.58515" lon="5.37119">
        <ele>213.6</ele>
        <time>2022-04-16T10:56:14Z</time>
      </trkpt>
      <trkpt lat="46.58519" lon="5.37125">
        <ele>213.8</ele>
        <time>2022-04-16T10:56:15Z</time>
      </trkpt>
      <trkpt lat="46.58545" lon="5.3716">
        <ele>214</ele>
        <time>2022-04-16T10:56:20Z</time>
      </trkpt>
      <trkpt lat="46.58561" lon="5.37197">
        <ele>212.4</ele>
        <time>2022-04-16T10:56:24Z</time>
      </trkpt>
      <trkpt lat="46.58568" lon="5.37216">
        <ele>212</ele>
        <time>2022-04-16T10:56:26Z</time>
      </trkpt>
      <trkpt lat="46.58591" lon="5.3729">
        <ele>211.8</ele>
        <time>2022-04-16T10:56:34Z</time>
      </trkpt>
      <trkpt lat="46.58608" lon="5.37361">
        <ele>212</ele>
        <time>2022-04-16T10:56:42Z</time>
      </trkpt>
      <trkpt lat="46.58625" lon="5.37432">
        <ele>212</ele>
        <time>2022-04-16T10:56:50Z</time>
      </trkpt>
      <trkpt lat="46.58645" lon="5.37481">
        <ele>211.4</ele>
        <time>2022-04-16T10:56:56Z</time>
      </trkpt>
      <trkpt lat="46.58675" lon="5.37529">
        <ele>211.4</ele>
        <time>2022-04-16T10:57:03Z</time>
      </trkpt>
      <trkpt lat="46.5871" lon="5.37574">
        <ele>212</ele>
        <time>2022-04-16T10:57:11Z</time>
      </trkpt>
      <trkpt lat="46.58735" lon="5.37605">
        <ele>212.8</ele>
        <time>2022-04-16T10:57:17Z</time>
      </trkpt>
      <trkpt lat="46.58742" lon="5.37615">
        <ele>213.2</ele>
        <time>2022-04-16T10:57:19Z</time>
      </trkpt>
      <trkpt lat="46.58746" lon="5.3762">
        <ele>213.2</ele>
        <time>2022-04-16T10:57:20Z</time>
      </trkpt>
      <trkpt lat="46.58763" lon="5.37639">
        <ele>214</ele>
        <time>2022-04-16T10:57:24Z</time>
      </trkpt>
      <trkpt lat="46.58767" lon="5.37644">
        <ele>214</ele>
        <time>2022-04-16T10:57:25Z</time>
      </trkpt>
      <trkpt lat="46.58787" lon="5.3768">
        <ele>215</ele>
        <time>2022-04-16T10:57:31Z</time>
      </trkpt>
      <trkpt lat="46.5879" lon="5.37687">
        <ele>215.2</ele>
        <time>2022-04-16T10:57:32Z</time>
      </trkpt>
      <trkpt lat="46.58814" lon="5.37739">
        <ele>216</ele>
        <time>2022-04-16T10:57:40Z</time>
      </trkpt>
      <trkpt lat="46.58818" lon="5.37746">
        <ele>216</ele>
        <time>2022-04-16T10:57:41Z</time>
      </trkpt>
      <trkpt lat="46.58839" lon="5.37791">
        <ele>217</ele>
        <time>2022-04-16T10:57:48Z</time>
      </trkpt>
      <trkpt lat="46.58845" lon="5.37804">
        <ele>217.2</ele>
        <time>2022-04-16T10:57:50Z</time>
      </trkpt>
      <trkpt lat="46.58875" lon="5.37848">
        <ele>216.2</ele>
        <time>2022-04-16T10:57:58Z</time>
      </trkpt>
      <trkpt lat="46.58879" lon="5.37853">
        <ele>216</ele>
        <time>2022-04-16T10:57:59Z</time>
      </trkpt>
      <trkpt lat="46.58912" lon="5.37883">
        <ele>216</ele>
        <time>2022-04-16T10:58:06Z</time>
      </trkpt>
      <trkpt lat="46.58947" lon="5.37909">
        <ele>216</ele>
        <time>2022-04-16T10:58:13Z</time>
      </trkpt>
      <trkpt lat="46.58956" lon="5.37921">
        <ele>216</ele>
        <time>2022-04-16T10:58:15Z</time>
      </trkpt>
      <trkpt lat="46.58974" lon="5.37966">
        <ele>216</ele>
        <time>2022-04-16T10:58:21Z</time>
      </trkpt>
      <trkpt lat="46.58999" lon="5.38037">
        <ele>215.2</ele>
        <time>2022-04-16T10:58:30Z</time>
      </trkpt>
      <trkpt lat="46.59002" lon="5.38045">
        <ele>214.8</ele>
        <time>2022-04-16T10:58:31Z</time>
      </trkpt>
      <trkpt lat="46.59025" lon="5.38108">
        <ele>214.2</ele>
        <time>2022-04-16T10:58:39Z</time>
      </trkpt>
      <trkpt lat="46.5905" lon="5.38179">
        <ele>214.6</ele>
        <time>2022-04-16T10:58:48Z</time>
      </trkpt>
      <trkpt lat="46.59059" lon="5.38202">
        <ele>214.8</ele>
        <time>2022-04-16T10:58:51Z</time>
      </trkpt>
      <trkpt lat="46.59079" lon="5.38259">
        <ele>214.4</ele>
        <time>2022-04-16T10:58:58Z</time>
      </trkpt>
      <trkpt lat="46.59103" lon="5.38334">
        <ele>214.2</ele>
        <time>2022-04-16T10:59:07Z</time>
      </trkpt>
      <trkpt lat="46.59111" lon="5.38359">
        <ele>214</ele>
        <time>2022-04-16T10:59:10Z</time>
      </trkpt>
      <trkpt lat="46.59125" lon="5.38401">
        <ele>214</ele>
        <time>2022-04-16T10:59:16Z</time>
      </trkpt>
      <trkpt lat="46.59142" lon="5.3845">
        <ele>213.8</ele>
        <time>2022-04-16T10:59:22Z</time>
      </trkpt>
      <trkpt lat="46.5917" lon="5.38496">
        <ele>214</ele>
        <time>2022-04-16T10:59:29Z</time>
      </trkpt>
      <trkpt lat="46.59174" lon="5.38502">
        <ele>214.2</ele>
        <time>2022-04-16T10:59:30Z</time>
      </trkpt>
      <trkpt lat="46.59195" lon="5.38528">
        <ele>214.8</ele>
        <time>2022-04-16T10:59:35Z</time>
      </trkpt>
      <trkpt lat="46.59204" lon="5.38536">
        <ele>215.2</ele>
        <time>2022-04-16T10:59:37Z</time>
      </trkpt>
      <trkpt lat="46.59221" lon="5.38554">
        <ele>216.2</ele>
        <time>2022-04-16T10:59:41Z</time>
      </trkpt>
      <trkpt lat="46.59226" lon="5.38558">
        <ele>216.6</ele>
        <time>2022-04-16T10:59:42Z</time>
      </trkpt>
      <trkpt lat="46.59252" lon="5.38588">
        <ele>216.8</ele>
        <time>2022-04-16T10:59:47Z</time>
      </trkpt>
      <trkpt lat="46.59297" lon="5.38637">
        <ele>216.6</ele>
        <time>2022-04-16T10:59:55Z</time>
      </trkpt>
      <trkpt lat="46.59303" lon="5.38643">
        <ele>216.4</ele>
        <time>2022-04-16T10:59:56Z</time>
      </trkpt>
      <trkpt lat="46.59329" lon="5.38671">
        <ele>216.4</ele>
        <time>2022-04-16T11:00:01Z</time>
      </trkpt>
      <trkpt lat="46.59363" lon="5.38709">
        <ele>216.2</ele>
        <time>2022-04-16T11:00:08Z</time>
      </trkpt>
      <trkpt lat="46.59407" lon="5.38757">
        <ele>216.2</ele>
        <time>2022-04-16T11:00:17Z</time>
      </trkpt>
      <trkpt lat="46.59412" lon="5.38762">
        <ele>216.2</ele>
        <time>2022-04-16T11:00:18Z</time>
      </trkpt>
      <trkpt lat="46.5943" lon="5.38784">
        <ele>216.8</ele>
        <time>2022-04-16T11:00:22Z</time>
      </trkpt>
      <trkpt lat="46.59434" lon="5.38791">
        <ele>217</ele>
        <time>2022-04-16T11:00:23Z</time>
      </trkpt>
      <trkpt lat="46.59443" lon="5.38814">
        <ele>217.4</ele>
        <time>2022-04-16T11:00:26Z</time>
      </trkpt>
      <trkpt lat="46.59446" lon="5.38831">
        <ele>217.6</ele>
        <time>2022-04-16T11:00:28Z</time>
      </trkpt>
      <trkpt lat="46.5945" lon="5.38884">
        <ele>217.8</ele>
        <time>2022-04-16T11:00:34Z</time>
      </trkpt>
      <trkpt lat="46.59452" lon="5.38893">
        <ele>217.8</ele>
        <time>2022-04-16T11:00:35Z</time>
      </trkpt>
      <trkpt lat="46.59459" lon="5.3892">
        <ele>217.6</ele>
        <time>2022-04-16T11:00:38Z</time>
      </trkpt>
      <trkpt lat="46.59476" lon="5.38972">
        <ele>217</ele>
        <time>2022-04-16T11:00:44Z</time>
      </trkpt>
      <trkpt lat="46.59483" lon="5.39028">
        <ele>216.8</ele>
        <time>2022-04-16T11:00:50Z</time>
      </trkpt>
      <trkpt lat="46.59493" lon="5.39111">
        <ele>216.8</ele>
        <time>2022-04-16T11:00:59Z</time>
      </trkpt>
      <trkpt lat="46.59503" lon="5.39178">
        <ele>217</ele>
        <time>2022-04-16T11:01:07Z</time>
      </trkpt>
      <trkpt lat="46.59509" lon="5.39192">
        <ele>217.2</ele>
        <time>2022-04-16T11:01:09Z</time>
      </trkpt>
      <trkpt lat="46.59518" lon="5.39204">
        <ele>217.4</ele>
        <time>2022-04-16T11:01:11Z</time>
      </trkpt>
      <trkpt lat="46.59529" lon="5.3921">
        <ele>217.6</ele>
        <time>2022-04-16T11:01:13Z</time>
      </trkpt>
      <trkpt lat="46.59541" lon="5.39213">
        <ele>217.8</ele>
        <time>2022-04-16T11:01:15Z</time>
      </trkpt>
      <trkpt lat="46.5957" lon="5.39208">
        <ele>217.8</ele>
        <time>2022-04-16T11:01:20Z</time>
      </trkpt>
      <trkpt lat="46.59576" lon="5.39206">
        <ele>217.8</ele>
        <time>2022-04-16T11:01:21Z</time>
      </trkpt>
      <trkpt lat="46.59609" lon="5.3919">
        <ele>218.2</ele>
        <time>2022-04-16T11:01:27Z</time>
      </trkpt>
      <trkpt lat="46.59615" lon="5.39188">
        <ele>218.2</ele>
        <time>2022-04-16T11:01:28Z</time>
      </trkpt>
      <trkpt lat="46.59633" lon="5.39188">
        <ele>218.2</ele>
        <time>2022-04-16T11:01:31Z</time>
      </trkpt>
      <trkpt lat="46.59677" lon="5.39194">
        <ele>218.4</ele>
        <time>2022-04-16T11:01:39Z</time>
      </trkpt>
      <trkpt lat="46.59682" lon="5.39195">
        <ele>218.8</ele>
        <time>2022-04-16T11:01:40Z</time>
      </trkpt>
      <trkpt lat="46.5972" lon="5.39205">
        <ele>219.8</ele>
        <time>2022-04-16T11:01:47Z</time>
      </trkpt>
      <trkpt lat="46.59729" lon="5.39214">
        <ele>219.8</ele>
        <time>2022-04-16T11:01:49Z</time>
      </trkpt>
      <trkpt lat="46.59733" lon="5.39219">
        <ele>219.8</ele>
        <time>2022-04-16T11:01:50Z</time>
      </trkpt>
      <trkpt lat="46.59738" lon="5.39221">
        <ele>219.8</ele>
        <time>2022-04-16T11:01:51Z</time>
      </trkpt>
      <trkpt lat="46.5975" lon="5.39219">
        <ele>219.8</ele>
        <time>2022-04-16T11:01:53Z</time>
      </trkpt>
      <trkpt lat="46.59767" lon="5.39205">
        <ele>219.6</ele>
        <time>2022-04-16T11:01:56Z</time>
      </trkpt>
      <trkpt lat="46.5978" lon="5.39199">
        <ele>219.4</ele>
        <time>2022-04-16T11:01:58Z</time>
      </trkpt>
      <trkpt lat="46.59813" lon="5.39192">
        <ele>218.6</ele>
        <time>2022-04-16T11:02:03Z</time>
      </trkpt>
      <trkpt lat="46.5982" lon="5.39192">
        <ele>218.6</ele>
        <time>2022-04-16T11:02:04Z</time>
      </trkpt>
      <trkpt lat="46.59864" lon="5.39198">
        <ele>218.4</ele>
        <time>2022-04-16T11:02:11Z</time>
      </trkpt>
      <trkpt lat="46.59876" lon="5.39196">
        <ele>218.4</ele>
        <time>2022-04-16T11:02:13Z</time>
      </trkpt>
      <trkpt lat="46.59901" lon="5.39189">
        <ele>218.4</ele>
        <time>2022-04-16T11:02:17Z</time>
      </trkpt>
      <trkpt lat="46.59914" lon="5.39185">
        <ele>218.4</ele>
        <time>2022-04-16T11:02:19Z</time>
      </trkpt>
      <trkpt lat="46.59941" lon="5.39184">
        <ele>217.8</ele>
        <time>2022-04-16T11:02:23Z</time>
      </trkpt>
      <trkpt lat="46.59949" lon="5.39184">
        <ele>217.6</ele>
        <time>2022-04-16T11:02:24Z</time>
      </trkpt>
      <trkpt lat="46.59984" lon="5.39188">
        <ele>216.2</ele>
        <time>2022-04-16T11:02:29Z</time>
      </trkpt>
      <trkpt lat="46.59991" lon="5.39191">
        <ele>215.8</ele>
        <time>2022-04-16T11:02:30Z</time>
      </trkpt>
      <trkpt lat="46.60011" lon="5.39203">
        <ele>215.2</ele>
        <time>2022-04-16T11:02:33Z</time>
      </trkpt>
      <trkpt lat="46.60023" lon="5.39215">
        <ele>214.8</ele>
        <time>2022-04-16T11:02:35Z</time>
      </trkpt>
      <trkpt lat="46.60039" lon="5.39239">
        <ele>214.2</ele>
        <time>2022-04-16T11:02:38Z</time>
      </trkpt>
      <trkpt lat="46.60043" lon="5.3925">
        <ele>214.2</ele>
        <time>2022-04-16T11:02:39Z</time>
      </trkpt>
      <trkpt lat="46.60046" lon="5.39261">
        <ele>214</ele>
        <time>2022-04-16T11:02:40Z</time>
      </trkpt>
      <trkpt lat="46.60051" lon="5.39285">
        <ele>213.4</ele>
        <time>2022-04-16T11:02:42Z</time>
      </trkpt>
      <trkpt lat="46.60052" lon="5.39298">
        <ele>212.8</ele>
        <time>2022-04-16T11:02:43Z</time>
      </trkpt>
      <trkpt lat="46.60052" lon="5.39325">
        <ele>211.4</ele>
        <time>2022-04-16T11:02:45Z</time>
      </trkpt>
      <trkpt lat="46.6005" lon="5.39351">
        <ele>210.4</ele>
        <time>2022-04-16T11:02:47Z</time>
      </trkpt>
      <trkpt lat="46.60048" lon="5.39364">
        <ele>210</ele>
        <time>2022-04-16T11:02:48Z</time>
      </trkpt>
      <trkpt lat="46.60043" lon="5.39389">
        <ele>209.2</ele>
        <time>2022-04-16T11:02:50Z</time>
      </trkpt>
      <trkpt lat="46.60035" lon="5.39435">
        <ele>208.8</ele>
        <time>2022-04-16T11:02:54Z</time>
      </trkpt>
      <trkpt lat="46.60034" lon="5.39467">
        <ele>208.8</ele>
        <time>2022-04-16T11:02:57Z</time>
      </trkpt>
      <trkpt lat="46.60037" lon="5.39488">
        <ele>209</ele>
        <time>2022-04-16T11:02:59Z</time>
      </trkpt>
      <trkpt lat="46.60043" lon="5.39508">
        <ele>209</ele>
        <time>2022-04-16T11:03:01Z</time>
      </trkpt>
      <trkpt lat="46.60052" lon="5.39528">
        <ele>209</ele>
        <time>2022-04-16T11:03:03Z</time>
      </trkpt>
      <trkpt lat="46.60067" lon="5.3956">
        <ele>208</ele>
        <time>2022-04-16T11:03:06Z</time>
      </trkpt>
      <trkpt lat="46.60081" lon="5.39592">
        <ele>207</ele>
        <time>2022-04-16T11:03:09Z</time>
      </trkpt>
      <trkpt lat="46.60084" lon="5.39603">
        <ele>206.2</ele>
        <time>2022-04-16T11:03:10Z</time>
      </trkpt>
      <trkpt lat="46.60087" lon="5.39628">
        <ele>205.4</ele>
        <time>2022-04-16T11:03:12Z</time>
      </trkpt>
      <trkpt lat="46.60088" lon="5.39641">
        <ele>205</ele>
        <time>2022-04-16T11:03:13Z</time>
      </trkpt>
      <trkpt lat="46.60086" lon="5.39654">
        <ele>204.8</ele>
        <time>2022-04-16T11:03:14Z</time>
      </trkpt>
      <trkpt lat="46.60084" lon="5.39667">
        <ele>204.2</ele>
        <time>2022-04-16T11:03:15Z</time>
      </trkpt>
      <trkpt lat="46.6008" lon="5.39679">
        <ele>204</ele>
        <time>2022-04-16T11:03:16Z</time>
      </trkpt>
      <trkpt lat="46.6007" lon="5.39701">
        <ele>203</ele>
        <time>2022-04-16T11:03:18Z</time>
      </trkpt>
      <trkpt lat="46.60066" lon="5.39711">
        <ele>202.6</ele>
        <time>2022-04-16T11:03:19Z</time>
      </trkpt>
      <trkpt lat="46.60061" lon="5.39736">
        <ele>202</ele>
        <time>2022-04-16T11:03:21Z</time>
      </trkpt>
      <trkpt lat="46.60063" lon="5.39748">
        <ele>201.6</ele>
        <time>2022-04-16T11:03:22Z</time>
      </trkpt>
      <trkpt lat="46.60066" lon="5.3976">
        <ele>201.4</ele>
        <time>2022-04-16T11:03:23Z</time>
      </trkpt>
      <trkpt lat="46.60069" lon="5.39771">
        <ele>201.2</ele>
        <time>2022-04-16T11:03:24Z</time>
      </trkpt>
      <trkpt lat="46.60088" lon="5.39814">
        <ele>200.8</ele>
        <time>2022-04-16T11:03:28Z</time>
      </trkpt>
      <trkpt lat="46.60094" lon="5.39823">
        <ele>200.4</ele>
        <time>2022-04-16T11:03:29Z</time>
      </trkpt>
      <trkpt lat="46.601" lon="5.39831">
        <ele>200.2</ele>
        <time>2022-04-16T11:03:30Z</time>
      </trkpt>
      <trkpt lat="46.60121" lon="5.39849">
        <ele>199.8</ele>
        <time>2022-04-16T11:03:33Z</time>
      </trkpt>
      <trkpt lat="46.60158" lon="5.39883">
        <ele>199.6</ele>
        <time>2022-04-16T11:03:39Z</time>
      </trkpt>
      <trkpt lat="46.60169" lon="5.39896">
        <ele>199.8</ele>
        <time>2022-04-16T11:03:41Z</time>
      </trkpt>
      <trkpt lat="46.60178" lon="5.39912">
        <ele>199.8</ele>
        <time>2022-04-16T11:03:43Z</time>
      </trkpt>
      <trkpt lat="46.60183" lon="5.39929">
        <ele>199.8</ele>
        <time>2022-04-16T11:03:45Z</time>
      </trkpt>
      <trkpt lat="46.60185" lon="5.39947">
        <ele>200.2</ele>
        <time>2022-04-16T11:03:47Z</time>
      </trkpt>
      <trkpt lat="46.60186" lon="5.39965">
        <ele>200.4</ele>
        <time>2022-04-16T11:03:49Z</time>
      </trkpt>
      <trkpt lat="46.60185" lon="5.39981">
        <ele>200.6</ele>
        <time>2022-04-16T11:03:51Z</time>
      </trkpt>
      <trkpt lat="46.60184" lon="5.39996">
        <ele>200.6</ele>
        <time>2022-04-16T11:03:53Z</time>
      </trkpt>
      <trkpt lat="46.60185" lon="5.40028">
        <ele>201.6</ele>
        <time>2022-04-16T11:03:57Z</time>
      </trkpt>
      <trkpt lat="46.60185" lon="5.40036">
        <ele>201.8</ele>
        <time>2022-04-16T11:03:58Z</time>
      </trkpt>
      <trkpt lat="46.60187" lon="5.40059">
        <ele>202.8</ele>
        <time>2022-04-16T11:04:01Z</time>
      </trkpt>
      <trkpt lat="46.60188" lon="5.40075">
        <ele>202.8</ele>
        <time>2022-04-16T11:04:03Z</time>
      </trkpt>
      <trkpt lat="46.60186" lon="5.40128">
        <ele>203.8</ele>
        <time>2022-04-16T11:04:10Z</time>
      </trkpt>
      <trkpt lat="46.60177" lon="5.40175">
        <ele>204.8</ele>
        <time>2022-04-16T11:04:16Z</time>
      </trkpt>
      <trkpt lat="46.60175" lon="5.40184">
        <ele>204.8</ele>
        <time>2022-04-16T11:04:17Z</time>
      </trkpt>
      <trkpt lat="46.60174" lon="5.40193">
        <ele>205</ele>
        <time>2022-04-16T11:04:18Z</time>
      </trkpt>
      <trkpt lat="46.60173" lon="5.40211">
        <ele>205</ele>
        <time>2022-04-16T11:04:20Z</time>
      </trkpt>
      <trkpt lat="46.60174" lon="5.40221">
        <ele>205</ele>
        <time>2022-04-16T11:04:21Z</time>
      </trkpt>
      <trkpt lat="46.60175" lon="5.40229">
        <ele>205</ele>
        <time>2022-04-16T11:04:22Z</time>
      </trkpt>
      <trkpt lat="46.60182" lon="5.40254">
        <ele>205</ele>
        <time>2022-04-16T11:04:25Z</time>
      </trkpt>
      <trkpt lat="46.60205" lon="5.40315">
        <ele>204.6</ele>
        <time>2022-04-16T11:04:33Z</time>
      </trkpt>
      <trkpt lat="46.60217" lon="5.40359">
        <ele>204.8</ele>
        <time>2022-04-16T11:04:39Z</time>
      </trkpt>
      <trkpt lat="46.6022" lon="5.40395">
        <ele>205</ele>
        <time>2022-04-16T11:04:43Z</time>
      </trkpt>
      <trkpt lat="46.60219" lon="5.40405">
        <ele>205.2</ele>
        <time>2022-04-16T11:04:44Z</time>
      </trkpt>
      <trkpt lat="46.60217" lon="5.40452">
        <ele>203.4</ele>
        <time>2022-04-16T11:04:48Z</time>
      </trkpt>
      <trkpt lat="46.60217" lon="5.40464">
        <ele>203</ele>
        <time>2022-04-16T11:04:49Z</time>
      </trkpt>
      <trkpt lat="46.60218" lon="5.4049">
        <ele>202.2</ele>
        <time>2022-04-16T11:04:51Z</time>
      </trkpt>
      <trkpt lat="46.60223" lon="5.40514">
        <ele>201.4</ele>
        <time>2022-04-16T11:04:53Z</time>
      </trkpt>
      <trkpt lat="46.60229" lon="5.40538">
        <ele>200.6</ele>
        <time>2022-04-16T11:04:55Z</time>
      </trkpt>
      <trkpt lat="46.60233" lon="5.40561">
        <ele>200</ele>
        <time>2022-04-16T11:04:57Z</time>
      </trkpt>
      <trkpt lat="46.60234" lon="5.40584">
        <ele>199.8</ele>
        <time>2022-04-16T11:04:59Z</time>
      </trkpt>
      <trkpt lat="46.60231" lon="5.40607">
        <ele>199.6</ele>
        <time>2022-04-16T11:05:01Z</time>
      </trkpt>
      <trkpt lat="46.60228" lon="5.40618">
        <ele>199.4</ele>
        <time>2022-04-16T11:05:02Z</time>
      </trkpt>
      <trkpt lat="46.60225" lon="5.40628">
        <ele>199.4</ele>
        <time>2022-04-16T11:05:03Z</time>
      </trkpt>
      <trkpt lat="46.6021" lon="5.40655">
        <ele>199.2</ele>
        <time>2022-04-16T11:05:06Z</time>
      </trkpt>
      <trkpt lat="46.6018" lon="5.40707">
        <ele>199.2</ele>
        <time>2022-04-16T11:05:12Z</time>
      </trkpt>
      <trkpt lat="46.60174" lon="5.40728">
        <ele>199.2</ele>
        <time>2022-04-16T11:05:14Z</time>
      </trkpt>
      <trkpt lat="46.60171" lon="5.40751">
        <ele>199.2</ele>
        <time>2022-04-16T11:05:16Z</time>
      </trkpt>
      <trkpt lat="46.60172" lon="5.40774">
        <ele>199</ele>
        <time>2022-04-16T11:05:18Z</time>
      </trkpt>
      <trkpt lat="46.60178" lon="5.40796">
        <ele>198.8</ele>
        <time>2022-04-16T11:05:20Z</time>
      </trkpt>
      <trkpt lat="46.60186" lon="5.40815">
        <ele>198.8</ele>
        <time>2022-04-16T11:05:22Z</time>
      </trkpt>
      <trkpt lat="46.6021" lon="5.40841">
        <ele>198.8</ele>
        <time>2022-04-16T11:05:26Z</time>
      </trkpt>
      <trkpt lat="46.60216" lon="5.40846">
        <ele>198.6</ele>
        <time>2022-04-16T11:05:27Z</time>
      </trkpt>
      <trkpt lat="46.6024" lon="5.40864">
        <ele>198.8</ele>
        <time>2022-04-16T11:05:31Z</time>
      </trkpt>
      <trkpt lat="46.60275" lon="5.40892">
        <ele>199.6</ele>
        <time>2022-04-16T11:05:38Z</time>
      </trkpt>
      <trkpt lat="46.6028" lon="5.40896">
        <ele>199.8</ele>
        <time>2022-04-16T11:05:39Z</time>
      </trkpt>
      <trkpt lat="46.60296" lon="5.40913">
        <ele>200.6</ele>
        <time>2022-04-16T11:05:43Z</time>
      </trkpt>
      <trkpt lat="46.603" lon="5.40918">
        <ele>200.8</ele>
        <time>2022-04-16T11:05:44Z</time>
      </trkpt>
      <trkpt lat="46.60302" lon="5.40924">
        <ele>201.2</ele>
        <time>2022-04-16T11:05:45Z</time>
      </trkpt>
      <trkpt lat="46.60311" lon="5.4094">
        <ele>202.2</ele>
        <time>2022-04-16T11:05:48Z</time>
      </trkpt>
      <trkpt lat="46.60319" lon="5.40956">
        <ele>203</ele>
        <time>2022-04-16T11:05:51Z</time>
      </trkpt>
      <trkpt lat="46.60322" lon="5.40961">
        <ele>203.2</ele>
        <time>2022-04-16T11:05:52Z</time>
      </trkpt>
      <trkpt lat="46.60329" lon="5.40975">
        <ele>204.4</ele>
        <time>2022-04-16T11:05:55Z</time>
      </trkpt>
      <trkpt lat="46.60332" lon="5.40979">
        <ele>204.4</ele>
        <time>2022-04-16T11:05:56Z</time>
      </trkpt>
      <trkpt lat="46.60337" lon="5.40987">
        <ele>205.6</ele>
        <time>2022-04-16T11:05:58Z</time>
      </trkpt>
      <trkpt lat="46.6034" lon="5.40991">
        <ele>205.8</ele>
        <time>2022-04-16T11:05:59Z</time>
      </trkpt>
      <trkpt lat="46.60348" lon="5.41">
        <ele>207</ele>
        <time>2022-04-16T11:06:02Z</time>
      </trkpt>
      <trkpt lat="46.60359" lon="5.41008">
        <ele>208.4</ele>
        <time>2022-04-16T11:06:05Z</time>
      </trkpt>
      <trkpt lat="46.60379" lon="5.4102">
        <ele>209.4</ele>
        <time>2022-04-16T11:06:10Z</time>
      </trkpt>
      <trkpt lat="46.60391" lon="5.41029">
        <ele>210.6</ele>
        <time>2022-04-16T11:06:13Z</time>
      </trkpt>
      <trkpt lat="46.60397" lon="5.41036">
        <ele>211.6</ele>
        <time>2022-04-16T11:06:15Z</time>
      </trkpt>
      <trkpt lat="46.60409" lon="5.41055">
        <ele>212.2</ele>
        <time>2022-04-16T11:06:19Z</time>
      </trkpt>
      <trkpt lat="46.60416" lon="5.41073">
        <ele>212.6</ele>
        <time>2022-04-16T11:06:22Z</time>
      </trkpt>
      <trkpt lat="46.60422" lon="5.41093">
        <ele>212.8</ele>
        <time>2022-04-16T11:06:25Z</time>
      </trkpt>
      <trkpt lat="46.60431" lon="5.41113">
        <ele>213</ele>
        <time>2022-04-16T11:06:28Z</time>
      </trkpt>
      <trkpt lat="46.6044" lon="5.41123">
        <ele>213</ele>
        <time>2022-04-16T11:06:30Z</time>
      </trkpt>
      <trkpt lat="46.60464" lon="5.41136">
        <ele>212</ele>
        <time>2022-04-16T11:06:34Z</time>
      </trkpt>
      <trkpt lat="46.60471" lon="5.41138">
        <ele>211.8</ele>
        <time>2022-04-16T11:06:35Z</time>
      </trkpt>
      <trkpt lat="46.60477" lon="5.41139">
        <ele>211.6</ele>
        <time>2022-04-16T11:06:36Z</time>
      </trkpt>
      <trkpt lat="46.60498" lon="5.4114">
        <ele>211.2</ele>
        <time>2022-04-16T11:06:39Z</time>
      </trkpt>
      <trkpt lat="46.60528" lon="5.41141">
        <ele>210.6</ele>
        <time>2022-04-16T11:06:43Z</time>
      </trkpt>
      <trkpt lat="46.60535" lon="5.41141">
        <ele>210.2</ele>
        <time>2022-04-16T11:06:44Z</time>
      </trkpt>
      <trkpt lat="46.60551" lon="5.41142">
        <ele>209.2</ele>
        <time>2022-04-16T11:06:46Z</time>
      </trkpt>
      <trkpt lat="46.6059" lon="5.41151">
        <ele>208.4</ele>
        <time>2022-04-16T11:06:51Z</time>
      </trkpt>
      <trkpt lat="46.60597" lon="5.41153">
        <ele>208.2</ele>
        <time>2022-04-16T11:06:52Z</time>
      </trkpt>
      <trkpt lat="46.6062" lon="5.4116">
        <ele>207</ele>
        <time>2022-04-16T11:06:55Z</time>
      </trkpt>
      <trkpt lat="46.60643" lon="5.41169">
        <ele>205.8</ele>
        <time>2022-04-16T11:06:58Z</time>
      </trkpt>
      <trkpt lat="46.60666" lon="5.41176">
        <ele>205.4</ele>
        <time>2022-04-16T11:07:01Z</time>
      </trkpt>
      <trkpt lat="46.60681" lon="5.41183">
        <ele>205.2</ele>
        <time>2022-04-16T11:07:03Z</time>
      </trkpt>
      <trkpt lat="46.60694" lon="5.41193">
        <ele>205.2</ele>
        <time>2022-04-16T11:07:05Z</time>
      </trkpt>
      <trkpt lat="46.60706" lon="5.41206">
        <ele>204.8</ele>
        <time>2022-04-16T11:07:07Z</time>
      </trkpt>
      <trkpt lat="46.60711" lon="5.41213">
        <ele>204.6</ele>
        <time>2022-04-16T11:07:08Z</time>
      </trkpt>
      <trkpt lat="46.60722" lon="5.41227">
        <ele>204.4</ele>
        <time>2022-04-16T11:07:10Z</time>
      </trkpt>
      <trkpt lat="46.60763" lon="5.41275">
        <ele>205</ele>
        <time>2022-04-16T11:07:18Z</time>
      </trkpt>
      <trkpt lat="46.60795" lon="5.41308">
        <ele>204.8</ele>
        <time>2022-04-16T11:07:24Z</time>
      </trkpt>
      <trkpt lat="46.60821" lon="5.41329">
        <ele>203.4</ele>
        <time>2022-04-16T11:07:28Z</time>
      </trkpt>
      <trkpt lat="46.60828" lon="5.41332">
        <ele>203.2</ele>
        <time>2022-04-16T11:07:29Z</time>
      </trkpt>
      <trkpt lat="46.60836" lon="5.41333">
        <ele>202.8</ele>
        <time>2022-04-16T11:07:30Z</time>
      </trkpt>
      <trkpt lat="46.60849" lon="5.4133">
        <ele>201.8</ele>
        <time>2022-04-16T11:07:32Z</time>
      </trkpt>
      <trkpt lat="46.60861" lon="5.4132">
        <ele>201.2</ele>
        <time>2022-04-16T11:07:34Z</time>
      </trkpt>
      <trkpt lat="46.60873" lon="5.41306">
        <ele>200.8</ele>
        <time>2022-04-16T11:07:36Z</time>
      </trkpt>
      <trkpt lat="46.60879" lon="5.41298">
        <ele>200.8</ele>
        <time>2022-04-16T11:07:37Z</time>
      </trkpt>
      <trkpt lat="46.60921" lon="5.41246">
        <ele>200.4</ele>
        <time>2022-04-16T11:07:44Z</time>
      </trkpt>
      <trkpt lat="46.60934" lon="5.41232">
        <ele>200</ele>
        <time>2022-04-16T11:07:46Z</time>
      </trkpt>
      <trkpt lat="46.6094" lon="5.41225">
        <ele>199.8</ele>
        <time>2022-04-16T11:07:47Z</time>
      </trkpt>
      <trkpt lat="46.60985" lon="5.41182">
        <ele>198.6</ele>
        <time>2022-04-16T11:07:54Z</time>
      </trkpt>
      <trkpt lat="46.60991" lon="5.41177">
        <ele>198.6</ele>
        <time>2022-04-16T11:07:55Z</time>
      </trkpt>
      <trkpt lat="46.61022" lon="5.41154">
        <ele>198.2</ele>
        <time>2022-04-16T11:08:00Z</time>
      </trkpt>
      <trkpt lat="46.61028" lon="5.41152">
        <ele>198.2</ele>
        <time>2022-04-16T11:08:01Z</time>
      </trkpt>
      <trkpt lat="46.6104" lon="5.41151">
        <ele>198.2</ele>
        <time>2022-04-16T11:08:03Z</time>
      </trkpt>
      <trkpt lat="46.6105" lon="5.41158">
        <ele>198.4</ele>
        <time>2022-04-16T11:08:05Z</time>
      </trkpt>
      <trkpt lat="46.61056" lon="5.41184">
        <ele>198.4</ele>
        <time>2022-04-16T11:08:08Z</time>
      </trkpt>
      <trkpt lat="46.61071" lon="5.41238">
        <ele>198.2</ele>
        <time>2022-04-16T11:08:14Z</time>
      </trkpt>
      <trkpt lat="46.61094" lon="5.4128">
        <ele>197.8</ele>
        <time>2022-04-16T11:08:20Z</time>
      </trkpt>
      <trkpt lat="46.61102" lon="5.41294">
        <ele>197.6</ele>
        <time>2022-04-16T11:08:22Z</time>
      </trkpt>
      <trkpt lat="46.61105" lon="5.41301">
        <ele>197.6</ele>
        <time>2022-04-16T11:08:23Z</time>
      </trkpt>
      <trkpt lat="46.61108" lon="5.41308">
        <ele>197.4</ele>
        <time>2022-04-16T11:08:24Z</time>
      </trkpt>
      <trkpt lat="46.61111" lon="5.41316">
        <ele>197.4</ele>
        <time>2022-04-16T11:08:25Z</time>
      </trkpt>
      <trkpt lat="46.61117" lon="5.41356">
        <ele>197.4</ele>
        <time>2022-04-16T11:08:30Z</time>
      </trkpt>
      <trkpt lat="46.61122" lon="5.41414">
        <ele>197.4</ele>
        <time>2022-04-16T11:08:37Z</time>
      </trkpt>
      <trkpt lat="46.61136" lon="5.4147">
        <ele>197.8</ele>
        <time>2022-04-16T11:08:44Z</time>
      </trkpt>
      <trkpt lat="46.61158" lon="5.41518">
        <ele>197.8</ele>
        <time>2022-04-16T11:08:51Z</time>
      </trkpt>
      <trkpt lat="46.61196" lon="5.41578">
        <ele>197.6</ele>
        <time>2022-04-16T11:09:01Z</time>
      </trkpt>
      <trkpt lat="46.612" lon="5.41583">
        <ele>197.6</ele>
        <time>2022-04-16T11:09:02Z</time>
      </trkpt>
      <trkpt lat="46.61231" lon="5.41642">
        <ele>198</ele>
        <time>2022-04-16T11:09:11Z</time>
      </trkpt>
      <trkpt lat="46.61258" lon="5.41697">
        <ele>198.6</ele>
        <time>2022-04-16T11:09:19Z</time>
      </trkpt>
      <trkpt lat="46.61262" lon="5.41703">
        <ele>198.6</ele>
        <time>2022-04-16T11:09:20Z</time>
      </trkpt>
      <trkpt lat="46.61298" lon="5.41757">
        <ele>198</ele>
        <time>2022-04-16T11:09:28Z</time>
      </trkpt>
      <trkpt lat="46.61339" lon="5.41814">
        <ele>197.6</ele>
        <time>2022-04-16T11:09:37Z</time>
      </trkpt>
      <trkpt lat="46.61343" lon="5.4182">
        <ele>197.8</ele>
        <time>2022-04-16T11:09:38Z</time>
      </trkpt>
      <trkpt lat="46.6138" lon="5.41864">
        <ele>198.4</ele>
        <time>2022-04-16T11:09:46Z</time>
      </trkpt>
      <trkpt lat="46.61407" lon="5.41898">
        <ele>198.8</ele>
        <time>2022-04-16T11:09:52Z</time>
      </trkpt>
      <trkpt lat="46.61429" lon="5.41941">
        <ele>199</ele>
        <time>2022-04-16T11:09:58Z</time>
      </trkpt>
      <trkpt lat="46.61459" lon="5.42009">
        <ele>199.2</ele>
        <time>2022-04-16T11:10:07Z</time>
      </trkpt>
      <trkpt lat="46.61487" lon="5.42058">
        <ele>199.2</ele>
        <time>2022-04-16T11:10:14Z</time>
      </trkpt>
      <trkpt lat="46.615" lon="5.42076">
        <ele>199.2</ele>
        <time>2022-04-16T11:10:17Z</time>
      </trkpt>
      <trkpt lat="46.61511" lon="5.42099">
        <ele>199</ele>
        <time>2022-04-16T11:10:20Z</time>
      </trkpt>
      <trkpt lat="46.61536" lon="5.42171">
        <ele>199.4</ele>
        <time>2022-04-16T11:10:29Z</time>
      </trkpt>
      <trkpt lat="46.61538" lon="5.42179">
        <ele>199.4</ele>
        <time>2022-04-16T11:10:30Z</time>
      </trkpt>
      <trkpt lat="46.61554" lon="5.42236">
        <ele>199.4</ele>
        <time>2022-04-16T11:10:37Z</time>
      </trkpt>
      <trkpt lat="46.61558" lon="5.42253">
        <ele>199.6</ele>
        <time>2022-04-16T11:10:39Z</time>
      </trkpt>
      <trkpt lat="46.61559" lon="5.42261">
        <ele>199.8</ele>
        <time>2022-04-16T11:10:40Z</time>
      </trkpt>
      <trkpt lat="46.61566" lon="5.42313">
        <ele>200.2</ele>
        <time>2022-04-16T11:10:46Z</time>
      </trkpt>
      <trkpt lat="46.61574" lon="5.42392">
        <ele>200</ele>
        <time>2022-04-16T11:10:55Z</time>
      </trkpt>
      <trkpt lat="46.61586" lon="5.4244">
        <ele>200.4</ele>
        <time>2022-04-16T11:11:01Z</time>
      </trkpt>
      <trkpt lat="46.61605" lon="5.42493">
        <ele>200.6</ele>
        <time>2022-04-16T11:11:09Z</time>
      </trkpt>
      <trkpt lat="46.6161" lon="5.42504">
        <ele>200.8</ele>
        <time>2022-04-16T11:11:11Z</time>
      </trkpt>
      <trkpt lat="46.61617" lon="5.42514">
        <ele>201</ele>
        <time>2022-04-16T11:11:13Z</time>
      </trkpt>
      <trkpt lat="46.61621" lon="5.42518">
        <ele>201</ele>
        <time>2022-04-16T11:11:14Z</time>
      </trkpt>
      <trkpt lat="46.61633" lon="5.42528">
        <ele>201.8</ele>
        <time>2022-04-16T11:11:17Z</time>
      </trkpt>
      <trkpt lat="46.61647" lon="5.42536">
        <ele>202.2</ele>
        <time>2022-04-16T11:11:20Z</time>
      </trkpt>
      <trkpt lat="46.61651" lon="5.42539">
        <ele>202.4</ele>
        <time>2022-04-16T11:11:21Z</time>
      </trkpt>
      <trkpt lat="46.61667" lon="5.4255">
        <ele>202.8</ele>
        <time>2022-04-16T11:11:25Z</time>
      </trkpt>
      <trkpt lat="46.61677" lon="5.4256">
        <ele>203.4</ele>
        <time>2022-04-16T11:11:28Z</time>
      </trkpt>
      <trkpt lat="46.61687" lon="5.42569">
        <ele>204.6</ele>
        <time>2022-04-16T11:11:31Z</time>
      </trkpt>
      <trkpt lat="46.61697" lon="5.42578">
        <ele>205.2</ele>
        <time>2022-04-16T11:11:34Z</time>
      </trkpt>
      <trkpt lat="46.61703" lon="5.42584">
        <ele>205.6</ele>
        <time>2022-04-16T11:11:36Z</time>
      </trkpt>
      <trkpt lat="46.61725" lon="5.42609">
        <ele>206.6</ele>
        <time>2022-04-16T11:11:42Z</time>
      </trkpt>
      <trkpt lat="46.61728" lon="5.42614">
        <ele>206.8</ele>
        <time>2022-04-16T11:11:43Z</time>
      </trkpt>
      <trkpt lat="46.61733" lon="5.42625">
        <ele>207.2</ele>
        <time>2022-04-16T11:11:45Z</time>
      </trkpt>
      <trkpt lat="46.61737" lon="5.42637">
        <ele>207.6</ele>
        <time>2022-04-16T11:11:47Z</time>
      </trkpt>
      <trkpt lat="46.6174" lon="5.42655">
        <ele>208</ele>
        <time>2022-04-16T11:11:50Z</time>
      </trkpt>
      <trkpt lat="46.61745" lon="5.42665">
        <ele>208</ele>
        <time>2022-04-16T11:11:52Z</time>
      </trkpt>
      <trkpt lat="46.6176" lon="5.42679">
        <ele>208.4</ele>
        <time>2022-04-16T11:11:56Z</time>
      </trkpt>
      <trkpt lat="46.61769" lon="5.42688">
        <ele>208.8</ele>
        <time>2022-04-16T11:11:59Z</time>
      </trkpt>
      <trkpt lat="46.61775" lon="5.42695">
        <ele>209</ele>
        <time>2022-04-16T11:12:01Z</time>
      </trkpt>
      <trkpt lat="46.61793" lon="5.4271">
        <ele>209.8</ele>
        <time>2022-04-16T11:12:06Z</time>
      </trkpt>
      <trkpt lat="46.618" lon="5.42716">
        <ele>210.2</ele>
        <time>2022-04-16T11:12:08Z</time>
      </trkpt>
      <trkpt lat="46.61816" lon="5.42726">
        <ele>211.2</ele>
        <time>2022-04-16T11:12:12Z</time>
      </trkpt>
      <trkpt lat="46.61825" lon="5.42732">
        <ele>211.4</ele>
        <time>2022-04-16T11:12:14Z</time>
      </trkpt>
      <trkpt lat="46.61854" lon="5.42745">
        <ele>212.2</ele>
        <time>2022-04-16T11:12:20Z</time>
      </trkpt>
      <trkpt lat="46.61858" lon="5.42747">
        <ele>212.4</ele>
        <time>2022-04-16T11:12:21Z</time>
      </trkpt>
      <trkpt lat="46.6189" lon="5.42768">
        <ele>213</ele>
        <time>2022-04-16T11:12:28Z</time>
      </trkpt>
      <trkpt lat="46.6191" lon="5.42789">
        <ele>213.4</ele>
        <time>2022-04-16T11:12:33Z</time>
      </trkpt>
      <trkpt lat="46.61917" lon="5.42799">
        <ele>213.4</ele>
        <time>2022-04-16T11:12:35Z</time>
      </trkpt>
      <trkpt lat="46.61928" lon="5.42813">
        <ele>213.4</ele>
        <time>2022-04-16T11:12:38Z</time>
      </trkpt>
      <trkpt lat="46.6194" lon="5.42833">
        <ele>213.6</ele>
        <time>2022-04-16T11:12:42Z</time>
      </trkpt>
      <trkpt lat="46.6197" lon="5.42883">
        <ele>214.4</ele>
        <time>2022-04-16T11:12:52Z</time>
      </trkpt>
      <trkpt lat="46.62003" lon="5.42923">
        <ele>215.6</ele>
        <time>2022-04-16T11:13:01Z</time>
      </trkpt>
      <trkpt lat="46.62007" lon="5.42928">
        <ele>215.6</ele>
        <time>2022-04-16T11:13:02Z</time>
      </trkpt>
      <trkpt lat="46.6204" lon="5.4296">
        <ele>215.6</ele>
        <time>2022-04-16T11:13:09Z</time>
      </trkpt>
      <trkpt lat="46.62074" lon="5.4299">
        <ele>214.4</ele>
        <time>2022-04-16T11:13:15Z</time>
      </trkpt>
      <trkpt lat="46.62079" lon="5.42994">
        <ele>214.2</ele>
        <time>2022-04-16T11:13:16Z</time>
      </trkpt>
      <trkpt lat="46.62108" lon="5.43016">
        <ele>213.4</ele>
        <time>2022-04-16T11:13:21Z</time>
      </trkpt>
      <trkpt lat="46.62119" lon="5.43026">
        <ele>212.8</ele>
        <time>2022-04-16T11:13:23Z</time>
      </trkpt>
      <trkpt lat="46.6213" lon="5.43037">
        <ele>212.2</ele>
        <time>2022-04-16T11:13:25Z</time>
      </trkpt>
      <trkpt lat="46.62147" lon="5.43062">
        <ele>211.8</ele>
        <time>2022-04-16T11:13:29Z</time>
      </trkpt>
      <trkpt lat="46.62159" lon="5.43087">
        <ele>211.8</ele>
        <time>2022-04-16T11:13:33Z</time>
      </trkpt>
      <trkpt lat="46.62165" lon="5.43099">
        <ele>212</ele>
        <time>2022-04-16T11:13:35Z</time>
      </trkpt>
      <trkpt lat="46.62179" lon="5.43136">
        <ele>213.2</ele>
        <time>2022-04-16T11:13:41Z</time>
      </trkpt>
      <trkpt lat="46.62181" lon="5.43142">
        <ele>213.2</ele>
        <time>2022-04-16T11:13:42Z</time>
      </trkpt>
      <trkpt lat="46.62186" lon="5.43155">
        <ele>214</ele>
        <time>2022-04-16T11:13:44Z</time>
      </trkpt>
      <trkpt lat="46.62189" lon="5.43161">
        <ele>214.6</ele>
        <time>2022-04-16T11:13:45Z</time>
      </trkpt>
      <trkpt lat="46.62194" lon="5.43173">
        <ele>215.2</ele>
        <time>2022-04-16T11:13:47Z</time>
      </trkpt>
      <trkpt lat="46.622" lon="5.4319">
        <ele>215.6</ele>
        <time>2022-04-16T11:13:50Z</time>
      </trkpt>
      <trkpt lat="46.62202" lon="5.43197">
        <ele>215.8</ele>
        <time>2022-04-16T11:13:52Z</time>
      </trkpt>
      <trkpt lat="46.62203" lon="5.43201">
        <ele>216.6</ele>
        <time>2022-04-16T11:13:56Z</time>
      </trkpt>
      <trkpt lat="46.62204" lon="5.43202">
        <ele>217.2</ele>
        <time>2022-04-16T11:14:40Z</time>
      </trkpt>
      <trkpt lat="46.62208" lon="5.43208">
        <ele>217.2</ele>
        <time>2022-04-16T11:14:42Z</time>
      </trkpt>
      <trkpt lat="46.62214" lon="5.43224">
        <ele>217.2</ele>
        <time>2022-04-16T11:14:45Z</time>
      </trkpt>
      <trkpt lat="46.62217" lon="5.4323">
        <ele>217.2</ele>
        <time>2022-04-16T11:14:46Z</time>
      </trkpt>
      <trkpt lat="46.62238" lon="5.43262">
        <ele>217</ele>
        <time>2022-04-16T11:14:51Z</time>
      </trkpt>
      <trkpt lat="46.6227" lon="5.43301">
        <ele>216</ele>
        <time>2022-04-16T11:14:57Z</time>
      </trkpt>
      <trkpt lat="46.62289" lon="5.43321">
        <ele>214.8</ele>
        <time>2022-04-16T11:15:00Z</time>
      </trkpt>
      <trkpt lat="46.62321" lon="5.43356">
        <ele>214</ele>
        <time>2022-04-16T11:15:05Z</time>
      </trkpt>
      <trkpt lat="46.62334" lon="5.4337">
        <ele>213.8</ele>
        <time>2022-04-16T11:15:07Z</time>
      </trkpt>
      <trkpt lat="46.62379" lon="5.43419">
        <ele>212.8</ele>
        <time>2022-04-16T11:15:14Z</time>
      </trkpt>
      <trkpt lat="46.62398" lon="5.4344">
        <ele>212.6</ele>
        <time>2022-04-16T11:15:17Z</time>
      </trkpt>
      <trkpt lat="46.62445" lon="5.43491">
        <ele>212.2</ele>
        <time>2022-04-16T11:15:25Z</time>
      </trkpt>
      <trkpt lat="46.62489" lon="5.43539">
        <ele>211.8</ele>
        <time>2022-04-16T11:15:33Z</time>
      </trkpt>
      <trkpt lat="46.62505" lon="5.43557">
        <ele>211.8</ele>
        <time>2022-04-16T11:15:36Z</time>
      </trkpt>
      <trkpt lat="46.6254" lon="5.43596">
        <ele>211.2</ele>
        <time>2022-04-16T11:15:43Z</time>
      </trkpt>
      <trkpt lat="46.62556" lon="5.43613">
        <ele>210.8</ele>
        <time>2022-04-16T11:15:46Z</time>
      </trkpt>
      <trkpt lat="46.62589" lon="5.43648">
        <ele>209.8</ele>
        <time>2022-04-16T11:15:52Z</time>
      </trkpt>
      <trkpt lat="46.62594" lon="5.43654">
        <ele>209.4</ele>
        <time>2022-04-16T11:15:53Z</time>
      </trkpt>
      <trkpt lat="46.62605" lon="5.43667">
        <ele>208.6</ele>
        <time>2022-04-16T11:15:55Z</time>
      </trkpt>
      <trkpt lat="46.62614" lon="5.43682">
        <ele>208</ele>
        <time>2022-04-16T11:15:57Z</time>
      </trkpt>
      <trkpt lat="46.62618" lon="5.43691">
        <ele>207.8</ele>
        <time>2022-04-16T11:15:58Z</time>
      </trkpt>
      <trkpt lat="46.62623" lon="5.43708">
        <ele>207.6</ele>
        <time>2022-04-16T11:16:00Z</time>
      </trkpt>
      <trkpt lat="46.62625" lon="5.43717">
        <ele>207.6</ele>
        <time>2022-04-16T11:16:01Z</time>
      </trkpt>
      <trkpt lat="46.62628" lon="5.43773">
        <ele>207.4</ele>
        <time>2022-04-16T11:16:07Z</time>
      </trkpt>
      <trkpt lat="46.6263" lon="5.43856">
        <ele>207.8</ele>
        <time>2022-04-16T11:16:16Z</time>
      </trkpt>
      <trkpt lat="46.62631" lon="5.43865">
        <ele>208</ele>
        <time>2022-04-16T11:16:17Z</time>
      </trkpt>
      <trkpt lat="46.62631" lon="5.43873">
        <ele>208</ele>
        <time>2022-04-16T11:16:18Z</time>
      </trkpt>
      <trkpt lat="46.62635" lon="5.4389">
        <ele>208.2</ele>
        <time>2022-04-16T11:16:20Z</time>
      </trkpt>
      <trkpt lat="46.62637" lon="5.43898">
        <ele>208.4</ele>
        <time>2022-04-16T11:16:21Z</time>
      </trkpt>
      <trkpt lat="46.6264" lon="5.43904">
        <ele>208.2</ele>
        <time>2022-04-16T11:16:22Z</time>
      </trkpt>
      <trkpt lat="46.62648" lon="5.43916">
        <ele>208.2</ele>
        <time>2022-04-16T11:16:24Z</time>
      </trkpt>
      <trkpt lat="46.62652" lon="5.43921">
        <ele>208.2</ele>
        <time>2022-04-16T11:16:25Z</time>
      </trkpt>
      <trkpt lat="46.62681" lon="5.43953">
        <ele>208.4</ele>
        <time>2022-04-16T11:16:32Z</time>
      </trkpt>
      <trkpt lat="46.627" lon="5.43978">
        <ele>208.8</ele>
        <time>2022-04-16T11:16:37Z</time>
      </trkpt>
      <trkpt lat="46.62707" lon="5.43989">
        <ele>209.4</ele>
        <time>2022-04-16T11:16:39Z</time>
      </trkpt>
      <trkpt lat="46.62725" lon="5.44025">
        <ele>210.2</ele>
        <time>2022-04-16T11:16:45Z</time>
      </trkpt>
      <trkpt lat="46.62728" lon="5.44031">
        <ele>210.4</ele>
        <time>2022-04-16T11:16:46Z</time>
      </trkpt>
      <trkpt lat="46.62743" lon="5.44086">
        <ele>211.2</ele>
        <time>2022-04-16T11:16:54Z</time>
      </trkpt>
      <trkpt lat="46.62747" lon="5.44098">
        <ele>211.4</ele>
        <time>2022-04-16T11:16:56Z</time>
      </trkpt>
      <trkpt lat="46.62751" lon="5.44109">
        <ele>211.6</ele>
        <time>2022-04-16T11:16:58Z</time>
      </trkpt>
      <trkpt lat="46.62763" lon="5.44132">
        <ele>212.6</ele>
        <time>2022-04-16T11:17:02Z</time>
      </trkpt>
      <trkpt lat="46.62774" lon="5.44149">
        <ele>212.8</ele>
        <time>2022-04-16T11:17:05Z</time>
      </trkpt>
      <trkpt lat="46.62801" lon="5.44185">
        <ele>212.2</ele>
        <time>2022-04-16T11:17:11Z</time>
      </trkpt>
      <trkpt lat="46.62811" lon="5.44201">
        <ele>211.6</ele>
        <time>2022-04-16T11:17:13Z</time>
      </trkpt>
      <trkpt lat="46.62815" lon="5.4421">
        <ele>211.4</ele>
        <time>2022-04-16T11:17:14Z</time>
      </trkpt>
      <trkpt lat="46.6282" lon="5.4422">
        <ele>211.4</ele>
        <time>2022-04-16T11:17:15Z</time>
      </trkpt>
      <trkpt lat="46.62832" lon="5.44252">
        <ele>210</ele>
        <time>2022-04-16T11:17:18Z</time>
      </trkpt>
      <trkpt lat="46.62841" lon="5.44285">
        <ele>208.8</ele>
        <time>2022-04-16T11:17:21Z</time>
      </trkpt>
      <trkpt lat="46.62845" lon="5.4431">
        <ele>207.8</ele>
        <time>2022-04-16T11:17:23Z</time>
      </trkpt>
      <trkpt lat="46.62845" lon="5.44319">
        <ele>207.8</ele>
        <time>2022-04-16T11:17:24Z</time>
      </trkpt>
      <trkpt lat="46.62844" lon="5.44331">
        <ele>207.4</ele>
        <time>2022-04-16T11:17:25Z</time>
      </trkpt>
      <trkpt lat="46.62843" lon="5.44394">
        <ele>207.2</ele>
        <time>2022-04-16T11:17:31Z</time>
      </trkpt>
      <trkpt lat="46.62845" lon="5.44461">
        <ele>208.2</ele>
        <time>2022-04-16T11:17:38Z</time>
      </trkpt>
      <trkpt lat="46.62842" lon="5.4449">
        <ele>208.2</ele>
        <time>2022-04-16T11:17:41Z</time>
      </trkpt>
      <trkpt lat="46.62836" lon="5.44507">
        <ele>208</ele>
        <time>2022-04-16T11:17:43Z</time>
      </trkpt>
      <trkpt lat="46.62829" lon="5.44523">
        <ele>207.8</ele>
        <time>2022-04-16T11:17:45Z</time>
      </trkpt>
      <trkpt lat="46.62822" lon="5.44538">
        <ele>207.2</ele>
        <time>2022-04-16T11:17:47Z</time>
      </trkpt>
      <trkpt lat="46.62821" lon="5.44556">
        <ele>207.2</ele>
        <time>2022-04-16T11:17:49Z</time>
      </trkpt>
      <trkpt lat="46.62823" lon="5.44565">
        <ele>207.2</ele>
        <time>2022-04-16T11:17:50Z</time>
      </trkpt>
      <trkpt lat="46.62827" lon="5.44573">
        <ele>207</ele>
        <time>2022-04-16T11:17:51Z</time>
      </trkpt>
      <trkpt lat="46.62839" lon="5.44584">
        <ele>206.8</ele>
        <time>2022-04-16T11:17:53Z</time>
      </trkpt>
      <trkpt lat="46.62852" lon="5.44589">
        <ele>206.4</ele>
        <time>2022-04-16T11:17:55Z</time>
      </trkpt>
      <trkpt lat="46.62865" lon="5.44591">
        <ele>206.2</ele>
        <time>2022-04-16T11:17:57Z</time>
      </trkpt>
      <trkpt lat="46.62872" lon="5.44592">
        <ele>205.8</ele>
        <time>2022-04-16T11:17:58Z</time>
      </trkpt>
      <trkpt lat="46.62885" lon="5.44598">
        <ele>205.6</ele>
        <time>2022-04-16T11:18:00Z</time>
      </trkpt>
      <trkpt lat="46.62891" lon="5.44603">
        <ele>205.6</ele>
        <time>2022-04-16T11:18:01Z</time>
      </trkpt>
      <trkpt lat="46.62896" lon="5.44609">
        <ele>205.4</ele>
        <time>2022-04-16T11:18:02Z</time>
      </trkpt>
      <trkpt lat="46.6291" lon="5.4463">
        <ele>205.4</ele>
        <time>2022-04-16T11:18:05Z</time>
      </trkpt>
      <trkpt lat="46.6292" lon="5.44642">
        <ele>205</ele>
        <time>2022-04-16T11:18:07Z</time>
      </trkpt>
      <trkpt lat="46.62936" lon="5.44657">
        <ele>204.4</ele>
        <time>2022-04-16T11:18:10Z</time>
      </trkpt>
      <trkpt lat="46.62941" lon="5.44662">
        <ele>204.4</ele>
        <time>2022-04-16T11:18:11Z</time>
      </trkpt>
      <trkpt lat="46.62991" lon="5.44706">
        <ele>204.6</ele>
        <time>2022-04-16T11:18:20Z</time>
      </trkpt>
      <trkpt lat="46.63002" lon="5.44709">
        <ele>204.6</ele>
        <time>2022-04-16T11:18:22Z</time>
      </trkpt>
      <trkpt lat="46.6302" lon="5.4471">
        <ele>204.6</ele>
        <time>2022-04-16T11:18:25Z</time>
      </trkpt>
      <trkpt lat="46.63065" lon="5.44717">
        <ele>204.8</ele>
        <time>2022-04-16T11:18:32Z</time>
      </trkpt>
      <trkpt lat="46.631" lon="5.44736">
        <ele>204.4</ele>
        <time>2022-04-16T11:18:38Z</time>
      </trkpt>
      <trkpt lat="46.63138" lon="5.44765">
        <ele>204.2</ele>
        <time>2022-04-16T11:18:45Z</time>
      </trkpt>
      <trkpt lat="46.63158" lon="5.44799">
        <ele>204.2</ele>
        <time>2022-04-16T11:18:50Z</time>
      </trkpt>
      <trkpt lat="46.63165" lon="5.44813">
        <ele>204.6</ele>
        <time>2022-04-16T11:18:52Z</time>
      </trkpt>
      <trkpt lat="46.63178" lon="5.44831">
        <ele>204.8</ele>
        <time>2022-04-16T11:18:55Z</time>
      </trkpt>
      <trkpt lat="46.63189" lon="5.4484">
        <ele>205</ele>
        <time>2022-04-16T11:18:57Z</time>
      </trkpt>
      <trkpt lat="46.63211" lon="5.44855">
        <ele>205</ele>
        <time>2022-04-16T11:19:01Z</time>
      </trkpt>
      <trkpt lat="46.63221" lon="5.44863">
        <ele>205</ele>
        <time>2022-04-16T11:19:03Z</time>
      </trkpt>
      <trkpt lat="46.63239" lon="5.44882">
        <ele>205</ele>
        <time>2022-04-16T11:19:07Z</time>
      </trkpt>
      <trkpt lat="46.63269" lon="5.44919">
        <ele>205.6</ele>
        <time>2022-04-16T11:19:14Z</time>
      </trkpt>
      <trkpt lat="46.63274" lon="5.44923">
        <ele>205.6</ele>
        <time>2022-04-16T11:19:15Z</time>
      </trkpt>
      <trkpt lat="46.63284" lon="5.44931">
        <ele>205.8</ele>
        <time>2022-04-16T11:19:17Z</time>
      </trkpt>
      <trkpt lat="46.63306" lon="5.44945">
        <ele>206.2</ele>
        <time>2022-04-16T11:19:22Z</time>
      </trkpt>
      <trkpt lat="46.63318" lon="5.44954">
        <ele>206.8</ele>
        <time>2022-04-16T11:19:25Z</time>
      </trkpt>
      <trkpt lat="46.6333" lon="5.44961">
        <ele>207.8</ele>
        <time>2022-04-16T11:19:28Z</time>
      </trkpt>
      <trkpt lat="46.6335" lon="5.44971">
        <ele>208.8</ele>
        <time>2022-04-16T11:19:33Z</time>
      </trkpt>
      <trkpt lat="46.63363" lon="5.44975">
        <ele>209.6</ele>
        <time>2022-04-16T11:19:36Z</time>
      </trkpt>
      <trkpt lat="46.63371" lon="5.44975">
        <ele>210.2</ele>
        <time>2022-04-16T11:19:38Z</time>
      </trkpt>
      <trkpt lat="46.63395" lon="5.44974">
        <ele>211.2</ele>
        <time>2022-04-16T11:19:44Z</time>
      </trkpt>
      <trkpt lat="46.6342" lon="5.44974">
        <ele>212.4</ele>
        <time>2022-04-16T11:19:50Z</time>
      </trkpt>
      <trkpt lat="46.63427" lon="5.44977">
        <ele>212.6</ele>
        <time>2022-04-16T11:19:52Z</time>
      </trkpt>
      <trkpt lat="46.63446" lon="5.44986">
        <ele>213.6</ele>
        <time>2022-04-16T11:19:57Z</time>
      </trkpt>
      <trkpt lat="46.63461" lon="5.44994">
        <ele>214.8</ele>
        <time>2022-04-16T11:20:01Z</time>
      </trkpt>
      <trkpt lat="46.6348" lon="5.45009">
        <ele>216</ele>
        <time>2022-04-16T11:20:06Z</time>
      </trkpt>
      <trkpt lat="46.63484" lon="5.45012">
        <ele>216.2</ele>
        <time>2022-04-16T11:20:07Z</time>
      </trkpt>
      <trkpt lat="46.63491" lon="5.45019">
        <ele>216.2</ele>
        <time>2022-04-16T11:20:09Z</time>
      </trkpt>
      <trkpt lat="46.63516" lon="5.45044">
        <ele>217</ele>
        <time>2022-04-16T11:20:16Z</time>
      </trkpt>
      <trkpt lat="46.63519" lon="5.45049">
        <ele>217.2</ele>
        <time>2022-04-16T11:20:17Z</time>
      </trkpt>
      <trkpt lat="46.63548" lon="5.45089">
        <ele>217.8</ele>
        <time>2022-04-16T11:20:25Z</time>
      </trkpt>
      <trkpt lat="46.63574" lon="5.45126">
        <ele>217.6</ele>
        <time>2022-04-16T11:20:31Z</time>
      </trkpt>
      <trkpt lat="46.63597" lon="5.45164">
        <ele>216</ele>
        <time>2022-04-16T11:20:36Z</time>
      </trkpt>
      <trkpt lat="46.63601" lon="5.45174">
        <ele>215.8</ele>
        <time>2022-04-16T11:20:37Z</time>
      </trkpt>
      <trkpt lat="46.63615" lon="5.45214">
        <ele>214.6</ele>
        <time>2022-04-16T11:20:41Z</time>
      </trkpt>
      <trkpt lat="46.63623" lon="5.45235">
        <ele>214.2</ele>
        <time>2022-04-16T11:20:43Z</time>
      </trkpt>
      <trkpt lat="46.63631" lon="5.45257">
        <ele>213.6</ele>
        <time>2022-04-16T11:20:45Z</time>
      </trkpt>
      <trkpt lat="46.63641" lon="5.45278">
        <ele>212.4</ele>
        <time>2022-04-16T11:20:47Z</time>
      </trkpt>
      <trkpt lat="46.63647" lon="5.45288">
        <ele>211.6</ele>
        <time>2022-04-16T11:20:48Z</time>
      </trkpt>
      <trkpt lat="46.63653" lon="5.45297">
        <ele>211.2</ele>
        <time>2022-04-16T11:20:49Z</time>
      </trkpt>
      <trkpt lat="46.63667" lon="5.45316">
        <ele>210</ele>
        <time>2022-04-16T11:20:51Z</time>
      </trkpt>
      <trkpt lat="46.63673" lon="5.45326">
        <ele>209.4</ele>
        <time>2022-04-16T11:20:52Z</time>
      </trkpt>
      <trkpt lat="46.63679" lon="5.45338">
        <ele>209.2</ele>
        <time>2022-04-16T11:20:53Z</time>
      </trkpt>
      <trkpt lat="46.63683" lon="5.45351">
        <ele>208.4</ele>
        <time>2022-04-16T11:20:54Z</time>
      </trkpt>
      <trkpt lat="46.63694" lon="5.4539">
        <ele>207.4</ele>
        <time>2022-04-16T11:20:57Z</time>
      </trkpt>
      <trkpt lat="46.63711" lon="5.45466">
        <ele>206.8</ele>
        <time>2022-04-16T11:21:03Z</time>
      </trkpt>
      <trkpt lat="46.63717" lon="5.45489">
        <ele>206.4</ele>
        <time>2022-04-16T11:21:05Z</time>
      </trkpt>
      <trkpt lat="46.63735" lon="5.45567">
        <ele>206</ele>
        <time>2022-04-16T11:21:12Z</time>
      </trkpt>
      <trkpt lat="46.6375" lon="5.45618">
        <ele>206.6</ele>
        <time>2022-04-16T11:21:17Z</time>
      </trkpt>
      <trkpt lat="46.63754" lon="5.45627">
        <ele>206.8</ele>
        <time>2022-04-16T11:21:18Z</time>
      </trkpt>
      <trkpt lat="46.63783" lon="5.45678">
        <ele>207.2</ele>
        <time>2022-04-16T11:21:24Z</time>
      </trkpt>
      <trkpt lat="46.63815" lon="5.45738">
        <ele>207.2</ele>
        <time>2022-04-16T11:21:31Z</time>
      </trkpt>
      <trkpt lat="46.63852" lon="5.45807">
        <ele>207.2</ele>
        <time>2022-04-16T11:21:39Z</time>
      </trkpt>
      <trkpt lat="46.63857" lon="5.45816">
        <ele>207.2</ele>
        <time>2022-04-16T11:21:40Z</time>
      </trkpt>
      <trkpt lat="46.6386" lon="5.45826">
        <ele>207.2</ele>
        <time>2022-04-16T11:21:41Z</time>
      </trkpt>
      <trkpt lat="46.63863" lon="5.45836">
        <ele>207.2</ele>
        <time>2022-04-16T11:21:42Z</time>
      </trkpt>
      <trkpt lat="46.63865" lon="5.45857">
        <ele>207.2</ele>
        <time>2022-04-16T11:21:44Z</time>
      </trkpt>
      <trkpt lat="46.63864" lon="5.459">
        <ele>207</ele>
        <time>2022-04-16T11:21:48Z</time>
      </trkpt>
      <trkpt lat="46.63866" lon="5.45921">
        <ele>207</ele>
        <time>2022-04-16T11:21:50Z</time>
      </trkpt>
      <trkpt lat="46.63875" lon="5.45988">
        <ele>207.6</ele>
        <time>2022-04-16T11:21:57Z</time>
      </trkpt>
      <trkpt lat="46.63879" lon="5.46015">
        <ele>207.8</ele>
        <time>2022-04-16T11:22:00Z</time>
      </trkpt>
      <trkpt lat="46.63887" lon="5.46056">
        <ele>208.4</ele>
        <time>2022-04-16T11:22:05Z</time>
      </trkpt>
      <trkpt lat="46.63889" lon="5.46064">
        <ele>208.6</ele>
        <time>2022-04-16T11:22:06Z</time>
      </trkpt>
      <trkpt lat="46.63891" lon="5.46073">
        <ele>208.6</ele>
        <time>2022-04-16T11:22:07Z</time>
      </trkpt>
      <trkpt lat="46.63907" lon="5.46138">
        <ele>209</ele>
        <time>2022-04-16T11:22:15Z</time>
      </trkpt>
      <trkpt lat="46.63912" lon="5.4618">
        <ele>209.8</ele>
        <time>2022-04-16T11:22:20Z</time>
      </trkpt>
      <trkpt lat="46.63915" lon="5.46205">
        <ele>210.2</ele>
        <time>2022-04-16T11:22:23Z</time>
      </trkpt>
      <trkpt lat="46.63923" lon="5.46271">
        <ele>210.4</ele>
        <time>2022-04-16T11:22:31Z</time>
      </trkpt>
      <trkpt lat="46.63928" lon="5.46317">
        <ele>210.8</ele>
        <time>2022-04-16T11:22:37Z</time>
      </trkpt>
      <trkpt lat="46.6393" lon="5.46325">
        <ele>210.8</ele>
        <time>2022-04-16T11:22:38Z</time>
      </trkpt>
      <trkpt lat="46.63932" lon="5.46331">
        <ele>211</ele>
        <time>2022-04-16T11:22:39Z</time>
      </trkpt>
      <trkpt lat="46.63936" lon="5.46338">
        <ele>211</ele>
        <time>2022-04-16T11:22:40Z</time>
      </trkpt>
      <trkpt lat="46.63947" lon="5.46356">
        <ele>211.6</ele>
        <time>2022-04-16T11:22:43Z</time>
      </trkpt>
      <trkpt lat="46.63955" lon="5.46367">
        <ele>212.2</ele>
        <time>2022-04-16T11:22:45Z</time>
      </trkpt>
      <trkpt lat="46.63965" lon="5.46378">
        <ele>212.8</ele>
        <time>2022-04-16T11:22:47Z</time>
      </trkpt>
      <trkpt lat="46.63983" lon="5.46399">
        <ele>213.2</ele>
        <time>2022-04-16T11:22:51Z</time>
      </trkpt>
      <trkpt lat="46.63992" lon="5.46409">
        <ele>213.4</ele>
        <time>2022-04-16T11:22:53Z</time>
      </trkpt>
      <trkpt lat="46.64004" lon="5.46416">
        <ele>213.2</ele>
        <time>2022-04-16T11:22:55Z</time>
      </trkpt>
      <trkpt lat="46.6401" lon="5.46419">
        <ele>213.2</ele>
        <time>2022-04-16T11:22:56Z</time>
      </trkpt>
      <trkpt lat="46.64015" lon="5.46423">
        <ele>213.2</ele>
        <time>2022-04-16T11:22:57Z</time>
      </trkpt>
      <trkpt lat="46.64045" lon="5.46437">
        <ele>212.6</ele>
        <time>2022-04-16T11:23:02Z</time>
      </trkpt>
      <trkpt lat="46.64081" lon="5.46453">
        <ele>212.2</ele>
        <time>2022-04-16T11:23:08Z</time>
      </trkpt>
      <trkpt lat="46.64105" lon="5.46463">
        <ele>212</ele>
        <time>2022-04-16T11:23:12Z</time>
      </trkpt>
      <trkpt lat="46.64129" lon="5.46473">
        <ele>211.8</ele>
        <time>2022-04-16T11:23:16Z</time>
      </trkpt>
      <trkpt lat="46.64141" lon="5.46483">
        <ele>211.6</ele>
        <time>2022-04-16T11:23:18Z</time>
      </trkpt>
      <trkpt lat="46.64146" lon="5.46489">
        <ele>211.6</ele>
        <time>2022-04-16T11:23:19Z</time>
      </trkpt>
      <trkpt lat="46.64156" lon="5.46512">
        <ele>211.8</ele>
        <time>2022-04-16T11:23:22Z</time>
      </trkpt>
      <trkpt lat="46.64184" lon="5.46571">
        <ele>212.4</ele>
        <time>2022-04-16T11:23:30Z</time>
      </trkpt>
      <trkpt lat="46.64198" lon="5.46587">
        <ele>212.4</ele>
        <time>2022-04-16T11:23:33Z</time>
      </trkpt>
      <trkpt lat="46.64208" lon="5.46593">
        <ele>212.6</ele>
        <time>2022-04-16T11:23:35Z</time>
      </trkpt>
      <trkpt lat="46.64253" lon="5.46599">
        <ele>212.6</ele>
        <time>2022-04-16T11:23:42Z</time>
      </trkpt>
      <trkpt lat="46.64292" lon="5.46607">
        <ele>213</ele>
        <time>2022-04-16T11:23:49Z</time>
      </trkpt>
      <trkpt lat="46.64312" lon="5.46613">
        <ele>213.4</ele>
        <time>2022-04-16T11:23:53Z</time>
      </trkpt>
      <trkpt lat="46.64326" lon="5.46617">
        <ele>214.4</ele>
        <time>2022-04-16T11:23:56Z</time>
      </trkpt>
      <trkpt lat="46.64331" lon="5.46618">
        <ele>214.6</ele>
        <time>2022-04-16T11:23:57Z</time>
      </trkpt>
      <trkpt lat="46.64347" lon="5.46621">
        <ele>215.2</ele>
        <time>2022-04-16T11:24:00Z</time>
      </trkpt>
      <trkpt lat="46.64357" lon="5.4662">
        <ele>215.4</ele>
        <time>2022-04-16T11:24:02Z</time>
      </trkpt>
      <trkpt lat="46.64373" lon="5.46617">
        <ele>215.6</ele>
        <time>2022-04-16T11:24:05Z</time>
      </trkpt>
      <trkpt lat="46.64395" lon="5.46615">
        <ele>215.6</ele>
        <time>2022-04-16T11:24:09Z</time>
      </trkpt>
      <trkpt lat="46.64415" lon="5.46614">
        <ele>215.6</ele>
        <time>2022-04-16T11:24:13Z</time>
      </trkpt>
      <trkpt lat="46.64419" lon="5.46615">
        <ele>215.8</ele>
        <time>2022-04-16T11:24:14Z</time>
      </trkpt>
      <trkpt lat="46.64427" lon="5.46621">
        <ele>215.6</ele>
        <time>2022-04-16T11:24:18Z</time>
      </trkpt>
      <trkpt lat="46.64429" lon="5.46627">
        <ele>215</ele>
        <time>2022-04-16T11:24:21Z</time>
      </trkpt>
      <trkpt lat="46.64436" lon="5.46627">
        <ele>214.8</ele>
        <time>2022-04-16T11:24:23Z</time>
      </trkpt>
      <trkpt lat="46.6444" lon="5.46626">
        <ele>214.8</ele>
        <time>2022-04-16T11:24:24Z</time>
      </trkpt>
      <trkpt lat="46.64458" lon="5.46628">
        <ele>214.6</ele>
        <time>2022-04-16T11:24:27Z</time>
      </trkpt>
      <trkpt lat="46.64465" lon="5.4663">
        <ele>214.2</ele>
        <time>2022-04-16T11:24:28Z</time>
      </trkpt>
      <trkpt lat="46.64494" lon="5.46636">
        <ele>213.2</ele>
        <time>2022-04-16T11:24:32Z</time>
      </trkpt>
      <trkpt lat="46.64501" lon="5.46638">
        <ele>212.8</ele>
        <time>2022-04-16T11:24:33Z</time>
      </trkpt>
      <trkpt lat="46.64515" lon="5.46643">
        <ele>211.8</ele>
        <time>2022-04-16T11:24:35Z</time>
      </trkpt>
      <trkpt lat="46.64534" lon="5.46653">
        <ele>210.6</ele>
        <time>2022-04-16T11:24:38Z</time>
      </trkpt>
      <trkpt lat="46.6454" lon="5.46657">
        <ele>210.4</ele>
        <time>2022-04-16T11:24:39Z</time>
      </trkpt>
      <trkpt lat="46.64587" lon="5.46688">
        <ele>209.8</ele>
        <time>2022-04-16T11:24:47Z</time>
      </trkpt>
      <trkpt lat="46.64597" lon="5.46692">
        <ele>209.8</ele>
        <time>2022-04-16T11:24:49Z</time>
      </trkpt>
      <trkpt lat="46.64609" lon="5.46693">
        <ele>209.8</ele>
        <time>2022-04-16T11:24:51Z</time>
      </trkpt>
      <trkpt lat="46.6462" lon="5.46688">
        <ele>209.8</ele>
        <time>2022-04-16T11:24:53Z</time>
      </trkpt>
      <trkpt lat="46.6463" lon="5.46678">
        <ele>210</ele>
        <time>2022-04-16T11:24:55Z</time>
      </trkpt>
      <trkpt lat="46.64669" lon="5.46623">
        <ele>211.4</ele>
        <time>2022-04-16T11:25:04Z</time>
      </trkpt>
      <trkpt lat="46.64673" lon="5.46617">
        <ele>211.4</ele>
        <time>2022-04-16T11:25:05Z</time>
      </trkpt>
      <trkpt lat="46.64712" lon="5.46563">
        <ele>211</ele>
        <time>2022-04-16T11:25:14Z</time>
      </trkpt>
      <trkpt lat="46.64745" lon="5.46518">
        <ele>211</ele>
        <time>2022-04-16T11:25:22Z</time>
      </trkpt>
      <trkpt lat="46.64748" lon="5.46512">
        <ele>211</ele>
        <time>2022-04-16T11:25:23Z</time>
      </trkpt>
      <trkpt lat="46.64777" lon="5.46473">
        <ele>211.4</ele>
        <time>2022-04-16T11:25:30Z</time>
      </trkpt>
      <trkpt lat="46.64813" lon="5.46433">
        <ele>211.8</ele>
        <time>2022-04-16T11:25:38Z</time>
      </trkpt>
      <trkpt lat="46.64818" lon="5.46429">
        <ele>211.8</ele>
        <time>2022-04-16T11:25:39Z</time>
      </trkpt>
      <trkpt lat="46.64861" lon="5.46398">
        <ele>210.6</ele>
        <time>2022-04-16T11:25:48Z</time>
      </trkpt>
      <trkpt lat="46.64894" lon="5.46374">
        <ele>210</ele>
        <time>2022-04-16T11:25:55Z</time>
      </trkpt>
      <trkpt lat="46.64928" lon="5.4635">
        <ele>210.4</ele>
        <time>2022-04-16T11:26:02Z</time>
      </trkpt>
      <trkpt lat="46.64978" lon="5.46317">
        <ele>210.8</ele>
        <time>2022-04-16T11:26:12Z</time>
      </trkpt>
      <trkpt lat="46.65028" lon="5.46278">
        <ele>211.8</ele>
        <time>2022-04-16T11:26:23Z</time>
      </trkpt>
      <trkpt lat="46.6506" lon="5.46237">
        <ele>211.8</ele>
        <time>2022-04-16T11:26:31Z</time>
      </trkpt>
      <trkpt lat="46.65098" lon="5.46179">
        <ele>212.4</ele>
        <time>2022-04-16T11:26:41Z</time>
      </trkpt>
      <trkpt lat="46.65127" lon="5.46134">
        <ele>212.2</ele>
        <time>2022-04-16T11:26:49Z</time>
      </trkpt>
      <trkpt lat="46.6516" lon="5.46082">
        <ele>213</ele>
        <time>2022-04-16T11:26:58Z</time>
      </trkpt>
      <trkpt lat="46.65172" lon="5.46065">
        <ele>213</ele>
        <time>2022-04-16T11:27:01Z</time>
      </trkpt>
      <trkpt lat="46.65212" lon="5.46004">
        <ele>212.8</ele>
        <time>2022-04-16T11:27:11Z</time>
      </trkpt>
      <trkpt lat="46.65251" lon="5.45944">
        <ele>212.2</ele>
        <time>2022-04-16T11:27:20Z</time>
      </trkpt>
      <trkpt lat="46.65255" lon="5.45937">
        <ele>212.2</ele>
        <time>2022-04-16T11:27:21Z</time>
      </trkpt>
      <trkpt lat="46.65268" lon="5.45916">
        <ele>211.8</ele>
        <time>2022-04-16T11:27:24Z</time>
      </trkpt>
      <trkpt lat="46.65288" lon="5.45878">
        <ele>211.6</ele>
        <time>2022-04-16T11:27:29Z</time>
      </trkpt>
      <trkpt lat="46.65305" lon="5.4582">
        <ele>211.2</ele>
        <time>2022-04-16T11:27:36Z</time>
      </trkpt>
      <trkpt lat="46.65312" lon="5.45804">
        <ele>211.2</ele>
        <time>2022-04-16T11:27:38Z</time>
      </trkpt>
      <trkpt lat="46.6532" lon="5.4579">
        <ele>211</ele>
        <time>2022-04-16T11:27:40Z</time>
      </trkpt>
      <trkpt lat="46.65335" lon="5.45775">
        <ele>210.8</ele>
        <time>2022-04-16T11:27:43Z</time>
      </trkpt>
      <trkpt lat="46.65344" lon="5.45767">
        <ele>210.6</ele>
        <time>2022-04-16T11:27:45Z</time>
      </trkpt>
      <trkpt lat="46.65378" lon="5.45742">
        <ele>210.6</ele>
        <time>2022-04-16T11:27:52Z</time>
      </trkpt>
      <trkpt lat="46.6542" lon="5.45711">
        <ele>211</ele>
        <time>2022-04-16T11:28:01Z</time>
      </trkpt>
      <trkpt lat="46.65463" lon="5.45679">
        <ele>211.8</ele>
        <time>2022-04-16T11:28:10Z</time>
      </trkpt>
      <trkpt lat="46.65476" lon="5.45668">
        <ele>211.8</ele>
        <time>2022-04-16T11:28:13Z</time>
      </trkpt>
      <trkpt lat="46.65493" lon="5.45647">
        <ele>212</ele>
        <time>2022-04-16T11:28:17Z</time>
      </trkpt>
      <trkpt lat="46.65522" lon="5.45604">
        <ele>211.6</ele>
        <time>2022-04-16T11:28:24Z</time>
      </trkpt>
      <trkpt lat="46.65533" lon="5.45586">
        <ele>211.6</ele>
        <time>2022-04-16T11:28:27Z</time>
      </trkpt>
      <trkpt lat="46.65547" lon="5.45561">
        <ele>211.4</ele>
        <time>2022-04-16T11:28:31Z</time>
      </trkpt>
      <trkpt lat="46.65573" lon="5.45513">
        <ele>211.6</ele>
        <time>2022-04-16T11:28:39Z</time>
      </trkpt>
      <trkpt lat="46.6559" lon="5.45474">
        <ele>212.2</ele>
        <time>2022-04-16T11:28:45Z</time>
      </trkpt>
      <trkpt lat="46.65601" lon="5.45447">
        <ele>212.4</ele>
        <time>2022-04-16T11:28:49Z</time>
      </trkpt>
      <trkpt lat="46.65612" lon="5.45418">
        <ele>212.4</ele>
        <time>2022-04-16T11:28:53Z</time>
      </trkpt>
      <trkpt lat="46.65619" lon="5.45396">
        <ele>212</ele>
        <time>2022-04-16T11:28:56Z</time>
      </trkpt>
      <trkpt lat="46.65642" lon="5.45332">
        <ele>212.2</ele>
        <time>2022-04-16T11:29:05Z</time>
      </trkpt>
      <trkpt lat="46.65664" lon="5.4527">
        <ele>212.4</ele>
        <time>2022-04-16T11:29:13Z</time>
      </trkpt>
      <trkpt lat="46.65682" lon="5.45214">
        <ele>212</ele>
        <time>2022-04-16T11:29:20Z</time>
      </trkpt>
      <trkpt lat="46.65693" lon="5.4518">
        <ele>212.4</ele>
        <time>2022-04-16T11:29:25Z</time>
      </trkpt>
      <trkpt lat="46.65698" lon="5.45163">
        <ele>213</ele>
        <time>2022-04-16T11:29:28Z</time>
      </trkpt>
      <trkpt lat="46.657" lon="5.45157">
        <ele>213.4</ele>
        <time>2022-04-16T11:29:29Z</time>
      </trkpt>
      <trkpt lat="46.65703" lon="5.45153">
        <ele>213.4</ele>
        <time>2022-04-16T11:29:30Z</time>
      </trkpt>
      <trkpt lat="46.65709" lon="5.45146">
        <ele>213.8</ele>
        <time>2022-04-16T11:29:32Z</time>
      </trkpt>
      <trkpt lat="46.65716" lon="5.45146">
        <ele>214</ele>
        <time>2022-04-16T11:29:34Z</time>
      </trkpt>
      <trkpt lat="46.6573" lon="5.45153">
        <ele>214.8</ele>
        <time>2022-04-16T11:29:38Z</time>
      </trkpt>
      <trkpt lat="46.65734" lon="5.45155">
        <ele>215</ele>
        <time>2022-04-16T11:29:39Z</time>
      </trkpt>
      <trkpt lat="46.6574" lon="5.4516">
        <ele>215.8</ele>
        <time>2022-04-16T11:29:41Z</time>
      </trkpt>
      <trkpt lat="46.65745" lon="5.45165">
        <ele>216.6</ele>
        <time>2022-04-16T11:29:43Z</time>
      </trkpt>
      <trkpt lat="46.65749" lon="5.45166">
        <ele>217</ele>
        <time>2022-04-16T11:29:44Z</time>
      </trkpt>
      <trkpt lat="46.65756" lon="5.45169">
        <ele>218.2</ele>
        <time>2022-04-16T11:29:46Z</time>
      </trkpt>
      <trkpt lat="46.65765" lon="5.45169">
        <ele>219.6</ele>
        <time>2022-04-16T11:29:49Z</time>
      </trkpt>
      <trkpt lat="46.65774" lon="5.45162">
        <ele>220.6</ele>
        <time>2022-04-16T11:29:52Z</time>
      </trkpt>
      <trkpt lat="46.65781" lon="5.45152">
        <ele>221.4</ele>
        <time>2022-04-16T11:29:55Z</time>
      </trkpt>
      <trkpt lat="46.65783" lon="5.45149">
        <ele>222.2</ele>
        <time>2022-04-16T11:29:56Z</time>
      </trkpt>
      <trkpt lat="46.65792" lon="5.4513">
        <ele>223.2</ele>
        <time>2022-04-16T11:30:00Z</time>
      </trkpt>
      <trkpt lat="46.65798" lon="5.45112">
        <ele>223.8</ele>
        <time>2022-04-16T11:30:04Z</time>
      </trkpt>
      <trkpt lat="46.65801" lon="5.45095">
        <ele>224.2</ele>
        <time>2022-04-16T11:30:07Z</time>
      </trkpt>
      <trkpt lat="46.65806" lon="5.45086">
        <ele>224.6</ele>
        <time>2022-04-16T11:30:09Z</time>
      </trkpt>
      <trkpt lat="46.65823" lon="5.45078">
        <ele>225.2</ele>
        <time>2022-04-16T11:30:13Z</time>
      </trkpt>
      <trkpt lat="46.65839" lon="5.45089">
        <ele>225.8</ele>
        <time>2022-04-16T11:30:18Z</time>
      </trkpt>
      <trkpt lat="46.6585" lon="5.451">
        <ele>226.6</ele>
        <time>2022-04-16T11:30:22Z</time>
      </trkpt>
      <trkpt lat="46.65863" lon="5.45115">
        <ele>227.6</ele>
        <time>2022-04-16T11:30:27Z</time>
      </trkpt>
      <trkpt lat="46.65869" lon="5.45121">
        <ele>227.8</ele>
        <time>2022-04-16T11:30:29Z</time>
      </trkpt>
      <trkpt lat="46.65884" lon="5.4514">
        <ele>228.6</ele>
        <time>2022-04-16T11:30:34Z</time>
      </trkpt>
      <trkpt lat="46.65889" lon="5.4515">
        <ele>229</ele>
        <time>2022-04-16T11:30:36Z</time>
      </trkpt>
      <trkpt lat="46.65896" lon="5.45159">
        <ele>229.2</ele>
        <time>2022-04-16T11:30:38Z</time>
      </trkpt>
      <trkpt lat="46.65903" lon="5.45168">
        <ele>229.2</ele>
        <time>2022-04-16T11:30:40Z</time>
      </trkpt>
      <trkpt lat="46.65909" lon="5.45177">
        <ele>229.2</ele>
        <time>2022-04-16T11:30:42Z</time>
      </trkpt>
      <trkpt lat="46.65925" lon="5.45194">
        <ele>229.2</ele>
        <time>2022-04-16T11:30:46Z</time>
      </trkpt>
      <trkpt lat="46.65937" lon="5.45205">
        <ele>229.2</ele>
        <time>2022-04-16T11:30:49Z</time>
      </trkpt>
      <trkpt lat="46.65945" lon="5.45211">
        <ele>229</ele>
        <time>2022-04-16T11:30:51Z</time>
      </trkpt>
      <trkpt lat="46.65948" lon="5.45215">
        <ele>229</ele>
        <time>2022-04-16T11:30:52Z</time>
      </trkpt>
      <trkpt lat="46.65963" lon="5.45233">
        <ele>229.2</ele>
        <time>2022-04-16T11:30:56Z</time>
      </trkpt>
      <trkpt lat="46.65981" lon="5.45261">
        <ele>229.2</ele>
        <time>2022-04-16T11:31:01Z</time>
      </trkpt>
      <trkpt lat="46.66001" lon="5.45315">
        <ele>229</ele>
        <time>2022-04-16T11:31:08Z</time>
      </trkpt>
      <trkpt lat="46.66025" lon="5.45355">
        <ele>229</ele>
        <time>2022-04-16T11:31:14Z</time>
      </trkpt>
      <trkpt lat="46.66058" lon="5.45409">
        <ele>229.4</ele>
        <time>2022-04-16T11:31:22Z</time>
      </trkpt>
      <trkpt lat="46.66093" lon="5.45456">
        <ele>229</ele>
        <time>2022-04-16T11:31:29Z</time>
      </trkpt>
      <trkpt lat="46.66112" lon="5.45472">
        <ele>228</ele>
        <time>2022-04-16T11:31:32Z</time>
      </trkpt>
      <trkpt lat="46.66118" lon="5.45476">
        <ele>227.6</ele>
        <time>2022-04-16T11:31:33Z</time>
      </trkpt>
      <trkpt lat="46.66125" lon="5.45479">
        <ele>227.2</ele>
        <time>2022-04-16T11:31:34Z</time>
      </trkpt>
      <trkpt lat="46.66131" lon="5.45482">
        <ele>227.2</ele>
        <time>2022-04-16T11:31:35Z</time>
      </trkpt>
      <trkpt lat="46.66158" lon="5.45494">
        <ele>226.6</ele>
        <time>2022-04-16T11:31:39Z</time>
      </trkpt>
      <trkpt lat="46.66199" lon="5.4551">
        <ele>225.4</ele>
        <time>2022-04-16T11:31:45Z</time>
      </trkpt>
      <trkpt lat="46.66219" lon="5.45519">
        <ele>225</ele>
        <time>2022-04-16T11:31:48Z</time>
      </trkpt>
      <trkpt lat="46.66257" lon="5.45542">
        <ele>225</ele>
        <time>2022-04-16T11:31:54Z</time>
      </trkpt>
      <trkpt lat="46.66294" lon="5.45577">
        <ele>225</ele>
        <time>2022-04-16T11:32:01Z</time>
      </trkpt>
      <trkpt lat="46.66323" lon="5.45609">
        <ele>225.2</ele>
        <time>2022-04-16T11:32:07Z</time>
      </trkpt>
      <trkpt lat="46.66348" lon="5.45651">
        <ele>226</ele>
        <time>2022-04-16T11:32:13Z</time>
      </trkpt>
      <trkpt lat="46.66373" lon="5.457">
        <ele>225.4</ele>
        <time>2022-04-16T11:32:19Z</time>
      </trkpt>
      <trkpt lat="46.66403" lon="5.45761">
        <ele>224.4</ele>
        <time>2022-04-16T11:32:27Z</time>
      </trkpt>
      <trkpt lat="46.66411" lon="5.45777">
        <ele>224.2</ele>
        <time>2022-04-16T11:32:29Z</time>
      </trkpt>
      <trkpt lat="46.66445" lon="5.45845">
        <ele>224</ele>
        <time>2022-04-16T11:32:38Z</time>
      </trkpt>
      <trkpt lat="46.66453" lon="5.4586">
        <ele>224.2</ele>
        <time>2022-04-16T11:32:40Z</time>
      </trkpt>
      <trkpt lat="46.66485" lon="5.45925">
        <ele>224.4</ele>
        <time>2022-04-16T11:32:49Z</time>
      </trkpt>
      <trkpt lat="46.66489" lon="5.4593">
        <ele>224.4</ele>
        <time>2022-04-16T11:32:50Z</time>
      </trkpt>
      <trkpt lat="46.66494" lon="5.45934">
        <ele>224.4</ele>
        <time>2022-04-16T11:32:51Z</time>
      </trkpt>
      <trkpt lat="46.66505" lon="5.45935">
        <ele>224.4</ele>
        <time>2022-04-16T11:32:53Z</time>
      </trkpt>
      <trkpt lat="46.6653" lon="5.45918">
        <ele>224.4</ele>
        <time>2022-04-16T11:32:58Z</time>
      </trkpt>
      <trkpt lat="46.66575" lon="5.45886">
        <ele>225.4</ele>
        <time>2022-04-16T11:33:07Z</time>
      </trkpt>
      <trkpt lat="46.66602" lon="5.45867">
        <ele>226.2</ele>
        <time>2022-04-16T11:33:13Z</time>
      </trkpt>
      <trkpt lat="46.66635" lon="5.45847">
        <ele>226.8</ele>
        <time>2022-04-16T11:33:20Z</time>
      </trkpt>
      <trkpt lat="46.66653" lon="5.45836">
        <ele>227.8</ele>
        <time>2022-04-16T11:33:24Z</time>
      </trkpt>
      <trkpt lat="46.66658" lon="5.45834">
        <ele>228.2</ele>
        <time>2022-04-16T11:33:25Z</time>
      </trkpt>
      <trkpt lat="46.6668" lon="5.45827">
        <ele>228.8</ele>
        <time>2022-04-16T11:33:30Z</time>
      </trkpt>
      <trkpt lat="46.66685" lon="5.45826">
        <ele>228.8</ele>
        <time>2022-04-16T11:33:31Z</time>
      </trkpt>
      <trkpt lat="46.6672" lon="5.45815">
        <ele>230</ele>
        <time>2022-04-16T11:33:38Z</time>
      </trkpt>
      <trkpt lat="46.66736" lon="5.4581">
        <ele>230.2</ele>
        <time>2022-04-16T11:33:41Z</time>
      </trkpt>
      <trkpt lat="46.6676" lon="5.45801">
        <ele>230.6</ele>
        <time>2022-04-16T11:33:46Z</time>
      </trkpt>
      <trkpt lat="46.66786" lon="5.45796">
        <ele>231</ele>
        <time>2022-04-16T11:33:51Z</time>
      </trkpt>
      <trkpt lat="46.66791" lon="5.45796">
        <ele>230.8</ele>
        <time>2022-04-16T11:33:52Z</time>
      </trkpt>
      <trkpt lat="46.66801" lon="5.45799">
        <ele>230.6</ele>
        <time>2022-04-16T11:33:54Z</time>
      </trkpt>
      <trkpt lat="46.66811" lon="5.45804">
        <ele>230.6</ele>
        <time>2022-04-16T11:33:56Z</time>
      </trkpt>
      <trkpt lat="46.66824" lon="5.45819">
        <ele>230.6</ele>
        <time>2022-04-16T11:33:59Z</time>
      </trkpt>
      <trkpt lat="46.66849" lon="5.45862">
        <ele>230.6</ele>
        <time>2022-04-16T11:34:06Z</time>
      </trkpt>
      <trkpt lat="46.6687" lon="5.45901">
        <ele>231</ele>
        <time>2022-04-16T11:34:12Z</time>
      </trkpt>
      <trkpt lat="46.66887" lon="5.45942">
        <ele>230.8</ele>
        <time>2022-04-16T11:34:18Z</time>
      </trkpt>
      <trkpt lat="46.66895" lon="5.45954">
        <ele>230.6</ele>
        <time>2022-04-16T11:34:20Z</time>
      </trkpt>
      <trkpt lat="46.66899" lon="5.45959">
        <ele>230.6</ele>
        <time>2022-04-16T11:34:21Z</time>
      </trkpt>
      <trkpt lat="46.66918" lon="5.45974">
        <ele>230.6</ele>
        <time>2022-04-16T11:34:25Z</time>
      </trkpt>
      <trkpt lat="46.66969" lon="5.46001">
        <ele>230.4</ele>
        <time>2022-04-16T11:34:34Z</time>
      </trkpt>
      <trkpt lat="46.67011" lon="5.46029">
        <ele>231</ele>
        <time>2022-04-16T11:34:42Z</time>
      </trkpt>
      <trkpt lat="46.67047" lon="5.46048">
        <ele>231.2</ele>
        <time>2022-04-16T11:34:49Z</time>
      </trkpt>
      <trkpt lat="46.6708" lon="5.46048">
        <ele>231.6</ele>
        <time>2022-04-16T11:34:55Z</time>
      </trkpt>
      <trkpt lat="46.67129" lon="5.46044">
        <ele>231.8</ele>
        <time>2022-04-16T11:35:04Z</time>
      </trkpt>
      <trkpt lat="46.67157" lon="5.46045">
        <ele>231.6</ele>
        <time>2022-04-16T11:35:10Z</time>
      </trkpt>
      <trkpt lat="46.67165" lon="5.46047">
        <ele>231.8</ele>
        <time>2022-04-16T11:35:14Z</time>
      </trkpt>
      <trkpt lat="46.67165" lon="5.46047">
        <ele>231.8</ele>
        <time>2022-04-16T11:35:16Z</time>
      </trkpt>
      <trkpt lat="46.67165" lon="5.46047">
        <ele>231.8</ele>
        <time>2022-04-16T11:35:17Z</time>
      </trkpt>
      <trkpt lat="46.67169" lon="5.4605">
        <ele>232</ele>
        <time>2022-04-16T11:35:21Z</time>
      </trkpt>
      <trkpt lat="46.67181" lon="5.46053">
        <ele>232</ele>
        <time>2022-04-16T11:35:25Z</time>
      </trkpt>
      <trkpt lat="46.67194" lon="5.46053">
        <ele>231.6</ele>
        <time>2022-04-16T11:35:28Z</time>
      </trkpt>
      <trkpt lat="46.67204" lon="5.46056">
        <ele>231.6</ele>
        <time>2022-04-16T11:35:30Z</time>
      </trkpt>
      <trkpt lat="46.67236" lon="5.46071">
        <ele>231.4</ele>
        <time>2022-04-16T11:35:36Z</time>
      </trkpt>
      <trkpt lat="46.67279" lon="5.46092">
        <ele>231.2</ele>
        <time>2022-04-16T11:35:44Z</time>
      </trkpt>
      <trkpt lat="46.67329" lon="5.46117">
        <ele>231</ele>
        <time>2022-04-16T11:35:54Z</time>
      </trkpt>
      <trkpt lat="46.67383" lon="5.46143">
        <ele>230.8</ele>
        <time>2022-04-16T11:36:05Z</time>
      </trkpt>
      <trkpt lat="46.67388" lon="5.46146">
        <ele>230.8</ele>
        <time>2022-04-16T11:36:06Z</time>
      </trkpt>
      <trkpt lat="46.67434" lon="5.46167">
        <ele>231.2</ele>
        <time>2022-04-16T11:36:15Z</time>
      </trkpt>
      <trkpt lat="46.6748" lon="5.46189">
        <ele>231.6</ele>
        <time>2022-04-16T11:36:24Z</time>
      </trkpt>
      <trkpt lat="46.67531" lon="5.46214">
        <ele>231.6</ele>
        <time>2022-04-16T11:36:34Z</time>
      </trkpt>
      <trkpt lat="46.67536" lon="5.46217">
        <ele>231.8</ele>
        <time>2022-04-16T11:36:35Z</time>
      </trkpt>
      <trkpt lat="46.67557" lon="5.46227">
        <ele>232.2</ele>
        <time>2022-04-16T11:36:39Z</time>
      </trkpt>
      <trkpt lat="46.67583" lon="5.4624">
        <ele>232.4</ele>
        <time>2022-04-16T11:36:44Z</time>
      </trkpt>
      <trkpt lat="46.67626" lon="5.4626">
        <ele>231.6</ele>
        <time>2022-04-16T11:36:52Z</time>
      </trkpt>
      <trkpt lat="46.67666" lon="5.4628">
        <ele>231.4</ele>
        <time>2022-04-16T11:37:00Z</time>
      </trkpt>
      <trkpt lat="46.67719" lon="5.46306">
        <ele>231.8</ele>
        <time>2022-04-16T11:37:11Z</time>
      </trkpt>
      <trkpt lat="46.6776" lon="5.46326">
        <ele>231.6</ele>
        <time>2022-04-16T11:37:20Z</time>
      </trkpt>
      <trkpt lat="46.67792" lon="5.46343">
        <ele>232.2</ele>
        <time>2022-04-16T11:37:27Z</time>
      </trkpt>
      <trkpt lat="46.67823" lon="5.46357">
        <ele>233.4</ele>
        <time>2022-04-16T11:37:33Z</time>
      </trkpt>
      <trkpt lat="46.67838" lon="5.46365">
        <ele>233.6</ele>
        <time>2022-04-16T11:37:36Z</time>
      </trkpt>
      <trkpt lat="46.67885" lon="5.46387">
        <ele>232.4</ele>
        <time>2022-04-16T11:37:45Z</time>
      </trkpt>
      <trkpt lat="46.67895" lon="5.46392">
        <ele>232</ele>
        <time>2022-04-16T11:37:47Z</time>
      </trkpt>
      <trkpt lat="46.67949" lon="5.4642">
        <ele>232.8</ele>
        <time>2022-04-16T11:37:58Z</time>
      </trkpt>
      <trkpt lat="46.68003" lon="5.46445">
        <ele>232.6</ele>
        <time>2022-04-16T11:38:09Z</time>
      </trkpt>
      <trkpt lat="46.68018" lon="5.46453">
        <ele>232.6</ele>
        <time>2022-04-16T11:38:12Z</time>
      </trkpt>
      <trkpt lat="46.68073" lon="5.4648">
        <ele>232.6</ele>
        <time>2022-04-16T11:38:23Z</time>
      </trkpt>
      <trkpt lat="46.68088" lon="5.46487">
        <ele>232.8</ele>
        <time>2022-04-16T11:38:26Z</time>
      </trkpt>
      <trkpt lat="46.6814" lon="5.46513">
        <ele>232.6</ele>
        <time>2022-04-16T11:38:36Z</time>
      </trkpt>
      <trkpt lat="46.68187" lon="5.46542">
        <ele>232.6</ele>
        <time>2022-04-16T11:38:45Z</time>
      </trkpt>
      <trkpt lat="46.68237" lon="5.46582">
        <ele>232.4</ele>
        <time>2022-04-16T11:38:54Z</time>
      </trkpt>
      <trkpt lat="46.68256" lon="5.46596">
        <ele>231.4</ele>
        <time>2022-04-16T11:38:57Z</time>
      </trkpt>
      <trkpt lat="46.68275" lon="5.46611">
        <ele>231.2</ele>
        <time>2022-04-16T11:39:00Z</time>
      </trkpt>
      <trkpt lat="46.68309" lon="5.46641">
        <ele>230</ele>
        <time>2022-04-16T11:39:05Z</time>
      </trkpt>
      <trkpt lat="46.68323" lon="5.46654">
        <ele>228.6</ele>
        <time>2022-04-16T11:39:07Z</time>
      </trkpt>
      <trkpt lat="46.68343" lon="5.46676">
        <ele>227</ele>
        <time>2022-04-16T11:39:10Z</time>
      </trkpt>
      <trkpt lat="46.68349" lon="5.46684">
        <ele>226.4</ele>
        <time>2022-04-16T11:39:11Z</time>
      </trkpt>
      <trkpt lat="46.68361" lon="5.46699">
        <ele>225.8</ele>
        <time>2022-04-16T11:39:13Z</time>
      </trkpt>
      <trkpt lat="46.68382" lon="5.46731">
        <ele>225</ele>
        <time>2022-04-16T11:39:17Z</time>
      </trkpt>
      <trkpt lat="46.68406" lon="5.4677">
        <ele>225.2</ele>
        <time>2022-04-16T11:39:23Z</time>
      </trkpt>
      <trkpt lat="46.68427" lon="5.46803">
        <ele>227.2</ele>
        <time>2022-04-16T11:39:29Z</time>
      </trkpt>
      <trkpt lat="46.68438" lon="5.46819">
        <ele>227.4</ele>
        <time>2022-04-16T11:39:32Z</time>
      </trkpt>
      <trkpt lat="46.68445" lon="5.4683">
        <ele>228</ele>
        <time>2022-04-16T11:39:34Z</time>
      </trkpt>
      <trkpt lat="46.68451" lon="5.46841">
        <ele>228.2</ele>
        <time>2022-04-16T11:39:36Z</time>
      </trkpt>
      <trkpt lat="46.68465" lon="5.46864">
        <ele>228.6</ele>
        <time>2022-04-16T11:39:40Z</time>
      </trkpt>
      <trkpt lat="46.6848" lon="5.4689">
        <ele>229.2</ele>
        <time>2022-04-16T11:39:44Z</time>
      </trkpt>
      <trkpt lat="46.68494" lon="5.46915">
        <ele>230</ele>
        <time>2022-04-16T11:39:48Z</time>
      </trkpt>
      <trkpt lat="46.68497" lon="5.46922">
        <ele>230.2</ele>
        <time>2022-04-16T11:39:49Z</time>
      </trkpt>
      <trkpt lat="46.68501" lon="5.46928">
        <ele>230.2</ele>
        <time>2022-04-16T11:39:50Z</time>
      </trkpt>
      <trkpt lat="46.68517" lon="5.46959">
        <ele>230.6</ele>
        <time>2022-04-16T11:39:55Z</time>
      </trkpt>
      <trkpt lat="46.68544" lon="5.47005">
        <ele>230.8</ele>
        <time>2022-04-16T11:40:03Z</time>
      </trkpt>
      <trkpt lat="46.68561" lon="5.47035">
        <ele>231.4</ele>
        <time>2022-04-16T11:40:08Z</time>
      </trkpt>
      <trkpt lat="46.68585" lon="5.47079">
        <ele>232</ele>
        <time>2022-04-16T11:40:15Z</time>
      </trkpt>
      <trkpt lat="46.68604" lon="5.47111">
        <ele>232.6</ele>
        <time>2022-04-16T11:40:20Z</time>
      </trkpt>
      <trkpt lat="46.68615" lon="5.47132">
        <ele>232.6</ele>
        <time>2022-04-16T11:40:23Z</time>
      </trkpt>
      <trkpt lat="46.68647" lon="5.47189">
        <ele>232.2</ele>
        <time>2022-04-16T11:40:31Z</time>
      </trkpt>
      <trkpt lat="46.68682" lon="5.47255">
        <ele>231.8</ele>
        <time>2022-04-16T11:40:40Z</time>
      </trkpt>
      <trkpt lat="46.68686" lon="5.47262">
        <ele>231.6</ele>
        <time>2022-04-16T11:40:41Z</time>
      </trkpt>
      <trkpt lat="46.68693" lon="5.47277">
        <ele>231.4</ele>
        <time>2022-04-16T11:40:43Z</time>
      </trkpt>
      <trkpt lat="46.68714" lon="5.47315">
        <ele>231</ele>
        <time>2022-04-16T11:40:48Z</time>
      </trkpt>
      <trkpt lat="46.68733" lon="5.47341">
        <ele>230.4</ele>
        <time>2022-04-16T11:40:52Z</time>
      </trkpt>
      <trkpt lat="46.68739" lon="5.47345">
        <ele>230</ele>
        <time>2022-04-16T11:40:53Z</time>
      </trkpt>
      <trkpt lat="46.68745" lon="5.47347">
        <ele>229.6</ele>
        <time>2022-04-16T11:40:54Z</time>
      </trkpt>
      <trkpt lat="46.68752" lon="5.47349">
        <ele>229.2</ele>
        <time>2022-04-16T11:40:55Z</time>
      </trkpt>
      <trkpt lat="46.68766" lon="5.4735">
        <ele>228.4</ele>
        <time>2022-04-16T11:40:57Z</time>
      </trkpt>
      <trkpt lat="46.68781" lon="5.47351">
        <ele>228</ele>
        <time>2022-04-16T11:40:59Z</time>
      </trkpt>
      <trkpt lat="46.68821" lon="5.4736">
        <ele>227.4</ele>
        <time>2022-04-16T11:41:05Z</time>
      </trkpt>
      <trkpt lat="46.68838" lon="5.47367">
        <ele>227.6</ele>
        <time>2022-04-16T11:41:08Z</time>
      </trkpt>
      <trkpt lat="46.68848" lon="5.47374">
        <ele>228</ele>
        <time>2022-04-16T11:41:10Z</time>
      </trkpt>
      <trkpt lat="46.68866" lon="5.47391">
        <ele>229</ele>
        <time>2022-04-16T11:41:14Z</time>
      </trkpt>
      <trkpt lat="46.68876" lon="5.47399">
        <ele>229.6</ele>
        <time>2022-04-16T11:41:16Z</time>
      </trkpt>
      <trkpt lat="46.68884" lon="5.47408">
        <ele>230.2</ele>
        <time>2022-04-16T11:41:18Z</time>
      </trkpt>
      <trkpt lat="46.68899" lon="5.47426">
        <ele>231.4</ele>
        <time>2022-04-16T11:41:22Z</time>
      </trkpt>
      <trkpt lat="46.68906" lon="5.47436">
        <ele>231.8</ele>
        <time>2022-04-16T11:41:24Z</time>
      </trkpt>
      <trkpt lat="46.68916" lon="5.47451">
        <ele>233</ele>
        <time>2022-04-16T11:41:27Z</time>
      </trkpt>
      <trkpt lat="46.6893" lon="5.47474">
        <ele>234</ele>
        <time>2022-04-16T11:41:31Z</time>
      </trkpt>
      <trkpt lat="46.68938" lon="5.47486">
        <ele>234.4</ele>
        <time>2022-04-16T11:41:33Z</time>
      </trkpt>
      <trkpt lat="46.68959" lon="5.47524">
        <ele>234.2</ele>
        <time>2022-04-16T11:41:39Z</time>
      </trkpt>
      <trkpt lat="46.68963" lon="5.4753">
        <ele>234</ele>
        <time>2022-04-16T11:41:40Z</time>
      </trkpt>
      <trkpt lat="46.68986" lon="5.47567">
        <ele>234</ele>
        <time>2022-04-16T11:41:46Z</time>
      </trkpt>
      <trkpt lat="46.69017" lon="5.47619">
        <ele>234.4</ele>
        <time>2022-04-16T11:41:54Z</time>
      </trkpt>
      <trkpt lat="46.69055" lon="5.47679">
        <ele>233.6</ele>
        <time>2022-04-16T11:42:04Z</time>
      </trkpt>
      <trkpt lat="46.69058" lon="5.47685">
        <ele>233.8</ele>
        <time>2022-04-16T11:42:05Z</time>
      </trkpt>
      <trkpt lat="46.69084" lon="5.47726">
        <ele>233.8</ele>
        <time>2022-04-16T11:42:12Z</time>
      </trkpt>
      <trkpt lat="46.69123" lon="5.47788">
        <ele>233.4</ele>
        <time>2022-04-16T11:42:22Z</time>
      </trkpt>
      <trkpt lat="46.6916" lon="5.47847">
        <ele>233.6</ele>
        <time>2022-04-16T11:42:31Z</time>
      </trkpt>
      <trkpt lat="46.69165" lon="5.47855">
        <ele>233.6</ele>
        <time>2022-04-16T11:42:32Z</time>
      </trkpt>
      <trkpt lat="46.69193" lon="5.47899">
        <ele>233</ele>
        <time>2022-04-16T11:42:38Z</time>
      </trkpt>
      <trkpt lat="46.69203" lon="5.47916">
        <ele>232.6</ele>
        <time>2022-04-16T11:42:40Z</time>
      </trkpt>
      <trkpt lat="46.69223" lon="5.47948">
        <ele>232</ele>
        <time>2022-04-16T11:42:44Z</time>
      </trkpt>
      <trkpt lat="46.69229" lon="5.47955">
        <ele>231.8</ele>
        <time>2022-04-16T11:42:45Z</time>
      </trkpt>
      <trkpt lat="46.69236" lon="5.47959">
        <ele>231.2</ele>
        <time>2022-04-16T11:42:46Z</time>
      </trkpt>
      <trkpt lat="46.69249" lon="5.47958">
        <ele>231</ele>
        <time>2022-04-16T11:42:48Z</time>
      </trkpt>
      <trkpt lat="46.69256" lon="5.47953">
        <ele>230.8</ele>
        <time>2022-04-16T11:42:49Z</time>
      </trkpt>
      <trkpt lat="46.69262" lon="5.47947">
        <ele>230.8</ele>
        <time>2022-04-16T11:42:50Z</time>
      </trkpt>
      <trkpt lat="46.69281" lon="5.47924">
        <ele>230.4</ele>
        <time>2022-04-16T11:42:53Z</time>
      </trkpt>
      <trkpt lat="46.69295" lon="5.47911">
        <ele>230.2</ele>
        <time>2022-04-16T11:42:55Z</time>
      </trkpt>
      <trkpt lat="46.69311" lon="5.47901">
        <ele>229.8</ele>
        <time>2022-04-16T11:42:57Z</time>
      </trkpt>
      <trkpt lat="46.69319" lon="5.47898">
        <ele>229.4</ele>
        <time>2022-04-16T11:42:58Z</time>
      </trkpt>
      <trkpt lat="46.69358" lon="5.47895">
        <ele>228.4</ele>
        <time>2022-04-16T11:43:03Z</time>
      </trkpt>
      <trkpt lat="46.69373" lon="5.47893">
        <ele>228.2</ele>
        <time>2022-04-16T11:43:05Z</time>
      </trkpt>
      <trkpt lat="46.69415" lon="5.47885">
        <ele>227.8</ele>
        <time>2022-04-16T11:43:11Z</time>
      </trkpt>
      <trkpt lat="46.69454" lon="5.47878">
        <ele>227.6</ele>
        <time>2022-04-16T11:43:17Z</time>
      </trkpt>
      <trkpt lat="46.69499" lon="5.4788">
        <ele>228.8</ele>
        <time>2022-04-16T11:43:24Z</time>
      </trkpt>
      <trkpt lat="46.69522" lon="5.47888">
        <ele>229.4</ele>
        <time>2022-04-16T11:43:28Z</time>
      </trkpt>
      <trkpt lat="46.69539" lon="5.47894">
        <ele>229.8</ele>
        <time>2022-04-16T11:43:31Z</time>
      </trkpt>
      <trkpt lat="46.69549" lon="5.47901">
        <ele>230.2</ele>
        <time>2022-04-16T11:43:33Z</time>
      </trkpt>
      <trkpt lat="46.69559" lon="5.47909">
        <ele>230.6</ele>
        <time>2022-04-16T11:43:35Z</time>
      </trkpt>
      <trkpt lat="46.69563" lon="5.47914">
        <ele>230.8</ele>
        <time>2022-04-16T11:43:36Z</time>
      </trkpt>
      <trkpt lat="46.6959" lon="5.47958">
        <ele>231.8</ele>
        <time>2022-04-16T11:43:43Z</time>
      </trkpt>
      <trkpt lat="46.69617" lon="5.47997">
        <ele>232</ele>
        <time>2022-04-16T11:43:49Z</time>
      </trkpt>
      <trkpt lat="46.69634" lon="5.48024">
        <ele>233</ele>
        <time>2022-04-16T11:43:53Z</time>
      </trkpt>
      <trkpt lat="46.69647" lon="5.48044">
        <ele>233.2</ele>
        <time>2022-04-16T11:43:56Z</time>
      </trkpt>
      <trkpt lat="46.69684" lon="5.48103">
        <ele>233</ele>
        <time>2022-04-16T11:44:05Z</time>
      </trkpt>
      <trkpt lat="46.697" lon="5.48129">
        <ele>233.2</ele>
        <time>2022-04-16T11:44:09Z</time>
      </trkpt>
      <trkpt lat="46.69713" lon="5.48148">
        <ele>233.4</ele>
        <time>2022-04-16T11:44:12Z</time>
      </trkpt>
      <trkpt lat="46.69746" lon="5.482">
        <ele>233.8</ele>
        <time>2022-04-16T11:44:20Z</time>
      </trkpt>
      <trkpt lat="46.69767" lon="5.48229">
        <ele>234</ele>
        <time>2022-04-16T11:44:25Z</time>
      </trkpt>
      <trkpt lat="46.69775" lon="5.48241">
        <ele>234</ele>
        <time>2022-04-16T11:44:27Z</time>
      </trkpt>
      <trkpt lat="46.69808" lon="5.4829">
        <ele>234.8</ele>
        <time>2022-04-16T11:44:35Z</time>
      </trkpt>
      <trkpt lat="46.69812" lon="5.48297">
        <ele>235</ele>
        <time>2022-04-16T11:44:36Z</time>
      </trkpt>
      <trkpt lat="46.69838" lon="5.48336">
        <ele>235.4</ele>
        <time>2022-04-16T11:44:42Z</time>
      </trkpt>
      <trkpt lat="46.69875" lon="5.48393">
        <ele>234.6</ele>
        <time>2022-04-16T11:44:50Z</time>
      </trkpt>
      <trkpt lat="46.69904" lon="5.4844">
        <ele>234.6</ele>
        <time>2022-04-16T11:44:57Z</time>
      </trkpt>
      <trkpt lat="46.69908" lon="5.48446">
        <ele>234.6</ele>
        <time>2022-04-16T11:44:58Z</time>
      </trkpt>
      <trkpt lat="46.69936" lon="5.48489">
        <ele>236</ele>
        <time>2022-04-16T11:45:05Z</time>
      </trkpt>
      <trkpt lat="46.69943" lon="5.48501">
        <ele>236.2</ele>
        <time>2022-04-16T11:45:07Z</time>
      </trkpt>
      <trkpt lat="46.69951" lon="5.48514">
        <ele>236.6</ele>
        <time>2022-04-16T11:45:09Z</time>
      </trkpt>
      <trkpt lat="46.69959" lon="5.48526">
        <ele>236.8</ele>
        <time>2022-04-16T11:45:11Z</time>
      </trkpt>
      <trkpt lat="46.6999" lon="5.48573">
        <ele>236.8</ele>
        <time>2022-04-16T11:45:19Z</time>
      </trkpt>
      <trkpt lat="46.7001" lon="5.48605">
        <ele>236.4</ele>
        <time>2022-04-16T11:45:25Z</time>
      </trkpt>
      <trkpt lat="46.70024" lon="5.48629">
        <ele>237</ele>
        <time>2022-04-16T11:45:30Z</time>
      </trkpt>
      <trkpt lat="46.70025" lon="5.4863">
        <ele>237</ele>
        <time>2022-04-16T11:45:31Z</time>
      </trkpt>
      <trkpt lat="46.70025" lon="5.4863">
        <ele>237.2</ele>
        <time>2022-04-16T11:45:32Z</time>
      </trkpt>
      <trkpt lat="46.70027" lon="5.48635">
        <ele>237.6</ele>
        <time>2022-04-16T11:45:40Z</time>
      </trkpt>
      <trkpt lat="46.7003" lon="5.48636">
        <ele>237.6</ele>
        <time>2022-04-16T11:45:41Z</time>
      </trkpt>
      <trkpt lat="46.70036" lon="5.48632">
        <ele>237.6</ele>
        <time>2022-04-16T11:45:43Z</time>
      </trkpt>
      <trkpt lat="46.7004" lon="5.48628">
        <ele>237.6</ele>
        <time>2022-04-16T11:45:44Z</time>
      </trkpt>
      <trkpt lat="46.70053" lon="5.48612">
        <ele>237.2</ele>
        <time>2022-04-16T11:45:47Z</time>
      </trkpt>
      <trkpt lat="46.70094" lon="5.4856">
        <ele>236</ele>
        <time>2022-04-16T11:45:55Z</time>
      </trkpt>
      <trkpt lat="46.70133" lon="5.48521">
        <ele>236.2</ele>
        <time>2022-04-16T11:46:02Z</time>
      </trkpt>
      <trkpt lat="46.70176" lon="5.48492">
        <ele>236.2</ele>
        <time>2022-04-16T11:46:09Z</time>
      </trkpt>
      <trkpt lat="46.70229" lon="5.48463">
        <ele>236.2</ele>
        <time>2022-04-16T11:46:18Z</time>
      </trkpt>
      <trkpt lat="46.70242" lon="5.48457">
        <ele>235.8</ele>
        <time>2022-04-16T11:46:20Z</time>
      </trkpt>
      <trkpt lat="46.70248" lon="5.48453">
        <ele>235.6</ele>
        <time>2022-04-16T11:46:21Z</time>
      </trkpt>
      <trkpt lat="46.70301" lon="5.48424">
        <ele>235.2</ele>
        <time>2022-04-16T11:46:29Z</time>
      </trkpt>
      <trkpt lat="46.70322" lon="5.48414">
        <ele>235.2</ele>
        <time>2022-04-16T11:46:32Z</time>
      </trkpt>
      <trkpt lat="46.70376" lon="5.48384">
        <ele>234.8</ele>
        <time>2022-04-16T11:46:40Z</time>
      </trkpt>
      <trkpt lat="46.70383" lon="5.4838">
        <ele>234.8</ele>
        <time>2022-04-16T11:46:41Z</time>
      </trkpt>
      <trkpt lat="46.70397" lon="5.48371">
        <ele>234.8</ele>
        <time>2022-04-16T11:46:43Z</time>
      </trkpt>
      <trkpt lat="46.70452" lon="5.48338">
        <ele>234.4</ele>
        <time>2022-04-16T11:46:51Z</time>
      </trkpt>
      <trkpt lat="46.70466" lon="5.4833">
        <ele>234.2</ele>
        <time>2022-04-16T11:46:53Z</time>
      </trkpt>
      <trkpt lat="46.70516" lon="5.483">
        <ele>234</ele>
        <time>2022-04-16T11:47:00Z</time>
      </trkpt>
      <trkpt lat="46.70524" lon="5.48296">
        <ele>233.8</ele>
        <time>2022-04-16T11:47:01Z</time>
      </trkpt>
      <trkpt lat="46.7054" lon="5.48288">
        <ele>233.6</ele>
        <time>2022-04-16T11:47:03Z</time>
      </trkpt>
      <trkpt lat="46.70578" lon="5.48267">
        <ele>232.4</ele>
        <time>2022-04-16T11:47:08Z</time>
      </trkpt>
      <trkpt lat="46.70588" lon="5.48262">
        <ele>232.2</ele>
        <time>2022-04-16T11:47:09Z</time>
      </trkpt>
      <trkpt lat="46.70636" lon="5.48233">
        <ele>231.2</ele>
        <time>2022-04-16T11:47:15Z</time>
      </trkpt>
      <trkpt lat="46.7066" lon="5.48218">
        <ele>231</ele>
        <time>2022-04-16T11:47:18Z</time>
      </trkpt>
      <trkpt lat="46.70691" lon="5.48199">
        <ele>230</ele>
        <time>2022-04-16T11:47:22Z</time>
      </trkpt>
      <trkpt lat="46.70737" lon="5.48172">
        <ele>229.4</ele>
        <time>2022-04-16T11:47:28Z</time>
      </trkpt>
      <trkpt lat="46.7075" lon="5.48164">
        <ele>229</ele>
        <time>2022-04-16T11:47:30Z</time>
      </trkpt>
      <trkpt lat="46.7079" lon="5.48139">
        <ele>227.8</ele>
        <time>2022-04-16T11:47:35Z</time>
      </trkpt>
      <trkpt lat="46.70836" lon="5.48111">
        <ele>226.8</ele>
        <time>2022-04-16T11:47:41Z</time>
      </trkpt>
      <trkpt lat="46.70852" lon="5.48102">
        <ele>226.4</ele>
        <time>2022-04-16T11:47:43Z</time>
      </trkpt>
      <trkpt lat="46.70868" lon="5.48093">
        <ele>225.4</ele>
        <time>2022-04-16T11:47:45Z</time>
      </trkpt>
      <trkpt lat="46.70893" lon="5.48079">
        <ele>224.2</ele>
        <time>2022-04-16T11:47:48Z</time>
      </trkpt>
      <trkpt lat="46.70918" lon="5.48064">
        <ele>222.8</ele>
        <time>2022-04-16T11:47:51Z</time>
      </trkpt>
      <trkpt lat="46.70935" lon="5.48054">
        <ele>222.4</ele>
        <time>2022-04-16T11:47:53Z</time>
      </trkpt>
      <trkpt lat="46.70951" lon="5.48044">
        <ele>221.6</ele>
        <time>2022-04-16T11:47:55Z</time>
      </trkpt>
      <trkpt lat="46.70975" lon="5.4803">
        <ele>220.2</ele>
        <time>2022-04-16T11:47:58Z</time>
      </trkpt>
      <trkpt lat="46.71001" lon="5.48013">
        <ele>219</ele>
        <time>2022-04-16T11:48:01Z</time>
      </trkpt>
      <trkpt lat="46.71008" lon="5.48009">
        <ele>218.6</ele>
        <time>2022-04-16T11:48:02Z</time>
      </trkpt>
      <trkpt lat="46.71042" lon="5.47988">
        <ele>217.8</ele>
        <time>2022-04-16T11:48:06Z</time>
      </trkpt>
      <trkpt lat="46.71079" lon="5.47963">
        <ele>217.2</ele>
        <time>2022-04-16T11:48:11Z</time>
      </trkpt>
      <trkpt lat="46.71101" lon="5.47948">
        <ele>216.8</ele>
        <time>2022-04-16T11:48:14Z</time>
      </trkpt>
      <trkpt lat="46.7113" lon="5.47927">
        <ele>216.6</ele>
        <time>2022-04-16T11:48:18Z</time>
      </trkpt>
      <trkpt lat="46.71179" lon="5.47893">
        <ele>216.2</ele>
        <time>2022-04-16T11:48:25Z</time>
      </trkpt>
      <trkpt lat="46.71207" lon="5.47873">
        <ele>215.8</ele>
        <time>2022-04-16T11:48:29Z</time>
      </trkpt>
      <trkpt lat="46.71261" lon="5.47836">
        <ele>216</ele>
        <time>2022-04-16T11:48:37Z</time>
      </trkpt>
      <trkpt lat="46.71311" lon="5.47794">
        <ele>216.2</ele>
        <time>2022-04-16T11:48:45Z</time>
      </trkpt>
      <trkpt lat="46.71354" lon="5.47742">
        <ele>215.8</ele>
        <time>2022-04-16T11:48:53Z</time>
      </trkpt>
      <trkpt lat="46.71368" lon="5.47721">
        <ele>215.6</ele>
        <time>2022-04-16T11:48:56Z</time>
      </trkpt>
      <trkpt lat="46.71373" lon="5.47714">
        <ele>215.6</ele>
        <time>2022-04-16T11:48:57Z</time>
      </trkpt>
      <trkpt lat="46.71385" lon="5.47706">
        <ele>215.6</ele>
        <time>2022-04-16T11:48:59Z</time>
      </trkpt>
      <trkpt lat="46.71397" lon="5.47705">
        <ele>215.8</ele>
        <time>2022-04-16T11:49:01Z</time>
      </trkpt>
      <trkpt lat="46.71404" lon="5.47707">
        <ele>215.8</ele>
        <time>2022-04-16T11:49:02Z</time>
      </trkpt>
      <trkpt lat="46.71411" lon="5.47709">
        <ele>215.8</ele>
        <time>2022-04-16T11:49:03Z</time>
      </trkpt>
      <trkpt lat="46.71431" lon="5.47709">
        <ele>215.8</ele>
        <time>2022-04-16T11:49:06Z</time>
      </trkpt>
      <trkpt lat="46.71458" lon="5.47696">
        <ele>215.4</ele>
        <time>2022-04-16T11:49:10Z</time>
      </trkpt>
      <trkpt lat="46.71492" lon="5.47674">
        <ele>214.4</ele>
        <time>2022-04-16T11:49:15Z</time>
      </trkpt>
      <trkpt lat="46.71524" lon="5.47652">
        <ele>214</ele>
        <time>2022-04-16T11:49:20Z</time>
      </trkpt>
      <trkpt lat="46.71547" lon="5.47635">
        <ele>213.6</ele>
        <time>2022-04-16T11:49:24Z</time>
      </trkpt>
      <trkpt lat="46.71562" lon="5.47624">
        <ele>213.6</ele>
        <time>2022-04-16T11:49:27Z</time>
      </trkpt>
      <trkpt lat="46.71602" lon="5.47597">
        <ele>213.6</ele>
        <time>2022-04-16T11:49:34Z</time>
      </trkpt>
      <trkpt lat="46.71625" lon="5.47585">
        <ele>213.8</ele>
        <time>2022-04-16T11:49:38Z</time>
      </trkpt>
      <trkpt lat="46.71637" lon="5.47583">
        <ele>213.8</ele>
        <time>2022-04-16T11:49:40Z</time>
      </trkpt>
      <trkpt lat="46.71664" lon="5.47586">
        <ele>214</ele>
        <time>2022-04-16T11:49:45Z</time>
      </trkpt>
      <trkpt lat="46.71676" lon="5.47585">
        <ele>214.2</ele>
        <time>2022-04-16T11:49:47Z</time>
      </trkpt>
      <trkpt lat="46.71693" lon="5.47582">
        <ele>214.4</ele>
        <time>2022-04-16T11:49:50Z</time>
      </trkpt>
      <trkpt lat="46.71711" lon="5.47576">
        <ele>214.4</ele>
        <time>2022-04-16T11:49:53Z</time>
      </trkpt>
      <trkpt lat="46.71723" lon="5.47577">
        <ele>214.4</ele>
        <time>2022-04-16T11:49:55Z</time>
      </trkpt>
      <trkpt lat="46.71734" lon="5.4759">
        <ele>214.4</ele>
        <time>2022-04-16T11:49:57Z</time>
      </trkpt>
      <trkpt lat="46.71737" lon="5.47598">
        <ele>214.2</ele>
        <time>2022-04-16T11:49:58Z</time>
      </trkpt>
      <trkpt lat="46.71745" lon="5.47619">
        <ele>214</ele>
        <time>2022-04-16T11:50:00Z</time>
      </trkpt>
      <trkpt lat="46.71756" lon="5.47634">
        <ele>213.4</ele>
        <time>2022-04-16T11:50:02Z</time>
      </trkpt>
      <trkpt lat="46.7177" lon="5.47644">
        <ele>212.6</ele>
        <time>2022-04-16T11:50:04Z</time>
      </trkpt>
      <trkpt lat="46.71787" lon="5.47651">
        <ele>212</ele>
        <time>2022-04-16T11:50:06Z</time>
      </trkpt>
      <trkpt lat="46.7181" lon="5.4766">
        <ele>211.4</ele>
        <time>2022-04-16T11:50:09Z</time>
      </trkpt>
      <trkpt lat="46.71832" lon="5.47665">
        <ele>210.8</ele>
        <time>2022-04-16T11:50:12Z</time>
      </trkpt>
      <trkpt lat="46.71858" lon="5.47665">
        <ele>210.6</ele>
        <time>2022-04-16T11:50:16Z</time>
      </trkpt>
      <trkpt lat="46.71865" lon="5.47667">
        <ele>210.6</ele>
        <time>2022-04-16T11:50:17Z</time>
      </trkpt>
      <trkpt lat="46.71875" lon="5.47675">
        <ele>210.6</ele>
        <time>2022-04-16T11:50:19Z</time>
      </trkpt>
      <trkpt lat="46.7188" lon="5.47692">
        <ele>210.8</ele>
        <time>2022-04-16T11:50:21Z</time>
      </trkpt>
      <trkpt lat="46.71881" lon="5.47701">
        <ele>211</ele>
        <time>2022-04-16T11:50:22Z</time>
      </trkpt>
      <trkpt lat="46.71887" lon="5.47729">
        <ele>211.6</ele>
        <time>2022-04-16T11:50:25Z</time>
      </trkpt>
      <trkpt lat="46.71894" lon="5.47746">
        <ele>211.6</ele>
        <time>2022-04-16T11:50:27Z</time>
      </trkpt>
      <trkpt lat="46.71919" lon="5.47795">
        <ele>211.6</ele>
        <time>2022-04-16T11:50:34Z</time>
      </trkpt>
      <trkpt lat="46.71922" lon="5.47802">
        <ele>211.4</ele>
        <time>2022-04-16T11:50:35Z</time>
      </trkpt>
      <trkpt lat="46.7193" lon="5.47816">
        <ele>211.2</ele>
        <time>2022-04-16T11:50:37Z</time>
      </trkpt>
      <trkpt lat="46.71935" lon="5.47823">
        <ele>210.8</ele>
        <time>2022-04-16T11:50:38Z</time>
      </trkpt>
      <trkpt lat="46.7194" lon="5.4783">
        <ele>210.6</ele>
        <time>2022-04-16T11:50:39Z</time>
      </trkpt>
      <trkpt lat="46.71958" lon="5.4786">
        <ele>210.4</ele>
        <time>2022-04-16T11:50:43Z</time>
      </trkpt>
      <trkpt lat="46.71966" lon="5.47875">
        <ele>210.4</ele>
        <time>2022-04-16T11:50:45Z</time>
      </trkpt>
      <trkpt lat="46.71976" lon="5.47901">
        <ele>210.4</ele>
        <time>2022-04-16T11:50:48Z</time>
      </trkpt>
      <trkpt lat="46.71994" lon="5.4797">
        <ele>210</ele>
        <time>2022-04-16T11:50:56Z</time>
      </trkpt>
      <trkpt lat="46.71999" lon="5.47988">
        <ele>209.8</ele>
        <time>2022-04-16T11:50:58Z</time>
      </trkpt>
      <trkpt lat="46.72009" lon="5.48021">
        <ele>209.8</ele>
        <time>2022-04-16T11:51:02Z</time>
      </trkpt>
      <trkpt lat="46.72019" lon="5.48064">
        <ele>209.8</ele>
        <time>2022-04-16T11:51:07Z</time>
      </trkpt>
      <trkpt lat="46.72022" lon="5.48085">
        <ele>210</ele>
        <time>2022-04-16T11:51:09Z</time>
      </trkpt>
      <trkpt lat="46.72024" lon="5.48114">
        <ele>210.2</ele>
        <time>2022-04-16T11:51:12Z</time>
      </trkpt>
      <trkpt lat="46.72021" lon="5.48131">
        <ele>210.2</ele>
        <time>2022-04-16T11:51:14Z</time>
      </trkpt>
      <trkpt lat="46.72018" lon="5.48147">
        <ele>210.6</ele>
        <time>2022-04-16T11:51:16Z</time>
      </trkpt>
      <trkpt lat="46.72014" lon="5.48177">
        <ele>211.2</ele>
        <time>2022-04-16T11:51:20Z</time>
      </trkpt>
      <trkpt lat="46.72013" lon="5.48184">
        <ele>211.2</ele>
        <time>2022-04-16T11:51:21Z</time>
      </trkpt>
      <trkpt lat="46.72011" lon="5.48197">
        <ele>212</ele>
        <time>2022-04-16T11:51:23Z</time>
      </trkpt>
      <trkpt lat="46.72009" lon="5.4821">
        <ele>212.2</ele>
        <time>2022-04-16T11:51:25Z</time>
      </trkpt>
      <trkpt lat="46.72009" lon="5.48216">
        <ele>212.4</ele>
        <time>2022-04-16T11:51:26Z</time>
      </trkpt>
      <trkpt lat="46.72007" lon="5.48244">
        <ele>213.8</ele>
        <time>2022-04-16T11:51:30Z</time>
      </trkpt>
      <trkpt lat="46.72007" lon="5.48259">
        <ele>214.6</ele>
        <time>2022-04-16T11:51:32Z</time>
      </trkpt>
      <trkpt lat="46.72007" lon="5.48273">
        <ele>215</ele>
        <time>2022-04-16T11:51:34Z</time>
      </trkpt>
      <trkpt lat="46.72008" lon="5.48316">
        <ele>216.2</ele>
        <time>2022-04-16T11:51:39Z</time>
      </trkpt>
      <trkpt lat="46.72011" lon="5.48362">
        <ele>216.6</ele>
        <time>2022-04-16T11:51:45Z</time>
      </trkpt>
      <trkpt lat="46.72012" lon="5.48388">
        <ele>217</ele>
        <time>2022-04-16T11:51:49Z</time>
      </trkpt>
      <trkpt lat="46.72012" lon="5.48395">
        <ele>217.2</ele>
        <time>2022-04-16T11:51:50Z</time>
      </trkpt>
      <trkpt lat="46.72012" lon="5.48401">
        <ele>217.4</ele>
        <time>2022-04-16T11:51:51Z</time>
      </trkpt>
      <trkpt lat="46.72012" lon="5.48407">
        <ele>217.6</ele>
        <time>2022-04-16T11:51:52Z</time>
      </trkpt>
      <trkpt lat="46.72013" lon="5.48427">
        <ele>218.2</ele>
        <time>2022-04-16T11:51:55Z</time>
      </trkpt>
      <trkpt lat="46.72013" lon="5.4844">
        <ele>218.4</ele>
        <time>2022-04-16T11:51:57Z</time>
      </trkpt>
      <trkpt lat="46.72013" lon="5.48447">
        <ele>218.8</ele>
        <time>2022-04-16T11:51:58Z</time>
      </trkpt>
      <trkpt lat="46.72014" lon="5.48467">
        <ele>219</ele>
        <time>2022-04-16T11:52:00Z</time>
      </trkpt>
      <trkpt lat="46.72017" lon="5.48515">
        <ele>219.6</ele>
        <time>2022-04-16T11:52:05Z</time>
      </trkpt>
      <trkpt lat="46.7202" lon="5.48561">
        <ele>219.6</ele>
        <time>2022-04-16T11:52:11Z</time>
      </trkpt>
      <trkpt lat="46.7202" lon="5.48582">
        <ele>220.2</ele>
        <time>2022-04-16T11:52:15Z</time>
      </trkpt>
      <trkpt lat="46.7202" lon="5.48587">
        <ele>220.6</ele>
        <time>2022-04-16T11:52:16Z</time>
      </trkpt>
      <trkpt lat="46.7202" lon="5.48591">
        <ele>220.8</ele>
        <time>2022-04-16T11:52:19Z</time>
      </trkpt>
      <trkpt lat="46.72023" lon="5.48588">
        <ele>221.6</ele>
        <time>2022-04-16T11:52:25Z</time>
      </trkpt>
      <trkpt lat="46.72025" lon="5.48588">
        <ele>221.6</ele>
        <time>2022-04-16T11:52:26Z</time>
      </trkpt>
      <trkpt lat="46.72026" lon="5.48587">
        <ele>221.6</ele>
        <time>2022-04-16T11:52:27Z</time>
      </trkpt>
      <trkpt lat="46.72027" lon="5.48586">
        <ele>221.8</ele>
        <time>2022-04-16T11:52:30Z</time>
      </trkpt>
      <trkpt lat="46.72031" lon="5.48585">
        <ele>221.8</ele>
        <time>2022-04-16T11:52:34Z</time>
      </trkpt>
      <trkpt lat="46.72034" lon="5.48586">
        <ele>222</ele>
        <time>2022-04-16T11:52:38Z</time>
      </trkpt>
      <trkpt lat="46.72034" lon="5.48586">
        <ele>222</ele>
        <time>2022-04-16T11:52:41Z</time>
      </trkpt>
      <trkpt lat="46.72033" lon="5.48583">
        <ele>222</ele>
        <time>2022-04-16T11:57:13Z</time>
      </trkpt>
      <trkpt lat="46.7203" lon="5.48584">
        <ele>222</ele>
        <time>2022-04-16T11:57:15Z</time>
      </trkpt>
      <trkpt lat="46.7202" lon="5.48585">
        <ele>222</ele>
        <time>2022-04-16T11:57:20Z</time>
      </trkpt>
      <trkpt lat="46.72019" lon="5.48587">
        <ele>222</ele>
        <time>2022-04-16T11:57:21Z</time>
      </trkpt>
      <trkpt lat="46.72019" lon="5.48588">
        <ele>222</ele>
        <time>2022-04-16T11:57:22Z</time>
      </trkpt>
      <trkpt lat="46.7202" lon="5.48596">
        <ele>221.8</ele>
        <time>2022-04-16T11:57:25Z</time>
      </trkpt>
      <trkpt lat="46.72024" lon="5.48619">
        <ele>223.2</ele>
        <time>2022-04-16T11:57:32Z</time>
      </trkpt>
      <trkpt lat="46.72026" lon="5.48625">
        <ele>224.2</ele>
        <time>2022-04-16T11:57:34Z</time>
      </trkpt>
      <trkpt lat="46.72026" lon="5.48631">
        <ele>224.4</ele>
        <time>2022-04-16T11:57:35Z</time>
      </trkpt>
      <trkpt lat="46.72026" lon="5.48638">
        <ele>225.2</ele>
        <time>2022-04-16T11:57:37Z</time>
      </trkpt>
      <trkpt lat="46.72027" lon="5.48643">
        <ele>225.8</ele>
        <time>2022-04-16T11:57:38Z</time>
      </trkpt>
      <trkpt lat="46.72025" lon="5.4865">
        <ele>226.2</ele>
        <time>2022-04-16T11:57:39Z</time>
      </trkpt>
      <trkpt lat="46.72025" lon="5.48654">
        <ele>226.6</ele>
        <time>2022-04-16T11:57:40Z</time>
      </trkpt>
      <trkpt lat="46.72026" lon="5.48672">
        <ele>227.8</ele>
        <time>2022-04-16T11:57:44Z</time>
      </trkpt>
      <trkpt lat="46.72027" lon="5.48682">
        <ele>228.2</ele>
        <time>2022-04-16T11:57:46Z</time>
      </trkpt>
      <trkpt lat="46.72026" lon="5.48698">
        <ele>228.8</ele>
        <time>2022-04-16T11:57:48Z</time>
      </trkpt>
      <trkpt lat="46.72031" lon="5.48721">
        <ele>229.6</ele>
        <time>2022-04-16T11:57:51Z</time>
      </trkpt>
      <trkpt lat="46.72035" lon="5.4873">
        <ele>229.8</ele>
        <time>2022-04-16T11:57:53Z</time>
      </trkpt>
      <trkpt lat="46.72033" lon="5.48739">
        <ele>230.4</ele>
        <time>2022-04-16T11:57:55Z</time>
      </trkpt>
      <trkpt lat="46.72033" lon="5.4875">
        <ele>231</ele>
        <time>2022-04-16T11:57:57Z</time>
      </trkpt>
      <trkpt lat="46.72036" lon="5.48768">
        <ele>231.4</ele>
        <time>2022-04-16T11:58:00Z</time>
      </trkpt>
      <trkpt lat="46.72041" lon="5.48796">
        <ele>232</ele>
        <time>2022-04-16T11:58:03Z</time>
      </trkpt>
      <trkpt lat="46.72045" lon="5.48815">
        <ele>232.6</ele>
        <time>2022-04-16T11:58:06Z</time>
      </trkpt>
      <trkpt lat="46.72051" lon="5.48856">
        <ele>233.2</ele>
        <time>2022-04-16T11:58:10Z</time>
      </trkpt>
      <trkpt lat="46.72053" lon="5.48861">
        <ele>233.4</ele>
        <time>2022-04-16T11:58:11Z</time>
      </trkpt>
      <trkpt lat="46.72056" lon="5.48889">
        <ele>234.2</ele>
        <time>2022-04-16T11:58:15Z</time>
      </trkpt>
      <trkpt lat="46.72059" lon="5.48907">
        <ele>234.4</ele>
        <time>2022-04-16T11:58:17Z</time>
      </trkpt>
      <trkpt lat="46.72061" lon="5.48927">
        <ele>234.4</ele>
        <time>2022-04-16T11:58:19Z</time>
      </trkpt>
      <trkpt lat="46.72062" lon="5.48936">
        <ele>234.4</ele>
        <time>2022-04-16T11:58:20Z</time>
      </trkpt>
      <trkpt lat="46.72065" lon="5.48961">
        <ele>234.6</ele>
        <time>2022-04-16T11:58:23Z</time>
      </trkpt>
      <trkpt lat="46.72072" lon="5.48981">
        <ele>234.6</ele>
        <time>2022-04-16T11:58:26Z</time>
      </trkpt>
      <trkpt lat="46.72075" lon="5.48998">
        <ele>234.6</ele>
        <time>2022-04-16T11:58:28Z</time>
      </trkpt>
      <trkpt lat="46.72078" lon="5.49026">
        <ele>234.6</ele>
        <time>2022-04-16T11:58:31Z</time>
      </trkpt>
      <trkpt lat="46.72084" lon="5.49069">
        <ele>234.8</ele>
        <time>2022-04-16T11:58:35Z</time>
      </trkpt>
      <trkpt lat="46.72085" lon="5.49078">
        <ele>234.8</ele>
        <time>2022-04-16T11:58:36Z</time>
      </trkpt>
      <trkpt lat="46.7209" lon="5.49106">
        <ele>234.8</ele>
        <time>2022-04-16T11:58:39Z</time>
      </trkpt>
      <trkpt lat="46.72091" lon="5.49115">
        <ele>234.8</ele>
        <time>2022-04-16T11:58:40Z</time>
      </trkpt>
      <trkpt lat="46.72097" lon="5.49142">
        <ele>234.8</ele>
        <time>2022-04-16T11:58:43Z</time>
      </trkpt>
      <trkpt lat="46.72099" lon="5.49158">
        <ele>234.8</ele>
        <time>2022-04-16T11:58:45Z</time>
      </trkpt>
      <trkpt lat="46.72107" lon="5.49198">
        <ele>234.6</ele>
        <time>2022-04-16T11:58:49Z</time>
      </trkpt>
      <trkpt lat="46.7211" lon="5.49207">
        <ele>234.6</ele>
        <time>2022-04-16T11:58:50Z</time>
      </trkpt>
      <trkpt lat="46.72114" lon="5.49213">
        <ele>234.6</ele>
        <time>2022-04-16T11:58:51Z</time>
      </trkpt>
      <trkpt lat="46.72119" lon="5.49244">
        <ele>234.4</ele>
        <time>2022-04-16T11:58:54Z</time>
      </trkpt>
      <trkpt lat="46.72136" lon="5.49322">
        <ele>233.6</ele>
        <time>2022-04-16T11:59:01Z</time>
      </trkpt>
      <trkpt lat="46.72154" lon="5.49361">
        <ele>233.8</ele>
        <time>2022-04-16T11:59:06Z</time>
      </trkpt>
      <trkpt lat="46.72182" lon="5.49411">
        <ele>234.4</ele>
        <time>2022-04-16T11:59:13Z</time>
      </trkpt>
      <trkpt lat="46.72219" lon="5.49469">
        <ele>234.4</ele>
        <time>2022-04-16T11:59:21Z</time>
      </trkpt>
      <trkpt lat="46.72262" lon="5.49525">
        <ele>234.4</ele>
        <time>2022-04-16T11:59:30Z</time>
      </trkpt>
      <trkpt lat="46.72302" lon="5.49588">
        <ele>234.8</ele>
        <time>2022-04-16T11:59:39Z</time>
      </trkpt>
      <trkpt lat="46.72338" lon="5.49641">
        <ele>234.6</ele>
        <time>2022-04-16T11:59:47Z</time>
      </trkpt>
      <trkpt lat="46.72374" lon="5.49681">
        <ele>234.4</ele>
        <time>2022-04-16T11:59:54Z</time>
      </trkpt>
      <trkpt lat="46.7238" lon="5.49697">
        <ele>234.4</ele>
        <time>2022-04-16T11:59:56Z</time>
      </trkpt>
      <trkpt lat="46.72381" lon="5.49706">
        <ele>234.4</ele>
        <time>2022-04-16T11:59:57Z</time>
      </trkpt>
      <trkpt lat="46.72383" lon="5.49724">
        <ele>234.4</ele>
        <time>2022-04-16T11:59:59Z</time>
      </trkpt>
      <trkpt lat="46.7239" lon="5.4974">
        <ele>234.2</ele>
        <time>2022-04-16T12:00:01Z</time>
      </trkpt>
      <trkpt lat="46.72399" lon="5.49754">
        <ele>234.2</ele>
        <time>2022-04-16T12:00:03Z</time>
      </trkpt>
      <trkpt lat="46.7241" lon="5.49766">
        <ele>234</ele>
        <time>2022-04-16T12:00:05Z</time>
      </trkpt>
      <trkpt lat="46.72429" lon="5.49783">
        <ele>233.2</ele>
        <time>2022-04-16T12:00:08Z</time>
      </trkpt>
      <trkpt lat="46.72449" lon="5.49798">
        <ele>232</ele>
        <time>2022-04-16T12:00:11Z</time>
      </trkpt>
      <trkpt lat="46.72457" lon="5.49803">
        <ele>231.6</ele>
        <time>2022-04-16T12:00:12Z</time>
      </trkpt>
      <trkpt lat="46.72477" lon="5.49818">
        <ele>231</ele>
        <time>2022-04-16T12:00:15Z</time>
      </trkpt>
      <trkpt lat="46.72511" lon="5.49844">
        <ele>230.4</ele>
        <time>2022-04-16T12:00:20Z</time>
      </trkpt>
      <trkpt lat="46.72561" lon="5.49891">
        <ele>229.8</ele>
        <time>2022-04-16T12:00:28Z</time>
      </trkpt>
      <trkpt lat="46.72568" lon="5.49896">
        <ele>229.8</ele>
        <time>2022-04-16T12:00:29Z</time>
      </trkpt>
      <trkpt lat="46.72616" lon="5.49943">
        <ele>230</ele>
        <time>2022-04-16T12:00:37Z</time>
      </trkpt>
      <trkpt lat="46.72622" lon="5.49948">
        <ele>230</ele>
        <time>2022-04-16T12:00:38Z</time>
      </trkpt>
      <trkpt lat="46.72655" lon="5.49975">
        <ele>230.4</ele>
        <time>2022-04-16T12:00:44Z</time>
      </trkpt>
      <trkpt lat="46.72659" lon="5.49979">
        <ele>230.6</ele>
        <time>2022-04-16T12:00:45Z</time>
      </trkpt>
      <trkpt lat="46.72674" lon="5.4999">
        <ele>231</ele>
        <time>2022-04-16T12:00:50Z</time>
      </trkpt>
      <trkpt lat="46.72677" lon="5.49992">
        <ele>231.6</ele>
        <time>2022-04-16T12:00:55Z</time>
      </trkpt>
      <trkpt lat="46.72678" lon="5.49998">
        <ele>231.2</ele>
        <time>2022-04-16T12:01:20Z</time>
      </trkpt>
      <trkpt lat="46.72678" lon="5.50009">
        <ele>231.2</ele>
        <time>2022-04-16T12:01:22Z</time>
      </trkpt>
      <trkpt lat="46.72679" lon="5.50024">
        <ele>231</ele>
        <time>2022-04-16T12:01:24Z</time>
      </trkpt>
      <trkpt lat="46.72681" lon="5.50033">
        <ele>230.8</ele>
        <time>2022-04-16T12:01:25Z</time>
      </trkpt>
      <trkpt lat="46.72684" lon="5.50043">
        <ele>230.8</ele>
        <time>2022-04-16T12:01:26Z</time>
      </trkpt>
      <trkpt lat="46.72694" lon="5.50062">
        <ele>230</ele>
        <time>2022-04-16T12:01:28Z</time>
      </trkpt>
      <trkpt lat="46.72712" lon="5.5009">
        <ele>229</ele>
        <time>2022-04-16T12:01:31Z</time>
      </trkpt>
      <trkpt lat="46.72727" lon="5.5011">
        <ele>228.4</ele>
        <time>2022-04-16T12:01:33Z</time>
      </trkpt>
      <trkpt lat="46.72735" lon="5.5012">
        <ele>227.8</ele>
        <time>2022-04-16T12:01:34Z</time>
      </trkpt>
      <trkpt lat="46.72758" lon="5.50153">
        <ele>226.6</ele>
        <time>2022-04-16T12:01:37Z</time>
      </trkpt>
      <trkpt lat="46.72765" lon="5.50165">
        <ele>226</ele>
        <time>2022-04-16T12:01:38Z</time>
      </trkpt>
      <trkpt lat="46.72771" lon="5.50178">
        <ele>225.2</ele>
        <time>2022-04-16T12:01:39Z</time>
      </trkpt>
      <trkpt lat="46.7278" lon="5.50206">
        <ele>223.8</ele>
        <time>2022-04-16T12:01:41Z</time>
      </trkpt>
      <trkpt lat="46.72787" lon="5.50248">
        <ele>222.6</ele>
        <time>2022-04-16T12:01:44Z</time>
      </trkpt>
      <trkpt lat="46.72799" lon="5.5028">
        <ele>222.2</ele>
        <time>2022-04-16T12:01:47Z</time>
      </trkpt>
      <trkpt lat="46.72825" lon="5.50327">
        <ele>223</ele>
        <time>2022-04-16T12:01:53Z</time>
      </trkpt>
      <trkpt lat="46.72834" lon="5.5034">
        <ele>223.8</ele>
        <time>2022-04-16T12:01:55Z</time>
      </trkpt>
      <trkpt lat="46.72842" lon="5.50351">
        <ele>224.8</ele>
        <time>2022-04-16T12:01:57Z</time>
      </trkpt>
      <trkpt lat="46.72851" lon="5.50362">
        <ele>225.6</ele>
        <time>2022-04-16T12:01:59Z</time>
      </trkpt>
      <trkpt lat="46.72855" lon="5.50368">
        <ele>226</ele>
        <time>2022-04-16T12:02:00Z</time>
      </trkpt>
      <trkpt lat="46.72868" lon="5.50384">
        <ele>227.4</ele>
        <time>2022-04-16T12:02:03Z</time>
      </trkpt>
      <trkpt lat="46.72881" lon="5.504">
        <ele>228.4</ele>
        <time>2022-04-16T12:02:06Z</time>
      </trkpt>
      <trkpt lat="46.72885" lon="5.50405">
        <ele>229</ele>
        <time>2022-04-16T12:02:07Z</time>
      </trkpt>
      <trkpt lat="46.729" lon="5.50424">
        <ele>230.2</ele>
        <time>2022-04-16T12:02:12Z</time>
      </trkpt>
      <trkpt lat="46.72907" lon="5.50434">
        <ele>230.4</ele>
        <time>2022-04-16T12:02:13Z</time>
      </trkpt>
      <trkpt lat="46.72918" lon="5.50447">
        <ele>231.6</ele>
        <time>2022-04-16T12:02:16Z</time>
      </trkpt>
      <trkpt lat="46.72925" lon="5.50456">
        <ele>232.4</ele>
        <time>2022-04-16T12:02:18Z</time>
      </trkpt>
      <trkpt lat="46.72929" lon="5.50461">
        <ele>232.6</ele>
        <time>2022-04-16T12:02:19Z</time>
      </trkpt>
      <trkpt lat="46.72946" lon="5.50485">
        <ele>233.8</ele>
        <time>2022-04-16T12:02:24Z</time>
      </trkpt>
      <trkpt lat="46.72958" lon="5.50501">
        <ele>234.4</ele>
        <time>2022-04-16T12:02:27Z</time>
      </trkpt>
      <trkpt lat="46.72967" lon="5.50518">
        <ele>234.8</ele>
        <time>2022-04-16T12:02:30Z</time>
      </trkpt>
      <trkpt lat="46.72972" lon="5.50528">
        <ele>235</ele>
        <time>2022-04-16T12:02:32Z</time>
      </trkpt>
      <trkpt lat="46.72973" lon="5.50533">
        <ele>235</ele>
        <time>2022-04-16T12:02:33Z</time>
      </trkpt>
      <trkpt lat="46.72975" lon="5.5054">
        <ele>235</ele>
        <time>2022-04-16T12:02:35Z</time>
      </trkpt>
      <trkpt lat="46.72982" lon="5.50546">
        <ele>235.2</ele>
        <time>2022-04-16T12:02:37Z</time>
      </trkpt>
      <trkpt lat="46.72986" lon="5.50552">
        <ele>235.2</ele>
        <time>2022-04-16T12:02:38Z</time>
      </trkpt>
      <trkpt lat="46.72992" lon="5.50567">
        <ele>235</ele>
        <time>2022-04-16T12:02:40Z</time>
      </trkpt>
      <trkpt lat="46.73011" lon="5.50611">
        <ele>233.8</ele>
        <time>2022-04-16T12:02:45Z</time>
      </trkpt>
      <trkpt lat="46.73015" lon="5.50621">
        <ele>233.2</ele>
        <time>2022-04-16T12:02:46Z</time>
      </trkpt>
      <trkpt lat="46.73024" lon="5.50641">
        <ele>232.4</ele>
        <time>2022-04-16T12:02:48Z</time>
      </trkpt>
      <trkpt lat="46.73028" lon="5.50653">
        <ele>231.4</ele>
        <time>2022-04-16T12:02:49Z</time>
      </trkpt>
      <trkpt lat="46.73037" lon="5.50676">
        <ele>230.2</ele>
        <time>2022-04-16T12:02:51Z</time>
      </trkpt>
      <trkpt lat="46.73044" lon="5.50701">
        <ele>229.2</ele>
        <time>2022-04-16T12:02:53Z</time>
      </trkpt>
      <trkpt lat="46.73049" lon="5.50726">
        <ele>228.6</ele>
        <time>2022-04-16T12:02:55Z</time>
      </trkpt>
      <trkpt lat="46.7305" lon="5.50739">
        <ele>228</ele>
        <time>2022-04-16T12:02:56Z</time>
      </trkpt>
      <trkpt lat="46.73049" lon="5.50775">
        <ele>227</ele>
        <time>2022-04-16T12:02:59Z</time>
      </trkpt>
      <trkpt lat="46.73047" lon="5.50793">
        <ele>226.6</ele>
        <time>2022-04-16T12:03:01Z</time>
      </trkpt>
      <trkpt lat="46.73049" lon="5.50829">
        <ele>226.6</ele>
        <time>2022-04-16T12:03:05Z</time>
      </trkpt>
      <trkpt lat="46.7305" lon="5.50847">
        <ele>226.6</ele>
        <time>2022-04-16T12:03:06Z</time>
      </trkpt>
      <trkpt lat="46.73053" lon="5.50855">
        <ele>226.6</ele>
        <time>2022-04-16T12:03:07Z</time>
      </trkpt>
      <trkpt lat="46.73062" lon="5.50873">
        <ele>227.6</ele>
        <time>2022-04-16T12:03:10Z</time>
      </trkpt>
      <trkpt lat="46.73068" lon="5.50885">
        <ele>228.4</ele>
        <time>2022-04-16T12:03:12Z</time>
      </trkpt>
      <trkpt lat="46.73074" lon="5.50897">
        <ele>228.8</ele>
        <time>2022-04-16T12:03:14Z</time>
      </trkpt>
      <trkpt lat="46.73077" lon="5.50911">
        <ele>229.8</ele>
        <time>2022-04-16T12:03:16Z</time>
      </trkpt>
      <trkpt lat="46.73079" lon="5.50947">
        <ele>231</ele>
        <time>2022-04-16T12:03:21Z</time>
      </trkpt>
      <trkpt lat="46.73079" lon="5.50955">
        <ele>231.2</ele>
        <time>2022-04-16T12:03:22Z</time>
      </trkpt>
      <trkpt lat="46.73084" lon="5.51008">
        <ele>232</ele>
        <time>2022-04-16T12:03:29Z</time>
      </trkpt>
      <trkpt lat="46.73086" lon="5.51023">
        <ele>232.6</ele>
        <time>2022-04-16T12:03:31Z</time>
      </trkpt>
      <trkpt lat="46.7309" lon="5.51053">
        <ele>233</ele>
        <time>2022-04-16T12:03:35Z</time>
      </trkpt>
      <trkpt lat="46.73096" lon="5.51086">
        <ele>233.8</ele>
        <time>2022-04-16T12:03:40Z</time>
      </trkpt>
      <trkpt lat="46.73098" lon="5.511">
        <ele>234.2</ele>
        <time>2022-04-16T12:03:42Z</time>
      </trkpt>
      <trkpt lat="46.73102" lon="5.51128">
        <ele>235.4</ele>
        <time>2022-04-16T12:03:46Z</time>
      </trkpt>
      <trkpt lat="46.73107" lon="5.51158">
        <ele>236.4</ele>
        <time>2022-04-16T12:03:50Z</time>
      </trkpt>
      <trkpt lat="46.73111" lon="5.51173">
        <ele>236.8</ele>
        <time>2022-04-16T12:03:52Z</time>
      </trkpt>
      <trkpt lat="46.73121" lon="5.51209">
        <ele>237.4</ele>
        <time>2022-04-16T12:03:58Z</time>
      </trkpt>
      <trkpt lat="46.73125" lon="5.51224">
        <ele>237.8</ele>
        <time>2022-04-16T12:03:59Z</time>
      </trkpt>
      <trkpt lat="46.73136" lon="5.5126">
        <ele>238.2</ele>
        <time>2022-04-16T12:04:04Z</time>
      </trkpt>
      <trkpt lat="46.73141" lon="5.51283">
        <ele>238.4</ele>
        <time>2022-04-16T12:04:07Z</time>
      </trkpt>
      <trkpt lat="46.73143" lon="5.51291">
        <ele>238.6</ele>
        <time>2022-04-16T12:04:08Z</time>
      </trkpt>
      <trkpt lat="46.73154" lon="5.51344">
        <ele>239.8</ele>
        <time>2022-04-16T12:04:15Z</time>
      </trkpt>
      <trkpt lat="46.73158" lon="5.51358">
        <ele>240</ele>
        <time>2022-04-16T12:04:17Z</time>
      </trkpt>
      <trkpt lat="46.73163" lon="5.51373">
        <ele>240.2</ele>
        <time>2022-04-16T12:04:19Z</time>
      </trkpt>
      <trkpt lat="46.73175" lon="5.51411">
        <ele>240.8</ele>
        <time>2022-04-16T12:04:25Z</time>
      </trkpt>
      <trkpt lat="46.73181" lon="5.51425">
        <ele>241</ele>
        <time>2022-04-16T12:04:26Z</time>
      </trkpt>
      <trkpt lat="46.73205" lon="5.51496">
        <ele>241.6</ele>
        <time>2022-04-16T12:04:35Z</time>
      </trkpt>
      <trkpt lat="46.73207" lon="5.51505">
        <ele>241.8</ele>
        <time>2022-04-16T12:04:36Z</time>
      </trkpt>
      <trkpt lat="46.7322" lon="5.5156">
        <ele>241.8</ele>
        <time>2022-04-16T12:04:42Z</time>
      </trkpt>
      <trkpt lat="46.73229" lon="5.5163">
        <ele>241.8</ele>
        <time>2022-04-16T12:04:49Z</time>
      </trkpt>
      <trkpt lat="46.73239" lon="5.517">
        <ele>241.4</ele>
        <time>2022-04-16T12:04:57Z</time>
      </trkpt>
      <trkpt lat="46.73249" lon="5.51776">
        <ele>241</ele>
        <time>2022-04-16T12:05:03Z</time>
      </trkpt>
      <trkpt lat="46.73252" lon="5.51798">
        <ele>240.8</ele>
        <time>2022-04-16T12:05:05Z</time>
      </trkpt>
      <trkpt lat="46.73254" lon="5.5181">
        <ele>240.2</ele>
        <time>2022-04-16T12:05:06Z</time>
      </trkpt>
      <trkpt lat="46.7326" lon="5.51831">
        <ele>239.8</ele>
        <time>2022-04-16T12:05:08Z</time>
      </trkpt>
      <trkpt lat="46.73264" lon="5.51841">
        <ele>239.8</ele>
        <time>2022-04-16T12:05:09Z</time>
      </trkpt>
      <trkpt lat="46.73269" lon="5.51851">
        <ele>239.6</ele>
        <time>2022-04-16T12:05:10Z</time>
      </trkpt>
      <trkpt lat="46.73278" lon="5.51868">
        <ele>239.4</ele>
        <time>2022-04-16T12:05:12Z</time>
      </trkpt>
      <trkpt lat="46.73292" lon="5.51896">
        <ele>239.2</ele>
        <time>2022-04-16T12:05:15Z</time>
      </trkpt>
      <trkpt lat="46.73298" lon="5.51918">
        <ele>239</ele>
        <time>2022-04-16T12:05:17Z</time>
      </trkpt>
      <trkpt lat="46.73313" lon="5.51991">
        <ele>238.6</ele>
        <time>2022-04-16T12:05:24Z</time>
      </trkpt>
      <trkpt lat="46.73315" lon="5.52">
        <ele>238.6</ele>
        <time>2022-04-16T12:05:25Z</time>
      </trkpt>
      <trkpt lat="46.7333" lon="5.52063">
        <ele>238.6</ele>
        <time>2022-04-16T12:05:32Z</time>
      </trkpt>
      <trkpt lat="46.73332" lon="5.52072">
        <ele>238.8</ele>
        <time>2022-04-16T12:05:33Z</time>
      </trkpt>
      <trkpt lat="46.73334" lon="5.521">
        <ele>239.6</ele>
        <time>2022-04-16T12:05:36Z</time>
      </trkpt>
      <trkpt lat="46.73333" lon="5.52142">
        <ele>240.8</ele>
        <time>2022-04-16T12:05:41Z</time>
      </trkpt>
      <trkpt lat="46.73332" lon="5.52151">
        <ele>241</ele>
        <time>2022-04-16T12:05:42Z</time>
      </trkpt>
      <trkpt lat="46.73331" lon="5.52168">
        <ele>241.2</ele>
        <time>2022-04-16T12:05:44Z</time>
      </trkpt>
      <trkpt lat="46.73334" lon="5.52192">
        <ele>241.6</ele>
        <time>2022-04-16T12:05:47Z</time>
      </trkpt>
      <trkpt lat="46.7334" lon="5.52208">
        <ele>241.6</ele>
        <time>2022-04-16T12:05:49Z</time>
      </trkpt>
      <trkpt lat="46.73344" lon="5.52215">
        <ele>241.6</ele>
        <time>2022-04-16T12:05:50Z</time>
      </trkpt>
      <trkpt lat="46.73372" lon="5.52256">
        <ele>241.8</ele>
        <time>2022-04-16T12:05:56Z</time>
      </trkpt>
      <trkpt lat="46.73405" lon="5.5231">
        <ele>241.4</ele>
        <time>2022-04-16T12:06:04Z</time>
      </trkpt>
      <trkpt lat="46.73426" lon="5.5235">
        <ele>242</ele>
        <time>2022-04-16T12:06:10Z</time>
      </trkpt>
      <trkpt lat="46.73436" lon="5.52371">
        <ele>242.2</ele>
        <time>2022-04-16T12:06:13Z</time>
      </trkpt>
      <trkpt lat="46.73451" lon="5.52411">
        <ele>242.4</ele>
        <time>2022-04-16T12:06:18Z</time>
      </trkpt>
      <trkpt lat="46.73456" lon="5.52429">
        <ele>242</ele>
        <time>2022-04-16T12:06:20Z</time>
      </trkpt>
      <trkpt lat="46.73461" lon="5.52468">
        <ele>241.6</ele>
        <time>2022-04-16T12:06:24Z</time>
      </trkpt>
      <trkpt lat="46.73461" lon="5.52478">
        <ele>241.6</ele>
        <time>2022-04-16T12:06:25Z</time>
      </trkpt>
      <trkpt lat="46.73459" lon="5.52497">
        <ele>241.6</ele>
        <time>2022-04-16T12:06:27Z</time>
      </trkpt>
      <trkpt lat="46.73454" lon="5.52515">
        <ele>241.6</ele>
        <time>2022-04-16T12:06:29Z</time>
      </trkpt>
      <trkpt lat="46.73445" lon="5.52526">
        <ele>241.8</ele>
        <time>2022-04-16T12:06:31Z</time>
      </trkpt>
      <trkpt lat="46.7344" lon="5.52528">
        <ele>241.8</ele>
        <time>2022-04-16T12:06:32Z</time>
      </trkpt>
      <trkpt lat="46.73431" lon="5.52534">
        <ele>242</ele>
        <time>2022-04-16T12:06:34Z</time>
      </trkpt>
      <trkpt lat="46.73429" lon="5.52539">
        <ele>242.2</ele>
        <time>2022-04-16T12:06:35Z</time>
      </trkpt>
      <trkpt lat="46.73426" lon="5.52548">
        <ele>242.6</ele>
        <time>2022-04-16T12:06:39Z</time>
      </trkpt>
      <trkpt lat="46.73424" lon="5.52558">
        <ele>242.8</ele>
        <time>2022-04-16T12:06:46Z</time>
      </trkpt>
      <trkpt lat="46.73421" lon="5.52566">
        <ele>242.8</ele>
        <time>2022-04-16T12:06:48Z</time>
      </trkpt>
      <trkpt lat="46.73415" lon="5.52581">
        <ele>243</ele>
        <time>2022-04-16T12:06:51Z</time>
      </trkpt>
      <trkpt lat="46.73415" lon="5.52581">
        <ele>243</ele>
        <time>2022-04-16T12:06:52Z</time>
      </trkpt>
      <trkpt lat="46.73398" lon="5.5262">
        <ele>243.6</ele>
        <time>2022-04-16T12:06:58Z</time>
      </trkpt>
      <trkpt lat="46.73396" lon="5.52626">
        <ele>244.2</ele>
        <time>2022-04-16T12:06:59Z</time>
      </trkpt>
      <trkpt lat="46.73386" lon="5.52647">
        <ele>245.4</ele>
        <time>2022-04-16T12:07:03Z</time>
      </trkpt>
      <trkpt lat="46.73379" lon="5.52663">
        <ele>245.8</ele>
        <time>2022-04-16T12:07:06Z</time>
      </trkpt>
      <trkpt lat="46.73366" lon="5.52689">
        <ele>246.4</ele>
        <time>2022-04-16T12:07:11Z</time>
      </trkpt>
      <trkpt lat="46.73363" lon="5.527">
        <ele>246.8</ele>
        <time>2022-04-16T12:07:13Z</time>
      </trkpt>
      <trkpt lat="46.73363" lon="5.52706">
        <ele>247</ele>
        <time>2022-04-16T12:07:14Z</time>
      </trkpt>
      <trkpt lat="46.73365" lon="5.52712">
        <ele>248</ele>
        <time>2022-04-16T12:07:15Z</time>
      </trkpt>
      <trkpt lat="46.73368" lon="5.52717">
        <ele>249</ele>
        <time>2022-04-16T12:07:16Z</time>
      </trkpt>
      <trkpt lat="46.73373" lon="5.52721">
        <ele>249.4</ele>
        <time>2022-04-16T12:07:17Z</time>
      </trkpt>
      <trkpt lat="46.73377" lon="5.52724">
        <ele>249.6</ele>
        <time>2022-04-16T12:07:18Z</time>
      </trkpt>
      <trkpt lat="46.73387" lon="5.52731">
        <ele>249.8</ele>
        <time>2022-04-16T12:07:20Z</time>
      </trkpt>
      <trkpt lat="46.73397" lon="5.52737">
        <ele>250</ele>
        <time>2022-04-16T12:07:22Z</time>
      </trkpt>
      <trkpt lat="46.73427" lon="5.5276">
        <ele>249</ele>
        <time>2022-04-16T12:07:29Z</time>
      </trkpt>
      <trkpt lat="46.73437" lon="5.5277">
        <ele>249</ele>
        <time>2022-04-16T12:07:30Z</time>
      </trkpt>
      <trkpt lat="46.73455" lon="5.52792">
        <ele>248.6</ele>
        <time>2022-04-16T12:07:34Z</time>
      </trkpt>
      <trkpt lat="46.73481" lon="5.52825">
        <ele>248</ele>
        <time>2022-04-16T12:07:41Z</time>
      </trkpt>
      <trkpt lat="46.73498" lon="5.52848">
        <ele>247.8</ele>
        <time>2022-04-16T12:07:44Z</time>
      </trkpt>
      <trkpt lat="46.73507" lon="5.52859">
        <ele>247.8</ele>
        <time>2022-04-16T12:07:46Z</time>
      </trkpt>
      <trkpt lat="46.73517" lon="5.52868">
        <ele>247.8</ele>
        <time>2022-04-16T12:07:48Z</time>
      </trkpt>
      <trkpt lat="46.73523" lon="5.5287">
        <ele>247.8</ele>
        <time>2022-04-16T12:07:49Z</time>
      </trkpt>
      <trkpt lat="46.73529" lon="5.52872">
        <ele>247.8</ele>
        <time>2022-04-16T12:07:50Z</time>
      </trkpt>
      <trkpt lat="46.73542" lon="5.5287">
        <ele>247.8</ele>
        <time>2022-04-16T12:07:52Z</time>
      </trkpt>
      <trkpt lat="46.73566" lon="5.52854">
        <ele>247.8</ele>
        <time>2022-04-16T12:07:56Z</time>
      </trkpt>
      <trkpt lat="46.73584" lon="5.52839">
        <ele>247.8</ele>
        <time>2022-04-16T12:07:59Z</time>
      </trkpt>
      <trkpt lat="46.73598" lon="5.52836">
        <ele>247.8</ele>
        <time>2022-04-16T12:08:01Z</time>
      </trkpt>
      <trkpt lat="46.73613" lon="5.52838">
        <ele>247.6</ele>
        <time>2022-04-16T12:08:03Z</time>
      </trkpt>
      <trkpt lat="46.73619" lon="5.52842">
        <ele>247.6</ele>
        <time>2022-04-16T12:08:04Z</time>
      </trkpt>
      <trkpt lat="46.73655" lon="5.52882">
        <ele>247.4</ele>
        <time>2022-04-16T12:08:11Z</time>
      </trkpt>
      <trkpt lat="46.73689" lon="5.52922">
        <ele>247.4</ele>
        <time>2022-04-16T12:08:18Z</time>
      </trkpt>
      <trkpt lat="46.7373" lon="5.52966">
        <ele>247</ele>
        <time>2022-04-16T12:08:26Z</time>
      </trkpt>
      <trkpt lat="46.73769" lon="5.53">
        <ele>247.2</ele>
        <time>2022-04-16T12:08:33Z</time>
      </trkpt>
      <trkpt lat="46.73787" lon="5.53013">
        <ele>247</ele>
        <time>2022-04-16T12:08:36Z</time>
      </trkpt>
      <trkpt lat="46.73798" lon="5.5302">
        <ele>246.8</ele>
        <time>2022-04-16T12:08:38Z</time>
      </trkpt>
      <trkpt lat="46.73803" lon="5.53023">
        <ele>246.8</ele>
        <time>2022-04-16T12:08:40Z</time>
      </trkpt>
      <trkpt lat="46.73837" lon="5.53045">
        <ele>247.4</ele>
        <time>2022-04-16T12:08:46Z</time>
      </trkpt>
      <trkpt lat="46.73846" lon="5.53046">
        <ele>247.8</ele>
        <time>2022-04-16T12:08:50Z</time>
      </trkpt>
      <trkpt lat="46.73846" lon="5.53046">
        <ele>248</ele>
        <time>2022-04-16T12:08:51Z</time>
      </trkpt>
      <trkpt lat="46.73846" lon="5.53046">
        <ele>248</ele>
        <time>2022-04-16T12:08:52Z</time>
      </trkpt>
      <trkpt lat="46.7385" lon="5.53053">
        <ele>248.2</ele>
        <time>2022-04-16T12:09:49Z</time>
      </trkpt>
      <trkpt lat="46.73867" lon="5.53058">
        <ele>248</ele>
        <time>2022-04-16T12:09:54Z</time>
      </trkpt>
      <trkpt lat="46.73871" lon="5.53059">
        <ele>248</ele>
        <time>2022-04-16T12:09:55Z</time>
      </trkpt>
      <trkpt lat="46.73881" lon="5.53059">
        <ele>247.8</ele>
        <time>2022-04-16T12:09:57Z</time>
      </trkpt>
      <trkpt lat="46.73886" lon="5.53058">
        <ele>247.8</ele>
        <time>2022-04-16T12:09:58Z</time>
      </trkpt>
      <trkpt lat="46.73891" lon="5.53056">
        <ele>247.8</ele>
        <time>2022-04-16T12:09:59Z</time>
      </trkpt>
      <trkpt lat="46.73912" lon="5.53045">
        <ele>247.8</ele>
        <time>2022-04-16T12:10:03Z</time>
      </trkpt>
      <trkpt lat="46.73931" lon="5.53044">
        <ele>248.2</ele>
        <time>2022-04-16T12:10:06Z</time>
      </trkpt>
      <trkpt lat="46.73937" lon="5.53045">
        <ele>248.2</ele>
        <time>2022-04-16T12:10:07Z</time>
      </trkpt>
      <trkpt lat="46.73943" lon="5.53047">
        <ele>248.2</ele>
        <time>2022-04-16T12:10:08Z</time>
      </trkpt>
      <trkpt lat="46.73964" lon="5.53057">
        <ele>248.4</ele>
        <time>2022-04-16T12:10:12Z</time>
      </trkpt>
      <trkpt lat="46.73983" lon="5.53068">
        <ele>249.2</ele>
        <time>2022-04-16T12:10:16Z</time>
      </trkpt>
      <trkpt lat="46.73993" lon="5.53074">
        <ele>249.8</ele>
        <time>2022-04-16T12:10:18Z</time>
      </trkpt>
      <trkpt lat="46.73998" lon="5.53076">
        <ele>250.2</ele>
        <time>2022-04-16T12:10:19Z</time>
      </trkpt>
      <trkpt lat="46.74012" lon="5.53086">
        <ele>251.2</ele>
        <time>2022-04-16T12:10:22Z</time>
      </trkpt>
      <trkpt lat="46.74037" lon="5.53101">
        <ele>251.6</ele>
        <time>2022-04-16T12:10:27Z</time>
      </trkpt>
      <trkpt lat="46.74077" lon="5.53124">
        <ele>252</ele>
        <time>2022-04-16T12:10:35Z</time>
      </trkpt>
      <trkpt lat="46.74086" lon="5.5313">
        <ele>252.2</ele>
        <time>2022-04-16T12:10:37Z</time>
      </trkpt>
      <trkpt lat="46.74123" lon="5.53148">
        <ele>253.2</ele>
        <time>2022-04-16T12:10:44Z</time>
      </trkpt>
      <trkpt lat="46.74129" lon="5.5315">
        <ele>253.4</ele>
        <time>2022-04-16T12:10:45Z</time>
      </trkpt>
      <trkpt lat="46.74157" lon="5.53162">
        <ele>254.4</ele>
        <time>2022-04-16T12:10:50Z</time>
      </trkpt>
      <trkpt lat="46.74175" lon="5.53171">
        <ele>255</ele>
        <time>2022-04-16T12:10:53Z</time>
      </trkpt>
      <trkpt lat="46.74229" lon="5.53194">
        <ele>254.6</ele>
        <time>2022-04-16T12:11:02Z</time>
      </trkpt>
      <trkpt lat="46.74268" lon="5.53211">
        <ele>255.4</ele>
        <time>2022-04-16T12:11:09Z</time>
      </trkpt>
      <trkpt lat="46.74274" lon="5.53214">
        <ele>255.6</ele>
        <time>2022-04-16T12:11:10Z</time>
      </trkpt>
      <trkpt lat="46.74301" lon="5.53224">
        <ele>256</ele>
        <time>2022-04-16T12:11:14Z</time>
      </trkpt>
      <trkpt lat="46.74308" lon="5.53228">
        <ele>256</ele>
        <time>2022-04-16T12:11:15Z</time>
      </trkpt>
      <trkpt lat="46.7432" lon="5.53237">
        <ele>256</ele>
        <time>2022-04-16T12:11:17Z</time>
      </trkpt>
      <trkpt lat="46.74332" lon="5.53248">
        <ele>255.6</ele>
        <time>2022-04-16T12:11:19Z</time>
      </trkpt>
      <trkpt lat="46.74338" lon="5.53254">
        <ele>255.6</ele>
        <time>2022-04-16T12:11:20Z</time>
      </trkpt>
      <trkpt lat="46.74366" lon="5.53281">
        <ele>255.4</ele>
        <time>2022-04-16T12:11:25Z</time>
      </trkpt>
      <trkpt lat="46.74371" lon="5.53287">
        <ele>255.4</ele>
        <time>2022-04-16T12:11:26Z</time>
      </trkpt>
      <trkpt lat="46.74374" lon="5.53295">
        <ele>255.4</ele>
        <time>2022-04-16T12:11:27Z</time>
      </trkpt>
      <trkpt lat="46.74379" lon="5.53311">
        <ele>255.6</ele>
        <time>2022-04-16T12:11:29Z</time>
      </trkpt>
      <trkpt lat="46.7438" lon="5.53354">
        <ele>255.6</ele>
        <time>2022-04-16T12:11:33Z</time>
      </trkpt>
      <trkpt lat="46.74378" lon="5.53364">
        <ele>255.6</ele>
        <time>2022-04-16T12:11:34Z</time>
      </trkpt>
      <trkpt lat="46.74369" lon="5.53402">
        <ele>255.6</ele>
        <time>2022-04-16T12:11:38Z</time>
      </trkpt>
      <trkpt lat="46.74367" lon="5.53411">
        <ele>255.6</ele>
        <time>2022-04-16T12:11:39Z</time>
      </trkpt>
      <trkpt lat="46.74364" lon="5.53421">
        <ele>255.4</ele>
        <time>2022-04-16T12:11:40Z</time>
      </trkpt>
      <trkpt lat="46.74354" lon="5.53437">
        <ele>255.2</ele>
        <time>2022-04-16T12:11:42Z</time>
      </trkpt>
      <trkpt lat="46.74343" lon="5.53446">
        <ele>255.2</ele>
        <time>2022-04-16T12:11:44Z</time>
      </trkpt>
      <trkpt lat="46.74337" lon="5.53449">
        <ele>255</ele>
        <time>2022-04-16T12:11:45Z</time>
      </trkpt>
      <trkpt lat="46.74332" lon="5.53454">
        <ele>255</ele>
        <time>2022-04-16T12:11:46Z</time>
      </trkpt>
      <trkpt lat="46.74325" lon="5.53468">
        <ele>255</ele>
        <time>2022-04-16T12:11:48Z</time>
      </trkpt>
      <trkpt lat="46.74324" lon="5.53485">
        <ele>255.2</ele>
        <time>2022-04-16T12:11:50Z</time>
      </trkpt>
      <trkpt lat="46.74325" lon="5.53493">
        <ele>255.4</ele>
        <time>2022-04-16T12:11:51Z</time>
      </trkpt>
      <trkpt lat="46.74333" lon="5.53533">
        <ele>256.6</ele>
        <time>2022-04-16T12:11:56Z</time>
      </trkpt>
      <trkpt lat="46.74335" lon="5.53541">
        <ele>256.8</ele>
        <time>2022-04-16T12:11:57Z</time>
      </trkpt>
      <trkpt lat="46.74336" lon="5.53549">
        <ele>257.2</ele>
        <time>2022-04-16T12:11:58Z</time>
      </trkpt>
      <trkpt lat="46.74341" lon="5.53573">
        <ele>257.8</ele>
        <time>2022-04-16T12:12:01Z</time>
      </trkpt>
      <trkpt lat="46.74343" lon="5.5358">
        <ele>257.8</ele>
        <time>2022-04-16T12:12:02Z</time>
      </trkpt>
      <trkpt lat="46.74347" lon="5.53588">
        <ele>258</ele>
        <time>2022-04-16T12:12:03Z</time>
      </trkpt>
      <trkpt lat="46.74358" lon="5.5362">
        <ele>258.2</ele>
        <time>2022-04-16T12:12:07Z</time>
      </trkpt>
      <trkpt lat="46.74359" lon="5.53628">
        <ele>258.2</ele>
        <time>2022-04-16T12:12:08Z</time>
      </trkpt>
      <trkpt lat="46.74361" lon="5.53635">
        <ele>258.2</ele>
        <time>2022-04-16T12:12:09Z</time>
      </trkpt>
      <trkpt lat="46.74366" lon="5.5365">
        <ele>258.2</ele>
        <time>2022-04-16T12:12:11Z</time>
      </trkpt>
      <trkpt lat="46.74371" lon="5.53666">
        <ele>258.4</ele>
        <time>2022-04-16T12:12:13Z</time>
      </trkpt>
      <trkpt lat="46.74373" lon="5.53681">
        <ele>258.6</ele>
        <time>2022-04-16T12:12:15Z</time>
      </trkpt>
      <trkpt lat="46.74374" lon="5.53695">
        <ele>258.8</ele>
        <time>2022-04-16T12:12:17Z</time>
      </trkpt>
      <trkpt lat="46.74373" lon="5.53704">
        <ele>258.8</ele>
        <time>2022-04-16T12:12:18Z</time>
      </trkpt>
      <trkpt lat="46.74363" lon="5.53754">
        <ele>259.4</ele>
        <time>2022-04-16T12:12:25Z</time>
      </trkpt>
      <trkpt lat="46.74361" lon="5.53761">
        <ele>259.8</ele>
        <time>2022-04-16T12:12:26Z</time>
      </trkpt>
      <trkpt lat="46.74358" lon="5.53773">
        <ele>260.4</ele>
        <time>2022-04-16T12:12:28Z</time>
      </trkpt>
      <trkpt lat="46.74351" lon="5.53791">
        <ele>261.2</ele>
        <time>2022-04-16T12:12:31Z</time>
      </trkpt>
      <trkpt lat="46.74349" lon="5.53797">
        <ele>261.6</ele>
        <time>2022-04-16T12:12:32Z</time>
      </trkpt>
      <trkpt lat="46.74346" lon="5.53809">
        <ele>262.4</ele>
        <time>2022-04-16T12:12:34Z</time>
      </trkpt>
      <trkpt lat="46.74344" lon="5.53822">
        <ele>263</ele>
        <time>2022-04-16T12:12:36Z</time>
      </trkpt>
      <trkpt lat="46.74339" lon="5.53843">
        <ele>263.4</ele>
        <time>2022-04-16T12:12:39Z</time>
      </trkpt>
      <trkpt lat="46.74338" lon="5.53852">
        <ele>263.6</ele>
        <time>2022-04-16T12:12:40Z</time>
      </trkpt>
      <trkpt lat="46.74335" lon="5.53881">
        <ele>263.8</ele>
        <time>2022-04-16T12:12:43Z</time>
      </trkpt>
      <trkpt lat="46.74332" lon="5.53902">
        <ele>263.8</ele>
        <time>2022-04-16T12:12:45Z</time>
      </trkpt>
      <trkpt lat="46.74326" lon="5.53924">
        <ele>263.6</ele>
        <time>2022-04-16T12:12:47Z</time>
      </trkpt>
      <trkpt lat="46.74316" lon="5.53942">
        <ele>262.8</ele>
        <time>2022-04-16T12:12:49Z</time>
      </trkpt>
      <trkpt lat="46.74311" lon="5.53951">
        <ele>262.2</ele>
        <time>2022-04-16T12:12:50Z</time>
      </trkpt>
      <trkpt lat="46.74305" lon="5.5396">
        <ele>261.8</ele>
        <time>2022-04-16T12:12:51Z</time>
      </trkpt>
      <trkpt lat="46.74289" lon="5.53986">
        <ele>261</ele>
        <time>2022-04-16T12:12:54Z</time>
      </trkpt>
      <trkpt lat="46.74267" lon="5.54019">
        <ele>260.4</ele>
        <time>2022-04-16T12:12:58Z</time>
      </trkpt>
      <trkpt lat="46.74226" lon="5.54077">
        <ele>260.4</ele>
        <time>2022-04-16T12:13:05Z</time>
      </trkpt>
      <trkpt lat="46.742" lon="5.54113">
        <ele>260.2</ele>
        <time>2022-04-16T12:13:10Z</time>
      </trkpt>
      <trkpt lat="46.74197" lon="5.54121">
        <ele>260.2</ele>
        <time>2022-04-16T12:13:11Z</time>
      </trkpt>
      <trkpt lat="46.74179" lon="5.54181">
        <ele>260.8</ele>
        <time>2022-04-16T12:13:17Z</time>
      </trkpt>
      <trkpt lat="46.74178" lon="5.54191">
        <ele>260.8</ele>
        <time>2022-04-16T12:13:18Z</time>
      </trkpt>
      <trkpt lat="46.74179" lon="5.5421">
        <ele>261.4</ele>
        <time>2022-04-16T12:13:20Z</time>
      </trkpt>
      <trkpt lat="46.74193" lon="5.54244">
        <ele>261.6</ele>
        <time>2022-04-16T12:13:24Z</time>
      </trkpt>
      <trkpt lat="46.74221" lon="5.54301">
        <ele>261</ele>
        <time>2022-04-16T12:13:31Z</time>
      </trkpt>
      <trkpt lat="46.74238" lon="5.54338">
        <ele>260.8</ele>
        <time>2022-04-16T12:13:36Z</time>
      </trkpt>
      <trkpt lat="46.74261" lon="5.54385">
        <ele>261.8</ele>
        <time>2022-04-16T12:13:43Z</time>
      </trkpt>
      <trkpt lat="46.74264" lon="5.54392">
        <ele>262</ele>
        <time>2022-04-16T12:13:44Z</time>
      </trkpt>
      <trkpt lat="46.74294" lon="5.54452">
        <ele>262.8</ele>
        <time>2022-04-16T12:13:53Z</time>
      </trkpt>
      <trkpt lat="46.74297" lon="5.54459">
        <ele>263</ele>
        <time>2022-04-16T12:13:54Z</time>
      </trkpt>
      <trkpt lat="46.74318" lon="5.54501">
        <ele>263.8</ele>
        <time>2022-04-16T12:14:01Z</time>
      </trkpt>
      <trkpt lat="46.74323" lon="5.54513">
        <ele>264.2</ele>
        <time>2022-04-16T12:14:03Z</time>
      </trkpt>
      <trkpt lat="46.7434" lon="5.54546">
        <ele>265.2</ele>
        <time>2022-04-16T12:14:09Z</time>
      </trkpt>
      <trkpt lat="46.74355" lon="5.54578">
        <ele>266.6</ele>
        <time>2022-04-16T12:14:15Z</time>
      </trkpt>
      <trkpt lat="46.74368" lon="5.54603">
        <ele>267.4</ele>
        <time>2022-04-16T12:14:20Z</time>
      </trkpt>
      <trkpt lat="46.74372" lon="5.54613">
        <ele>267.8</ele>
        <time>2022-04-16T12:14:22Z</time>
      </trkpt>
      <trkpt lat="46.74383" lon="5.54637">
        <ele>268.8</ele>
        <time>2022-04-16T12:14:27Z</time>
      </trkpt>
      <trkpt lat="46.74385" lon="5.54642">
        <ele>269</ele>
        <time>2022-04-16T12:14:28Z</time>
      </trkpt>
      <trkpt lat="46.74387" lon="5.54646">
        <ele>269.4</ele>
        <time>2022-04-16T12:14:29Z</time>
      </trkpt>
      <trkpt lat="46.74394" lon="5.5466">
        <ele>270</ele>
        <time>2022-04-16T12:14:32Z</time>
      </trkpt>
      <trkpt lat="46.744" lon="5.54673">
        <ele>271</ele>
        <time>2022-04-16T12:14:35Z</time>
      </trkpt>
      <trkpt lat="46.74402" lon="5.54677">
        <ele>271.4</ele>
        <time>2022-04-16T12:14:36Z</time>
      </trkpt>
      <trkpt lat="46.74406" lon="5.54686">
        <ele>272</ele>
        <time>2022-04-16T12:14:38Z</time>
      </trkpt>
      <trkpt lat="46.74415" lon="5.54705">
        <ele>273.2</ele>
        <time>2022-04-16T12:14:42Z</time>
      </trkpt>
      <trkpt lat="46.74419" lon="5.54714">
        <ele>274</ele>
        <time>2022-04-16T12:14:44Z</time>
      </trkpt>
      <trkpt lat="46.74421" lon="5.54718">
        <ele>274.2</ele>
        <time>2022-04-16T12:14:45Z</time>
      </trkpt>
      <trkpt lat="46.74432" lon="5.54734">
        <ele>275.4</ele>
        <time>2022-04-16T12:14:49Z</time>
      </trkpt>
      <trkpt lat="46.74442" lon="5.54743">
        <ele>276</ele>
        <time>2022-04-16T12:14:52Z</time>
      </trkpt>
      <trkpt lat="46.74449" lon="5.54747">
        <ele>276.4</ele>
        <time>2022-04-16T12:14:54Z</time>
      </trkpt>
      <trkpt lat="46.74467" lon="5.54758">
        <ele>277.6</ele>
        <time>2022-04-16T12:14:59Z</time>
      </trkpt>
      <trkpt lat="46.7447" lon="5.54761">
        <ele>277.6</ele>
        <time>2022-04-16T12:15:00Z</time>
      </trkpt>
      <trkpt lat="46.74471" lon="5.54773">
        <ele>277.8</ele>
        <time>2022-04-16T12:15:02Z</time>
      </trkpt>
      <trkpt lat="46.74471" lon="5.5478">
        <ele>278</ele>
        <time>2022-04-16T12:15:03Z</time>
      </trkpt>
      <trkpt lat="46.74473" lon="5.54812">
        <ele>278.6</ele>
        <time>2022-04-16T12:15:07Z</time>
      </trkpt>
      <trkpt lat="46.74472" lon="5.54839">
        <ele>278.8</ele>
        <time>2022-04-16T12:15:10Z</time>
      </trkpt>
      <trkpt lat="46.7447" lon="5.54857">
        <ele>278.6</ele>
        <time>2022-04-16T12:15:12Z</time>
      </trkpt>
      <trkpt lat="46.74456" lon="5.54926">
        <ele>278.2</ele>
        <time>2022-04-16T12:15:20Z</time>
      </trkpt>
      <trkpt lat="46.74453" lon="5.5498">
        <ele>279.8</ele>
        <time>2022-04-16T12:15:27Z</time>
      </trkpt>
      <trkpt lat="46.74454" lon="5.55019">
        <ele>280.8</ele>
        <time>2022-04-16T12:15:32Z</time>
      </trkpt>
      <trkpt lat="46.74453" lon="5.55043">
        <ele>281.4</ele>
        <time>2022-04-16T12:15:35Z</time>
      </trkpt>
      <trkpt lat="46.74447" lon="5.55097">
        <ele>282</ele>
        <time>2022-04-16T12:15:41Z</time>
      </trkpt>
      <trkpt lat="46.74431" lon="5.55158">
        <ele>282.2</ele>
        <time>2022-04-16T12:15:47Z</time>
      </trkpt>
      <trkpt lat="46.74409" lon="5.55232">
        <ele>282</ele>
        <time>2022-04-16T12:15:54Z</time>
      </trkpt>
      <trkpt lat="46.74386" lon="5.55313">
        <ele>282</ele>
        <time>2022-04-16T12:16:02Z</time>
      </trkpt>
      <trkpt lat="46.74383" lon="5.55322">
        <ele>282</ele>
        <time>2022-04-16T12:16:03Z</time>
      </trkpt>
      <trkpt lat="46.74376" lon="5.5535">
        <ele>282</ele>
        <time>2022-04-16T12:16:06Z</time>
      </trkpt>
      <trkpt lat="46.74365" lon="5.55387">
        <ele>282.4</ele>
        <time>2022-04-16T12:16:10Z</time>
      </trkpt>
      <trkpt lat="46.74358" lon="5.55412">
        <ele>283.2</ele>
        <time>2022-04-16T12:16:13Z</time>
      </trkpt>
      <trkpt lat="46.7434" lon="5.55469">
        <ele>284.4</ele>
        <time>2022-04-16T12:16:20Z</time>
      </trkpt>
      <trkpt lat="46.74326" lon="5.55507">
        <ele>285.8</ele>
        <time>2022-04-16T12:16:25Z</time>
      </trkpt>
      <trkpt lat="46.74316" lon="5.55528">
        <ele>286</ele>
        <time>2022-04-16T12:16:28Z</time>
      </trkpt>
      <trkpt lat="46.74314" lon="5.55534">
        <ele>286</ele>
        <time>2022-04-16T12:16:29Z</time>
      </trkpt>
      <trkpt lat="46.74307" lon="5.55547">
        <ele>285.8</ele>
        <time>2022-04-16T12:16:32Z</time>
      </trkpt>
      <trkpt lat="46.74299" lon="5.5555">
        <ele>285.4</ele>
        <time>2022-04-16T12:16:34Z</time>
      </trkpt>
      <trkpt lat="46.74294" lon="5.5555">
        <ele>285.2</ele>
        <time>2022-04-16T12:16:35Z</time>
      </trkpt>
      <trkpt lat="46.74282" lon="5.55549">
        <ele>284.4</ele>
        <time>2022-04-16T12:16:37Z</time>
      </trkpt>
      <trkpt lat="46.74268" lon="5.55546">
        <ele>284</ele>
        <time>2022-04-16T12:16:39Z</time>
      </trkpt>
      <trkpt lat="46.74217" lon="5.55537">
        <ele>284.4</ele>
        <time>2022-04-16T12:16:46Z</time>
      </trkpt>
      <trkpt lat="46.74177" lon="5.55533">
        <ele>285.6</ele>
        <time>2022-04-16T12:16:52Z</time>
      </trkpt>
      <trkpt lat="46.7417" lon="5.55533">
        <ele>285.8</ele>
        <time>2022-04-16T12:16:53Z</time>
      </trkpt>
      <trkpt lat="46.74145" lon="5.55533">
        <ele>286.8</ele>
        <time>2022-04-16T12:16:57Z</time>
      </trkpt>
      <trkpt lat="46.74139" lon="5.55533">
        <ele>287</ele>
        <time>2022-04-16T12:16:58Z</time>
      </trkpt>
      <trkpt lat="46.74114" lon="5.55534">
        <ele>288.2</ele>
        <time>2022-04-16T12:17:02Z</time>
      </trkpt>
      <trkpt lat="46.74083" lon="5.55533">
        <ele>289.4</ele>
        <time>2022-04-16T12:17:07Z</time>
      </trkpt>
      <trkpt lat="46.74077" lon="5.55533">
        <ele>289.4</ele>
        <time>2022-04-16T12:17:08Z</time>
      </trkpt>
      <trkpt lat="46.74041" lon="5.55528">
        <ele>290.8</ele>
        <time>2022-04-16T12:17:14Z</time>
      </trkpt>
      <trkpt lat="46.74005" lon="5.55523">
        <ele>292</ele>
        <time>2022-04-16T12:17:20Z</time>
      </trkpt>
      <trkpt lat="46.73988" lon="5.55521">
        <ele>293</ele>
        <time>2022-04-16T12:17:23Z</time>
      </trkpt>
      <trkpt lat="46.73968" lon="5.55515">
        <ele>294.2</ele>
        <time>2022-04-16T12:17:27Z</time>
      </trkpt>
      <trkpt lat="46.73958" lon="5.55514">
        <ele>294.8</ele>
        <time>2022-04-16T12:17:29Z</time>
      </trkpt>
      <trkpt lat="46.73954" lon="5.55513">
        <ele>295.2</ele>
        <time>2022-04-16T12:17:30Z</time>
      </trkpt>
      <trkpt lat="46.73936" lon="5.55511">
        <ele>296.8</ele>
        <time>2022-04-16T12:17:34Z</time>
      </trkpt>
      <trkpt lat="46.73922" lon="5.55509">
        <ele>298.2</ele>
        <time>2022-04-16T12:17:37Z</time>
      </trkpt>
      <trkpt lat="46.73902" lon="5.55506">
        <ele>299</ele>
        <time>2022-04-16T12:17:41Z</time>
      </trkpt>
      <trkpt lat="46.73898" lon="5.55505">
        <ele>299.4</ele>
        <time>2022-04-16T12:17:42Z</time>
      </trkpt>
      <trkpt lat="46.73876" lon="5.55501">
        <ele>300.6</ele>
        <time>2022-04-16T12:17:46Z</time>
      </trkpt>
      <trkpt lat="46.73871" lon="5.555">
        <ele>300.8</ele>
        <time>2022-04-16T12:17:47Z</time>
      </trkpt>
      <trkpt lat="46.73839" lon="5.55496">
        <ele>301.8</ele>
        <time>2022-04-16T12:17:53Z</time>
      </trkpt>
      <trkpt lat="46.73823" lon="5.55494">
        <ele>302.2</ele>
        <time>2022-04-16T12:17:56Z</time>
      </trkpt>
      <trkpt lat="46.73813" lon="5.55493">
        <ele>303</ele>
        <time>2022-04-16T12:17:58Z</time>
      </trkpt>
      <trkpt lat="46.73779" lon="5.55488">
        <ele>304</ele>
        <time>2022-04-16T12:18:04Z</time>
      </trkpt>
      <trkpt lat="46.73751" lon="5.55485">
        <ele>304.6</ele>
        <time>2022-04-16T12:18:09Z</time>
      </trkpt>
      <trkpt lat="46.73723" lon="5.55481">
        <ele>305.2</ele>
        <time>2022-04-16T12:18:14Z</time>
      </trkpt>
      <trkpt lat="46.73702" lon="5.5548">
        <ele>306.2</ele>
        <time>2022-04-16T12:18:18Z</time>
      </trkpt>
      <trkpt lat="46.73696" lon="5.55479">
        <ele>306.4</ele>
        <time>2022-04-16T12:18:19Z</time>
      </trkpt>
      <trkpt lat="46.73667" lon="5.55481">
        <ele>307.4</ele>
        <time>2022-04-16T12:18:24Z</time>
      </trkpt>
      <trkpt lat="46.73657" lon="5.55481">
        <ele>308</ele>
        <time>2022-04-16T12:18:26Z</time>
      </trkpt>
      <trkpt lat="46.7362" lon="5.55484">
        <ele>308.6</ele>
        <time>2022-04-16T12:18:32Z</time>
      </trkpt>
      <trkpt lat="46.73599" lon="5.55487">
        <ele>308.8</ele>
        <time>2022-04-16T12:18:35Z</time>
      </trkpt>
      <trkpt lat="46.73583" lon="5.5549">
        <ele>308.8</ele>
        <time>2022-04-16T12:18:37Z</time>
      </trkpt>
      <trkpt lat="46.73528" lon="5.55505">
        <ele>307.2</ele>
        <time>2022-04-16T12:18:43Z</time>
      </trkpt>
      <trkpt lat="46.73498" lon="5.55515">
        <ele>306.2</ele>
        <time>2022-04-16T12:18:46Z</time>
      </trkpt>
      <trkpt lat="46.73468" lon="5.5553">
        <ele>304.4</ele>
        <time>2022-04-16T12:18:49Z</time>
      </trkpt>
      <trkpt lat="46.73448" lon="5.55541">
        <ele>303.2</ele>
        <time>2022-04-16T12:18:51Z</time>
      </trkpt>
      <trkpt lat="46.73417" lon="5.55559">
        <ele>302</ele>
        <time>2022-04-16T12:18:54Z</time>
      </trkpt>
      <trkpt lat="46.73396" lon="5.5557">
        <ele>300.8</ele>
        <time>2022-04-16T12:18:56Z</time>
      </trkpt>
      <trkpt lat="46.73365" lon="5.55585">
        <ele>299.6</ele>
        <time>2022-04-16T12:18:59Z</time>
      </trkpt>
      <trkpt lat="46.73339" lon="5.55596">
        <ele>298.4</ele>
        <time>2022-04-16T12:19:02Z</time>
      </trkpt>
      <trkpt lat="46.73323" lon="5.556">
        <ele>298.2</ele>
        <time>2022-04-16T12:19:05Z</time>
      </trkpt>
      <trkpt lat="46.73308" lon="5.556">
        <ele>298.4</ele>
        <time>2022-04-16T12:19:09Z</time>
      </trkpt>
      <trkpt lat="46.73293" lon="5.55594">
        <ele>298.8</ele>
        <time>2022-04-16T12:19:12Z</time>
      </trkpt>
      <trkpt lat="46.73282" lon="5.5559">
        <ele>298.8</ele>
        <time>2022-04-16T12:19:14Z</time>
      </trkpt>
      <trkpt lat="46.73252" lon="5.55578">
        <ele>299.6</ele>
        <time>2022-04-16T12:19:19Z</time>
      </trkpt>
      <trkpt lat="46.73221" lon="5.55566">
        <ele>300.8</ele>
        <time>2022-04-16T12:19:24Z</time>
      </trkpt>
      <trkpt lat="46.73202" lon="5.55559">
        <ele>301</ele>
        <time>2022-04-16T12:19:27Z</time>
      </trkpt>
      <trkpt lat="46.73148" lon="5.55539">
        <ele>300.8</ele>
        <time>2022-04-16T12:19:35Z</time>
      </trkpt>
      <trkpt lat="46.73111" lon="5.55529">
        <ele>299.6</ele>
        <time>2022-04-16T12:19:40Z</time>
      </trkpt>
      <trkpt lat="46.73104" lon="5.55528">
        <ele>299.4</ele>
        <time>2022-04-16T12:19:41Z</time>
      </trkpt>
      <trkpt lat="46.73074" lon="5.55524">
        <ele>298.8</ele>
        <time>2022-04-16T12:19:45Z</time>
      </trkpt>
      <trkpt lat="46.73067" lon="5.55522">
        <ele>298.8</ele>
        <time>2022-04-16T12:19:46Z</time>
      </trkpt>
      <trkpt lat="46.7305" lon="5.55515">
        <ele>298.6</ele>
        <time>2022-04-16T12:19:49Z</time>
      </trkpt>
      <trkpt lat="46.73037" lon="5.55511">
        <ele>298.4</ele>
        <time>2022-04-16T12:19:51Z</time>
      </trkpt>
      <trkpt lat="46.72999" lon="5.55505">
        <ele>298</ele>
        <time>2022-04-16T12:19:57Z</time>
      </trkpt>
      <trkpt lat="46.72944" lon="5.55501">
        <ele>298.4</ele>
        <time>2022-04-16T12:20:06Z</time>
      </trkpt>
      <trkpt lat="46.72933" lon="5.55502">
        <ele>299</ele>
        <time>2022-04-16T12:20:08Z</time>
      </trkpt>
      <trkpt lat="46.72927" lon="5.55508">
        <ele>299.4</ele>
        <time>2022-04-16T12:20:10Z</time>
      </trkpt>
      <trkpt lat="46.72924" lon="5.55521">
        <ele>299.8</ele>
        <time>2022-04-16T12:20:12Z</time>
      </trkpt>
      <trkpt lat="46.72923" lon="5.55536">
        <ele>300.2</ele>
        <time>2022-04-16T12:20:14Z</time>
      </trkpt>
      <trkpt lat="46.72923" lon="5.55542">
        <ele>300.2</ele>
        <time>2022-04-16T12:20:15Z</time>
      </trkpt>
      <trkpt lat="46.7292" lon="5.55555">
        <ele>300.4</ele>
        <time>2022-04-16T12:20:17Z</time>
      </trkpt>
      <trkpt lat="46.72918" lon="5.55563">
        <ele>300.4</ele>
        <time>2022-04-16T12:20:18Z</time>
      </trkpt>
      <trkpt lat="46.72917" lon="5.55572">
        <ele>300.6</ele>
        <time>2022-04-16T12:20:19Z</time>
      </trkpt>
      <trkpt lat="46.72916" lon="5.5559">
        <ele>300.6</ele>
        <time>2022-04-16T12:20:21Z</time>
      </trkpt>
      <trkpt lat="46.72915" lon="5.55609">
        <ele>300.4</ele>
        <time>2022-04-16T12:20:23Z</time>
      </trkpt>
      <trkpt lat="46.72909" lon="5.55656">
        <ele>299.6</ele>
        <time>2022-04-16T12:20:28Z</time>
      </trkpt>
      <trkpt lat="46.72907" lon="5.55663">
        <ele>299.4</ele>
        <time>2022-04-16T12:20:29Z</time>
      </trkpt>
      <trkpt lat="46.72906" lon="5.55671">
        <ele>299.4</ele>
        <time>2022-04-16T12:20:30Z</time>
      </trkpt>
      <trkpt lat="46.72905" lon="5.55697">
        <ele>299</ele>
        <time>2022-04-16T12:20:33Z</time>
      </trkpt>
      <trkpt lat="46.72904" lon="5.55706">
        <ele>298.6</ele>
        <time>2022-04-16T12:20:34Z</time>
      </trkpt>
      <trkpt lat="46.72904" lon="5.55727">
        <ele>297.6</ele>
        <time>2022-04-16T12:20:36Z</time>
      </trkpt>
      <trkpt lat="46.72901" lon="5.5576">
        <ele>296.4</ele>
        <time>2022-04-16T12:20:39Z</time>
      </trkpt>
      <trkpt lat="46.729" lon="5.55771">
        <ele>296</ele>
        <time>2022-04-16T12:20:40Z</time>
      </trkpt>
      <trkpt lat="46.72894" lon="5.55807">
        <ele>295.2</ele>
        <time>2022-04-16T12:20:44Z</time>
      </trkpt>
      <trkpt lat="46.72889" lon="5.55834">
        <ele>294</ele>
        <time>2022-04-16T12:20:47Z</time>
      </trkpt>
      <trkpt lat="46.72886" lon="5.55853">
        <ele>292.8</ele>
        <time>2022-04-16T12:20:49Z</time>
      </trkpt>
      <trkpt lat="46.72884" lon="5.55862">
        <ele>292.6</ele>
        <time>2022-04-16T12:20:50Z</time>
      </trkpt>
      <trkpt lat="46.72875" lon="5.55875">
        <ele>291.4</ele>
        <time>2022-04-16T12:20:52Z</time>
      </trkpt>
      <trkpt lat="46.72869" lon="5.55881">
        <ele>291.2</ele>
        <time>2022-04-16T12:20:53Z</time>
      </trkpt>
      <trkpt lat="46.72834" lon="5.5591">
        <ele>290.4</ele>
        <time>2022-04-16T12:20:58Z</time>
      </trkpt>
      <trkpt lat="46.72792" lon="5.5594">
        <ele>289.2</ele>
        <time>2022-04-16T12:21:03Z</time>
      </trkpt>
      <trkpt lat="46.72785" lon="5.55948">
        <ele>288.8</ele>
        <time>2022-04-16T12:21:04Z</time>
      </trkpt>
      <trkpt lat="46.72774" lon="5.55969">
        <ele>288.2</ele>
        <time>2022-04-16T12:21:06Z</time>
      </trkpt>
      <trkpt lat="46.72769" lon="5.55988">
        <ele>288.2</ele>
        <time>2022-04-16T12:21:08Z</time>
      </trkpt>
      <trkpt lat="46.72767" lon="5.55998">
        <ele>288.2</ele>
        <time>2022-04-16T12:21:09Z</time>
      </trkpt>
      <trkpt lat="46.72759" lon="5.56041">
        <ele>289</ele>
        <time>2022-04-16T12:21:14Z</time>
      </trkpt>
      <trkpt lat="46.72754" lon="5.56063">
        <ele>290.8</ele>
        <time>2022-04-16T12:21:17Z</time>
      </trkpt>
      <trkpt lat="46.72753" lon="5.5607">
        <ele>291.4</ele>
        <time>2022-04-16T12:21:18Z</time>
      </trkpt>
      <trkpt lat="46.72752" lon="5.56077">
        <ele>292.2</ele>
        <time>2022-04-16T12:21:19Z</time>
      </trkpt>
      <trkpt lat="46.72745" lon="5.56107">
        <ele>293.6</ele>
        <time>2022-04-16T12:21:24Z</time>
      </trkpt>
      <trkpt lat="46.72741" lon="5.56125">
        <ele>295.2</ele>
        <time>2022-04-16T12:21:27Z</time>
      </trkpt>
      <trkpt lat="46.72738" lon="5.56141">
        <ele>296</ele>
        <time>2022-04-16T12:21:30Z</time>
      </trkpt>
      <trkpt lat="46.72736" lon="5.56146">
        <ele>296.8</ele>
        <time>2022-04-16T12:21:31Z</time>
      </trkpt>
      <trkpt lat="46.72733" lon="5.56161">
        <ele>298</ele>
        <time>2022-04-16T12:21:34Z</time>
      </trkpt>
      <trkpt lat="46.72731" lon="5.56176">
        <ele>298.8</ele>
        <time>2022-04-16T12:21:37Z</time>
      </trkpt>
      <trkpt lat="46.72731" lon="5.56182">
        <ele>299.2</ele>
        <time>2022-04-16T12:21:38Z</time>
      </trkpt>
      <trkpt lat="46.72728" lon="5.56202">
        <ele>300.4</ele>
        <time>2022-04-16T12:21:42Z</time>
      </trkpt>
      <trkpt lat="46.72726" lon="5.56217">
        <ele>301.8</ele>
        <time>2022-04-16T12:21:45Z</time>
      </trkpt>
      <trkpt lat="46.72724" lon="5.56235">
        <ele>302.8</ele>
        <time>2022-04-16T12:21:49Z</time>
      </trkpt>
      <trkpt lat="46.72722" lon="5.56254">
        <ele>303.8</ele>
        <time>2022-04-16T12:21:53Z</time>
      </trkpt>
      <trkpt lat="46.7272" lon="5.56263">
        <ele>304.4</ele>
        <time>2022-04-16T12:21:55Z</time>
      </trkpt>
      <trkpt lat="46.72719" lon="5.56271">
        <ele>305</ele>
        <time>2022-04-16T12:21:57Z</time>
      </trkpt>
      <trkpt lat="46.72716" lon="5.56288">
        <ele>306</ele>
        <time>2022-04-16T12:22:01Z</time>
      </trkpt>
      <trkpt lat="46.72715" lon="5.56293">
        <ele>306.2</ele>
        <time>2022-04-16T12:22:02Z</time>
      </trkpt>
      <trkpt lat="46.72713" lon="5.56307">
        <ele>307</ele>
        <time>2022-04-16T12:22:05Z</time>
      </trkpt>
      <trkpt lat="46.7271" lon="5.56326">
        <ele>308</ele>
        <time>2022-04-16T12:22:09Z</time>
      </trkpt>
      <trkpt lat="46.72708" lon="5.56334">
        <ele>308.2</ele>
        <time>2022-04-16T12:22:11Z</time>
      </trkpt>
      <trkpt lat="46.72706" lon="5.56351">
        <ele>309.2</ele>
        <time>2022-04-16T12:22:15Z</time>
      </trkpt>
      <trkpt lat="46.72705" lon="5.56374">
        <ele>310.8</ele>
        <time>2022-04-16T12:22:20Z</time>
      </trkpt>
      <trkpt lat="46.72705" lon="5.56397">
        <ele>311.8</ele>
        <time>2022-04-16T12:22:25Z</time>
      </trkpt>
      <trkpt lat="46.72705" lon="5.56402">
        <ele>311.8</ele>
        <time>2022-04-16T12:22:26Z</time>
      </trkpt>
      <trkpt lat="46.72707" lon="5.56452">
        <ele>313</ele>
        <time>2022-04-16T12:22:35Z</time>
      </trkpt>
      <trkpt lat="46.72709" lon="5.56489">
        <ele>313.4</ele>
        <time>2022-04-16T12:22:40Z</time>
      </trkpt>
      <trkpt lat="46.72713" lon="5.56548">
        <ele>313.4</ele>
        <time>2022-04-16T12:22:46Z</time>
      </trkpt>
      <trkpt lat="46.72712" lon="5.56615">
        <ele>312.2</ele>
        <time>2022-04-16T12:22:52Z</time>
      </trkpt>
      <trkpt lat="46.72709" lon="5.56661">
        <ele>312</ele>
        <time>2022-04-16T12:22:56Z</time>
      </trkpt>
      <trkpt lat="46.72703" lon="5.567">
        <ele>311.8</ele>
        <time>2022-04-16T12:23:00Z</time>
      </trkpt>
      <trkpt lat="46.72682" lon="5.56767">
        <ele>311.4</ele>
        <time>2022-04-16T12:23:07Z</time>
      </trkpt>
      <trkpt lat="46.72674" lon="5.5679">
        <ele>311</ele>
        <time>2022-04-16T12:23:09Z</time>
      </trkpt>
      <trkpt lat="46.72664" lon="5.56807">
        <ele>310.6</ele>
        <time>2022-04-16T12:23:11Z</time>
      </trkpt>
      <trkpt lat="46.72657" lon="5.56817">
        <ele>310.4</ele>
        <time>2022-04-16T12:23:12Z</time>
      </trkpt>
      <trkpt lat="46.72636" lon="5.56843">
        <ele>309.2</ele>
        <time>2022-04-16T12:23:15Z</time>
      </trkpt>
      <trkpt lat="46.72618" lon="5.56869">
        <ele>308.6</ele>
        <time>2022-04-16T12:23:18Z</time>
      </trkpt>
      <trkpt lat="46.72602" lon="5.569">
        <ele>308.8</ele>
        <time>2022-04-16T12:23:22Z</time>
      </trkpt>
      <trkpt lat="46.72585" lon="5.56934">
        <ele>310.2</ele>
        <time>2022-04-16T12:23:27Z</time>
      </trkpt>
      <trkpt lat="46.72577" lon="5.56945">
        <ele>310.8</ele>
        <time>2022-04-16T12:23:29Z</time>
      </trkpt>
      <trkpt lat="46.72565" lon="5.56964">
        <ele>311.6</ele>
        <time>2022-04-16T12:23:32Z</time>
      </trkpt>
      <trkpt lat="46.72545" lon="5.56991">
        <ele>313</ele>
        <time>2022-04-16T12:23:37Z</time>
      </trkpt>
      <trkpt lat="46.72532" lon="5.57011">
        <ele>314</ele>
        <time>2022-04-16T12:23:41Z</time>
      </trkpt>
      <trkpt lat="46.72518" lon="5.5703">
        <ele>315</ele>
        <time>2022-04-16T12:23:45Z</time>
      </trkpt>
      <trkpt lat="46.72514" lon="5.57036">
        <ele>315.4</ele>
        <time>2022-04-16T12:23:46Z</time>
      </trkpt>
      <trkpt lat="46.72498" lon="5.57066">
        <ele>316.6</ele>
        <time>2022-04-16T12:23:52Z</time>
      </trkpt>
      <trkpt lat="46.72484" lon="5.57096">
        <ele>317.8</ele>
        <time>2022-04-16T12:23:57Z</time>
      </trkpt>
      <trkpt lat="46.72476" lon="5.57115">
        <ele>318.4</ele>
        <time>2022-04-16T12:24:00Z</time>
      </trkpt>
      <trkpt lat="46.72459" lon="5.57153">
        <ele>318.8</ele>
        <time>2022-04-16T12:24:06Z</time>
      </trkpt>
      <trkpt lat="46.7245" lon="5.57181">
        <ele>318.8</ele>
        <time>2022-04-16T12:24:10Z</time>
      </trkpt>
      <trkpt lat="46.72432" lon="5.57252">
        <ele>319.4</ele>
        <time>2022-04-16T12:24:20Z</time>
      </trkpt>
      <trkpt lat="46.72421" lon="5.57285">
        <ele>320</ele>
        <time>2022-04-16T12:24:25Z</time>
      </trkpt>
      <trkpt lat="46.72415" lon="5.57295">
        <ele>320.2</ele>
        <time>2022-04-16T12:24:27Z</time>
      </trkpt>
      <trkpt lat="46.72396" lon="5.57314">
        <ele>320.8</ele>
        <time>2022-04-16T12:24:32Z</time>
      </trkpt>
      <trkpt lat="46.72392" lon="5.57318">
        <ele>321</ele>
        <time>2022-04-16T12:24:33Z</time>
      </trkpt>
      <trkpt lat="46.72376" lon="5.57329">
        <ele>322.2</ele>
        <time>2022-04-16T12:24:37Z</time>
      </trkpt>
      <trkpt lat="46.72364" lon="5.57337">
        <ele>322.8</ele>
        <time>2022-04-16T12:24:40Z</time>
      </trkpt>
      <trkpt lat="46.7236" lon="5.57341">
        <ele>323.4</ele>
        <time>2022-04-16T12:24:41Z</time>
      </trkpt>
      <trkpt lat="46.72357" lon="5.57345">
        <ele>323.6</ele>
        <time>2022-04-16T12:24:42Z</time>
      </trkpt>
      <trkpt lat="46.72345" lon="5.57364">
        <ele>324.4</ele>
        <time>2022-04-16T12:24:46Z</time>
      </trkpt>
      <trkpt lat="46.7234" lon="5.57373">
        <ele>324.6</ele>
        <time>2022-04-16T12:24:48Z</time>
      </trkpt>
      <trkpt lat="46.7233" lon="5.57389">
        <ele>325</ele>
        <time>2022-04-16T12:24:52Z</time>
      </trkpt>
      <trkpt lat="46.72324" lon="5.57402">
        <ele>325.6</ele>
        <time>2022-04-16T12:24:55Z</time>
      </trkpt>
      <trkpt lat="46.72315" lon="5.57434">
        <ele>326.6</ele>
        <time>2022-04-16T12:25:02Z</time>
      </trkpt>
      <trkpt lat="46.72314" lon="5.5744">
        <ele>326.8</ele>
        <time>2022-04-16T12:25:03Z</time>
      </trkpt>
      <trkpt lat="46.72313" lon="5.57458">
        <ele>328</ele>
        <time>2022-04-16T12:25:07Z</time>
      </trkpt>
      <trkpt lat="46.72312" lon="5.57468">
        <ele>328.6</ele>
        <time>2022-04-16T12:25:09Z</time>
      </trkpt>
      <trkpt lat="46.72312" lon="5.57472">
        <ele>329.2</ele>
        <time>2022-04-16T12:25:10Z</time>
      </trkpt>
      <trkpt lat="46.72312" lon="5.57481">
        <ele>330.4</ele>
        <time>2022-04-16T12:25:12Z</time>
      </trkpt>
      <trkpt lat="46.72312" lon="5.57497">
        <ele>331.6</ele>
        <time>2022-04-16T12:25:16Z</time>
      </trkpt>
      <trkpt lat="46.72313" lon="5.57509">
        <ele>333</ele>
        <time>2022-04-16T12:25:19Z</time>
      </trkpt>
      <trkpt lat="46.72314" lon="5.57525">
        <ele>334.2</ele>
        <time>2022-04-16T12:25:23Z</time>
      </trkpt>
      <trkpt lat="46.72316" lon="5.57541">
        <ele>335.2</ele>
        <time>2022-04-16T12:25:27Z</time>
      </trkpt>
      <trkpt lat="46.72316" lon="5.57544">
        <ele>335.6</ele>
        <time>2022-04-16T12:25:28Z</time>
      </trkpt>
      <trkpt lat="46.72319" lon="5.57565">
        <ele>336.6</ele>
        <time>2022-04-16T12:25:34Z</time>
      </trkpt>
      <trkpt lat="46.7232" lon="5.57572">
        <ele>337.2</ele>
        <time>2022-04-16T12:25:36Z</time>
      </trkpt>
      <trkpt lat="46.7232" lon="5.57578">
        <ele>337.6</ele>
        <time>2022-04-16T12:25:38Z</time>
      </trkpt>
      <trkpt lat="46.72321" lon="5.57588">
        <ele>338.6</ele>
        <time>2022-04-16T12:25:41Z</time>
      </trkpt>
      <trkpt lat="46.72322" lon="5.57591">
        <ele>339.2</ele>
        <time>2022-04-16T12:25:42Z</time>
      </trkpt>
      <trkpt lat="46.72322" lon="5.57597">
        <ele>339.8</ele>
        <time>2022-04-16T12:25:44Z</time>
      </trkpt>
      <trkpt lat="46.72323" lon="5.57614">
        <ele>341.2</ele>
        <time>2022-04-16T12:25:49Z</time>
      </trkpt>
      <trkpt lat="46.72323" lon="5.57618">
        <ele>341.4</ele>
        <time>2022-04-16T12:25:50Z</time>
      </trkpt>
      <trkpt lat="46.72323" lon="5.57627">
        <ele>342.6</ele>
        <time>2022-04-16T12:25:53Z</time>
      </trkpt>
      <trkpt lat="46.72322" lon="5.5764">
        <ele>343.6</ele>
        <time>2022-04-16T12:25:57Z</time>
      </trkpt>
      <trkpt lat="46.72321" lon="5.57645">
        <ele>344</ele>
        <time>2022-04-16T12:25:59Z</time>
      </trkpt>
      <trkpt lat="46.7232" lon="5.57651">
        <ele>344.8</ele>
        <time>2022-04-16T12:26:01Z</time>
      </trkpt>
      <trkpt lat="46.72318" lon="5.57663">
        <ele>346</ele>
        <time>2022-04-16T12:26:05Z</time>
      </trkpt>
      <trkpt lat="46.72317" lon="5.57668">
        <ele>347.4</ele>
        <time>2022-04-16T12:26:07Z</time>
      </trkpt>
      <trkpt lat="46.72316" lon="5.57674">
        <ele>347.8</ele>
        <time>2022-04-16T12:26:09Z</time>
      </trkpt>
      <trkpt lat="46.72316" lon="5.57683">
        <ele>348.4</ele>
        <time>2022-04-16T12:26:12Z</time>
      </trkpt>
      <trkpt lat="46.72316" lon="5.57695">
        <ele>349.4</ele>
        <time>2022-04-16T12:26:16Z</time>
      </trkpt>
      <trkpt lat="46.72316" lon="5.577">
        <ele>350</ele>
        <time>2022-04-16T12:26:18Z</time>
      </trkpt>
      <trkpt lat="46.72317" lon="5.57707">
        <ele>350.6</ele>
        <time>2022-04-16T12:26:20Z</time>
      </trkpt>
      <trkpt lat="46.72317" lon="5.57717">
        <ele>351.4</ele>
        <time>2022-04-16T12:26:23Z</time>
      </trkpt>
      <trkpt lat="46.72317" lon="5.5772">
        <ele>351.8</ele>
        <time>2022-04-16T12:26:24Z</time>
      </trkpt>
      <trkpt lat="46.72317" lon="5.57737">
        <ele>352.8</ele>
        <time>2022-04-16T12:26:29Z</time>
      </trkpt>
      <trkpt lat="46.72317" lon="5.57744">
        <ele>353.4</ele>
        <time>2022-04-16T12:26:31Z</time>
      </trkpt>
      <trkpt lat="46.72317" lon="5.5775">
        <ele>353.8</ele>
        <time>2022-04-16T12:26:33Z</time>
      </trkpt>
      <trkpt lat="46.72318" lon="5.57761">
        <ele>354.8</ele>
        <time>2022-04-16T12:26:36Z</time>
      </trkpt>
      <trkpt lat="46.72317" lon="5.57774">
        <ele>355.4</ele>
        <time>2022-04-16T12:26:39Z</time>
      </trkpt>
      <trkpt lat="46.72317" lon="5.57782">
        <ele>356</ele>
        <time>2022-04-16T12:26:41Z</time>
      </trkpt>
      <trkpt lat="46.72315" lon="5.57798">
        <ele>357</ele>
        <time>2022-04-16T12:26:45Z</time>
      </trkpt>
      <trkpt lat="46.72311" lon="5.57815">
        <ele>357.4</ele>
        <time>2022-04-16T12:26:49Z</time>
      </trkpt>
      <trkpt lat="46.72309" lon="5.57818">
        <ele>357.6</ele>
        <time>2022-04-16T12:26:50Z</time>
      </trkpt>
      <trkpt lat="46.72307" lon="5.5782">
        <ele>358</ele>
        <time>2022-04-16T12:26:51Z</time>
      </trkpt>
      <trkpt lat="46.723" lon="5.57823">
        <ele>359</ele>
        <time>2022-04-16T12:26:53Z</time>
      </trkpt>
      <trkpt lat="46.72297" lon="5.57823">
        <ele>359.4</ele>
        <time>2022-04-16T12:26:54Z</time>
      </trkpt>
      <trkpt lat="46.72278" lon="5.57821">
        <ele>360</ele>
        <time>2022-04-16T12:26:59Z</time>
      </trkpt>
      <trkpt lat="46.72274" lon="5.5782">
        <ele>360</ele>
        <time>2022-04-16T12:27:00Z</time>
      </trkpt>
      <trkpt lat="46.72254" lon="5.5782">
        <ele>359.8</ele>
        <time>2022-04-16T12:27:04Z</time>
      </trkpt>
      <trkpt lat="46.72243" lon="5.57819">
        <ele>359.6</ele>
        <time>2022-04-16T12:27:06Z</time>
      </trkpt>
      <trkpt lat="46.72233" lon="5.57819">
        <ele>359.4</ele>
        <time>2022-04-16T12:27:08Z</time>
      </trkpt>
      <trkpt lat="46.72227" lon="5.57817">
        <ele>359.4</ele>
        <time>2022-04-16T12:27:09Z</time>
      </trkpt>
      <trkpt lat="46.72194" lon="5.57815">
        <ele>359</ele>
        <time>2022-04-16T12:27:14Z</time>
      </trkpt>
      <trkpt lat="46.72186" lon="5.57816">
        <ele>358.6</ele>
        <time>2022-04-16T12:27:15Z</time>
      </trkpt>
      <trkpt lat="46.72178" lon="5.57819">
        <ele>358.2</ele>
        <time>2022-04-16T12:27:16Z</time>
      </trkpt>
      <trkpt lat="46.72171" lon="5.57822">
        <ele>358</ele>
        <time>2022-04-16T12:27:17Z</time>
      </trkpt>
      <trkpt lat="46.72157" lon="5.5783">
        <ele>357</ele>
        <time>2022-04-16T12:27:19Z</time>
      </trkpt>
      <trkpt lat="46.72145" lon="5.57838">
        <ele>355.8</ele>
        <time>2022-04-16T12:27:21Z</time>
      </trkpt>
      <trkpt lat="46.72138" lon="5.57842">
        <ele>355.4</ele>
        <time>2022-04-16T12:27:22Z</time>
      </trkpt>
      <trkpt lat="46.72126" lon="5.57847">
        <ele>355</ele>
        <time>2022-04-16T12:27:24Z</time>
      </trkpt>
      <trkpt lat="46.72113" lon="5.5785">
        <ele>354.6</ele>
        <time>2022-04-16T12:27:26Z</time>
      </trkpt>
      <trkpt lat="46.72106" lon="5.57851">
        <ele>354.2</ele>
        <time>2022-04-16T12:27:27Z</time>
      </trkpt>
      <trkpt lat="46.72092" lon="5.57851">
        <ele>353.4</ele>
        <time>2022-04-16T12:27:29Z</time>
      </trkpt>
      <trkpt lat="46.72078" lon="5.57851">
        <ele>352.8</ele>
        <time>2022-04-16T12:27:31Z</time>
      </trkpt>
      <trkpt lat="46.72063" lon="5.57854">
        <ele>351.8</ele>
        <time>2022-04-16T12:27:33Z</time>
      </trkpt>
      <trkpt lat="46.72056" lon="5.57857">
        <ele>351.4</ele>
        <time>2022-04-16T12:27:34Z</time>
      </trkpt>
      <trkpt lat="46.72049" lon="5.57861">
        <ele>351.2</ele>
        <time>2022-04-16T12:27:35Z</time>
      </trkpt>
      <trkpt lat="46.72043" lon="5.57866">
        <ele>350.8</ele>
        <time>2022-04-16T12:27:36Z</time>
      </trkpt>
      <trkpt lat="46.72023" lon="5.57881">
        <ele>349.6</ele>
        <time>2022-04-16T12:27:39Z</time>
      </trkpt>
      <trkpt lat="46.7201" lon="5.57887">
        <ele>348.8</ele>
        <time>2022-04-16T12:27:41Z</time>
      </trkpt>
      <trkpt lat="46.71998" lon="5.57884">
        <ele>348.6</ele>
        <time>2022-04-16T12:27:43Z</time>
      </trkpt>
      <trkpt lat="46.71993" lon="5.5788">
        <ele>348.6</ele>
        <time>2022-04-16T12:27:44Z</time>
      </trkpt>
      <trkpt lat="46.71989" lon="5.57874">
        <ele>348.4</ele>
        <time>2022-04-16T12:27:45Z</time>
      </trkpt>
      <trkpt lat="46.7198" lon="5.57853">
        <ele>348.4</ele>
        <time>2022-04-16T12:27:48Z</time>
      </trkpt>
      <trkpt lat="46.71967" lon="5.57806">
        <ele>349.2</ele>
        <time>2022-04-16T12:27:54Z</time>
      </trkpt>
      <trkpt lat="46.71962" lon="5.5779">
        <ele>350</ele>
        <time>2022-04-16T12:27:57Z</time>
      </trkpt>
      <trkpt lat="46.71961" lon="5.57786">
        <ele>350.2</ele>
        <time>2022-04-16T12:27:58Z</time>
      </trkpt>
      <trkpt lat="46.7196" lon="5.57779">
        <ele>351.2</ele>
        <time>2022-04-16T12:28:00Z</time>
      </trkpt>
      <trkpt lat="46.71958" lon="5.57773">
        <ele>352.2</ele>
        <time>2022-04-16T12:28:03Z</time>
      </trkpt>
      <trkpt lat="46.71958" lon="5.57774">
        <ele>352.6</ele>
        <time>2022-04-16T12:28:04Z</time>
      </trkpt>
      <trkpt lat="46.7196" lon="5.57781">
        <ele>353</ele>
        <time>2022-04-16T12:28:06Z</time>
      </trkpt>
      <trkpt lat="46.71969" lon="5.57805">
        <ele>353.2</ele>
        <time>2022-04-16T12:28:10Z</time>
      </trkpt>
      <trkpt lat="46.71981" lon="5.57846">
        <ele>352.8</ele>
        <time>2022-04-16T12:28:15Z</time>
      </trkpt>
      <trkpt lat="46.71989" lon="5.57869">
        <ele>351.2</ele>
        <time>2022-04-16T12:28:18Z</time>
      </trkpt>
      <trkpt lat="46.71992" lon="5.57879">
        <ele>350.8</ele>
        <time>2022-04-16T12:28:20Z</time>
      </trkpt>
      <trkpt lat="46.71995" lon="5.57888">
        <ele>350.4</ele>
        <time>2022-04-16T12:28:22Z</time>
      </trkpt>
      <trkpt lat="46.71993" lon="5.579">
        <ele>350</ele>
        <time>2022-04-16T12:28:24Z</time>
      </trkpt>
      <trkpt lat="46.71989" lon="5.57911">
        <ele>349.6</ele>
        <time>2022-04-16T12:28:26Z</time>
      </trkpt>
      <trkpt lat="46.71982" lon="5.57921">
        <ele>349.4</ele>
        <time>2022-04-16T12:28:28Z</time>
      </trkpt>
      <trkpt lat="46.71973" lon="5.57926">
        <ele>349.4</ele>
        <time>2022-04-16T12:28:30Z</time>
      </trkpt>
      <trkpt lat="46.71963" lon="5.5793">
        <ele>349.6</ele>
        <time>2022-04-16T12:28:32Z</time>
      </trkpt>
      <trkpt lat="46.71953" lon="5.5793">
        <ele>349.6</ele>
        <time>2022-04-16T12:28:34Z</time>
      </trkpt>
      <trkpt lat="46.71942" lon="5.57925">
        <ele>349.8</ele>
        <time>2022-04-16T12:28:36Z</time>
      </trkpt>
      <trkpt lat="46.71933" lon="5.57917">
        <ele>350.2</ele>
        <time>2022-04-16T12:28:38Z</time>
      </trkpt>
      <trkpt lat="46.71921" lon="5.57905">
        <ele>351.4</ele>
        <time>2022-04-16T12:28:41Z</time>
      </trkpt>
      <trkpt lat="46.71901" lon="5.57886">
        <ele>352.6</ele>
        <time>2022-04-16T12:28:46Z</time>
      </trkpt>
      <trkpt lat="46.71894" lon="5.57879">
        <ele>353.2</ele>
        <time>2022-04-16T12:28:48Z</time>
      </trkpt>
      <trkpt lat="46.71888" lon="5.57873">
        <ele>353.8</ele>
        <time>2022-04-16T12:28:50Z</time>
      </trkpt>
      <trkpt lat="46.71879" lon="5.57863">
        <ele>355.2</ele>
        <time>2022-04-16T12:28:53Z</time>
      </trkpt>
      <trkpt lat="46.7187" lon="5.57852">
        <ele>356.4</ele>
        <time>2022-04-16T12:28:56Z</time>
      </trkpt>
      <trkpt lat="46.71865" lon="5.57846">
        <ele>357.6</ele>
        <time>2022-04-16T12:28:58Z</time>
      </trkpt>
      <trkpt lat="46.7186" lon="5.57841">
        <ele>358.4</ele>
        <time>2022-04-16T12:29:00Z</time>
      </trkpt>
      <trkpt lat="46.71857" lon="5.57838">
        <ele>358.6</ele>
        <time>2022-04-16T12:29:01Z</time>
      </trkpt>
      <trkpt lat="46.71852" lon="5.57831">
        <ele>359.8</ele>
        <time>2022-04-16T12:29:03Z</time>
      </trkpt>
      <trkpt lat="46.71847" lon="5.57818">
        <ele>360.6</ele>
        <time>2022-04-16T12:29:06Z</time>
      </trkpt>
      <trkpt lat="46.71845" lon="5.57813">
        <ele>361</ele>
        <time>2022-04-16T12:29:07Z</time>
      </trkpt>
      <trkpt lat="46.71839" lon="5.57796">
        <ele>362</ele>
        <time>2022-04-16T12:29:11Z</time>
      </trkpt>
      <trkpt lat="46.71831" lon="5.57778">
        <ele>363</ele>
        <time>2022-04-16T12:29:15Z</time>
      </trkpt>
      <trkpt lat="46.71828" lon="5.57773">
        <ele>363.2</ele>
        <time>2022-04-16T12:29:16Z</time>
      </trkpt>
      <trkpt lat="46.71822" lon="5.57764">
        <ele>363.4</ele>
        <time>2022-04-16T12:29:18Z</time>
      </trkpt>
      <trkpt lat="46.71814" lon="5.57755">
        <ele>363.6</ele>
        <time>2022-04-16T12:29:20Z</time>
      </trkpt>
      <trkpt lat="46.71797" lon="5.57732">
        <ele>363.4</ele>
        <time>2022-04-16T12:29:24Z</time>
      </trkpt>
      <trkpt lat="46.71786" lon="5.57717">
        <ele>363.2</ele>
        <time>2022-04-16T12:29:26Z</time>
      </trkpt>
      <trkpt lat="46.71768" lon="5.5769">
        <ele>362.2</ele>
        <time>2022-04-16T12:29:29Z</time>
      </trkpt>
      <trkpt lat="46.71756" lon="5.57672">
        <ele>361.6</ele>
        <time>2022-04-16T12:29:31Z</time>
      </trkpt>
      <trkpt lat="46.7175" lon="5.57663">
        <ele>360.8</ele>
        <time>2022-04-16T12:29:32Z</time>
      </trkpt>
      <trkpt lat="46.71741" lon="5.57648">
        <ele>359</ele>
        <time>2022-04-16T12:29:34Z</time>
      </trkpt>
      <trkpt lat="46.71737" lon="5.57642">
        <ele>358.2</ele>
        <time>2022-04-16T12:29:35Z</time>
      </trkpt>
      <trkpt lat="46.71733" lon="5.57637">
        <ele>357.8</ele>
        <time>2022-04-16T12:29:36Z</time>
      </trkpt>
      <trkpt lat="46.71719" lon="5.57621">
        <ele>356.8</ele>
        <time>2022-04-16T12:29:39Z</time>
      </trkpt>
      <trkpt lat="46.71715" lon="5.57616">
        <ele>356.6</ele>
        <time>2022-04-16T12:29:40Z</time>
      </trkpt>
      <trkpt lat="46.71705" lon="5.57604">
        <ele>356</ele>
        <time>2022-04-16T12:29:42Z</time>
      </trkpt>
      <trkpt lat="46.71692" lon="5.57584">
        <ele>356</ele>
        <time>2022-04-16T12:29:45Z</time>
      </trkpt>
      <trkpt lat="46.71661" lon="5.57546">
        <ele>357.6</ele>
        <time>2022-04-16T12:29:52Z</time>
      </trkpt>
      <trkpt lat="46.71654" lon="5.57534">
        <ele>358</ele>
        <time>2022-04-16T12:29:54Z</time>
      </trkpt>
      <trkpt lat="46.71651" lon="5.57528">
        <ele>358.8</ele>
        <time>2022-04-16T12:29:55Z</time>
      </trkpt>
      <trkpt lat="46.71644" lon="5.57516">
        <ele>359.8</ele>
        <time>2022-04-16T12:29:57Z</time>
      </trkpt>
      <trkpt lat="46.71641" lon="5.5751">
        <ele>360.2</ele>
        <time>2022-04-16T12:29:58Z</time>
      </trkpt>
      <trkpt lat="46.71625" lon="5.57488">
        <ele>361.4</ele>
        <time>2022-04-16T12:30:02Z</time>
      </trkpt>
      <trkpt lat="46.7162" lon="5.57483">
        <ele>361.6</ele>
        <time>2022-04-16T12:30:03Z</time>
      </trkpt>
      <trkpt lat="46.71607" lon="5.5747">
        <ele>362.6</ele>
        <time>2022-04-16T12:30:06Z</time>
      </trkpt>
      <trkpt lat="46.71575" lon="5.57444">
        <ele>363.6</ele>
        <time>2022-04-16T12:30:12Z</time>
      </trkpt>
      <trkpt lat="46.71532" lon="5.57411">
        <ele>363.2</ele>
        <time>2022-04-16T12:30:19Z</time>
      </trkpt>
      <trkpt lat="46.71502" lon="5.57392">
        <ele>362.6</ele>
        <time>2022-04-16T12:30:23Z</time>
      </trkpt>
      <trkpt lat="46.71478" lon="5.57378">
        <ele>361.6</ele>
        <time>2022-04-16T12:30:26Z</time>
      </trkpt>
      <trkpt lat="46.71445" lon="5.57355">
        <ele>360.4</ele>
        <time>2022-04-16T12:30:30Z</time>
      </trkpt>
      <trkpt lat="46.71437" lon="5.57347">
        <ele>360.2</ele>
        <time>2022-04-16T12:30:31Z</time>
      </trkpt>
      <trkpt lat="46.71421" lon="5.57329">
        <ele>359.2</ele>
        <time>2022-04-16T12:30:33Z</time>
      </trkpt>
      <trkpt lat="46.71412" lon="5.57319">
        <ele>359</ele>
        <time>2022-04-16T12:30:34Z</time>
      </trkpt>
      <trkpt lat="46.71404" lon="5.57308">
        <ele>358.8</ele>
        <time>2022-04-16T12:30:35Z</time>
      </trkpt>
      <trkpt lat="46.71369" lon="5.57258">
        <ele>357.8</ele>
        <time>2022-04-16T12:30:39Z</time>
      </trkpt>
      <trkpt lat="46.71359" lon="5.57245">
        <ele>356.6</ele>
        <time>2022-04-16T12:30:40Z</time>
      </trkpt>
      <trkpt lat="46.71337" lon="5.57222">
        <ele>355</ele>
        <time>2022-04-16T12:30:42Z</time>
      </trkpt>
      <trkpt lat="46.71313" lon="5.57199">
        <ele>353.2</ele>
        <time>2022-04-16T12:30:44Z</time>
      </trkpt>
      <trkpt lat="46.713" lon="5.57187">
        <ele>352.6</ele>
        <time>2022-04-16T12:30:45Z</time>
      </trkpt>
      <trkpt lat="46.71288" lon="5.57175">
        <ele>351</ele>
        <time>2022-04-16T12:30:46Z</time>
      </trkpt>
      <trkpt lat="46.71276" lon="5.57162">
        <ele>349.4</ele>
        <time>2022-04-16T12:30:47Z</time>
      </trkpt>
      <trkpt lat="46.71253" lon="5.57134">
        <ele>348.2</ele>
        <time>2022-04-16T12:30:49Z</time>
      </trkpt>
      <trkpt lat="46.71242" lon="5.57119">
        <ele>347</ele>
        <time>2022-04-16T12:30:50Z</time>
      </trkpt>
      <trkpt lat="46.71232" lon="5.57103">
        <ele>345.8</ele>
        <time>2022-04-16T12:30:51Z</time>
      </trkpt>
      <trkpt lat="46.71221" lon="5.57088">
        <ele>344.6</ele>
        <time>2022-04-16T12:30:52Z</time>
      </trkpt>
      <trkpt lat="46.7121" lon="5.57074">
        <ele>342.6</ele>
        <time>2022-04-16T12:30:53Z</time>
      </trkpt>
      <trkpt lat="46.71198" lon="5.57061">
        <ele>340.4</ele>
        <time>2022-04-16T12:30:54Z</time>
      </trkpt>
      <trkpt lat="46.71171" lon="5.57041">
        <ele>338</ele>
        <time>2022-04-16T12:30:56Z</time>
      </trkpt>
      <trkpt lat="46.71155" lon="5.57033">
        <ele>337</ele>
        <time>2022-04-16T12:30:57Z</time>
      </trkpt>
      <trkpt lat="46.71144" lon="5.57028">
        <ele>335.8</ele>
        <time>2022-04-16T12:30:58Z</time>
      </trkpt>
      <trkpt lat="46.71105" lon="5.57012">
        <ele>334.6</ele>
        <time>2022-04-16T12:31:01Z</time>
      </trkpt>
      <trkpt lat="46.71077" lon="5.57">
        <ele>334.2</ele>
        <time>2022-04-16T12:31:04Z</time>
      </trkpt>
      <trkpt lat="46.71069" lon="5.56998">
        <ele>334.2</ele>
        <time>2022-04-16T12:31:05Z</time>
      </trkpt>
      <trkpt lat="46.71061" lon="5.56996">
        <ele>334.2</ele>
        <time>2022-04-16T12:31:06Z</time>
      </trkpt>
      <trkpt lat="46.71037" lon="5.56996">
        <ele>334.4</ele>
        <time>2022-04-16T12:31:09Z</time>
      </trkpt>
      <trkpt lat="46.71014" lon="5.56999">
        <ele>335.8</ele>
        <time>2022-04-16T12:31:12Z</time>
      </trkpt>
      <trkpt lat="46.71" lon="5.57">
        <ele>337</ele>
        <time>2022-04-16T12:31:14Z</time>
      </trkpt>
      <trkpt lat="46.70977" lon="5.57">
        <ele>338.6</ele>
        <time>2022-04-16T12:31:17Z</time>
      </trkpt>
      <trkpt lat="46.70964" lon="5.57">
        <ele>340</ele>
        <time>2022-04-16T12:31:19Z</time>
      </trkpt>
      <trkpt lat="46.70958" lon="5.57">
        <ele>340.2</ele>
        <time>2022-04-16T12:31:20Z</time>
      </trkpt>
      <trkpt lat="46.70951" lon="5.57">
        <ele>341</ele>
        <time>2022-04-16T12:31:21Z</time>
      </trkpt>
      <trkpt lat="46.70931" lon="5.57001">
        <ele>342.2</ele>
        <time>2022-04-16T12:31:24Z</time>
      </trkpt>
      <trkpt lat="46.70918" lon="5.57003">
        <ele>342.8</ele>
        <time>2022-04-16T12:31:26Z</time>
      </trkpt>
      <trkpt lat="46.70912" lon="5.57004">
        <ele>343</ele>
        <time>2022-04-16T12:31:27Z</time>
      </trkpt>
      <trkpt lat="46.70905" lon="5.57006">
        <ele>343.6</ele>
        <time>2022-04-16T12:31:28Z</time>
      </trkpt>
      <trkpt lat="46.70889" lon="5.5701">
        <ele>344</ele>
        <time>2022-04-16T12:31:31Z</time>
      </trkpt>
      <trkpt lat="46.70851" lon="5.5702">
        <ele>343.8</ele>
        <time>2022-04-16T12:31:37Z</time>
      </trkpt>
      <trkpt lat="46.70844" lon="5.57023">
        <ele>343.6</ele>
        <time>2022-04-16T12:31:38Z</time>
      </trkpt>
      <trkpt lat="46.70832" lon="5.57032">
        <ele>343.4</ele>
        <time>2022-04-16T12:31:40Z</time>
      </trkpt>
      <trkpt lat="46.70821" lon="5.57035">
        <ele>343.2</ele>
        <time>2022-04-16T12:31:42Z</time>
      </trkpt>
      <trkpt lat="46.70814" lon="5.57028">
        <ele>342.6</ele>
        <time>2022-04-16T12:31:44Z</time>
      </trkpt>
      <trkpt lat="46.70808" lon="5.57011">
        <ele>342</ele>
        <time>2022-04-16T12:31:46Z</time>
      </trkpt>
      <trkpt lat="46.70805" lon="5.57">
        <ele>341.8</ele>
        <time>2022-04-16T12:31:47Z</time>
      </trkpt>
      <trkpt lat="46.70797" lon="5.56974">
        <ele>341.4</ele>
        <time>2022-04-16T12:31:49Z</time>
      </trkpt>
      <trkpt lat="46.7079" lon="5.56948">
        <ele>340.8</ele>
        <time>2022-04-16T12:31:51Z</time>
      </trkpt>
      <trkpt lat="46.70788" lon="5.56937">
        <ele>340.2</ele>
        <time>2022-04-16T12:31:52Z</time>
      </trkpt>
      <trkpt lat="46.70778" lon="5.56898">
        <ele>338.6</ele>
        <time>2022-04-16T12:31:55Z</time>
      </trkpt>
      <trkpt lat="46.70773" lon="5.56875">
        <ele>337.6</ele>
        <time>2022-04-16T12:31:57Z</time>
      </trkpt>
      <trkpt lat="46.70763" lon="5.5686">
        <ele>336.6</ele>
        <time>2022-04-16T12:31:59Z</time>
      </trkpt>
      <trkpt lat="46.70757" lon="5.56858">
        <ele>336.4</ele>
        <time>2022-04-16T12:32:00Z</time>
      </trkpt>
      <trkpt lat="46.7075" lon="5.56856">
        <ele>336.2</ele>
        <time>2022-04-16T12:32:01Z</time>
      </trkpt>
      <trkpt lat="46.70742" lon="5.56856">
        <ele>336.2</ele>
        <time>2022-04-16T12:32:02Z</time>
      </trkpt>
      <trkpt lat="46.70687" lon="5.5685">
        <ele>335.6</ele>
        <time>2022-04-16T12:32:08Z</time>
      </trkpt>
      <trkpt lat="46.70671" lon="5.56848">
        <ele>335.4</ele>
        <time>2022-04-16T12:32:10Z</time>
      </trkpt>
      <trkpt lat="46.70637" lon="5.5684">
        <ele>335.2</ele>
        <time>2022-04-16T12:32:14Z</time>
      </trkpt>
      <trkpt lat="46.7062" lon="5.56831">
        <ele>335.2</ele>
        <time>2022-04-16T12:32:16Z</time>
      </trkpt>
      <trkpt lat="46.70607" lon="5.56821">
        <ele>335.2</ele>
        <time>2022-04-16T12:32:18Z</time>
      </trkpt>
      <trkpt lat="46.70572" lon="5.56796">
        <ele>335.4</ele>
        <time>2022-04-16T12:32:23Z</time>
      </trkpt>
      <trkpt lat="46.70537" lon="5.5679">
        <ele>336.4</ele>
        <time>2022-04-16T12:32:28Z</time>
      </trkpt>
      <trkpt lat="46.70531" lon="5.5679">
        <ele>336.8</ele>
        <time>2022-04-16T12:32:29Z</time>
      </trkpt>
      <trkpt lat="46.70504" lon="5.5679">
        <ele>338.2</ele>
        <time>2022-04-16T12:32:33Z</time>
      </trkpt>
      <trkpt lat="46.70492" lon="5.5679">
        <ele>339</ele>
        <time>2022-04-16T12:32:35Z</time>
      </trkpt>
      <trkpt lat="46.70486" lon="5.5679">
        <ele>339.4</ele>
        <time>2022-04-16T12:32:36Z</time>
      </trkpt>
      <trkpt lat="46.70448" lon="5.56798">
        <ele>340.6</ele>
        <time>2022-04-16T12:32:42Z</time>
      </trkpt>
      <trkpt lat="46.70443" lon="5.568">
        <ele>341</ele>
        <time>2022-04-16T12:32:43Z</time>
      </trkpt>
      <trkpt lat="46.70409" lon="5.56816">
        <ele>341.8</ele>
        <time>2022-04-16T12:32:49Z</time>
      </trkpt>
      <trkpt lat="46.70396" lon="5.56822">
        <ele>342.2</ele>
        <time>2022-04-16T12:32:51Z</time>
      </trkpt>
      <trkpt lat="46.70363" lon="5.5684">
        <ele>342.6</ele>
        <time>2022-04-16T12:32:56Z</time>
      </trkpt>
      <trkpt lat="46.70331" lon="5.56863">
        <ele>342</ele>
        <time>2022-04-16T12:33:01Z</time>
      </trkpt>
      <trkpt lat="46.70315" lon="5.56873">
        <ele>341.6</ele>
        <time>2022-04-16T12:33:03Z</time>
      </trkpt>
      <trkpt lat="46.70309" lon="5.56873">
        <ele>341.4</ele>
        <time>2022-04-16T12:33:04Z</time>
      </trkpt>
      <trkpt lat="46.70301" lon="5.56871">
        <ele>341.4</ele>
        <time>2022-04-16T12:33:05Z</time>
      </trkpt>
      <trkpt lat="46.70286" lon="5.5686">
        <ele>341.2</ele>
        <time>2022-04-16T12:33:07Z</time>
      </trkpt>
      <trkpt lat="46.70269" lon="5.56847">
        <ele>340.6</ele>
        <time>2022-04-16T12:33:09Z</time>
      </trkpt>
      <trkpt lat="46.7025" lon="5.56833">
        <ele>339.4</ele>
        <time>2022-04-16T12:33:11Z</time>
      </trkpt>
      <trkpt lat="46.70229" lon="5.56822">
        <ele>338.4</ele>
        <time>2022-04-16T12:33:13Z</time>
      </trkpt>
      <trkpt lat="46.70208" lon="5.5681">
        <ele>336.8</ele>
        <time>2022-04-16T12:33:15Z</time>
      </trkpt>
      <trkpt lat="46.70186" lon="5.568">
        <ele>335.2</ele>
        <time>2022-04-16T12:33:17Z</time>
      </trkpt>
      <trkpt lat="46.70153" lon="5.56789">
        <ele>334</ele>
        <time>2022-04-16T12:33:20Z</time>
      </trkpt>
      <trkpt lat="46.7012" lon="5.56778">
        <ele>332.8</ele>
        <time>2022-04-16T12:33:23Z</time>
      </trkpt>
      <trkpt lat="46.70074" lon="5.56767">
        <ele>331.4</ele>
        <time>2022-04-16T12:33:27Z</time>
      </trkpt>
      <trkpt lat="46.70052" lon="5.56762">
        <ele>331</ele>
        <time>2022-04-16T12:33:29Z</time>
      </trkpt>
      <trkpt lat="46.70042" lon="5.56759">
        <ele>330.8</ele>
        <time>2022-04-16T12:33:30Z</time>
      </trkpt>
      <trkpt lat="46.70023" lon="5.5675">
        <ele>330.2</ele>
        <time>2022-04-16T12:33:32Z</time>
      </trkpt>
      <trkpt lat="46.70006" lon="5.56732">
        <ele>329.8</ele>
        <time>2022-04-16T12:33:34Z</time>
      </trkpt>
      <trkpt lat="46.70001" lon="5.56724">
        <ele>330</ele>
        <time>2022-04-16T12:33:35Z</time>
      </trkpt>
      <trkpt lat="46.69996" lon="5.5671">
        <ele>330</ele>
        <time>2022-04-16T12:33:36Z</time>
      </trkpt>
      <trkpt lat="46.69991" lon="5.56689">
        <ele>330.4</ele>
        <time>2022-04-16T12:33:38Z</time>
      </trkpt>
      <trkpt lat="46.69991" lon="5.56651">
        <ele>331.6</ele>
        <time>2022-04-16T12:33:41Z</time>
      </trkpt>
      <trkpt lat="46.69997" lon="5.56599">
        <ele>332.6</ele>
        <time>2022-04-16T12:33:46Z</time>
      </trkpt>
      <trkpt lat="46.69999" lon="5.56578">
        <ele>334</ele>
        <time>2022-04-16T12:33:48Z</time>
      </trkpt>
      <trkpt lat="46.70001" lon="5.56556">
        <ele>335.2</ele>
        <time>2022-04-16T12:33:50Z</time>
      </trkpt>
      <trkpt lat="46.70005" lon="5.56534">
        <ele>336.2</ele>
        <time>2022-04-16T12:33:52Z</time>
      </trkpt>
      <trkpt lat="46.70008" lon="5.56511">
        <ele>337.6</ele>
        <time>2022-04-16T12:33:54Z</time>
      </trkpt>
      <trkpt lat="46.70013" lon="5.56477">
        <ele>338.6</ele>
        <time>2022-04-16T12:33:57Z</time>
      </trkpt>
      <trkpt lat="46.7002" lon="5.5643">
        <ele>338.8</ele>
        <time>2022-04-16T12:34:01Z</time>
      </trkpt>
      <trkpt lat="46.70033" lon="5.56346">
        <ele>337.6</ele>
        <time>2022-04-16T12:34:08Z</time>
      </trkpt>
      <trkpt lat="46.70038" lon="5.56308">
        <ele>336.8</ele>
        <time>2022-04-16T12:34:11Z</time>
      </trkpt>
      <trkpt lat="46.70039" lon="5.56295">
        <ele>336.6</ele>
        <time>2022-04-16T12:34:12Z</time>
      </trkpt>
      <trkpt lat="46.70035" lon="5.56269">
        <ele>335.6</ele>
        <time>2022-04-16T12:34:14Z</time>
      </trkpt>
      <trkpt lat="46.7003" lon="5.56257">
        <ele>335</ele>
        <time>2022-04-16T12:34:15Z</time>
      </trkpt>
      <trkpt lat="46.70023" lon="5.56246">
        <ele>334.6</ele>
        <time>2022-04-16T12:34:16Z</time>
      </trkpt>
      <trkpt lat="46.70014" lon="5.56239">
        <ele>334.4</ele>
        <time>2022-04-16T12:34:17Z</time>
      </trkpt>
      <trkpt lat="46.70004" lon="5.56236">
        <ele>333.8</ele>
        <time>2022-04-16T12:34:18Z</time>
      </trkpt>
      <trkpt lat="46.69983" lon="5.56235">
        <ele>332.8</ele>
        <time>2022-04-16T12:34:20Z</time>
      </trkpt>
      <trkpt lat="46.6996" lon="5.56237">
        <ele>331.6</ele>
        <time>2022-04-16T12:34:22Z</time>
      </trkpt>
      <trkpt lat="46.69949" lon="5.56238">
        <ele>330.6</ele>
        <time>2022-04-16T12:34:23Z</time>
      </trkpt>
      <trkpt lat="46.69925" lon="5.56241">
        <ele>328.6</ele>
        <time>2022-04-16T12:34:25Z</time>
      </trkpt>
      <trkpt lat="46.69912" lon="5.56242">
        <ele>328.2</ele>
        <time>2022-04-16T12:34:26Z</time>
      </trkpt>
      <trkpt lat="46.699" lon="5.56244">
        <ele>327.6</ele>
        <time>2022-04-16T12:34:27Z</time>
      </trkpt>
      <trkpt lat="46.69874" lon="5.56246">
        <ele>326.4</ele>
        <time>2022-04-16T12:34:29Z</time>
      </trkpt>
      <trkpt lat="46.69848" lon="5.56248">
        <ele>324.8</ele>
        <time>2022-04-16T12:34:31Z</time>
      </trkpt>
      <trkpt lat="46.69834" lon="5.5625">
        <ele>323.8</ele>
        <time>2022-04-16T12:34:32Z</time>
      </trkpt>
      <trkpt lat="46.69821" lon="5.56253">
        <ele>323.2</ele>
        <time>2022-04-16T12:34:33Z</time>
      </trkpt>
      <trkpt lat="46.69807" lon="5.56256">
        <ele>322.4</ele>
        <time>2022-04-16T12:34:34Z</time>
      </trkpt>
      <trkpt lat="46.6978" lon="5.56264">
        <ele>320.2</ele>
        <time>2022-04-16T12:34:36Z</time>
      </trkpt>
      <trkpt lat="46.69767" lon="5.56269">
        <ele>319.8</ele>
        <time>2022-04-16T12:34:37Z</time>
      </trkpt>
      <trkpt lat="46.69742" lon="5.5628">
        <ele>318.6</ele>
        <time>2022-04-16T12:34:39Z</time>
      </trkpt>
      <trkpt lat="46.69717" lon="5.56291">
        <ele>317.2</ele>
        <time>2022-04-16T12:34:41Z</time>
      </trkpt>
      <trkpt lat="46.69693" lon="5.56302">
        <ele>315.8</ele>
        <time>2022-04-16T12:34:43Z</time>
      </trkpt>
      <trkpt lat="46.69681" lon="5.56307">
        <ele>313.8</ele>
        <time>2022-04-16T12:34:44Z</time>
      </trkpt>
      <trkpt lat="46.6967" lon="5.56311">
        <ele>313.2</ele>
        <time>2022-04-16T12:34:45Z</time>
      </trkpt>
      <trkpt lat="46.69659" lon="5.56316">
        <ele>312.6</ele>
        <time>2022-04-16T12:34:46Z</time>
      </trkpt>
      <trkpt lat="46.69639" lon="5.56325">
        <ele>310.8</ele>
        <time>2022-04-16T12:34:48Z</time>
      </trkpt>
      <trkpt lat="46.69631" lon="5.56329">
        <ele>310.6</ele>
        <time>2022-04-16T12:34:49Z</time>
      </trkpt>
      <trkpt lat="46.69623" lon="5.5633">
        <ele>310</ele>
        <time>2022-04-16T12:34:50Z</time>
      </trkpt>
      <trkpt lat="46.69617" lon="5.56327">
        <ele>308.8</ele>
        <time>2022-04-16T12:34:51Z</time>
      </trkpt>
      <trkpt lat="46.69613" lon="5.5632">
        <ele>308.4</ele>
        <time>2022-04-16T12:34:52Z</time>
      </trkpt>
      <trkpt lat="46.69612" lon="5.56312">
        <ele>307.8</ele>
        <time>2022-04-16T12:34:53Z</time>
      </trkpt>
      <trkpt lat="46.69612" lon="5.56302">
        <ele>307.8</ele>
        <time>2022-04-16T12:34:54Z</time>
      </trkpt>
      <trkpt lat="46.69617" lon="5.56283">
        <ele>306.6</ele>
        <time>2022-04-16T12:34:56Z</time>
      </trkpt>
      <trkpt lat="46.69623" lon="5.56261">
        <ele>305.6</ele>
        <time>2022-04-16T12:34:58Z</time>
      </trkpt>
      <trkpt lat="46.6963" lon="5.56226">
        <ele>305</ele>
        <time>2022-04-16T12:35:01Z</time>
      </trkpt>
      <trkpt lat="46.69637" lon="5.56191">
        <ele>304.4</ele>
        <time>2022-04-16T12:35:04Z</time>
      </trkpt>
      <trkpt lat="46.69643" lon="5.56155">
        <ele>304</ele>
        <time>2022-04-16T12:35:07Z</time>
      </trkpt>
      <trkpt lat="46.69657" lon="5.56075">
        <ele>303.4</ele>
        <time>2022-04-16T12:35:14Z</time>
      </trkpt>
      <trkpt lat="46.69664" lon="5.56043">
        <ele>303.6</ele>
        <time>2022-04-16T12:35:17Z</time>
      </trkpt>
      <trkpt lat="46.69675" lon="5.56002">
        <ele>302.6</ele>
        <time>2022-04-16T12:35:21Z</time>
      </trkpt>
      <trkpt lat="46.69677" lon="5.55992">
        <ele>302.6</ele>
        <time>2022-04-16T12:35:22Z</time>
      </trkpt>
      <trkpt lat="46.69689" lon="5.55943">
        <ele>301.2</ele>
        <time>2022-04-16T12:35:27Z</time>
      </trkpt>
      <trkpt lat="46.69694" lon="5.55921">
        <ele>300.2</ele>
        <time>2022-04-16T12:35:29Z</time>
      </trkpt>
      <trkpt lat="46.697" lon="5.55898">
        <ele>300</ele>
        <time>2022-04-16T12:35:31Z</time>
      </trkpt>
      <trkpt lat="46.69707" lon="5.55863">
        <ele>299.2</ele>
        <time>2022-04-16T12:35:34Z</time>
      </trkpt>
      <trkpt lat="46.69709" lon="5.55851">
        <ele>299</ele>
        <time>2022-04-16T12:35:35Z</time>
      </trkpt>
      <trkpt lat="46.6971" lon="5.55839">
        <ele>298.6</ele>
        <time>2022-04-16T12:35:36Z</time>
      </trkpt>
      <trkpt lat="46.69712" lon="5.55815">
        <ele>298</ele>
        <time>2022-04-16T12:35:38Z</time>
      </trkpt>
      <trkpt lat="46.69713" lon="5.55803">
        <ele>297.6</ele>
        <time>2022-04-16T12:35:39Z</time>
      </trkpt>
      <trkpt lat="46.69719" lon="5.55759">
        <ele>296.8</ele>
        <time>2022-04-16T12:35:43Z</time>
      </trkpt>
      <trkpt lat="46.69722" lon="5.5574">
        <ele>296.4</ele>
        <time>2022-04-16T12:35:45Z</time>
      </trkpt>
      <trkpt lat="46.69722" lon="5.55729">
        <ele>296.2</ele>
        <time>2022-04-16T12:35:47Z</time>
      </trkpt>
      <trkpt lat="46.69713" lon="5.55725">
        <ele>296</ele>
        <time>2022-04-16T12:35:50Z</time>
      </trkpt>
      <trkpt lat="46.69709" lon="5.55727">
        <ele>295.8</ele>
        <time>2022-04-16T12:35:51Z</time>
      </trkpt>
      <trkpt lat="46.69691" lon="5.55733">
        <ele>295.4</ele>
        <time>2022-04-16T12:35:54Z</time>
      </trkpt>
      <trkpt lat="46.69656" lon="5.55746">
        <ele>295.2</ele>
        <time>2022-04-16T12:35:59Z</time>
      </trkpt>
      <trkpt lat="46.69617" lon="5.55756">
        <ele>295.2</ele>
        <time>2022-04-16T12:36:04Z</time>
      </trkpt>
      <trkpt lat="46.69567" lon="5.55769">
        <ele>295.6</ele>
        <time>2022-04-16T12:36:11Z</time>
      </trkpt>
      <trkpt lat="46.69533" lon="5.55779">
        <ele>296.6</ele>
        <time>2022-04-16T12:36:16Z</time>
      </trkpt>
      <trkpt lat="46.69526" lon="5.55783">
        <ele>296.8</ele>
        <time>2022-04-16T12:36:17Z</time>
      </trkpt>
      <trkpt lat="46.69519" lon="5.55787">
        <ele>297</ele>
        <time>2022-04-16T12:36:18Z</time>
      </trkpt>
      <trkpt lat="46.69513" lon="5.55792">
        <ele>297.2</ele>
        <time>2022-04-16T12:36:19Z</time>
      </trkpt>
      <trkpt lat="46.695" lon="5.55806">
        <ele>297.2</ele>
        <time>2022-04-16T12:36:21Z</time>
      </trkpt>
      <trkpt lat="46.69494" lon="5.55814">
        <ele>297.2</ele>
        <time>2022-04-16T12:36:22Z</time>
      </trkpt>
      <trkpt lat="46.69486" lon="5.55835">
        <ele>297.2</ele>
        <time>2022-04-16T12:36:24Z</time>
      </trkpt>
      <trkpt lat="46.69477" lon="5.55881">
        <ele>296.2</ele>
        <time>2022-04-16T12:36:28Z</time>
      </trkpt>
      <trkpt lat="46.69473" lon="5.55891">
        <ele>295.8</ele>
        <time>2022-04-16T12:36:29Z</time>
      </trkpt>
      <trkpt lat="46.69468" lon="5.55896">
        <ele>295.2</ele>
        <time>2022-04-16T12:36:30Z</time>
      </trkpt>
      <trkpt lat="46.69464" lon="5.55898">
        <ele>295</ele>
        <time>2022-04-16T12:36:31Z</time>
      </trkpt>
      <trkpt lat="46.69461" lon="5.55894">
        <ele>294.6</ele>
        <time>2022-04-16T12:36:32Z</time>
      </trkpt>
      <trkpt lat="46.69459" lon="5.55889">
        <ele>294.6</ele>
        <time>2022-04-16T12:36:33Z</time>
      </trkpt>
      <trkpt lat="46.69455" lon="5.5587">
        <ele>294.4</ele>
        <time>2022-04-16T12:36:37Z</time>
      </trkpt>
      <trkpt lat="46.69456" lon="5.55863">
        <ele>294.4</ele>
        <time>2022-04-16T12:36:38Z</time>
      </trkpt>
      <trkpt lat="46.6946" lon="5.55846">
        <ele>294.2</ele>
        <time>2022-04-16T12:36:40Z</time>
      </trkpt>
      <trkpt lat="46.69467" lon="5.55833">
        <ele>294.2</ele>
        <time>2022-04-16T12:36:42Z</time>
      </trkpt>
      <trkpt lat="46.69472" lon="5.55826">
        <ele>294.2</ele>
        <time>2022-04-16T12:36:43Z</time>
      </trkpt>
      <trkpt lat="46.69491" lon="5.55806">
        <ele>293.8</ele>
        <time>2022-04-16T12:36:47Z</time>
      </trkpt>
      <trkpt lat="46.69499" lon="5.55793">
        <ele>293.8</ele>
        <time>2022-04-16T12:36:49Z</time>
      </trkpt>
      <trkpt lat="46.69502" lon="5.55788">
        <ele>293.8</ele>
        <time>2022-04-16T12:36:50Z</time>
      </trkpt>
      <trkpt lat="46.69508" lon="5.55774">
        <ele>293.8</ele>
        <time>2022-04-16T12:36:52Z</time>
      </trkpt>
      <trkpt lat="46.6951" lon="5.55766">
        <ele>293.8</ele>
        <time>2022-04-16T12:36:53Z</time>
      </trkpt>
      <trkpt lat="46.69511" lon="5.55757">
        <ele>293.8</ele>
        <time>2022-04-16T12:36:54Z</time>
      </trkpt>
      <trkpt lat="46.69512" lon="5.55728">
        <ele>293.6</ele>
        <time>2022-04-16T12:36:57Z</time>
      </trkpt>
      <trkpt lat="46.69512" lon="5.55687">
        <ele>293.2</ele>
        <time>2022-04-16T12:37:01Z</time>
      </trkpt>
      <trkpt lat="46.69509" lon="5.55665">
        <ele>293.2</ele>
        <time>2022-04-16T12:37:03Z</time>
      </trkpt>
      <trkpt lat="46.69502" lon="5.55609">
        <ele>293</ele>
        <time>2022-04-16T12:37:08Z</time>
      </trkpt>
      <trkpt lat="46.69502" lon="5.55597">
        <ele>293</ele>
        <time>2022-04-16T12:37:09Z</time>
      </trkpt>
      <trkpt lat="46.69504" lon="5.55586">
        <ele>293</ele>
        <time>2022-04-16T12:37:10Z</time>
      </trkpt>
      <trkpt lat="46.69511" lon="5.55565">
        <ele>293.2</ele>
        <time>2022-04-16T12:37:12Z</time>
      </trkpt>
      <trkpt lat="46.69521" lon="5.55546">
        <ele>293.2</ele>
        <time>2022-04-16T12:37:14Z</time>
      </trkpt>
      <trkpt lat="46.6953" lon="5.55533">
        <ele>293.4</ele>
        <time>2022-04-16T12:37:16Z</time>
      </trkpt>
      <trkpt lat="46.69539" lon="5.55516">
        <ele>293.8</ele>
        <time>2022-04-16T12:37:18Z</time>
      </trkpt>
      <trkpt lat="46.69545" lon="5.555">
        <ele>294.6</ele>
        <time>2022-04-16T12:37:20Z</time>
      </trkpt>
      <trkpt lat="46.69546" lon="5.55493">
        <ele>295</ele>
        <time>2022-04-16T12:37:21Z</time>
      </trkpt>
      <trkpt lat="46.69547" lon="5.55465">
        <ele>295.2</ele>
        <time>2022-04-16T12:37:24Z</time>
      </trkpt>
      <trkpt lat="46.69541" lon="5.55419">
        <ele>296.4</ele>
        <time>2022-04-16T12:37:30Z</time>
      </trkpt>
      <trkpt lat="46.69539" lon="5.55386">
        <ele>297.2</ele>
        <time>2022-04-16T12:37:34Z</time>
      </trkpt>
      <trkpt lat="46.6954" lon="5.55379">
        <ele>297.4</ele>
        <time>2022-04-16T12:37:35Z</time>
      </trkpt>
      <trkpt lat="46.6954" lon="5.5537">
        <ele>297.6</ele>
        <time>2022-04-16T12:37:36Z</time>
      </trkpt>
      <trkpt lat="46.69543" lon="5.55343">
        <ele>298.8</ele>
        <time>2022-04-16T12:37:40Z</time>
      </trkpt>
      <trkpt lat="46.69544" lon="5.55332">
        <ele>299.2</ele>
        <time>2022-04-16T12:37:42Z</time>
      </trkpt>
      <trkpt lat="46.69546" lon="5.55315">
        <ele>299.8</ele>
        <time>2022-04-16T12:37:45Z</time>
      </trkpt>
      <trkpt lat="46.69546" lon="5.55304">
        <ele>300.8</ele>
        <time>2022-04-16T12:37:47Z</time>
      </trkpt>
      <trkpt lat="46.69547" lon="5.55294">
        <ele>301.6</ele>
        <time>2022-04-16T12:37:49Z</time>
      </trkpt>
      <trkpt lat="46.69547" lon="5.55283">
        <ele>302.2</ele>
        <time>2022-04-16T12:37:51Z</time>
      </trkpt>
      <trkpt lat="46.69544" lon="5.55258">
        <ele>303.4</ele>
        <time>2022-04-16T12:37:56Z</time>
      </trkpt>
      <trkpt lat="46.69543" lon="5.55253">
        <ele>303.6</ele>
        <time>2022-04-16T12:37:57Z</time>
      </trkpt>
      <trkpt lat="46.69541" lon="5.55244">
        <ele>304.4</ele>
        <time>2022-04-16T12:37:59Z</time>
      </trkpt>
      <trkpt lat="46.69539" lon="5.55235">
        <ele>305.6</ele>
        <time>2022-04-16T12:38:01Z</time>
      </trkpt>
      <trkpt lat="46.69536" lon="5.55226">
        <ele>306.8</ele>
        <time>2022-04-16T12:38:03Z</time>
      </trkpt>
      <trkpt lat="46.69533" lon="5.55217">
        <ele>307.6</ele>
        <time>2022-04-16T12:38:05Z</time>
      </trkpt>
      <trkpt lat="46.6953" lon="5.55207">
        <ele>308</ele>
        <time>2022-04-16T12:38:07Z</time>
      </trkpt>
      <trkpt lat="46.69523" lon="5.55186">
        <ele>309.2</ele>
        <time>2022-04-16T12:38:12Z</time>
      </trkpt>
      <trkpt lat="46.69521" lon="5.55181">
        <ele>309.4</ele>
        <time>2022-04-16T12:38:13Z</time>
      </trkpt>
      <trkpt lat="46.69517" lon="5.55172">
        <ele>310.4</ele>
        <time>2022-04-16T12:38:15Z</time>
      </trkpt>
      <trkpt lat="46.69512" lon="5.5516">
        <ele>311.4</ele>
        <time>2022-04-16T12:38:18Z</time>
      </trkpt>
      <trkpt lat="46.69501" lon="5.55143">
        <ele>312.2</ele>
        <time>2022-04-16T12:38:22Z</time>
      </trkpt>
      <trkpt lat="46.69496" lon="5.55136">
        <ele>312.6</ele>
        <time>2022-04-16T12:38:24Z</time>
      </trkpt>
      <trkpt lat="46.69484" lon="5.55125">
        <ele>312.6</ele>
        <time>2022-04-16T12:38:27Z</time>
      </trkpt>
      <trkpt lat="46.6948" lon="5.55122">
        <ele>312.6</ele>
        <time>2022-04-16T12:38:28Z</time>
      </trkpt>
      <trkpt lat="46.69467" lon="5.55118">
        <ele>312.6</ele>
        <time>2022-04-16T12:38:30Z</time>
      </trkpt>
      <trkpt lat="46.69462" lon="5.55117">
        <ele>312.6</ele>
        <time>2022-04-16T12:38:31Z</time>
      </trkpt>
      <trkpt lat="46.69429" lon="5.55115">
        <ele>312.4</ele>
        <time>2022-04-16T12:38:35Z</time>
      </trkpt>
      <trkpt lat="46.69407" lon="5.55111">
        <ele>311.6</ele>
        <time>2022-04-16T12:38:37Z</time>
      </trkpt>
      <trkpt lat="46.69386" lon="5.55105">
        <ele>310.4</ele>
        <time>2022-04-16T12:38:39Z</time>
      </trkpt>
      <trkpt lat="46.69347" lon="5.55095">
        <ele>309.2</ele>
        <time>2022-04-16T12:38:42Z</time>
      </trkpt>
      <trkpt lat="46.69334" lon="5.55094">
        <ele>308.2</ele>
        <time>2022-04-16T12:38:43Z</time>
      </trkpt>
      <trkpt lat="46.6932" lon="5.55094">
        <ele>305.6</ele>
        <time>2022-04-16T12:38:44Z</time>
      </trkpt>
      <trkpt lat="46.69306" lon="5.55094">
        <ele>303.6</ele>
        <time>2022-04-16T12:38:45Z</time>
      </trkpt>
      <trkpt lat="46.69291" lon="5.5509">
        <ele>301</ele>
        <time>2022-04-16T12:38:46Z</time>
      </trkpt>
      <trkpt lat="46.69277" lon="5.55084">
        <ele>298</ele>
        <time>2022-04-16T12:38:47Z</time>
      </trkpt>
      <trkpt lat="46.69263" lon="5.55079">
        <ele>297.2</ele>
        <time>2022-04-16T12:38:48Z</time>
      </trkpt>
      <trkpt lat="46.69249" lon="5.55075">
        <ele>295.4</ele>
        <time>2022-04-16T12:38:49Z</time>
      </trkpt>
      <trkpt lat="46.69235" lon="5.55072">
        <ele>294.8</ele>
        <time>2022-04-16T12:38:50Z</time>
      </trkpt>
      <trkpt lat="46.69221" lon="5.5507">
        <ele>293.6</ele>
        <time>2022-04-16T12:38:51Z</time>
      </trkpt>
      <trkpt lat="46.69194" lon="5.55066">
        <ele>291.6</ele>
        <time>2022-04-16T12:38:53Z</time>
      </trkpt>
      <trkpt lat="46.69182" lon="5.55061">
        <ele>290</ele>
        <time>2022-04-16T12:38:54Z</time>
      </trkpt>
      <trkpt lat="46.69159" lon="5.55043">
        <ele>288.6</ele>
        <time>2022-04-16T12:38:56Z</time>
      </trkpt>
      <trkpt lat="46.69149" lon="5.55034">
        <ele>288.4</ele>
        <time>2022-04-16T12:38:57Z</time>
      </trkpt>
      <trkpt lat="46.69104" lon="5.54997">
        <ele>288</ele>
        <time>2022-04-16T12:39:02Z</time>
      </trkpt>
      <trkpt lat="46.69098" lon="5.5499">
        <ele>288.2</ele>
        <time>2022-04-16T12:39:03Z</time>
      </trkpt>
      <trkpt lat="46.69089" lon="5.54972">
        <ele>288.6</ele>
        <time>2022-04-16T12:39:05Z</time>
      </trkpt>
      <trkpt lat="46.69069" lon="5.5492">
        <ele>289</ele>
        <time>2022-04-16T12:39:10Z</time>
      </trkpt>
      <trkpt lat="46.6905" lon="5.54891">
        <ele>289.4</ele>
        <time>2022-04-16T12:39:14Z</time>
      </trkpt>
      <trkpt lat="46.69051" lon="5.5488">
        <ele>289.4</ele>
        <time>2022-04-16T12:39:16Z</time>
      </trkpt>
      <trkpt lat="46.69054" lon="5.54874">
        <ele>289.6</ele>
        <time>2022-04-16T12:39:17Z</time>
      </trkpt>
      <trkpt lat="46.69057" lon="5.54867">
        <ele>290</ele>
        <time>2022-04-16T12:39:18Z</time>
      </trkpt>
      <trkpt lat="46.69061" lon="5.54859">
        <ele>290.6</ele>
        <time>2022-04-16T12:39:19Z</time>
      </trkpt>
      <trkpt lat="46.69066" lon="5.5484">
        <ele>291.2</ele>
        <time>2022-04-16T12:39:21Z</time>
      </trkpt>
      <trkpt lat="46.69071" lon="5.54796">
        <ele>292.4</ele>
        <time>2022-04-16T12:39:26Z</time>
      </trkpt>
      <trkpt lat="46.69072" lon="5.54787">
        <ele>292.6</ele>
        <time>2022-04-16T12:39:27Z</time>
      </trkpt>
      <trkpt lat="46.69074" lon="5.54757">
        <ele>293.6</ele>
        <time>2022-04-16T12:39:31Z</time>
      </trkpt>
      <trkpt lat="46.69074" lon="5.54743">
        <ele>293.8</ele>
        <time>2022-04-16T12:39:33Z</time>
      </trkpt>
      <trkpt lat="46.69075" lon="5.54711">
        <ele>294.6</ele>
        <time>2022-04-16T12:39:38Z</time>
      </trkpt>
      <trkpt lat="46.69075" lon="5.54704">
        <ele>294.6</ele>
        <time>2022-04-16T12:39:39Z</time>
      </trkpt>
      <trkpt lat="46.69076" lon="5.54698">
        <ele>294.8</ele>
        <time>2022-04-16T12:39:40Z</time>
      </trkpt>
      <trkpt lat="46.69077" lon="5.54681">
        <ele>295.6</ele>
        <time>2022-04-16T12:39:43Z</time>
      </trkpt>
      <trkpt lat="46.69079" lon="5.5467">
        <ele>296.6</ele>
        <time>2022-04-16T12:39:45Z</time>
      </trkpt>
      <trkpt lat="46.6908" lon="5.54665">
        <ele>297</ele>
        <time>2022-04-16T12:39:46Z</time>
      </trkpt>
      <trkpt lat="46.69084" lon="5.54645">
        <ele>298</ele>
        <time>2022-04-16T12:39:50Z</time>
      </trkpt>
      <trkpt lat="46.69085" lon="5.54637">
        <ele>298.8</ele>
        <time>2022-04-16T12:39:52Z</time>
      </trkpt>
      <trkpt lat="46.69085" lon="5.54631">
        <ele>299</ele>
        <time>2022-04-16T12:39:53Z</time>
      </trkpt>
      <trkpt lat="46.69087" lon="5.54617">
        <ele>300.6</ele>
        <time>2022-04-16T12:39:56Z</time>
      </trkpt>
      <trkpt lat="46.69087" lon="5.54613">
        <ele>301</ele>
        <time>2022-04-16T12:39:57Z</time>
      </trkpt>
      <trkpt lat="46.69087" lon="5.54607">
        <ele>301.6</ele>
        <time>2022-04-16T12:39:58Z</time>
      </trkpt>
      <trkpt lat="46.69088" lon="5.54594">
        <ele>302.8</ele>
        <time>2022-04-16T12:40:01Z</time>
      </trkpt>
      <trkpt lat="46.6909" lon="5.54586">
        <ele>303.8</ele>
        <time>2022-04-16T12:40:03Z</time>
      </trkpt>
      <trkpt lat="46.6909" lon="5.54577">
        <ele>304.4</ele>
        <time>2022-04-16T12:40:05Z</time>
      </trkpt>
      <trkpt lat="46.6909" lon="5.54567">
        <ele>305</ele>
        <time>2022-04-16T12:40:07Z</time>
      </trkpt>
      <trkpt lat="46.69092" lon="5.54553">
        <ele>306.2</ele>
        <time>2022-04-16T12:40:10Z</time>
      </trkpt>
      <trkpt lat="46.69093" lon="5.54548">
        <ele>306.2</ele>
        <time>2022-04-16T12:40:11Z</time>
      </trkpt>
      <trkpt lat="46.69099" lon="5.54527">
        <ele>307.2</ele>
        <time>2022-04-16T12:40:15Z</time>
      </trkpt>
      <trkpt lat="46.69103" lon="5.54519">
        <ele>307.8</ele>
        <time>2022-04-16T12:40:17Z</time>
      </trkpt>
      <trkpt lat="46.69107" lon="5.54512">
        <ele>308.2</ele>
        <time>2022-04-16T12:40:19Z</time>
      </trkpt>
      <trkpt lat="46.69113" lon="5.54497">
        <ele>308.8</ele>
        <time>2022-04-16T12:40:23Z</time>
      </trkpt>
      <trkpt lat="46.69117" lon="5.54485">
        <ele>309.4</ele>
        <time>2022-04-16T12:40:26Z</time>
      </trkpt>
      <trkpt lat="46.69119" lon="5.54477">
        <ele>309.8</ele>
        <time>2022-04-16T12:40:28Z</time>
      </trkpt>
      <trkpt lat="46.6912" lon="5.54463">
        <ele>310.4</ele>
        <time>2022-04-16T12:40:31Z</time>
      </trkpt>
      <trkpt lat="46.69121" lon="5.54457">
        <ele>310.6</ele>
        <time>2022-04-16T12:40:32Z</time>
      </trkpt>
      <trkpt lat="46.69121" lon="5.54451">
        <ele>310.8</ele>
        <time>2022-04-16T12:40:33Z</time>
      </trkpt>
      <trkpt lat="46.69118" lon="5.54436">
        <ele>311.6</ele>
        <time>2022-04-16T12:40:36Z</time>
      </trkpt>
      <trkpt lat="46.69119" lon="5.54414">
        <ele>312.2</ele>
        <time>2022-04-16T12:40:39Z</time>
      </trkpt>
      <trkpt lat="46.69121" lon="5.54379">
        <ele>312.2</ele>
        <time>2022-04-16T12:40:43Z</time>
      </trkpt>
      <trkpt lat="46.6912" lon="5.5437">
        <ele>312.2</ele>
        <time>2022-04-16T12:40:44Z</time>
      </trkpt>
      <trkpt lat="46.69112" lon="5.54316">
        <ele>311.4</ele>
        <time>2022-04-16T12:40:50Z</time>
      </trkpt>
      <trkpt lat="46.69093" lon="5.54249">
        <ele>310.4</ele>
        <time>2022-04-16T12:40:56Z</time>
      </trkpt>
      <trkpt lat="46.69083" lon="5.54209">
        <ele>309.2</ele>
        <time>2022-04-16T12:40:59Z</time>
      </trkpt>
      <trkpt lat="46.69073" lon="5.54169">
        <ele>308.8</ele>
        <time>2022-04-16T12:41:02Z</time>
      </trkpt>
      <trkpt lat="46.6907" lon="5.54155">
        <ele>308.6</ele>
        <time>2022-04-16T12:41:03Z</time>
      </trkpt>
      <trkpt lat="46.69055" lon="5.54088">
        <ele>308.2</ele>
        <time>2022-04-16T12:41:08Z</time>
      </trkpt>
      <trkpt lat="46.69038" lon="5.5403">
        <ele>308.2</ele>
        <time>2022-04-16T12:41:13Z</time>
      </trkpt>
      <trkpt lat="46.69007" lon="5.53965">
        <ele>308.6</ele>
        <time>2022-04-16T12:41:19Z</time>
      </trkpt>
      <trkpt lat="46.68996" lon="5.53942">
        <ele>308.6</ele>
        <time>2022-04-16T12:41:21Z</time>
      </trkpt>
      <trkpt lat="46.68976" lon="5.53896">
        <ele>307.8</ele>
        <time>2022-04-16T12:41:25Z</time>
      </trkpt>
      <trkpt lat="46.68968" lon="5.53883">
        <ele>307.6</ele>
        <time>2022-04-16T12:41:26Z</time>
      </trkpt>
      <trkpt lat="46.68961" lon="5.53876">
        <ele>307.2</ele>
        <time>2022-04-16T12:41:27Z</time>
      </trkpt>
      <trkpt lat="46.68943" lon="5.53863">
        <ele>306.6</ele>
        <time>2022-04-16T12:41:29Z</time>
      </trkpt>
      <trkpt lat="46.68924" lon="5.53852">
        <ele>305.4</ele>
        <time>2022-04-16T12:41:31Z</time>
      </trkpt>
      <trkpt lat="46.68894" lon="5.53841">
        <ele>303.8</ele>
        <time>2022-04-16T12:41:34Z</time>
      </trkpt>
      <trkpt lat="46.6885" lon="5.53844">
        <ele>302.8</ele>
        <time>2022-04-16T12:41:39Z</time>
      </trkpt>
      <trkpt lat="46.68805" lon="5.53845">
        <ele>301.6</ele>
        <time>2022-04-16T12:41:44Z</time>
      </trkpt>
      <trkpt lat="46.68798" lon="5.53844">
        <ele>301.4</ele>
        <time>2022-04-16T12:41:45Z</time>
      </trkpt>
      <trkpt lat="46.68785" lon="5.53833">
        <ele>301</ele>
        <time>2022-04-16T12:41:47Z</time>
      </trkpt>
      <trkpt lat="46.68779" lon="5.53823">
        <ele>300.8</ele>
        <time>2022-04-16T12:41:48Z</time>
      </trkpt>
      <trkpt lat="46.68775" lon="5.53813">
        <ele>300.6</ele>
        <time>2022-04-16T12:41:49Z</time>
      </trkpt>
      <trkpt lat="46.68761" lon="5.53778">
        <ele>299.4</ele>
        <time>2022-04-16T12:41:53Z</time>
      </trkpt>
      <trkpt lat="46.6876" lon="5.53771">
        <ele>299.2</ele>
        <time>2022-04-16T12:41:54Z</time>
      </trkpt>
      <trkpt lat="46.68761" lon="5.53755">
        <ele>298.4</ele>
        <time>2022-04-16T12:41:56Z</time>
      </trkpt>
      <trkpt lat="46.68764" lon="5.53748">
        <ele>298.2</ele>
        <time>2022-04-16T12:41:57Z</time>
      </trkpt>
      <trkpt lat="46.68775" lon="5.53732">
        <ele>297.8</ele>
        <time>2022-04-16T12:41:59Z</time>
      </trkpt>
      <trkpt lat="46.68786" lon="5.53714">
        <ele>296.6</ele>
        <time>2022-04-16T12:42:01Z</time>
      </trkpt>
      <trkpt lat="46.68793" lon="5.53705">
        <ele>295.4</ele>
        <time>2022-04-16T12:42:02Z</time>
      </trkpt>
      <trkpt lat="46.68807" lon="5.53689">
        <ele>294</ele>
        <time>2022-04-16T12:42:04Z</time>
      </trkpt>
      <trkpt lat="46.6882" lon="5.53672">
        <ele>293</ele>
        <time>2022-04-16T12:42:06Z</time>
      </trkpt>
      <trkpt lat="46.68841" lon="5.53647">
        <ele>291.2</ele>
        <time>2022-04-16T12:42:09Z</time>
      </trkpt>
      <trkpt lat="46.68855" lon="5.53631">
        <ele>290</ele>
        <time>2022-04-16T12:42:11Z</time>
      </trkpt>
      <trkpt lat="46.68869" lon="5.53615">
        <ele>289</ele>
        <time>2022-04-16T12:42:13Z</time>
      </trkpt>
      <trkpt lat="46.68882" lon="5.53599">
        <ele>287.8</ele>
        <time>2022-04-16T12:42:15Z</time>
      </trkpt>
      <trkpt lat="46.6891" lon="5.53567">
        <ele>286.6</ele>
        <time>2022-04-16T12:42:19Z</time>
      </trkpt>
      <trkpt lat="46.68926" lon="5.53552">
        <ele>286</ele>
        <time>2022-04-16T12:42:21Z</time>
      </trkpt>
      <trkpt lat="46.68933" lon="5.53545">
        <ele>285.4</ele>
        <time>2022-04-16T12:42:22Z</time>
      </trkpt>
      <trkpt lat="46.6895" lon="5.53534">
        <ele>285.2</ele>
        <time>2022-04-16T12:42:24Z</time>
      </trkpt>
      <trkpt lat="46.68959" lon="5.5353">
        <ele>285</ele>
        <time>2022-04-16T12:42:25Z</time>
      </trkpt>
      <trkpt lat="46.68977" lon="5.53524">
        <ele>284.4</ele>
        <time>2022-04-16T12:42:27Z</time>
      </trkpt>
      <trkpt lat="46.69003" lon="5.53516">
        <ele>283.6</ele>
        <time>2022-04-16T12:42:30Z</time>
      </trkpt>
      <trkpt lat="46.69012" lon="5.53511">
        <ele>283.4</ele>
        <time>2022-04-16T12:42:31Z</time>
      </trkpt>
      <trkpt lat="46.6902" lon="5.53505">
        <ele>283.2</ele>
        <time>2022-04-16T12:42:32Z</time>
      </trkpt>
      <trkpt lat="46.69031" lon="5.53485">
        <ele>282.8</ele>
        <time>2022-04-16T12:42:34Z</time>
      </trkpt>
      <trkpt lat="46.69048" lon="5.53452">
        <ele>282.2</ele>
        <time>2022-04-16T12:42:37Z</time>
      </trkpt>
      <trkpt lat="46.69071" lon="5.534">
        <ele>281.2</ele>
        <time>2022-04-16T12:42:42Z</time>
      </trkpt>
      <trkpt lat="46.69075" lon="5.5339">
        <ele>281.2</ele>
        <time>2022-04-16T12:42:43Z</time>
      </trkpt>
      <trkpt lat="46.69097" lon="5.53352">
        <ele>281.2</ele>
        <time>2022-04-16T12:42:48Z</time>
      </trkpt>
      <trkpt lat="46.69101" lon="5.53345">
        <ele>281.2</ele>
        <time>2022-04-16T12:42:49Z</time>
      </trkpt>
      <trkpt lat="46.69116" lon="5.53321">
        <ele>282</ele>
        <time>2022-04-16T12:42:53Z</time>
      </trkpt>
      <trkpt lat="46.69119" lon="5.53316">
        <ele>282</ele>
        <time>2022-04-16T12:42:54Z</time>
      </trkpt>
      <trkpt lat="46.69128" lon="5.533">
        <ele>282.6</ele>
        <time>2022-04-16T12:42:57Z</time>
      </trkpt>
      <trkpt lat="46.69131" lon="5.53295">
        <ele>282.6</ele>
        <time>2022-04-16T12:42:58Z</time>
      </trkpt>
      <trkpt lat="46.69134" lon="5.53289">
        <ele>282.8</ele>
        <time>2022-04-16T12:42:59Z</time>
      </trkpt>
      <trkpt lat="46.6914" lon="5.5328">
        <ele>283.4</ele>
        <time>2022-04-16T12:43:01Z</time>
      </trkpt>
      <trkpt lat="46.69142" lon="5.53275">
        <ele>283.8</ele>
        <time>2022-04-16T12:43:02Z</time>
      </trkpt>
      <trkpt lat="46.69153" lon="5.53255">
        <ele>285</ele>
        <time>2022-04-16T12:43:06Z</time>
      </trkpt>
      <trkpt lat="46.69159" lon="5.53246">
        <ele>285.4</ele>
        <time>2022-04-16T12:43:08Z</time>
      </trkpt>
      <trkpt lat="46.69163" lon="5.53242">
        <ele>285.8</ele>
        <time>2022-04-16T12:43:09Z</time>
      </trkpt>
      <trkpt lat="46.6917" lon="5.53237">
        <ele>286</ele>
        <time>2022-04-16T12:43:11Z</time>
      </trkpt>
      <trkpt lat="46.6918" lon="5.53235">
        <ele>286.2</ele>
        <time>2022-04-16T12:43:13Z</time>
      </trkpt>
      <trkpt lat="46.69185" lon="5.53236">
        <ele>286.6</ele>
        <time>2022-04-16T12:43:14Z</time>
      </trkpt>
      <trkpt lat="46.69194" lon="5.53239">
        <ele>286.8</ele>
        <time>2022-04-16T12:43:16Z</time>
      </trkpt>
      <trkpt lat="46.69208" lon="5.53247">
        <ele>287</ele>
        <time>2022-04-16T12:43:19Z</time>
      </trkpt>
      <trkpt lat="46.69256" lon="5.53279">
        <ele>287</ele>
        <time>2022-04-16T12:43:29Z</time>
      </trkpt>
      <trkpt lat="46.69261" lon="5.53282">
        <ele>287.2</ele>
        <time>2022-04-16T12:43:30Z</time>
      </trkpt>
      <trkpt lat="46.69299" lon="5.53303">
        <ele>287.4</ele>
        <time>2022-04-16T12:43:38Z</time>
      </trkpt>
      <trkpt lat="46.69337" lon="5.5331">
        <ele>286.2</ele>
        <time>2022-04-16T12:43:46Z</time>
      </trkpt>
      <trkpt lat="46.69342" lon="5.5331">
        <ele>286</ele>
        <time>2022-04-16T12:43:47Z</time>
      </trkpt>
      <trkpt lat="46.69381" lon="5.53304">
        <ele>285.4</ele>
        <time>2022-04-16T12:43:54Z</time>
      </trkpt>
      <trkpt lat="46.69387" lon="5.53302">
        <ele>285.2</ele>
        <time>2022-04-16T12:43:55Z</time>
      </trkpt>
      <trkpt lat="46.69393" lon="5.53301">
        <ele>285</ele>
        <time>2022-04-16T12:43:56Z</time>
      </trkpt>
      <trkpt lat="46.69426" lon="5.53296">
        <ele>284.8</ele>
        <time>2022-04-16T12:44:01Z</time>
      </trkpt>
      <trkpt lat="46.6944" lon="5.53296">
        <ele>283.6</ele>
        <time>2022-04-16T12:44:03Z</time>
      </trkpt>
      <trkpt lat="46.69454" lon="5.53298">
        <ele>282.8</ele>
        <time>2022-04-16T12:44:05Z</time>
      </trkpt>
      <trkpt lat="46.69461" lon="5.533">
        <ele>282.4</ele>
        <time>2022-04-16T12:44:06Z</time>
      </trkpt>
      <trkpt lat="46.69467" lon="5.53302">
        <ele>282.2</ele>
        <time>2022-04-16T12:44:07Z</time>
      </trkpt>
      <trkpt lat="46.69474" lon="5.53304">
        <ele>281.4</ele>
        <time>2022-04-16T12:44:08Z</time>
      </trkpt>
      <trkpt lat="46.69488" lon="5.53307">
        <ele>280</ele>
        <time>2022-04-16T12:44:10Z</time>
      </trkpt>
      <trkpt lat="46.69521" lon="5.53315">
        <ele>279</ele>
        <time>2022-04-16T12:44:15Z</time>
      </trkpt>
      <trkpt lat="46.69528" lon="5.53317">
        <ele>278.8</ele>
        <time>2022-04-16T12:44:16Z</time>
      </trkpt>
      <trkpt lat="46.69573" lon="5.53323">
        <ele>277.8</ele>
        <time>2022-04-16T12:44:23Z</time>
      </trkpt>
      <trkpt lat="46.69598" lon="5.53326">
        <ele>277.8</ele>
        <time>2022-04-16T12:44:27Z</time>
      </trkpt>
      <trkpt lat="46.69633" lon="5.53329">
        <ele>277.6</ele>
        <time>2022-04-16T12:44:32Z</time>
      </trkpt>
      <trkpt lat="46.69648" lon="5.53332">
        <ele>277.2</ele>
        <time>2022-04-16T12:44:34Z</time>
      </trkpt>
      <trkpt lat="46.69656" lon="5.53334">
        <ele>276.4</ele>
        <time>2022-04-16T12:44:35Z</time>
      </trkpt>
      <trkpt lat="46.69672" lon="5.53337">
        <ele>275</ele>
        <time>2022-04-16T12:44:37Z</time>
      </trkpt>
      <trkpt lat="46.69688" lon="5.5334">
        <ele>274.2</ele>
        <time>2022-04-16T12:44:39Z</time>
      </trkpt>
      <trkpt lat="46.69696" lon="5.53342">
        <ele>274</ele>
        <time>2022-04-16T12:44:40Z</time>
      </trkpt>
      <trkpt lat="46.6972" lon="5.53347">
        <ele>273</ele>
        <time>2022-04-16T12:44:43Z</time>
      </trkpt>
      <trkpt lat="46.69743" lon="5.5335">
        <ele>271.6</ele>
        <time>2022-04-16T12:44:46Z</time>
      </trkpt>
      <trkpt lat="46.69766" lon="5.53348">
        <ele>270.4</ele>
        <time>2022-04-16T12:44:49Z</time>
      </trkpt>
      <trkpt lat="46.69782" lon="5.53345">
        <ele>269.8</ele>
        <time>2022-04-16T12:44:51Z</time>
      </trkpt>
      <trkpt lat="46.69799" lon="5.53341">
        <ele>269.2</ele>
        <time>2022-04-16T12:44:53Z</time>
      </trkpt>
      <trkpt lat="46.69825" lon="5.5333">
        <ele>268.4</ele>
        <time>2022-04-16T12:44:56Z</time>
      </trkpt>
      <trkpt lat="46.69834" lon="5.53326">
        <ele>267.6</ele>
        <time>2022-04-16T12:44:57Z</time>
      </trkpt>
      <trkpt lat="46.69843" lon="5.53321">
        <ele>266.6</ele>
        <time>2022-04-16T12:44:58Z</time>
      </trkpt>
      <trkpt lat="46.6986" lon="5.53313">
        <ele>265.2</ele>
        <time>2022-04-16T12:45:00Z</time>
      </trkpt>
      <trkpt lat="46.69886" lon="5.53301">
        <ele>263.8</ele>
        <time>2022-04-16T12:45:03Z</time>
      </trkpt>
      <trkpt lat="46.69942" lon="5.53275">
        <ele>263</ele>
        <time>2022-04-16T12:45:10Z</time>
      </trkpt>
      <trkpt lat="46.69949" lon="5.5327">
        <ele>263</ele>
        <time>2022-04-16T12:45:11Z</time>
      </trkpt>
      <trkpt lat="46.69957" lon="5.53265">
        <ele>263</ele>
        <time>2022-04-16T12:45:12Z</time>
      </trkpt>
      <trkpt lat="46.6997" lon="5.53253">
        <ele>263</ele>
        <time>2022-04-16T12:45:14Z</time>
      </trkpt>
      <trkpt lat="46.69976" lon="5.53246">
        <ele>263</ele>
        <time>2022-04-16T12:45:15Z</time>
      </trkpt>
      <trkpt lat="46.70012" lon="5.53202">
        <ele>262.6</ele>
        <time>2022-04-16T12:45:21Z</time>
      </trkpt>
      <trkpt lat="46.7003" lon="5.53182">
        <ele>262.6</ele>
        <time>2022-04-16T12:45:24Z</time>
      </trkpt>
      <trkpt lat="46.7007" lon="5.53138">
        <ele>262.2</ele>
        <time>2022-04-16T12:45:31Z</time>
      </trkpt>
      <trkpt lat="46.70118" lon="5.53084">
        <ele>263.2</ele>
        <time>2022-04-16T12:45:40Z</time>
      </trkpt>
      <trkpt lat="46.70159" lon="5.53038">
        <ele>263.4</ele>
        <time>2022-04-16T12:45:47Z</time>
      </trkpt>
      <trkpt lat="46.70202" lon="5.52988">
        <ele>263.2</ele>
        <time>2022-04-16T12:45:54Z</time>
      </trkpt>
      <trkpt lat="46.70217" lon="5.52977">
        <ele>263</ele>
        <time>2022-04-16T12:45:56Z</time>
      </trkpt>
      <trkpt lat="46.70225" lon="5.52975">
        <ele>262.8</ele>
        <time>2022-04-16T12:45:57Z</time>
      </trkpt>
      <trkpt lat="46.70257" lon="5.52973">
        <ele>261.6</ele>
        <time>2022-04-16T12:46:01Z</time>
      </trkpt>
      <trkpt lat="46.70273" lon="5.52973">
        <ele>261.4</ele>
        <time>2022-04-16T12:46:03Z</time>
      </trkpt>
      <trkpt lat="46.70294" lon="5.52972">
        <ele>260.6</ele>
        <time>2022-04-16T12:46:06Z</time>
      </trkpt>
      <trkpt lat="46.70301" lon="5.52971">
        <ele>260.6</ele>
        <time>2022-04-16T12:46:07Z</time>
      </trkpt>
      <trkpt lat="46.70331" lon="5.52968">
        <ele>261</ele>
        <time>2022-04-16T12:46:12Z</time>
      </trkpt>
      <trkpt lat="46.7035" lon="5.52966">
        <ele>261.4</ele>
        <time>2022-04-16T12:46:15Z</time>
      </trkpt>
      <trkpt lat="46.70356" lon="5.52964">
        <ele>261.8</ele>
        <time>2022-04-16T12:46:16Z</time>
      </trkpt>
      <trkpt lat="46.70368" lon="5.52961">
        <ele>262.6</ele>
        <time>2022-04-16T12:46:18Z</time>
      </trkpt>
      <trkpt lat="46.70374" lon="5.52959">
        <ele>262.8</ele>
        <time>2022-04-16T12:46:19Z</time>
      </trkpt>
      <trkpt lat="46.70385" lon="5.52953">
        <ele>263.4</ele>
        <time>2022-04-16T12:46:21Z</time>
      </trkpt>
      <trkpt lat="46.7039" lon="5.52949">
        <ele>263.8</ele>
        <time>2022-04-16T12:46:22Z</time>
      </trkpt>
      <trkpt lat="46.70395" lon="5.52945">
        <ele>264</ele>
        <time>2022-04-16T12:46:23Z</time>
      </trkpt>
      <trkpt lat="46.70416" lon="5.52928">
        <ele>264.6</ele>
        <time>2022-04-16T12:46:27Z</time>
      </trkpt>
      <trkpt lat="46.70454" lon="5.52907">
        <ele>264.6</ele>
        <time>2022-04-16T12:46:33Z</time>
      </trkpt>
      <trkpt lat="46.70502" lon="5.52895">
        <ele>264</ele>
        <time>2022-04-16T12:46:40Z</time>
      </trkpt>
      <trkpt lat="46.70554" lon="5.52883">
        <ele>263.6</ele>
        <time>2022-04-16T12:46:47Z</time>
      </trkpt>
      <trkpt lat="46.70577" lon="5.52871">
        <ele>262.8</ele>
        <time>2022-04-16T12:46:50Z</time>
      </trkpt>
      <trkpt lat="46.70592" lon="5.52859">
        <ele>262</ele>
        <time>2022-04-16T12:46:52Z</time>
      </trkpt>
      <trkpt lat="46.70599" lon="5.52853">
        <ele>261.6</ele>
        <time>2022-04-16T12:46:53Z</time>
      </trkpt>
      <trkpt lat="46.70619" lon="5.5283">
        <ele>259.8</ele>
        <time>2022-04-16T12:46:56Z</time>
      </trkpt>
      <trkpt lat="46.70625" lon="5.52822">
        <ele>259.2</ele>
        <time>2022-04-16T12:46:57Z</time>
      </trkpt>
      <trkpt lat="46.70638" lon="5.52806">
        <ele>258.4</ele>
        <time>2022-04-16T12:46:59Z</time>
      </trkpt>
      <trkpt lat="46.70673" lon="5.5276">
        <ele>258</ele>
        <time>2022-04-16T12:47:05Z</time>
      </trkpt>
      <trkpt lat="46.70702" lon="5.52725">
        <ele>258.4</ele>
        <time>2022-04-16T12:47:11Z</time>
      </trkpt>
      <trkpt lat="46.70723" lon="5.52699">
        <ele>259.2</ele>
        <time>2022-04-16T12:47:16Z</time>
      </trkpt>
      <trkpt lat="46.70731" lon="5.5269">
        <ele>259.6</ele>
        <time>2022-04-16T12:47:18Z</time>
      </trkpt>
      <trkpt lat="46.70749" lon="5.52667">
        <ele>260.8</ele>
        <time>2022-04-16T12:47:23Z</time>
      </trkpt>
      <trkpt lat="46.70752" lon="5.52663">
        <ele>261.2</ele>
        <time>2022-04-16T12:47:24Z</time>
      </trkpt>
      <trkpt lat="46.70759" lon="5.52654">
        <ele>262</ele>
        <time>2022-04-16T12:47:26Z</time>
      </trkpt>
      <trkpt lat="46.70772" lon="5.52637">
        <ele>263.4</ele>
        <time>2022-04-16T12:47:30Z</time>
      </trkpt>
      <trkpt lat="46.70782" lon="5.52626">
        <ele>264</ele>
        <time>2022-04-16T12:47:33Z</time>
      </trkpt>
      <trkpt lat="46.70788" lon="5.52619">
        <ele>264.4</ele>
        <time>2022-04-16T12:47:35Z</time>
      </trkpt>
      <trkpt lat="46.70796" lon="5.52608">
        <ele>265.6</ele>
        <time>2022-04-16T12:47:38Z</time>
      </trkpt>
      <trkpt lat="46.70802" lon="5.52602">
        <ele>266</ele>
        <time>2022-04-16T12:47:40Z</time>
      </trkpt>
      <trkpt lat="46.70805" lon="5.526">
        <ele>266.2</ele>
        <time>2022-04-16T12:47:41Z</time>
      </trkpt>
      <trkpt lat="46.70807" lon="5.52597">
        <ele>266.6</ele>
        <time>2022-04-16T12:47:42Z</time>
      </trkpt>
      <trkpt lat="46.70814" lon="5.5259">
        <ele>268</ele>
        <time>2022-04-16T12:47:45Z</time>
      </trkpt>
      <trkpt lat="46.70822" lon="5.52578">
        <ele>269</ele>
        <time>2022-04-16T12:47:49Z</time>
      </trkpt>
      <trkpt lat="46.7083" lon="5.52569">
        <ele>270</ele>
        <time>2022-04-16T12:47:52Z</time>
      </trkpt>
      <trkpt lat="46.70832" lon="5.52567">
        <ele>270.2</ele>
        <time>2022-04-16T12:47:53Z</time>
      </trkpt>
      <trkpt lat="46.7084" lon="5.52561">
        <ele>271</ele>
        <time>2022-04-16T12:47:56Z</time>
      </trkpt>
      <trkpt lat="46.70843" lon="5.5256">
        <ele>271.4</ele>
        <time>2022-04-16T12:47:57Z</time>
      </trkpt>
      <trkpt lat="46.70854" lon="5.52555">
        <ele>272.4</ele>
        <time>2022-04-16T12:48:01Z</time>
      </trkpt>
      <trkpt lat="46.70862" lon="5.52552">
        <ele>273</ele>
        <time>2022-04-16T12:48:03Z</time>
      </trkpt>
      <trkpt lat="46.70865" lon="5.52551">
        <ele>273.6</ele>
        <time>2022-04-16T12:48:04Z</time>
      </trkpt>
      <trkpt lat="46.7088" lon="5.52546">
        <ele>274.6</ele>
        <time>2022-04-16T12:48:08Z</time>
      </trkpt>
      <trkpt lat="46.70884" lon="5.52545">
        <ele>274.6</ele>
        <time>2022-04-16T12:48:09Z</time>
      </trkpt>
      <trkpt lat="46.70909" lon="5.52537">
        <ele>275.4</ele>
        <time>2022-04-16T12:48:15Z</time>
      </trkpt>
      <trkpt lat="46.70922" lon="5.52531">
        <ele>275.8</ele>
        <time>2022-04-16T12:48:18Z</time>
      </trkpt>
      <trkpt lat="46.70939" lon="5.52522">
        <ele>276</ele>
        <time>2022-04-16T12:48:22Z</time>
      </trkpt>
      <trkpt lat="46.70961" lon="5.52502">
        <ele>276.2</ele>
        <time>2022-04-16T12:48:28Z</time>
      </trkpt>
      <trkpt lat="46.70964" lon="5.52498">
        <ele>276.2</ele>
        <time>2022-04-16T12:48:29Z</time>
      </trkpt>
      <trkpt lat="46.7097" lon="5.5249">
        <ele>276.4</ele>
        <time>2022-04-16T12:48:31Z</time>
      </trkpt>
      <trkpt lat="46.70973" lon="5.52485">
        <ele>276.8</ele>
        <time>2022-04-16T12:48:32Z</time>
      </trkpt>
      <trkpt lat="46.7098" lon="5.5247">
        <ele>277</ele>
        <time>2022-04-16T12:48:35Z</time>
      </trkpt>
      <trkpt lat="46.70981" lon="5.52465">
        <ele>277.2</ele>
        <time>2022-04-16T12:48:36Z</time>
      </trkpt>
      <trkpt lat="46.70984" lon="5.52455">
        <ele>278</ele>
        <time>2022-04-16T12:48:38Z</time>
      </trkpt>
      <trkpt lat="46.70988" lon="5.52434">
        <ele>278.8</ele>
        <time>2022-04-16T12:48:42Z</time>
      </trkpt>
      <trkpt lat="46.70989" lon="5.52428">
        <ele>279.4</ele>
        <time>2022-04-16T12:48:43Z</time>
      </trkpt>
      <trkpt lat="46.70993" lon="5.52406">
        <ele>280.4</ele>
        <time>2022-04-16T12:48:47Z</time>
      </trkpt>
      <trkpt lat="46.70999" lon="5.52388">
        <ele>281.4</ele>
        <time>2022-04-16T12:48:50Z</time>
      </trkpt>
      <trkpt lat="46.71001" lon="5.52382">
        <ele>281.6</ele>
        <time>2022-04-16T12:48:51Z</time>
      </trkpt>
      <trkpt lat="46.71007" lon="5.5237">
        <ele>281.8</ele>
        <time>2022-04-16T12:48:53Z</time>
      </trkpt>
      <trkpt lat="46.71016" lon="5.52352">
        <ele>282.4</ele>
        <time>2022-04-16T12:48:56Z</time>
      </trkpt>
      <trkpt lat="46.71022" lon="5.52342">
        <ele>282.8</ele>
        <time>2022-04-16T12:48:58Z</time>
      </trkpt>
      <trkpt lat="46.71032" lon="5.52327">
        <ele>283</ele>
        <time>2022-04-16T12:49:01Z</time>
      </trkpt>
      <trkpt lat="46.71044" lon="5.52316">
        <ele>283.2</ele>
        <time>2022-04-16T12:49:04Z</time>
      </trkpt>
      <trkpt lat="46.71054" lon="5.52308">
        <ele>283.2</ele>
        <time>2022-04-16T12:49:06Z</time>
      </trkpt>
      <trkpt lat="46.71084" lon="5.52284">
        <ele>283</ele>
        <time>2022-04-16T12:49:11Z</time>
      </trkpt>
      <trkpt lat="46.71097" lon="5.5227">
        <ele>283</ele>
        <time>2022-04-16T12:49:13Z</time>
      </trkpt>
      <trkpt lat="46.71109" lon="5.52251">
        <ele>282</ele>
        <time>2022-04-16T12:49:15Z</time>
      </trkpt>
      <trkpt lat="46.71114" lon="5.5224">
        <ele>281.2</ele>
        <time>2022-04-16T12:49:16Z</time>
      </trkpt>
      <trkpt lat="46.71119" lon="5.52228">
        <ele>281</ele>
        <time>2022-04-16T12:49:17Z</time>
      </trkpt>
      <trkpt lat="46.71122" lon="5.52214">
        <ele>280.4</ele>
        <time>2022-04-16T12:49:18Z</time>
      </trkpt>
      <trkpt lat="46.71125" lon="5.522">
        <ele>279.6</ele>
        <time>2022-04-16T12:49:19Z</time>
      </trkpt>
      <trkpt lat="46.71127" lon="5.5217">
        <ele>278.6</ele>
        <time>2022-04-16T12:49:21Z</time>
      </trkpt>
      <trkpt lat="46.71124" lon="5.52138">
        <ele>277.8</ele>
        <time>2022-04-16T12:49:23Z</time>
      </trkpt>
      <trkpt lat="46.7112" lon="5.52123">
        <ele>277.4</ele>
        <time>2022-04-16T12:49:24Z</time>
      </trkpt>
      <trkpt lat="46.71116" lon="5.52108">
        <ele>277</ele>
        <time>2022-04-16T12:49:25Z</time>
      </trkpt>
      <trkpt lat="46.7111" lon="5.52095">
        <ele>276.2</ele>
        <time>2022-04-16T12:49:26Z</time>
      </trkpt>
      <trkpt lat="46.71104" lon="5.52082">
        <ele>275.6</ele>
        <time>2022-04-16T12:49:27Z</time>
      </trkpt>
      <trkpt lat="46.71097" lon="5.52069">
        <ele>274.6</ele>
        <time>2022-04-16T12:49:28Z</time>
      </trkpt>
      <trkpt lat="46.71083" lon="5.52044">
        <ele>273.4</ele>
        <time>2022-04-16T12:49:30Z</time>
      </trkpt>
      <trkpt lat="46.71062" lon="5.52007">
        <ele>272</ele>
        <time>2022-04-16T12:49:33Z</time>
      </trkpt>
      <trkpt lat="46.7105" lon="5.5198">
        <ele>271.2</ele>
        <time>2022-04-16T12:49:35Z</time>
      </trkpt>
      <trkpt lat="46.71044" lon="5.51966">
        <ele>271</ele>
        <time>2022-04-16T12:49:36Z</time>
      </trkpt>
      <trkpt lat="46.71035" lon="5.51934">
        <ele>269.8</ele>
        <time>2022-04-16T12:49:38Z</time>
      </trkpt>
      <trkpt lat="46.71024" lon="5.5186">
        <ele>269.2</ele>
        <time>2022-04-16T12:49:43Z</time>
      </trkpt>
      <trkpt lat="46.71021" lon="5.51847">
        <ele>268.8</ele>
        <time>2022-04-16T12:49:44Z</time>
      </trkpt>
      <trkpt lat="46.7101" lon="5.51814">
        <ele>269.2</ele>
        <time>2022-04-16T12:49:47Z</time>
      </trkpt>
      <trkpt lat="46.71001" lon="5.51795">
        <ele>269.8</ele>
        <time>2022-04-16T12:49:49Z</time>
      </trkpt>
      <trkpt lat="46.7099" lon="5.51778">
        <ele>270.6</ele>
        <time>2022-04-16T12:49:51Z</time>
      </trkpt>
      <trkpt lat="46.7098" lon="5.51763">
        <ele>271</ele>
        <time>2022-04-16T12:49:53Z</time>
      </trkpt>
      <trkpt lat="46.70974" lon="5.51757">
        <ele>271.2</ele>
        <time>2022-04-16T12:49:54Z</time>
      </trkpt>
      <trkpt lat="46.70962" lon="5.51745">
        <ele>272.2</ele>
        <time>2022-04-16T12:49:56Z</time>
      </trkpt>
      <trkpt lat="46.70956" lon="5.51739">
        <ele>272.6</ele>
        <time>2022-04-16T12:49:57Z</time>
      </trkpt>
      <trkpt lat="46.70951" lon="5.51733">
        <ele>273.2</ele>
        <time>2022-04-16T12:49:58Z</time>
      </trkpt>
      <trkpt lat="46.7094" lon="5.51723">
        <ele>274.2</ele>
        <time>2022-04-16T12:50:00Z</time>
      </trkpt>
      <trkpt lat="46.70924" lon="5.51707">
        <ele>275.6</ele>
        <time>2022-04-16T12:50:03Z</time>
      </trkpt>
      <trkpt lat="46.70914" lon="5.51697">
        <ele>276.6</ele>
        <time>2022-04-16T12:50:05Z</time>
      </trkpt>
      <trkpt lat="46.70909" lon="5.51691">
        <ele>276.8</ele>
        <time>2022-04-16T12:50:06Z</time>
      </trkpt>
      <trkpt lat="46.70896" lon="5.51676">
        <ele>277.8</ele>
        <time>2022-04-16T12:50:09Z</time>
      </trkpt>
      <trkpt lat="46.70892" lon="5.51671">
        <ele>278.2</ele>
        <time>2022-04-16T12:50:10Z</time>
      </trkpt>
      <trkpt lat="46.7088" lon="5.51656">
        <ele>279</ele>
        <time>2022-04-16T12:50:13Z</time>
      </trkpt>
      <trkpt lat="46.70866" lon="5.51637">
        <ele>280.4</ele>
        <time>2022-04-16T12:50:17Z</time>
      </trkpt>
      <trkpt lat="46.70856" lon="5.51624">
        <ele>281.6</ele>
        <time>2022-04-16T12:50:20Z</time>
      </trkpt>
      <trkpt lat="46.70841" lon="5.51607">
        <ele>283</ele>
        <time>2022-04-16T12:50:24Z</time>
      </trkpt>
      <trkpt lat="46.70834" lon="5.51599">
        <ele>283.2</ele>
        <time>2022-04-16T12:50:26Z</time>
      </trkpt>
      <trkpt lat="46.70826" lon="5.51591">
        <ele>283.6</ele>
        <time>2022-04-16T12:50:28Z</time>
      </trkpt>
      <trkpt lat="46.70818" lon="5.51584">
        <ele>283.6</ele>
        <time>2022-04-16T12:50:30Z</time>
      </trkpt>
      <trkpt lat="46.70811" lon="5.51575">
        <ele>283.8</ele>
        <time>2022-04-16T12:50:32Z</time>
      </trkpt>
      <trkpt lat="46.70807" lon="5.51571">
        <ele>284</ele>
        <time>2022-04-16T12:50:33Z</time>
      </trkpt>
      <trkpt lat="46.70792" lon="5.5155">
        <ele>284.6</ele>
        <time>2022-04-16T12:50:37Z</time>
      </trkpt>
      <trkpt lat="46.7079" lon="5.51544">
        <ele>284.8</ele>
        <time>2022-04-16T12:50:38Z</time>
      </trkpt>
      <trkpt lat="46.70787" lon="5.51537">
        <ele>284.8</ele>
        <time>2022-04-16T12:50:39Z</time>
      </trkpt>
      <trkpt lat="46.70784" lon="5.51523">
        <ele>285</ele>
        <time>2022-04-16T12:50:41Z</time>
      </trkpt>
      <trkpt lat="46.70781" lon="5.51509">
        <ele>285</ele>
        <time>2022-04-16T12:50:43Z</time>
      </trkpt>
      <trkpt lat="46.70781" lon="5.51502">
        <ele>285.2</ele>
        <time>2022-04-16T12:50:44Z</time>
      </trkpt>
      <trkpt lat="46.70778" lon="5.51467">
        <ele>285.8</ele>
        <time>2022-04-16T12:50:49Z</time>
      </trkpt>
      <trkpt lat="46.70775" lon="5.51452">
        <ele>286.4</ele>
        <time>2022-04-16T12:50:51Z</time>
      </trkpt>
      <trkpt lat="46.7077" lon="5.51406">
        <ele>287.2</ele>
        <time>2022-04-16T12:50:56Z</time>
      </trkpt>
      <trkpt lat="46.70769" lon="5.51345">
        <ele>286.6</ele>
        <time>2022-04-16T12:51:01Z</time>
      </trkpt>
      <trkpt lat="46.70778" lon="5.51323">
        <ele>286</ele>
        <time>2022-04-16T12:51:03Z</time>
      </trkpt>
      <trkpt lat="46.70785" lon="5.51313">
        <ele>285.4</ele>
        <time>2022-04-16T12:51:04Z</time>
      </trkpt>
      <trkpt lat="46.70798" lon="5.51294">
        <ele>284</ele>
        <time>2022-04-16T12:51:06Z</time>
      </trkpt>
      <trkpt lat="46.70814" lon="5.51275">
        <ele>282.6</ele>
        <time>2022-04-16T12:51:08Z</time>
      </trkpt>
      <trkpt lat="46.70845" lon="5.51233">
        <ele>281.4</ele>
        <time>2022-04-16T12:51:12Z</time>
      </trkpt>
      <trkpt lat="46.70859" lon="5.51191">
        <ele>279.8</ele>
        <time>2022-04-16T12:51:15Z</time>
      </trkpt>
      <trkpt lat="46.70861" lon="5.51176">
        <ele>279.2</ele>
        <time>2022-04-16T12:51:16Z</time>
      </trkpt>
      <trkpt lat="46.70863" lon="5.51162">
        <ele>278</ele>
        <time>2022-04-16T12:51:17Z</time>
      </trkpt>
      <trkpt lat="46.70864" lon="5.51133">
        <ele>276.8</ele>
        <time>2022-04-16T12:51:19Z</time>
      </trkpt>
      <trkpt lat="46.70863" lon="5.51119">
        <ele>276.2</ele>
        <time>2022-04-16T12:51:20Z</time>
      </trkpt>
      <trkpt lat="46.70857" lon="5.51054">
        <ele>276</ele>
        <time>2022-04-16T12:51:25Z</time>
      </trkpt>
      <trkpt lat="46.70855" lon="5.51041">
        <ele>276</ele>
        <time>2022-04-16T12:51:26Z</time>
      </trkpt>
      <trkpt lat="46.70847" lon="5.51019">
        <ele>276.2</ele>
        <time>2022-04-16T12:51:28Z</time>
      </trkpt>
      <trkpt lat="46.70821" lon="5.50974">
        <ele>276.2</ele>
        <time>2022-04-16T12:51:32Z</time>
      </trkpt>
      <trkpt lat="46.70808" lon="5.50949">
        <ele>275.6</ele>
        <time>2022-04-16T12:51:34Z</time>
      </trkpt>
      <trkpt lat="46.70794" lon="5.50922">
        <ele>273.8</ele>
        <time>2022-04-16T12:51:36Z</time>
      </trkpt>
      <trkpt lat="46.70789" lon="5.50908">
        <ele>273.4</ele>
        <time>2022-04-16T12:51:37Z</time>
      </trkpt>
      <trkpt lat="46.70784" lon="5.50893">
        <ele>272.2</ele>
        <time>2022-04-16T12:51:38Z</time>
      </trkpt>
      <trkpt lat="46.70782" lon="5.50877">
        <ele>271.8</ele>
        <time>2022-04-16T12:51:39Z</time>
      </trkpt>
      <trkpt lat="46.70781" lon="5.5086">
        <ele>270.8</ele>
        <time>2022-04-16T12:51:40Z</time>
      </trkpt>
      <trkpt lat="46.7078" lon="5.50826">
        <ele>268</ele>
        <time>2022-04-16T12:51:42Z</time>
      </trkpt>
      <trkpt lat="46.7078" lon="5.50808">
        <ele>267</ele>
        <time>2022-04-16T12:51:43Z</time>
      </trkpt>
      <trkpt lat="46.70779" lon="5.50773">
        <ele>264.8</ele>
        <time>2022-04-16T12:51:45Z</time>
      </trkpt>
      <trkpt lat="46.70779" lon="5.50755">
        <ele>264.2</ele>
        <time>2022-04-16T12:51:46Z</time>
      </trkpt>
      <trkpt lat="46.70779" lon="5.50738">
        <ele>262.8</ele>
        <time>2022-04-16T12:51:47Z</time>
      </trkpt>
      <trkpt lat="46.70785" lon="5.50704">
        <ele>261.4</ele>
        <time>2022-04-16T12:51:49Z</time>
      </trkpt>
      <trkpt lat="46.7079" lon="5.50688">
        <ele>259.8</ele>
        <time>2022-04-16T12:51:50Z</time>
      </trkpt>
      <trkpt lat="46.70796" lon="5.50673">
        <ele>258.6</ele>
        <time>2022-04-16T12:51:51Z</time>
      </trkpt>
      <trkpt lat="46.70803" lon="5.50658">
        <ele>256.8</ele>
        <time>2022-04-16T12:51:52Z</time>
      </trkpt>
      <trkpt lat="46.70815" lon="5.50628">
        <ele>255</ele>
        <time>2022-04-16T12:51:54Z</time>
      </trkpt>
      <trkpt lat="46.70819" lon="5.50611">
        <ele>254.2</ele>
        <time>2022-04-16T12:51:55Z</time>
      </trkpt>
      <trkpt lat="46.70819" lon="5.50592">
        <ele>253.2</ele>
        <time>2022-04-16T12:51:56Z</time>
      </trkpt>
      <trkpt lat="46.70815" lon="5.50573">
        <ele>252.2</ele>
        <time>2022-04-16T12:51:57Z</time>
      </trkpt>
      <trkpt lat="46.70809" lon="5.50555">
        <ele>251.4</ele>
        <time>2022-04-16T12:51:58Z</time>
      </trkpt>
      <trkpt lat="46.70805" lon="5.50538">
        <ele>250.2</ele>
        <time>2022-04-16T12:51:59Z</time>
      </trkpt>
      <trkpt lat="46.70802" lon="5.50502">
        <ele>247.8</ele>
        <time>2022-04-16T12:52:01Z</time>
      </trkpt>
      <trkpt lat="46.70805" lon="5.50464">
        <ele>244.8</ele>
        <time>2022-04-16T12:52:03Z</time>
      </trkpt>
      <trkpt lat="46.70808" lon="5.50446">
        <ele>243.2</ele>
        <time>2022-04-16T12:52:04Z</time>
      </trkpt>
      <trkpt lat="46.70811" lon="5.50407">
        <ele>240.8</ele>
        <time>2022-04-16T12:52:06Z</time>
      </trkpt>
      <trkpt lat="46.70811" lon="5.50388">
        <ele>240</ele>
        <time>2022-04-16T12:52:07Z</time>
      </trkpt>
      <trkpt lat="46.70809" lon="5.5037">
        <ele>238.8</ele>
        <time>2022-04-16T12:52:08Z</time>
      </trkpt>
      <trkpt lat="46.70803" lon="5.50352">
        <ele>238.2</ele>
        <time>2022-04-16T12:52:09Z</time>
      </trkpt>
      <trkpt lat="46.70796" lon="5.50336">
        <ele>237.2</ele>
        <time>2022-04-16T12:52:10Z</time>
      </trkpt>
      <trkpt lat="46.70787" lon="5.50322">
        <ele>236</ele>
        <time>2022-04-16T12:52:11Z</time>
      </trkpt>
      <trkpt lat="46.70771" lon="5.50294">
        <ele>234.2</ele>
        <time>2022-04-16T12:52:13Z</time>
      </trkpt>
      <trkpt lat="46.70762" lon="5.50282">
        <ele>232.6</ele>
        <time>2022-04-16T12:52:14Z</time>
      </trkpt>
      <trkpt lat="46.70753" lon="5.5027">
        <ele>230.8</ele>
        <time>2022-04-16T12:52:15Z</time>
      </trkpt>
      <trkpt lat="46.70737" lon="5.50246">
        <ele>229.4</ele>
        <time>2022-04-16T12:52:17Z</time>
      </trkpt>
      <trkpt lat="46.70723" lon="5.50221">
        <ele>229.2</ele>
        <time>2022-04-16T12:52:19Z</time>
      </trkpt>
      <trkpt lat="46.70717" lon="5.50207">
        <ele>228.8</ele>
        <time>2022-04-16T12:52:20Z</time>
      </trkpt>
      <trkpt lat="46.70712" lon="5.50193">
        <ele>228.6</ele>
        <time>2022-04-16T12:52:21Z</time>
      </trkpt>
      <trkpt lat="46.70709" lon="5.50178">
        <ele>228.2</ele>
        <time>2022-04-16T12:52:22Z</time>
      </trkpt>
      <trkpt lat="46.70707" lon="5.50163">
        <ele>228.2</ele>
        <time>2022-04-16T12:52:23Z</time>
      </trkpt>
      <trkpt lat="46.70701" lon="5.5009">
        <ele>227.6</ele>
        <time>2022-04-16T12:52:28Z</time>
      </trkpt>
      <trkpt lat="46.70696" lon="5.50016">
        <ele>229</ele>
        <time>2022-04-16T12:52:34Z</time>
      </trkpt>
      <trkpt lat="46.70694" lon="5.50005">
        <ele>229.2</ele>
        <time>2022-04-16T12:52:35Z</time>
      </trkpt>
      <trkpt lat="46.70684" lon="5.49952">
        <ele>230</ele>
        <time>2022-04-16T12:52:40Z</time>
      </trkpt>
      <trkpt lat="46.70677" lon="5.49923">
        <ele>230.4</ele>
        <time>2022-04-16T12:52:43Z</time>
      </trkpt>
      <trkpt lat="46.70665" lon="5.49871">
        <ele>231.8</ele>
        <time>2022-04-16T12:52:48Z</time>
      </trkpt>
      <trkpt lat="46.70663" lon="5.49861">
        <ele>232</ele>
        <time>2022-04-16T12:52:49Z</time>
      </trkpt>
      <trkpt lat="46.70645" lon="5.49779">
        <ele>232.8</ele>
        <time>2022-04-16T12:52:57Z</time>
      </trkpt>
      <trkpt lat="46.70643" lon="5.49769">
        <ele>232.8</ele>
        <time>2022-04-16T12:52:58Z</time>
      </trkpt>
      <trkpt lat="46.70629" lon="5.49701">
        <ele>231.8</ele>
        <time>2022-04-16T12:53:04Z</time>
      </trkpt>
      <trkpt lat="46.70622" lon="5.49665">
        <ele>231.4</ele>
        <time>2022-04-16T12:53:07Z</time>
      </trkpt>
      <trkpt lat="46.70613" lon="5.4962">
        <ele>230.8</ele>
        <time>2022-04-16T12:53:11Z</time>
      </trkpt>
      <trkpt lat="46.70602" lon="5.49564">
        <ele>230.4</ele>
        <time>2022-04-16T12:53:16Z</time>
      </trkpt>
      <trkpt lat="46.70586" lon="5.49486">
        <ele>231</ele>
        <time>2022-04-16T12:53:23Z</time>
      </trkpt>
      <trkpt lat="46.70581" lon="5.49464">
        <ele>231</ele>
        <time>2022-04-16T12:53:25Z</time>
      </trkpt>
      <trkpt lat="46.7057" lon="5.49412">
        <ele>231.8</ele>
        <time>2022-04-16T12:53:30Z</time>
      </trkpt>
      <trkpt lat="46.70568" lon="5.49402">
        <ele>232</ele>
        <time>2022-04-16T12:53:31Z</time>
      </trkpt>
      <trkpt lat="46.70558" lon="5.49346">
        <ele>232.8</ele>
        <time>2022-04-16T12:53:37Z</time>
      </trkpt>
      <trkpt lat="46.70554" lon="5.49327">
        <ele>233.4</ele>
        <time>2022-04-16T12:53:39Z</time>
      </trkpt>
      <trkpt lat="46.7055" lon="5.4931">
        <ele>234.4</ele>
        <time>2022-04-16T12:53:41Z</time>
      </trkpt>
      <trkpt lat="46.70539" lon="5.49261">
        <ele>234.8</ele>
        <time>2022-04-16T12:53:45Z</time>
      </trkpt>
      <trkpt lat="46.70522" lon="5.4918">
        <ele>233.2</ele>
        <time>2022-04-16T12:53:52Z</time>
      </trkpt>
      <trkpt lat="46.70509" lon="5.49119">
        <ele>232.2</ele>
        <time>2022-04-16T12:53:57Z</time>
      </trkpt>
      <trkpt lat="46.70503" lon="5.49086">
        <ele>231.8</ele>
        <time>2022-04-16T12:54:00Z</time>
      </trkpt>
      <trkpt lat="46.70487" lon="5.49013">
        <ele>232.2</ele>
        <time>2022-04-16T12:54:07Z</time>
      </trkpt>
      <trkpt lat="46.7047" lon="5.48929">
        <ele>232</ele>
        <time>2022-04-16T12:54:15Z</time>
      </trkpt>
      <trkpt lat="46.70458" lon="5.48875">
        <ele>232.8</ele>
        <time>2022-04-16T12:54:21Z</time>
      </trkpt>
      <trkpt lat="46.70452" lon="5.48846">
        <ele>233</ele>
        <time>2022-04-16T12:54:24Z</time>
      </trkpt>
      <trkpt lat="46.70437" lon="5.48775">
        <ele>233.6</ele>
        <time>2022-04-16T12:54:32Z</time>
      </trkpt>
      <trkpt lat="46.70432" lon="5.48748">
        <ele>234</ele>
        <time>2022-04-16T12:54:35Z</time>
      </trkpt>
      <trkpt lat="46.70422" lon="5.48696">
        <ele>235</ele>
        <time>2022-04-16T12:54:41Z</time>
      </trkpt>
      <trkpt lat="46.7042" lon="5.48689">
        <ele>235.6</ele>
        <time>2022-04-16T12:54:42Z</time>
      </trkpt>
      <trkpt lat="46.70412" lon="5.48653">
        <ele>236.8</ele>
        <time>2022-04-16T12:54:46Z</time>
      </trkpt>
      <trkpt lat="46.7041" lon="5.48644">
        <ele>237</ele>
        <time>2022-04-16T12:54:47Z</time>
      </trkpt>
      <trkpt lat="46.70401" lon="5.48604">
        <ele>238</ele>
        <time>2022-04-16T12:54:51Z</time>
      </trkpt>
      <trkpt lat="46.70397" lon="5.48586">
        <ele>238.2</ele>
        <time>2022-04-16T12:54:53Z</time>
      </trkpt>
      <trkpt lat="46.7038" lon="5.48506">
        <ele>238.4</ele>
        <time>2022-04-16T12:55:01Z</time>
      </trkpt>
      <trkpt lat="46.70378" lon="5.48496">
        <ele>238.2</ele>
        <time>2022-04-16T12:55:02Z</time>
      </trkpt>
      <trkpt lat="46.70369" lon="5.48457">
        <ele>238</ele>
        <time>2022-04-16T12:55:06Z</time>
      </trkpt>
      <trkpt lat="46.70365" lon="5.48431">
        <ele>238</ele>
        <time>2022-04-16T12:55:09Z</time>
      </trkpt>
      <trkpt lat="46.70361" lon="5.48401">
        <ele>237.8</ele>
        <time>2022-04-16T12:55:13Z</time>
      </trkpt>
      <trkpt lat="46.70359" lon="5.48396">
        <ele>237.8</ele>
        <time>2022-04-16T12:55:14Z</time>
      </trkpt>
      <trkpt lat="46.70355" lon="5.48391">
        <ele>237.8</ele>
        <time>2022-04-16T12:55:15Z</time>
      </trkpt>
      <trkpt lat="46.70346" lon="5.48388">
        <ele>237.8</ele>
        <time>2022-04-16T12:55:17Z</time>
      </trkpt>
      <trkpt lat="46.70334" lon="5.48391">
        <ele>237.8</ele>
        <time>2022-04-16T12:55:19Z</time>
      </trkpt>
      <trkpt lat="46.70329" lon="5.48393">
        <ele>237.8</ele>
        <time>2022-04-16T12:55:20Z</time>
      </trkpt>
      <trkpt lat="46.70294" lon="5.48415">
        <ele>237.8</ele>
        <time>2022-04-16T12:55:25Z</time>
      </trkpt>
      <trkpt lat="46.70248" lon="5.48444">
        <ele>237.6</ele>
        <time>2022-04-16T12:55:31Z</time>
      </trkpt>
      <trkpt lat="46.70195" lon="5.48474">
        <ele>237.8</ele>
        <time>2022-04-16T12:55:38Z</time>
      </trkpt>
      <trkpt lat="46.7018" lon="5.48481">
        <ele>238.2</ele>
        <time>2022-04-16T12:55:40Z</time>
      </trkpt>
      <trkpt lat="46.70129" lon="5.48512">
        <ele>238.6</ele>
        <time>2022-04-16T12:55:47Z</time>
      </trkpt>
      <trkpt lat="46.70123" lon="5.48518">
        <ele>238.6</ele>
        <time>2022-04-16T12:55:48Z</time>
      </trkpt>
      <trkpt lat="46.70072" lon="5.48564">
        <ele>238.8</ele>
        <time>2022-04-16T12:55:56Z</time>
      </trkpt>
      <trkpt lat="46.70042" lon="5.48595">
        <ele>239</ele>
        <time>2022-04-16T12:56:01Z</time>
      </trkpt>
      <trkpt lat="46.70027" lon="5.48598">
        <ele>239</ele>
        <time>2022-04-16T12:56:03Z</time>
      </trkpt>
      <trkpt lat="46.7002" lon="5.48595">
        <ele>239.2</ele>
        <time>2022-04-16T12:56:04Z</time>
      </trkpt>
      <trkpt lat="46.70014" lon="5.48588">
        <ele>239.2</ele>
        <time>2022-04-16T12:56:05Z</time>
      </trkpt>
      <trkpt lat="46.69997" lon="5.48567">
        <ele>239.2</ele>
        <time>2022-04-16T12:56:08Z</time>
      </trkpt>
      <trkpt lat="46.69974" lon="5.48535">
        <ele>239.2</ele>
        <time>2022-04-16T12:56:12Z</time>
      </trkpt>
      <trkpt lat="46.69963" lon="5.48517">
        <ele>239.2</ele>
        <time>2022-04-16T12:56:14Z</time>
      </trkpt>
      <trkpt lat="46.69926" lon="5.4846">
        <ele>238.6</ele>
        <time>2022-04-16T12:56:20Z</time>
      </trkpt>
      <trkpt lat="46.69886" lon="5.48403">
        <ele>237.8</ele>
        <time>2022-04-16T12:56:26Z</time>
      </trkpt>
      <trkpt lat="46.69872" lon="5.48382">
        <ele>237.6</ele>
        <time>2022-04-16T12:56:28Z</time>
      </trkpt>
      <trkpt lat="46.69834" lon="5.48325">
        <ele>236.4</ele>
        <time>2022-04-16T12:56:34Z</time>
      </trkpt>
      <trkpt lat="46.69799" lon="5.4827">
        <ele>236.8</ele>
        <time>2022-04-16T12:56:40Z</time>
      </trkpt>
      <trkpt lat="46.69759" lon="5.48205">
        <ele>236.8</ele>
        <time>2022-04-16T12:56:47Z</time>
      </trkpt>
      <trkpt lat="46.69716" lon="5.48139">
        <ele>235.8</ele>
        <time>2022-04-16T12:56:54Z</time>
      </trkpt>
      <trkpt lat="46.69697" lon="5.48112">
        <ele>235.6</ele>
        <time>2022-04-16T12:56:57Z</time>
      </trkpt>
      <trkpt lat="46.69691" lon="5.48103">
        <ele>235.2</ele>
        <time>2022-04-16T12:56:58Z</time>
      </trkpt>
      <trkpt lat="46.69686" lon="5.48093">
        <ele>234.8</ele>
        <time>2022-04-16T12:56:59Z</time>
      </trkpt>
      <trkpt lat="46.69644" lon="5.48028">
        <ele>234.6</ele>
        <time>2022-04-16T12:57:06Z</time>
      </trkpt>
      <trkpt lat="46.69603" lon="5.47964">
        <ele>234.2</ele>
        <time>2022-04-16T12:57:13Z</time>
      </trkpt>
      <trkpt lat="46.69597" lon="5.47955">
        <ele>234</ele>
        <time>2022-04-16T12:57:14Z</time>
      </trkpt>
      <trkpt lat="46.69562" lon="5.47902">
        <ele>234.4</ele>
        <time>2022-04-16T12:57:20Z</time>
      </trkpt>
      <trkpt lat="46.69547" lon="5.4789">
        <ele>234.4</ele>
        <time>2022-04-16T12:57:22Z</time>
      </trkpt>
      <trkpt lat="46.69538" lon="5.47885">
        <ele>234.4</ele>
        <time>2022-04-16T12:57:23Z</time>
      </trkpt>
      <trkpt lat="46.69489" lon="5.4787">
        <ele>234</ele>
        <time>2022-04-16T12:57:28Z</time>
      </trkpt>
      <trkpt lat="46.6948" lon="5.47869">
        <ele>233.2</ele>
        <time>2022-04-16T12:57:29Z</time>
      </trkpt>
      <trkpt lat="46.6947" lon="5.47869">
        <ele>232.6</ele>
        <time>2022-04-16T12:57:30Z</time>
      </trkpt>
      <trkpt lat="46.6945" lon="5.47872">
        <ele>231.6</ele>
        <time>2022-04-16T12:57:32Z</time>
      </trkpt>
      <trkpt lat="46.69441" lon="5.47874">
        <ele>231.2</ele>
        <time>2022-04-16T12:57:33Z</time>
      </trkpt>
      <trkpt lat="46.69383" lon="5.47883">
        <ele>230.6</ele>
        <time>2022-04-16T12:57:39Z</time>
      </trkpt>
      <trkpt lat="46.69373" lon="5.47885">
        <ele>230.4</ele>
        <time>2022-04-16T12:57:40Z</time>
      </trkpt>
      <trkpt lat="46.69344" lon="5.47887">
        <ele>230.2</ele>
        <time>2022-04-16T12:57:43Z</time>
      </trkpt>
      <trkpt lat="46.69316" lon="5.4789">
        <ele>230.2</ele>
        <time>2022-04-16T12:57:46Z</time>
      </trkpt>
      <trkpt lat="46.69307" lon="5.47893">
        <ele>230.2</ele>
        <time>2022-04-16T12:57:47Z</time>
      </trkpt>
      <trkpt lat="46.69299" lon="5.47898">
        <ele>230.2</ele>
        <time>2022-04-16T12:57:48Z</time>
      </trkpt>
      <trkpt lat="46.69284" lon="5.4791">
        <ele>230.4</ele>
        <time>2022-04-16T12:57:50Z</time>
      </trkpt>
      <trkpt lat="46.69277" lon="5.47918">
        <ele>230.6</ele>
        <time>2022-04-16T12:57:51Z</time>
      </trkpt>
      <trkpt lat="46.69257" lon="5.47939">
        <ele>231.6</ele>
        <time>2022-04-16T12:57:54Z</time>
      </trkpt>
      <trkpt lat="46.6925" lon="5.47945">
        <ele>231.8</ele>
        <time>2022-04-16T12:57:55Z</time>
      </trkpt>
      <trkpt lat="46.69243" lon="5.47949">
        <ele>232</ele>
        <time>2022-04-16T12:57:56Z</time>
      </trkpt>
      <trkpt lat="46.69235" lon="5.4795">
        <ele>232.2</ele>
        <time>2022-04-16T12:57:57Z</time>
      </trkpt>
      <trkpt lat="46.69221" lon="5.47943">
        <ele>232.4</ele>
        <time>2022-04-16T12:57:59Z</time>
      </trkpt>
      <trkpt lat="46.692" lon="5.47925">
        <ele>232.8</ele>
        <time>2022-04-16T12:58:02Z</time>
      </trkpt>
      <trkpt lat="46.69187" lon="5.47911">
        <ele>233.6</ele>
        <time>2022-04-16T12:58:04Z</time>
      </trkpt>
      <trkpt lat="46.69178" lon="5.47893">
        <ele>234</ele>
        <time>2022-04-16T12:58:06Z</time>
      </trkpt>
      <trkpt lat="46.69169" lon="5.47874">
        <ele>234.4</ele>
        <time>2022-04-16T12:58:08Z</time>
      </trkpt>
      <trkpt lat="46.69155" lon="5.47845">
        <ele>235</ele>
        <time>2022-04-16T12:58:11Z</time>
      </trkpt>
      <trkpt lat="46.69135" lon="5.47809">
        <ele>235.6</ele>
        <time>2022-04-16T12:58:15Z</time>
      </trkpt>
      <trkpt lat="46.69118" lon="5.47781">
        <ele>236.2</ele>
        <time>2022-04-16T12:58:18Z</time>
      </trkpt>
      <trkpt lat="46.69101" lon="5.47752">
        <ele>236.4</ele>
        <time>2022-04-16T12:58:21Z</time>
      </trkpt>
      <trkpt lat="46.69062" lon="5.47685">
        <ele>236.4</ele>
        <time>2022-04-16T12:58:28Z</time>
      </trkpt>
      <trkpt lat="46.69056" lon="5.47675">
        <ele>236.4</ele>
        <time>2022-04-16T12:58:29Z</time>
      </trkpt>
      <trkpt lat="46.69015" lon="5.47609">
        <ele>236.4</ele>
        <time>2022-04-16T12:58:36Z</time>
      </trkpt>
      <trkpt lat="46.69003" lon="5.47591">
        <ele>236.4</ele>
        <time>2022-04-16T12:58:38Z</time>
      </trkpt>
      <trkpt lat="46.68965" lon="5.47529">
        <ele>237.2</ele>
        <time>2022-04-16T12:58:45Z</time>
      </trkpt>
      <trkpt lat="46.68959" lon="5.4752">
        <ele>237.4</ele>
        <time>2022-04-16T12:58:46Z</time>
      </trkpt>
      <trkpt lat="46.68923" lon="5.47461">
        <ele>236.8</ele>
        <time>2022-04-16T12:58:52Z</time>
      </trkpt>
      <trkpt lat="46.68885" lon="5.47405">
        <ele>236.4</ele>
        <time>2022-04-16T12:58:58Z</time>
      </trkpt>
      <trkpt lat="46.68877" lon="5.47396">
        <ele>236.2</ele>
        <time>2022-04-16T12:58:59Z</time>
      </trkpt>
      <trkpt lat="46.68842" lon="5.47363">
        <ele>235.4</ele>
        <time>2022-04-16T12:59:03Z</time>
      </trkpt>
      <trkpt lat="46.68832" lon="5.47358">
        <ele>235</ele>
        <time>2022-04-16T12:59:04Z</time>
      </trkpt>
      <trkpt lat="46.68801" lon="5.47348">
        <ele>233.8</ele>
        <time>2022-04-16T12:59:07Z</time>
      </trkpt>
      <trkpt lat="46.6879" lon="5.47346">
        <ele>233.4</ele>
        <time>2022-04-16T12:59:08Z</time>
      </trkpt>
      <trkpt lat="46.68768" lon="5.47342">
        <ele>232.6</ele>
        <time>2022-04-16T12:59:10Z</time>
      </trkpt>
      <trkpt lat="46.68737" lon="5.47338">
        <ele>232</ele>
        <time>2022-04-16T12:59:13Z</time>
      </trkpt>
      <trkpt lat="46.68728" lon="5.47334">
        <ele>231.4</ele>
        <time>2022-04-16T12:59:14Z</time>
      </trkpt>
      <trkpt lat="46.6872" lon="5.47328">
        <ele>231.4</ele>
        <time>2022-04-16T12:59:15Z</time>
      </trkpt>
      <trkpt lat="46.68713" lon="5.47321">
        <ele>231.4</ele>
        <time>2022-04-16T12:59:16Z</time>
      </trkpt>
      <trkpt lat="46.687" lon="5.47302">
        <ele>231.8</ele>
        <time>2022-04-16T12:59:18Z</time>
      </trkpt>
      <trkpt lat="46.6869" lon="5.4728">
        <ele>232.2</ele>
        <time>2022-04-16T12:59:20Z</time>
      </trkpt>
      <trkpt lat="46.6868" lon="5.47257">
        <ele>232.6</ele>
        <time>2022-04-16T12:59:22Z</time>
      </trkpt>
      <trkpt lat="46.68654" lon="5.47204">
        <ele>233.4</ele>
        <time>2022-04-16T12:59:27Z</time>
      </trkpt>
      <trkpt lat="46.68644" lon="5.47183">
        <ele>234</ele>
        <time>2022-04-16T12:59:29Z</time>
      </trkpt>
      <trkpt lat="46.68617" lon="5.47132">
        <ele>234.6</ele>
        <time>2022-04-16T12:59:34Z</time>
      </trkpt>
      <trkpt lat="46.68581" lon="5.47065">
        <ele>234.8</ele>
        <time>2022-04-16T12:59:41Z</time>
      </trkpt>
      <trkpt lat="46.68571" lon="5.47047">
        <ele>235</ele>
        <time>2022-04-16T12:59:43Z</time>
      </trkpt>
      <trkpt lat="46.68566" lon="5.47038">
        <ele>235</ele>
        <time>2022-04-16T12:59:44Z</time>
      </trkpt>
      <trkpt lat="46.6853" lon="5.46974">
        <ele>234.8</ele>
        <time>2022-04-16T12:59:51Z</time>
      </trkpt>
      <trkpt lat="46.68513" lon="5.46945">
        <ele>234.8</ele>
        <time>2022-04-16T12:59:54Z</time>
      </trkpt>
      <trkpt lat="46.68474" lon="5.46874">
        <ele>233.8</ele>
        <time>2022-04-16T13:00:01Z</time>
      </trkpt>
      <trkpt lat="46.68463" lon="5.46855">
        <ele>233</ele>
        <time>2022-04-16T13:00:03Z</time>
      </trkpt>
      <trkpt lat="46.68451" lon="5.46835">
        <ele>232.8</ele>
        <time>2022-04-16T13:00:05Z</time>
      </trkpt>
      <trkpt lat="46.68413" lon="5.46772">
        <ele>231.8</ele>
        <time>2022-04-16T13:00:11Z</time>
      </trkpt>
      <trkpt lat="46.68406" lon="5.46761">
        <ele>231.6</ele>
        <time>2022-04-16T13:00:12Z</time>
      </trkpt>
      <trkpt lat="46.68368" lon="5.46702">
        <ele>230.4</ele>
        <time>2022-04-16T13:00:17Z</time>
      </trkpt>
      <trkpt lat="46.68343" lon="5.46669">
        <ele>229.4</ele>
        <time>2022-04-16T13:00:20Z</time>
      </trkpt>
      <trkpt lat="46.68326" lon="5.4665">
        <ele>229.2</ele>
        <time>2022-04-16T13:00:22Z</time>
      </trkpt>
      <trkpt lat="46.68292" lon="5.46619">
        <ele>229.6</ele>
        <time>2022-04-16T13:00:26Z</time>
      </trkpt>
      <trkpt lat="46.68252" lon="5.46588">
        <ele>230.4</ele>
        <time>2022-04-16T13:00:31Z</time>
      </trkpt>
      <trkpt lat="46.68245" lon="5.46582">
        <ele>230.8</ele>
        <time>2022-04-16T13:00:32Z</time>
      </trkpt>
      <trkpt lat="46.68222" lon="5.46563">
        <ele>232</ele>
        <time>2022-04-16T13:00:35Z</time>
      </trkpt>
      <trkpt lat="46.6819" lon="5.46539">
        <ele>233</ele>
        <time>2022-04-16T13:00:39Z</time>
      </trkpt>
      <trkpt lat="46.68183" lon="5.46533">
        <ele>233</ele>
        <time>2022-04-16T13:00:40Z</time>
      </trkpt>
      <trkpt lat="46.68143" lon="5.46509">
        <ele>234.2</ele>
        <time>2022-04-16T13:00:45Z</time>
      </trkpt>
      <trkpt lat="46.68135" lon="5.46505">
        <ele>234.4</ele>
        <time>2022-04-16T13:00:46Z</time>
      </trkpt>
      <trkpt lat="46.68109" lon="5.46491">
        <ele>235.4</ele>
        <time>2022-04-16T13:00:49Z</time>
      </trkpt>
      <trkpt lat="46.68061" lon="5.46468">
        <ele>235.6</ele>
        <time>2022-04-16T13:00:55Z</time>
      </trkpt>
      <trkpt lat="46.68004" lon="5.46441">
        <ele>235.6</ele>
        <time>2022-04-16T13:01:02Z</time>
      </trkpt>
      <trkpt lat="46.67971" lon="5.46425">
        <ele>236</ele>
        <time>2022-04-16T13:01:06Z</time>
      </trkpt>
      <trkpt lat="46.67947" lon="5.46413">
        <ele>236.4</ele>
        <time>2022-04-16T13:01:09Z</time>
      </trkpt>
      <trkpt lat="46.67888" lon="5.46384">
        <ele>236.2</ele>
        <time>2022-04-16T13:01:16Z</time>
      </trkpt>
      <trkpt lat="46.67829" lon="5.46355">
        <ele>236.2</ele>
        <time>2022-04-16T13:01:23Z</time>
      </trkpt>
      <trkpt lat="46.67813" lon="5.46347">
        <ele>236</ele>
        <time>2022-04-16T13:01:25Z</time>
      </trkpt>
      <trkpt lat="46.67754" lon="5.46317">
        <ele>236</ele>
        <time>2022-04-16T13:01:32Z</time>
      </trkpt>
      <trkpt lat="46.67736" lon="5.46308">
        <ele>236</ele>
        <time>2022-04-16T13:01:34Z</time>
      </trkpt>
      <trkpt lat="46.67681" lon="5.46282">
        <ele>235.8</ele>
        <time>2022-04-16T13:01:40Z</time>
      </trkpt>
      <trkpt lat="46.67662" lon="5.46273">
        <ele>235.8</ele>
        <time>2022-04-16T13:01:42Z</time>
      </trkpt>
      <trkpt lat="46.67604" lon="5.46245">
        <ele>235.8</ele>
        <time>2022-04-16T13:01:48Z</time>
      </trkpt>
      <trkpt lat="46.67584" lon="5.46236">
        <ele>235.6</ele>
        <time>2022-04-16T13:01:50Z</time>
      </trkpt>
      <trkpt lat="46.67529" lon="5.46208">
        <ele>235.8</ele>
        <time>2022-04-16T13:01:56Z</time>
      </trkpt>
      <trkpt lat="46.6751" lon="5.46199">
        <ele>235.8</ele>
        <time>2022-04-16T13:01:58Z</time>
      </trkpt>
      <trkpt lat="46.67454" lon="5.46171">
        <ele>235.6</ele>
        <time>2022-04-16T13:02:04Z</time>
      </trkpt>
      <trkpt lat="46.67397" lon="5.46143">
        <ele>235.2</ele>
        <time>2022-04-16T13:02:10Z</time>
      </trkpt>
      <trkpt lat="46.6734" lon="5.46115">
        <ele>235.2</ele>
        <time>2022-04-16T13:02:16Z</time>
      </trkpt>
      <trkpt lat="46.67331" lon="5.46111">
        <ele>235.2</ele>
        <time>2022-04-16T13:02:17Z</time>
      </trkpt>
      <trkpt lat="46.67278" lon="5.46084">
        <ele>235</ele>
        <time>2022-04-16T13:02:23Z</time>
      </trkpt>
      <trkpt lat="46.67261" lon="5.46076">
        <ele>235</ele>
        <time>2022-04-16T13:02:25Z</time>
      </trkpt>
      <trkpt lat="46.67229" lon="5.4606">
        <ele>234.6</ele>
        <time>2022-04-16T13:02:29Z</time>
      </trkpt>
      <trkpt lat="46.67206" lon="5.46048">
        <ele>234.4</ele>
        <time>2022-04-16T13:02:32Z</time>
      </trkpt>
      <trkpt lat="46.67177" lon="5.46031">
        <ele>234.4</ele>
        <time>2022-04-16T13:02:37Z</time>
      </trkpt>
      <trkpt lat="46.67174" lon="5.4603">
        <ele>234.4</ele>
        <time>2022-04-16T13:02:39Z</time>
      </trkpt>
      <trkpt lat="46.67174" lon="5.4603">
        <ele>234.4</ele>
        <time>2022-04-16T13:02:40Z</time>
      </trkpt>
      <trkpt lat="46.67174" lon="5.4603">
        <ele>234.4</ele>
        <time>2022-04-16T13:02:41Z</time>
      </trkpt>
      <trkpt lat="46.67171" lon="5.46024">
        <ele>234.4</ele>
        <time>2022-04-16T13:02:50Z</time>
      </trkpt>
      <trkpt lat="46.67166" lon="5.46022">
        <ele>234.6</ele>
        <time>2022-04-16T13:02:52Z</time>
      </trkpt>
      <trkpt lat="46.67159" lon="5.46028">
        <ele>234.4</ele>
        <time>2022-04-16T13:02:55Z</time>
      </trkpt>
      <trkpt lat="46.67154" lon="5.46031">
        <ele>234.4</ele>
        <time>2022-04-16T13:02:56Z</time>
      </trkpt>
      <trkpt lat="46.67148" lon="5.46033">
        <ele>234.4</ele>
        <time>2022-04-16T13:02:57Z</time>
      </trkpt>
      <trkpt lat="46.67124" lon="5.46037">
        <ele>234.4</ele>
        <time>2022-04-16T13:03:00Z</time>
      </trkpt>
      <trkpt lat="46.67072" lon="5.4604">
        <ele>233.8</ele>
        <time>2022-04-16T13:03:06Z</time>
      </trkpt>
      <trkpt lat="46.67042" lon="5.46039">
        <ele>233.8</ele>
        <time>2022-04-16T13:03:09Z</time>
      </trkpt>
      <trkpt lat="46.67026" lon="5.46032">
        <ele>233.8</ele>
        <time>2022-04-16T13:03:11Z</time>
      </trkpt>
      <trkpt lat="46.67018" lon="5.46027">
        <ele>234.2</ele>
        <time>2022-04-16T13:03:12Z</time>
      </trkpt>
      <trkpt lat="46.66993" lon="5.46009">
        <ele>234.2</ele>
        <time>2022-04-16T13:03:15Z</time>
      </trkpt>
      <trkpt lat="46.66951" lon="5.45986">
        <ele>234.2</ele>
        <time>2022-04-16T13:03:20Z</time>
      </trkpt>
      <trkpt lat="46.66912" lon="5.45964">
        <ele>234</ele>
        <time>2022-04-16T13:03:25Z</time>
      </trkpt>
      <trkpt lat="46.66898" lon="5.4595">
        <ele>234.2</ele>
        <time>2022-04-16T13:03:27Z</time>
      </trkpt>
      <trkpt lat="46.66886" lon="5.45932">
        <ele>234.2</ele>
        <time>2022-04-16T13:03:29Z</time>
      </trkpt>
      <trkpt lat="46.66862" lon="5.45877">
        <ele>234.4</ele>
        <time>2022-04-16T13:03:34Z</time>
      </trkpt>
      <trkpt lat="46.66824" lon="5.4581">
        <ele>234.2</ele>
        <time>2022-04-16T13:03:41Z</time>
      </trkpt>
      <trkpt lat="46.6681" lon="5.45796">
        <ele>234.2</ele>
        <time>2022-04-16T13:03:43Z</time>
      </trkpt>
      <trkpt lat="46.66801" lon="5.45792">
        <ele>234</ele>
        <time>2022-04-16T13:03:44Z</time>
      </trkpt>
      <trkpt lat="46.66793" lon="5.45791">
        <ele>234</ele>
        <time>2022-04-16T13:03:45Z</time>
      </trkpt>
      <trkpt lat="46.66775" lon="5.45792">
        <ele>233.8</ele>
        <time>2022-04-16T13:03:47Z</time>
      </trkpt>
      <trkpt lat="46.66757" lon="5.45796">
        <ele>233.4</ele>
        <time>2022-04-16T13:03:49Z</time>
      </trkpt>
      <trkpt lat="46.66713" lon="5.45809">
        <ele>233</ele>
        <time>2022-04-16T13:03:54Z</time>
      </trkpt>
      <trkpt lat="46.6666" lon="5.45827">
        <ele>233</ele>
        <time>2022-04-16T13:04:00Z</time>
      </trkpt>
      <trkpt lat="46.66633" lon="5.45841">
        <ele>232.8</ele>
        <time>2022-04-16T13:04:03Z</time>
      </trkpt>
      <trkpt lat="46.66605" lon="5.45859">
        <ele>232.2</ele>
        <time>2022-04-16T13:04:06Z</time>
      </trkpt>
      <trkpt lat="46.66578" lon="5.45877">
        <ele>230.8</ele>
        <time>2022-04-16T13:04:09Z</time>
      </trkpt>
      <trkpt lat="46.66569" lon="5.45884">
        <ele>230.4</ele>
        <time>2022-04-16T13:04:10Z</time>
      </trkpt>
      <trkpt lat="46.66516" lon="5.45921">
        <ele>229.6</ele>
        <time>2022-04-16T13:04:16Z</time>
      </trkpt>
      <trkpt lat="46.66507" lon="5.45927">
        <ele>229.4</ele>
        <time>2022-04-16T13:04:17Z</time>
      </trkpt>
      <trkpt lat="46.6649" lon="5.45927">
        <ele>228.8</ele>
        <time>2022-04-16T13:04:19Z</time>
      </trkpt>
      <trkpt lat="46.66477" lon="5.45917">
        <ele>228.4</ele>
        <time>2022-04-16T13:04:21Z</time>
      </trkpt>
      <trkpt lat="46.66472" lon="5.45909">
        <ele>228.2</ele>
        <time>2022-04-16T13:04:22Z</time>
      </trkpt>
      <trkpt lat="46.66455" lon="5.45869">
        <ele>227.4</ele>
        <time>2022-04-16T13:04:26Z</time>
      </trkpt>
      <trkpt lat="46.66427" lon="5.45807">
        <ele>226.8</ele>
        <time>2022-04-16T13:04:32Z</time>
      </trkpt>
      <trkpt lat="46.66392" lon="5.45734">
        <ele>226.6</ele>
        <time>2022-04-16T13:04:39Z</time>
      </trkpt>
      <trkpt lat="46.66382" lon="5.45714">
        <ele>226.8</ele>
        <time>2022-04-16T13:04:41Z</time>
      </trkpt>
      <trkpt lat="46.66355" lon="5.45657">
        <ele>227.4</ele>
        <time>2022-04-16T13:04:47Z</time>
      </trkpt>
      <trkpt lat="46.66325" lon="5.45606">
        <ele>228.2</ele>
        <time>2022-04-16T13:04:53Z</time>
      </trkpt>
      <trkpt lat="46.66295" lon="5.45571">
        <ele>228.6</ele>
        <time>2022-04-16T13:04:58Z</time>
      </trkpt>
      <trkpt lat="46.66281" lon="5.45558">
        <ele>228.8</ele>
        <time>2022-04-16T13:05:00Z</time>
      </trkpt>
      <trkpt lat="46.66238" lon="5.45523">
        <ele>229</ele>
        <time>2022-04-16T13:05:06Z</time>
      </trkpt>
      <trkpt lat="46.66214" lon="5.45512">
        <ele>229</ele>
        <time>2022-04-16T13:05:09Z</time>
      </trkpt>
      <trkpt lat="46.6619" lon="5.45501">
        <ele>228.8</ele>
        <time>2022-04-16T13:05:12Z</time>
      </trkpt>
      <trkpt lat="46.66135" lon="5.45479">
        <ele>229</ele>
        <time>2022-04-16T13:05:19Z</time>
      </trkpt>
      <trkpt lat="46.66127" lon="5.45475">
        <ele>229</ele>
        <time>2022-04-16T13:05:20Z</time>
      </trkpt>
      <trkpt lat="46.66112" lon="5.45467">
        <ele>229.4</ele>
        <time>2022-04-16T13:05:22Z</time>
      </trkpt>
      <trkpt lat="46.66099" lon="5.45455">
        <ele>229.6</ele>
        <time>2022-04-16T13:05:24Z</time>
      </trkpt>
      <trkpt lat="46.66092" lon="5.45449">
        <ele>229.6</ele>
        <time>2022-04-16T13:05:25Z</time>
      </trkpt>
      <trkpt lat="46.66059" lon="5.45404">
        <ele>230.8</ele>
        <time>2022-04-16T13:05:31Z</time>
      </trkpt>
      <trkpt lat="46.66017" lon="5.45337">
        <ele>231.8</ele>
        <time>2022-04-16T13:05:39Z</time>
      </trkpt>
      <trkpt lat="46.66012" lon="5.45328">
        <ele>232</ele>
        <time>2022-04-16T13:05:40Z</time>
      </trkpt>
      <trkpt lat="46.66007" lon="5.45319">
        <ele>232</ele>
        <time>2022-04-16T13:05:41Z</time>
      </trkpt>
      <trkpt lat="46.65999" lon="5.453">
        <ele>232.4</ele>
        <time>2022-04-16T13:05:43Z</time>
      </trkpt>
      <trkpt lat="46.65987" lon="5.45268">
        <ele>232.6</ele>
        <time>2022-04-16T13:05:46Z</time>
      </trkpt>
      <trkpt lat="46.6596" lon="5.45223">
        <ele>233</ele>
        <time>2022-04-16T13:05:51Z</time>
      </trkpt>
      <trkpt lat="46.65926" lon="5.45189">
        <ele>233.2</ele>
        <time>2022-04-16T13:05:56Z</time>
      </trkpt>
      <trkpt lat="46.65912" lon="5.45175">
        <ele>233</ele>
        <time>2022-04-16T13:05:58Z</time>
      </trkpt>
      <trkpt lat="46.65869" lon="5.45117">
        <ele>233</ele>
        <time>2022-04-16T13:06:05Z</time>
      </trkpt>
      <trkpt lat="46.65824" lon="5.4507">
        <ele>231.8</ele>
        <time>2022-04-16T13:06:11Z</time>
      </trkpt>
      <trkpt lat="46.6578" lon="5.45018">
        <ele>230.8</ele>
        <time>2022-04-16T13:06:17Z</time>
      </trkpt>
      <trkpt lat="46.65771" lon="5.44997">
        <ele>230.6</ele>
        <time>2022-04-16T13:06:19Z</time>
      </trkpt>
      <trkpt lat="46.65769" lon="5.44985">
        <ele>230.4</ele>
        <time>2022-04-16T13:06:20Z</time>
      </trkpt>
      <trkpt lat="46.65767" lon="5.44973">
        <ele>230.4</ele>
        <time>2022-04-16T13:06:21Z</time>
      </trkpt>
      <trkpt lat="46.65766" lon="5.44938">
        <ele>230.6</ele>
        <time>2022-04-16T13:06:24Z</time>
      </trkpt>
      <trkpt lat="46.65763" lon="5.4488">
        <ele>231.8</ele>
        <time>2022-04-16T13:06:29Z</time>
      </trkpt>
      <trkpt lat="46.65761" lon="5.44868">
        <ele>231.8</ele>
        <time>2022-04-16T13:06:30Z</time>
      </trkpt>
      <trkpt lat="46.6575" lon="5.44824">
        <ele>232.4</ele>
        <time>2022-04-16T13:06:34Z</time>
      </trkpt>
      <trkpt lat="46.65741" lon="5.4479">
        <ele>232.8</ele>
        <time>2022-04-16T13:06:37Z</time>
      </trkpt>
      <trkpt lat="46.65735" lon="5.44756">
        <ele>233.2</ele>
        <time>2022-04-16T13:06:40Z</time>
      </trkpt>
      <trkpt lat="46.65725" lon="5.447">
        <ele>233.8</ele>
        <time>2022-04-16T13:06:45Z</time>
      </trkpt>
      <trkpt lat="46.65721" lon="5.4469">
        <ele>233.8</ele>
        <time>2022-04-16T13:06:46Z</time>
      </trkpt>
      <trkpt lat="46.65716" lon="5.4468">
        <ele>234</ele>
        <time>2022-04-16T13:06:47Z</time>
      </trkpt>
      <trkpt lat="46.65699" lon="5.44655">
        <ele>234.2</ele>
        <time>2022-04-16T13:06:50Z</time>
      </trkpt>
      <trkpt lat="46.65656" lon="5.44596">
        <ele>234</ele>
        <time>2022-04-16T13:06:57Z</time>
      </trkpt>
      <trkpt lat="46.65649" lon="5.44588">
        <ele>234</ele>
        <time>2022-04-16T13:06:58Z</time>
      </trkpt>
      <trkpt lat="46.65611" lon="5.44543">
        <ele>233.4</ele>
        <time>2022-04-16T13:07:04Z</time>
      </trkpt>
      <trkpt lat="46.6557" lon="5.44502">
        <ele>233</ele>
        <time>2022-04-16T13:07:10Z</time>
      </trkpt>
      <trkpt lat="46.65561" lon="5.44498">
        <ele>233</ele>
        <time>2022-04-16T13:07:11Z</time>
      </trkpt>
      <trkpt lat="46.65553" lon="5.44496">
        <ele>232.8</ele>
        <time>2022-04-16T13:07:12Z</time>
      </trkpt>
      <trkpt lat="46.65525" lon="5.44491">
        <ele>232.8</ele>
        <time>2022-04-16T13:07:15Z</time>
      </trkpt>
      <trkpt lat="46.6549" lon="5.44473">
        <ele>232.4</ele>
        <time>2022-04-16T13:07:19Z</time>
      </trkpt>
      <trkpt lat="46.65472" lon="5.44462">
        <ele>231.8</ele>
        <time>2022-04-16T13:07:21Z</time>
      </trkpt>
      <trkpt lat="46.65456" lon="5.44448">
        <ele>231.4</ele>
        <time>2022-04-16T13:07:23Z</time>
      </trkpt>
      <trkpt lat="46.65449" lon="5.4444">
        <ele>231.4</ele>
        <time>2022-04-16T13:07:24Z</time>
      </trkpt>
      <trkpt lat="46.65442" lon="5.4443">
        <ele>231.2</ele>
        <time>2022-04-16T13:07:25Z</time>
      </trkpt>
      <trkpt lat="46.65418" lon="5.44391">
        <ele>231.4</ele>
        <time>2022-04-16T13:07:29Z</time>
      </trkpt>
      <trkpt lat="46.6538" lon="5.44341">
        <ele>231.4</ele>
        <time>2022-04-16T13:07:35Z</time>
      </trkpt>
      <trkpt lat="46.65339" lon="5.443">
        <ele>232.4</ele>
        <time>2022-04-16T13:07:41Z</time>
      </trkpt>
      <trkpt lat="46.65301" lon="5.44272">
        <ele>232.4</ele>
        <time>2022-04-16T13:07:46Z</time>
      </trkpt>
      <trkpt lat="46.65249" lon="5.44231">
        <ele>231.8</ele>
        <time>2022-04-16T13:07:53Z</time>
      </trkpt>
      <trkpt lat="46.65208" lon="5.44172">
        <ele>231.6</ele>
        <time>2022-04-16T13:08:00Z</time>
      </trkpt>
      <trkpt lat="46.6517" lon="5.44109">
        <ele>231.6</ele>
        <time>2022-04-16T13:08:07Z</time>
      </trkpt>
      <trkpt lat="46.6513" lon="5.44051">
        <ele>231.8</ele>
        <time>2022-04-16T13:08:14Z</time>
      </trkpt>
      <trkpt lat="46.65119" lon="5.44035">
        <ele>232</ele>
        <time>2022-04-16T13:08:16Z</time>
      </trkpt>
      <trkpt lat="46.65113" lon="5.44027">
        <ele>232</ele>
        <time>2022-04-16T13:08:17Z</time>
      </trkpt>
      <trkpt lat="46.65099" lon="5.44015">
        <ele>232.2</ele>
        <time>2022-04-16T13:08:19Z</time>
      </trkpt>
      <trkpt lat="46.6509" lon="5.44011">
        <ele>232.4</ele>
        <time>2022-04-16T13:08:20Z</time>
      </trkpt>
      <trkpt lat="46.65082" lon="5.44009">
        <ele>232.8</ele>
        <time>2022-04-16T13:08:21Z</time>
      </trkpt>
      <trkpt lat="46.65065" lon="5.44008">
        <ele>233</ele>
        <time>2022-04-16T13:08:23Z</time>
      </trkpt>
      <trkpt lat="46.65056" lon="5.44008">
        <ele>233</ele>
        <time>2022-04-16T13:08:24Z</time>
      </trkpt>
      <trkpt lat="46.65047" lon="5.44007">
        <ele>233.2</ele>
        <time>2022-04-16T13:08:25Z</time>
      </trkpt>
      <trkpt lat="46.65029" lon="5.43999">
        <ele>233</ele>
        <time>2022-04-16T13:08:27Z</time>
      </trkpt>
      <trkpt lat="46.64999" lon="5.43971">
        <ele>232.4</ele>
        <time>2022-04-16T13:08:31Z</time>
      </trkpt>
      <trkpt lat="46.64977" lon="5.43948">
        <ele>232.2</ele>
        <time>2022-04-16T13:08:34Z</time>
      </trkpt>
      <trkpt lat="46.64948" lon="5.43919">
        <ele>231</ele>
        <time>2022-04-16T13:08:38Z</time>
      </trkpt>
      <trkpt lat="46.64926" lon="5.43898">
        <ele>229.8</ele>
        <time>2022-04-16T13:08:41Z</time>
      </trkpt>
      <trkpt lat="46.64908" lon="5.43882">
        <ele>229.4</ele>
        <time>2022-04-16T13:08:44Z</time>
      </trkpt>
      <trkpt lat="46.64899" lon="5.43877">
        <ele>229.2</ele>
        <time>2022-04-16T13:08:47Z</time>
      </trkpt>
      <trkpt lat="46.64897" lon="5.43875">
        <ele>228.8</ele>
        <time>2022-04-16T13:08:50Z</time>
      </trkpt>
      <trkpt lat="46.64896" lon="5.43874">
        <ele>228.8</ele>
        <time>2022-04-16T13:08:51Z</time>
      </trkpt>
      <trkpt lat="46.64889" lon="5.43866">
        <ele>228.6</ele>
        <time>2022-04-16T13:08:55Z</time>
      </trkpt>
      <trkpt lat="46.64875" lon="5.43851">
        <ele>228.6</ele>
        <time>2022-04-16T13:08:59Z</time>
      </trkpt>
      <trkpt lat="46.64851" lon="5.4383">
        <ele>228.4</ele>
        <time>2022-04-16T13:09:04Z</time>
      </trkpt>
      <trkpt lat="46.64827" lon="5.43803">
        <ele>228.8</ele>
        <time>2022-04-16T13:09:09Z</time>
      </trkpt>
      <trkpt lat="46.64822" lon="5.43795">
        <ele>229</ele>
        <time>2022-04-16T13:09:10Z</time>
      </trkpt>
      <trkpt lat="46.64819" lon="5.43788">
        <ele>229.4</ele>
        <time>2022-04-16T13:09:11Z</time>
      </trkpt>
      <trkpt lat="46.64816" lon="5.43779">
        <ele>229.8</ele>
        <time>2022-04-16T13:09:12Z</time>
      </trkpt>
      <trkpt lat="46.64811" lon="5.43761">
        <ele>230.2</ele>
        <time>2022-04-16T13:09:14Z</time>
      </trkpt>
      <trkpt lat="46.64805" lon="5.43734">
        <ele>230.4</ele>
        <time>2022-04-16T13:09:17Z</time>
      </trkpt>
      <trkpt lat="46.64799" lon="5.43717">
        <ele>230.8</ele>
        <time>2022-04-16T13:09:19Z</time>
      </trkpt>
      <trkpt lat="46.64795" lon="5.43709">
        <ele>231</ele>
        <time>2022-04-16T13:09:20Z</time>
      </trkpt>
      <trkpt lat="46.64771" lon="5.43679">
        <ele>231.4</ele>
        <time>2022-04-16T13:09:25Z</time>
      </trkpt>
      <trkpt lat="46.64746" lon="5.43664">
        <ele>231.6</ele>
        <time>2022-04-16T13:09:29Z</time>
      </trkpt>
      <trkpt lat="46.64701" lon="5.43641">
        <ele>231.4</ele>
        <time>2022-04-16T13:09:35Z</time>
      </trkpt>
      <trkpt lat="46.64652" lon="5.43605">
        <ele>230.4</ele>
        <time>2022-04-16T13:09:41Z</time>
      </trkpt>
      <trkpt lat="46.64636" lon="5.43591">
        <ele>229.8</ele>
        <time>2022-04-16T13:09:43Z</time>
      </trkpt>
      <trkpt lat="46.64628" lon="5.43585">
        <ele>229.2</ele>
        <time>2022-04-16T13:09:44Z</time>
      </trkpt>
      <trkpt lat="46.64611" lon="5.43576">
        <ele>228.6</ele>
        <time>2022-04-16T13:09:46Z</time>
      </trkpt>
      <trkpt lat="46.64573" lon="5.43562">
        <ele>227.6</ele>
        <time>2022-04-16T13:09:50Z</time>
      </trkpt>
      <trkpt lat="46.64559" lon="5.43553">
        <ele>227</ele>
        <time>2022-04-16T13:09:52Z</time>
      </trkpt>
      <trkpt lat="46.64547" lon="5.43544">
        <ele>226.4</ele>
        <time>2022-04-16T13:09:54Z</time>
      </trkpt>
      <trkpt lat="46.64541" lon="5.43537">
        <ele>226.4</ele>
        <time>2022-04-16T13:09:55Z</time>
      </trkpt>
      <trkpt lat="46.64516" lon="5.4351">
        <ele>225.8</ele>
        <time>2022-04-16T13:09:59Z</time>
      </trkpt>
      <trkpt lat="46.64489" lon="5.43483">
        <ele>225.2</ele>
        <time>2022-04-16T13:10:03Z</time>
      </trkpt>
      <trkpt lat="46.64476" lon="5.43469">
        <ele>225</ele>
        <time>2022-04-16T13:10:05Z</time>
      </trkpt>
      <trkpt lat="46.64431" lon="5.43438">
        <ele>224.6</ele>
        <time>2022-04-16T13:10:11Z</time>
      </trkpt>
      <trkpt lat="46.64386" lon="5.43424">
        <ele>224</ele>
        <time>2022-04-16T13:10:16Z</time>
      </trkpt>
      <trkpt lat="46.64368" lon="5.43416">
        <ele>223.4</ele>
        <time>2022-04-16T13:10:18Z</time>
      </trkpt>
      <trkpt lat="46.6435" lon="5.43407">
        <ele>223.2</ele>
        <time>2022-04-16T13:10:20Z</time>
      </trkpt>
      <trkpt lat="46.64324" lon="5.43386">
        <ele>222.8</ele>
        <time>2022-04-16T13:10:23Z</time>
      </trkpt>
      <trkpt lat="46.6429" lon="5.43337">
        <ele>222.6</ele>
        <time>2022-04-16T13:10:28Z</time>
      </trkpt>
      <trkpt lat="46.64266" lon="5.43299">
        <ele>223.2</ele>
        <time>2022-04-16T13:10:32Z</time>
      </trkpt>
      <trkpt lat="46.64249" lon="5.4327">
        <ele>224.4</ele>
        <time>2022-04-16T13:10:35Z</time>
      </trkpt>
      <trkpt lat="46.64222" lon="5.43222">
        <ele>225.8</ele>
        <time>2022-04-16T13:10:40Z</time>
      </trkpt>
      <trkpt lat="46.64201" lon="5.43172">
        <ele>226.6</ele>
        <time>2022-04-16T13:10:45Z</time>
      </trkpt>
      <trkpt lat="46.64197" lon="5.43162">
        <ele>227</ele>
        <time>2022-04-16T13:10:46Z</time>
      </trkpt>
      <trkpt lat="46.64191" lon="5.43141">
        <ele>227.8</ele>
        <time>2022-04-16T13:10:48Z</time>
      </trkpt>
      <trkpt lat="46.64188" lon="5.43129">
        <ele>228</ele>
        <time>2022-04-16T13:10:49Z</time>
      </trkpt>
      <trkpt lat="46.64187" lon="5.43117">
        <ele>228.2</ele>
        <time>2022-04-16T13:10:50Z</time>
      </trkpt>
      <trkpt lat="46.64188" lon="5.43092">
        <ele>228.4</ele>
        <time>2022-04-16T13:10:52Z</time>
      </trkpt>
      <trkpt lat="46.64193" lon="5.43067">
        <ele>228.2</ele>
        <time>2022-04-16T13:10:54Z</time>
      </trkpt>
      <trkpt lat="46.6421" lon="5.43008">
        <ele>227.2</ele>
        <time>2022-04-16T13:10:59Z</time>
      </trkpt>
      <trkpt lat="46.64212" lon="5.42996">
        <ele>227.2</ele>
        <time>2022-04-16T13:11:00Z</time>
      </trkpt>
      <trkpt lat="46.64212" lon="5.42984">
        <ele>227</ele>
        <time>2022-04-16T13:11:01Z</time>
      </trkpt>
      <trkpt lat="46.64207" lon="5.42959">
        <ele>226.6</ele>
        <time>2022-04-16T13:11:03Z</time>
      </trkpt>
      <trkpt lat="46.64186" lon="5.42902">
        <ele>226</ele>
        <time>2022-04-16T13:11:08Z</time>
      </trkpt>
      <trkpt lat="46.64179" lon="5.42878">
        <ele>225.8</ele>
        <time>2022-04-16T13:11:10Z</time>
      </trkpt>
      <trkpt lat="46.64161" lon="5.42836">
        <ele>225</ele>
        <time>2022-04-16T13:11:14Z</time>
      </trkpt>
      <trkpt lat="46.64151" lon="5.42817">
        <ele>225</ele>
        <time>2022-04-16T13:11:16Z</time>
      </trkpt>
      <trkpt lat="46.64138" lon="5.42801">
        <ele>225.2</ele>
        <time>2022-04-16T13:11:18Z</time>
      </trkpt>
      <trkpt lat="46.64107" lon="5.42782">
        <ele>225.4</ele>
        <time>2022-04-16T13:11:22Z</time>
      </trkpt>
      <trkpt lat="46.64072" lon="5.42753">
        <ele>225.6</ele>
        <time>2022-04-16T13:11:27Z</time>
      </trkpt>
      <trkpt lat="46.64037" lon="5.42704">
        <ele>225.8</ele>
        <time>2022-04-16T13:11:33Z</time>
      </trkpt>
      <trkpt lat="46.64003" lon="5.42639">
        <ele>226.2</ele>
        <time>2022-04-16T13:11:40Z</time>
      </trkpt>
      <trkpt lat="46.63993" lon="5.42626">
        <ele>226.4</ele>
        <time>2022-04-16T13:11:42Z</time>
      </trkpt>
      <trkpt lat="46.6398" lon="5.42614">
        <ele>226.6</ele>
        <time>2022-04-16T13:11:44Z</time>
      </trkpt>
      <trkpt lat="46.63953" lon="5.42588">
        <ele>227</ele>
        <time>2022-04-16T13:11:48Z</time>
      </trkpt>
      <trkpt lat="46.63948" lon="5.42582">
        <ele>227</ele>
        <time>2022-04-16T13:11:49Z</time>
      </trkpt>
      <trkpt lat="46.6393" lon="5.42561">
        <ele>227.4</ele>
        <time>2022-04-16T13:11:52Z</time>
      </trkpt>
      <trkpt lat="46.63911" lon="5.42538">
        <ele>227.6</ele>
        <time>2022-04-16T13:11:55Z</time>
      </trkpt>
      <trkpt lat="46.63902" lon="5.42523">
        <ele>227.8</ele>
        <time>2022-04-16T13:11:57Z</time>
      </trkpt>
      <trkpt lat="46.63898" lon="5.42514">
        <ele>227.8</ele>
        <time>2022-04-16T13:11:58Z</time>
      </trkpt>
      <trkpt lat="46.63894" lon="5.42502">
        <ele>228</ele>
        <time>2022-04-16T13:11:59Z</time>
      </trkpt>
      <trkpt lat="46.63892" lon="5.42493">
        <ele>228.2</ele>
        <time>2022-04-16T13:12:00Z</time>
      </trkpt>
      <trkpt lat="46.63886" lon="5.42474">
        <ele>228.4</ele>
        <time>2022-04-16T13:12:02Z</time>
      </trkpt>
      <trkpt lat="46.6387" lon="5.4244">
        <ele>229.2</ele>
        <time>2022-04-16T13:12:06Z</time>
      </trkpt>
      <trkpt lat="46.63866" lon="5.42432">
        <ele>229.2</ele>
        <time>2022-04-16T13:12:07Z</time>
      </trkpt>
      <trkpt lat="46.63849" lon="5.42399">
        <ele>230.2</ele>
        <time>2022-04-16T13:12:11Z</time>
      </trkpt>
      <trkpt lat="46.63835" lon="5.42374">
        <ele>230.6</ele>
        <time>2022-04-16T13:12:14Z</time>
      </trkpt>
      <trkpt lat="46.638" lon="5.42326">
        <ele>231</ele>
        <time>2022-04-16T13:12:20Z</time>
      </trkpt>
      <trkpt lat="46.63761" lon="5.42285">
        <ele>230.4</ele>
        <time>2022-04-16T13:12:26Z</time>
      </trkpt>
      <trkpt lat="46.63754" lon="5.42265">
        <ele>230.2</ele>
        <time>2022-04-16T13:12:28Z</time>
      </trkpt>
      <trkpt lat="46.63753" lon="5.42254">
        <ele>230</ele>
        <time>2022-04-16T13:12:29Z</time>
      </trkpt>
      <trkpt lat="46.63752" lon="5.42243">
        <ele>230</ele>
        <time>2022-04-16T13:12:30Z</time>
      </trkpt>
      <trkpt lat="46.63748" lon="5.42222">
        <ele>230</ele>
        <time>2022-04-16T13:12:32Z</time>
      </trkpt>
      <trkpt lat="46.63736" lon="5.42207">
        <ele>230.2</ele>
        <time>2022-04-16T13:12:34Z</time>
      </trkpt>
      <trkpt lat="46.63684" lon="5.42167">
        <ele>230.8</ele>
        <time>2022-04-16T13:12:41Z</time>
      </trkpt>
      <trkpt lat="46.63646" lon="5.42145">
        <ele>229.8</ele>
        <time>2022-04-16T13:12:46Z</time>
      </trkpt>
      <trkpt lat="46.63638" lon="5.42142">
        <ele>229.6</ele>
        <time>2022-04-16T13:12:47Z</time>
      </trkpt>
      <trkpt lat="46.63621" lon="5.42136">
        <ele>229.2</ele>
        <time>2022-04-16T13:12:49Z</time>
      </trkpt>
      <trkpt lat="46.63613" lon="5.42132">
        <ele>229</ele>
        <time>2022-04-16T13:12:50Z</time>
      </trkpt>
      <trkpt lat="46.63599" lon="5.42117">
        <ele>228.4</ele>
        <time>2022-04-16T13:12:52Z</time>
      </trkpt>
      <trkpt lat="46.63594" lon="5.42107">
        <ele>227.8</ele>
        <time>2022-04-16T13:12:53Z</time>
      </trkpt>
      <trkpt lat="46.63591" lon="5.42095">
        <ele>227.6</ele>
        <time>2022-04-16T13:12:54Z</time>
      </trkpt>
      <trkpt lat="46.63587" lon="5.42084">
        <ele>227.2</ele>
        <time>2022-04-16T13:12:55Z</time>
      </trkpt>
      <trkpt lat="46.63582" lon="5.42073">
        <ele>226.8</ele>
        <time>2022-04-16T13:12:56Z</time>
      </trkpt>
      <trkpt lat="46.63577" lon="5.42063">
        <ele>226.6</ele>
        <time>2022-04-16T13:12:57Z</time>
      </trkpt>
      <trkpt lat="46.63571" lon="5.42054">
        <ele>226.4</ele>
        <time>2022-04-16T13:12:58Z</time>
      </trkpt>
      <trkpt lat="46.63564" lon="5.42047">
        <ele>226.4</ele>
        <time>2022-04-16T13:12:59Z</time>
      </trkpt>
      <trkpt lat="46.63542" lon="5.4203">
        <ele>226.6</ele>
        <time>2022-04-16T13:13:02Z</time>
      </trkpt>
      <trkpt lat="46.63497" lon="5.42001">
        <ele>227</ele>
        <time>2022-04-16T13:13:08Z</time>
      </trkpt>
      <trkpt lat="46.6345" lon="5.41965">
        <ele>227</ele>
        <time>2022-04-16T13:13:14Z</time>
      </trkpt>
      <trkpt lat="46.6341" lon="5.41944">
        <ele>226.6</ele>
        <time>2022-04-16T13:13:19Z</time>
      </trkpt>
      <trkpt lat="46.63363" lon="5.41904">
        <ele>226</ele>
        <time>2022-04-16T13:13:25Z</time>
      </trkpt>
      <trkpt lat="46.63334" lon="5.41866">
        <ele>225.6</ele>
        <time>2022-04-16T13:13:29Z</time>
      </trkpt>
      <trkpt lat="46.63321" lon="5.41846">
        <ele>225.4</ele>
        <time>2022-04-16T13:13:31Z</time>
      </trkpt>
      <trkpt lat="46.63277" lon="5.41781">
        <ele>225.2</ele>
        <time>2022-04-16T13:13:38Z</time>
      </trkpt>
      <trkpt lat="46.6324" lon="5.41732">
        <ele>225.6</ele>
        <time>2022-04-16T13:13:44Z</time>
      </trkpt>
      <trkpt lat="46.63205" lon="5.41672">
        <ele>226.2</ele>
        <time>2022-04-16T13:13:50Z</time>
      </trkpt>
      <trkpt lat="46.63176" lon="5.41605">
        <ele>225.8</ele>
        <time>2022-04-16T13:13:56Z</time>
      </trkpt>
      <trkpt lat="46.63171" lon="5.41594">
        <ele>225.8</ele>
        <time>2022-04-16T13:13:57Z</time>
      </trkpt>
      <trkpt lat="46.63135" lon="5.41519">
        <ele>226</ele>
        <time>2022-04-16T13:14:04Z</time>
      </trkpt>
      <trkpt lat="46.63107" lon="5.41461">
        <ele>226.4</ele>
        <time>2022-04-16T13:14:10Z</time>
      </trkpt>
      <trkpt lat="46.63101" lon="5.41453">
        <ele>226.4</ele>
        <time>2022-04-16T13:14:11Z</time>
      </trkpt>
      <trkpt lat="46.63057" lon="5.41398">
        <ele>226.4</ele>
        <time>2022-04-16T13:14:18Z</time>
      </trkpt>
      <trkpt lat="46.63051" lon="5.4139">
        <ele>226.6</ele>
        <time>2022-04-16T13:14:19Z</time>
      </trkpt>
      <trkpt lat="46.63035" lon="5.41374">
        <ele>226.6</ele>
        <time>2022-04-16T13:14:21Z</time>
      </trkpt>
      <trkpt lat="46.63021" lon="5.41364">
        <ele>226.4</ele>
        <time>2022-04-16T13:14:23Z</time>
      </trkpt>
      <trkpt lat="46.62982" lon="5.41344">
        <ele>226.2</ele>
        <time>2022-04-16T13:14:27Z</time>
      </trkpt>
      <trkpt lat="46.62941" lon="5.41327">
        <ele>224.6</ele>
        <time>2022-04-16T13:14:31Z</time>
      </trkpt>
      <trkpt lat="46.62921" lon="5.41319">
        <ele>222.6</ele>
        <time>2022-04-16T13:14:33Z</time>
      </trkpt>
      <trkpt lat="46.6291" lon="5.41314">
        <ele>222</ele>
        <time>2022-04-16T13:14:34Z</time>
      </trkpt>
      <trkpt lat="46.62897" lon="5.41308">
        <ele>221.4</ele>
        <time>2022-04-16T13:14:35Z</time>
      </trkpt>
      <trkpt lat="46.62864" lon="5.41294">
        <ele>219.8</ele>
        <time>2022-04-16T13:14:38Z</time>
      </trkpt>
      <trkpt lat="46.62844" lon="5.41285">
        <ele>218.2</ele>
        <time>2022-04-16T13:14:40Z</time>
      </trkpt>
      <trkpt lat="46.62819" lon="5.41274">
        <ele>217.2</ele>
        <time>2022-04-16T13:14:42Z</time>
      </trkpt>
      <trkpt lat="46.62796" lon="5.41264">
        <ele>216</ele>
        <time>2022-04-16T13:14:44Z</time>
      </trkpt>
      <trkpt lat="46.62773" lon="5.41255">
        <ele>214.8</ele>
        <time>2022-04-16T13:14:46Z</time>
      </trkpt>
      <trkpt lat="46.6275" lon="5.41244">
        <ele>213.6</ele>
        <time>2022-04-16T13:14:48Z</time>
      </trkpt>
      <trkpt lat="46.62715" lon="5.41229">
        <ele>212.6</ele>
        <time>2022-04-16T13:14:51Z</time>
      </trkpt>
      <trkpt lat="46.62703" lon="5.41225">
        <ele>212.4</ele>
        <time>2022-04-16T13:14:52Z</time>
      </trkpt>
      <trkpt lat="46.62657" lon="5.41205">
        <ele>211</ele>
        <time>2022-04-16T13:14:56Z</time>
      </trkpt>
      <trkpt lat="46.62624" lon="5.4119">
        <ele>210</ele>
        <time>2022-04-16T13:14:59Z</time>
      </trkpt>
      <trkpt lat="46.6259" lon="5.41176">
        <ele>209.6</ele>
        <time>2022-04-16T13:15:02Z</time>
      </trkpt>
      <trkpt lat="46.62559" lon="5.41161">
        <ele>208.6</ele>
        <time>2022-04-16T13:15:05Z</time>
      </trkpt>
      <trkpt lat="46.62515" lon="5.41142">
        <ele>208</ele>
        <time>2022-04-16T13:15:09Z</time>
      </trkpt>
      <trkpt lat="46.62494" lon="5.4113">
        <ele>207.6</ele>
        <time>2022-04-16T13:15:11Z</time>
      </trkpt>
      <trkpt lat="46.62484" lon="5.41122">
        <ele>207.4</ele>
        <time>2022-04-16T13:15:12Z</time>
      </trkpt>
      <trkpt lat="46.62475" lon="5.41112">
        <ele>207.4</ele>
        <time>2022-04-16T13:15:13Z</time>
      </trkpt>
      <trkpt lat="46.62459" lon="5.41088">
        <ele>207</ele>
        <time>2022-04-16T13:15:15Z</time>
      </trkpt>
      <trkpt lat="46.62452" lon="5.41075">
        <ele>206.8</ele>
        <time>2022-04-16T13:15:16Z</time>
      </trkpt>
      <trkpt lat="46.62445" lon="5.41059">
        <ele>206.8</ele>
        <time>2022-04-16T13:15:17Z</time>
      </trkpt>
      <trkpt lat="46.62436" lon="5.41033">
        <ele>206.2</ele>
        <time>2022-04-16T13:15:19Z</time>
      </trkpt>
      <trkpt lat="46.62426" lon="5.41007">
        <ele>206.2</ele>
        <time>2022-04-16T13:15:21Z</time>
      </trkpt>
      <trkpt lat="46.624" lon="5.40943">
        <ele>205.8</ele>
        <time>2022-04-16T13:15:26Z</time>
      </trkpt>
      <trkpt lat="46.62393" lon="5.40932">
        <ele>205.8</ele>
        <time>2022-04-16T13:15:27Z</time>
      </trkpt>
      <trkpt lat="46.62386" lon="5.40921">
        <ele>205.6</ele>
        <time>2022-04-16T13:15:28Z</time>
      </trkpt>
      <trkpt lat="46.62361" lon="5.40897">
        <ele>205.6</ele>
        <time>2022-04-16T13:15:31Z</time>
      </trkpt>
      <trkpt lat="46.62329" lon="5.40864">
        <ele>205.2</ele>
        <time>2022-04-16T13:15:35Z</time>
      </trkpt>
      <trkpt lat="46.62322" lon="5.40854">
        <ele>205.2</ele>
        <time>2022-04-16T13:15:36Z</time>
      </trkpt>
      <trkpt lat="46.62293" lon="5.40808">
        <ele>205</ele>
        <time>2022-04-16T13:15:41Z</time>
      </trkpt>
      <trkpt lat="46.6225" lon="5.40761">
        <ele>204.6</ele>
        <time>2022-04-16T13:15:47Z</time>
      </trkpt>
      <trkpt lat="46.62212" lon="5.40724">
        <ele>204.2</ele>
        <time>2022-04-16T13:15:52Z</time>
      </trkpt>
      <trkpt lat="46.62191" lon="5.40705">
        <ele>204</ele>
        <time>2022-04-16T13:15:55Z</time>
      </trkpt>
      <trkpt lat="46.62163" lon="5.40667">
        <ele>204.2</ele>
        <time>2022-04-16T13:15:59Z</time>
      </trkpt>
      <trkpt lat="46.6215" lon="5.40622">
        <ele>204.4</ele>
        <time>2022-04-16T13:16:03Z</time>
      </trkpt>
      <trkpt lat="46.62123" lon="5.40538">
        <ele>204</ele>
        <time>2022-04-16T13:16:10Z</time>
      </trkpt>
      <trkpt lat="46.62091" lon="5.40475">
        <ele>204</ele>
        <time>2022-04-16T13:16:16Z</time>
      </trkpt>
      <trkpt lat="46.62075" lon="5.40442">
        <ele>204</ele>
        <time>2022-04-16T13:16:19Z</time>
      </trkpt>
      <trkpt lat="46.62056" lon="5.40384">
        <ele>203.6</ele>
        <time>2022-04-16T13:16:24Z</time>
      </trkpt>
      <trkpt lat="46.62037" lon="5.40309">
        <ele>203.6</ele>
        <time>2022-04-16T13:16:30Z</time>
      </trkpt>
      <trkpt lat="46.62028" lon="5.40286">
        <ele>203.4</ele>
        <time>2022-04-16T13:16:32Z</time>
      </trkpt>
      <trkpt lat="46.61997" lon="5.40223">
        <ele>203.2</ele>
        <time>2022-04-16T13:16:38Z</time>
      </trkpt>
      <trkpt lat="46.61959" lon="5.40151">
        <ele>203.6</ele>
        <time>2022-04-16T13:16:45Z</time>
      </trkpt>
      <trkpt lat="46.61955" lon="5.40143">
        <ele>203.6</ele>
        <time>2022-04-16T13:16:46Z</time>
      </trkpt>
      <trkpt lat="46.61921" lon="5.4008">
        <ele>204.2</ele>
        <time>2022-04-16T13:16:52Z</time>
      </trkpt>
      <trkpt lat="46.61898" lon="5.40035">
        <ele>204</ele>
        <time>2022-04-16T13:16:56Z</time>
      </trkpt>
      <trkpt lat="46.61868" lon="5.39965">
        <ele>203.6</ele>
        <time>2022-04-16T13:17:02Z</time>
      </trkpt>
      <trkpt lat="46.61843" lon="5.39894">
        <ele>203.4</ele>
        <time>2022-04-16T13:17:08Z</time>
      </trkpt>
      <trkpt lat="46.61829" lon="5.39856">
        <ele>203.4</ele>
        <time>2022-04-16T13:17:11Z</time>
      </trkpt>
      <trkpt lat="46.61804" lon="5.39785">
        <ele>203.2</ele>
        <time>2022-04-16T13:17:17Z</time>
      </trkpt>
      <trkpt lat="46.618" lon="5.39773">
        <ele>203.2</ele>
        <time>2022-04-16T13:17:18Z</time>
      </trkpt>
      <trkpt lat="46.61792" lon="5.39751">
        <ele>203</ele>
        <time>2022-04-16T13:17:20Z</time>
      </trkpt>
      <trkpt lat="46.61774" lon="5.39675">
        <ele>203</ele>
        <time>2022-04-16T13:17:26Z</time>
      </trkpt>
      <trkpt lat="46.61762" lon="5.39586">
        <ele>203</ele>
        <time>2022-04-16T13:17:33Z</time>
      </trkpt>
      <trkpt lat="46.61757" lon="5.39551">
        <ele>203.2</ele>
        <time>2022-04-16T13:17:36Z</time>
      </trkpt>
      <trkpt lat="46.61755" lon="5.3954">
        <ele>203.2</ele>
        <time>2022-04-16T13:17:37Z</time>
      </trkpt>
      <trkpt lat="46.61747" lon="5.3952">
        <ele>203.2</ele>
        <time>2022-04-16T13:17:39Z</time>
      </trkpt>
      <trkpt lat="46.61726" lon="5.39501">
        <ele>203.4</ele>
        <time>2022-04-16T13:17:42Z</time>
      </trkpt>
      <trkpt lat="46.61719" lon="5.39495">
        <ele>203.6</ele>
        <time>2022-04-16T13:17:43Z</time>
      </trkpt>
      <trkpt lat="46.61702" lon="5.3947">
        <ele>204</ele>
        <time>2022-04-16T13:17:46Z</time>
      </trkpt>
      <trkpt lat="46.61686" lon="5.39443">
        <ele>204.4</ele>
        <time>2022-04-16T13:17:49Z</time>
      </trkpt>
      <trkpt lat="46.61667" lon="5.39413">
        <ele>204.6</ele>
        <time>2022-04-16T13:17:52Z</time>
      </trkpt>
      <trkpt lat="46.61629" lon="5.39353">
        <ele>203.6</ele>
        <time>2022-04-16T13:17:58Z</time>
      </trkpt>
      <trkpt lat="46.61623" lon="5.39343">
        <ele>203.4</ele>
        <time>2022-04-16T13:17:59Z</time>
      </trkpt>
      <trkpt lat="46.61618" lon="5.39333">
        <ele>203.2</ele>
        <time>2022-04-16T13:18:00Z</time>
      </trkpt>
      <trkpt lat="46.61592" lon="5.39268">
        <ele>202.6</ele>
        <time>2022-04-16T13:18:06Z</time>
      </trkpt>
      <trkpt lat="46.61564" lon="5.39194">
        <ele>202.6</ele>
        <time>2022-04-16T13:18:13Z</time>
      </trkpt>
      <trkpt lat="46.6156" lon="5.39183">
        <ele>202.6</ele>
        <time>2022-04-16T13:18:14Z</time>
      </trkpt>
      <trkpt lat="46.61553" lon="5.39149">
        <ele>202.4</ele>
        <time>2022-04-16T13:18:17Z</time>
      </trkpt>
      <trkpt lat="46.61551" lon="5.39126">
        <ele>202.4</ele>
        <time>2022-04-16T13:18:19Z</time>
      </trkpt>
      <trkpt lat="46.61552" lon="5.39103">
        <ele>202.4</ele>
        <time>2022-04-16T13:18:21Z</time>
      </trkpt>
      <trkpt lat="46.61554" lon="5.39091">
        <ele>202.2</ele>
        <time>2022-04-16T13:18:22Z</time>
      </trkpt>
      <trkpt lat="46.61557" lon="5.3908">
        <ele>202.2</ele>
        <time>2022-04-16T13:18:23Z</time>
      </trkpt>
      <trkpt lat="46.61562" lon="5.39059">
        <ele>202</ele>
        <time>2022-04-16T13:18:25Z</time>
      </trkpt>
      <trkpt lat="46.6157" lon="5.3904">
        <ele>202.2</ele>
        <time>2022-04-16T13:18:27Z</time>
      </trkpt>
      <trkpt lat="46.61602" lon="5.3898">
        <ele>202.4</ele>
        <time>2022-04-16T13:18:34Z</time>
      </trkpt>
      <trkpt lat="46.6164" lon="5.38921">
        <ele>202.4</ele>
        <time>2022-04-16T13:18:42Z</time>
      </trkpt>
      <trkpt lat="46.61683" lon="5.38862">
        <ele>202.6</ele>
        <time>2022-04-16T13:18:51Z</time>
      </trkpt>
      <trkpt lat="46.61722" lon="5.38807">
        <ele>203</ele>
        <time>2022-04-16T13:18:59Z</time>
      </trkpt>
      <trkpt lat="46.61737" lon="5.38785">
        <ele>202.8</ele>
        <time>2022-04-16T13:19:02Z</time>
      </trkpt>
      <trkpt lat="46.61762" lon="5.38737">
        <ele>203.2</ele>
        <time>2022-04-16T13:19:08Z</time>
      </trkpt>
      <trkpt lat="46.61783" lon="5.38698">
        <ele>203.4</ele>
        <time>2022-04-16T13:19:13Z</time>
      </trkpt>
      <trkpt lat="46.61782" lon="5.38679">
        <ele>203.6</ele>
        <time>2022-04-16T13:19:15Z</time>
      </trkpt>
      <trkpt lat="46.61773" lon="5.38661">
        <ele>203.6</ele>
        <time>2022-04-16T13:19:17Z</time>
      </trkpt>
      <trkpt lat="46.61768" lon="5.38653">
        <ele>203.4</ele>
        <time>2022-04-16T13:19:18Z</time>
      </trkpt>
      <trkpt lat="46.61759" lon="5.38635">
        <ele>203.4</ele>
        <time>2022-04-16T13:19:20Z</time>
      </trkpt>
      <trkpt lat="46.61753" lon="5.38615">
        <ele>203.4</ele>
        <time>2022-04-16T13:19:22Z</time>
      </trkpt>
      <trkpt lat="46.61748" lon="5.3856">
        <ele>203.4</ele>
        <time>2022-04-16T13:19:27Z</time>
      </trkpt>
      <trkpt lat="46.61749" lon="5.3855">
        <ele>203.4</ele>
        <time>2022-04-16T13:19:28Z</time>
      </trkpt>
      <trkpt lat="46.61759" lon="5.385">
        <ele>203.4</ele>
        <time>2022-04-16T13:19:33Z</time>
      </trkpt>
      <trkpt lat="46.61773" lon="5.38421">
        <ele>203.6</ele>
        <time>2022-04-16T13:19:41Z</time>
      </trkpt>
      <trkpt lat="46.61774" lon="5.38411">
        <ele>203.6</ele>
        <time>2022-04-16T13:19:42Z</time>
      </trkpt>
      <trkpt lat="46.61779" lon="5.3838">
        <ele>203.6</ele>
        <time>2022-04-16T13:19:45Z</time>
      </trkpt>
      <trkpt lat="46.61786" lon="5.38362">
        <ele>203.4</ele>
        <time>2022-04-16T13:19:47Z</time>
      </trkpt>
      <trkpt lat="46.61796" lon="5.38349">
        <ele>203.4</ele>
        <time>2022-04-16T13:19:49Z</time>
      </trkpt>
      <trkpt lat="46.61808" lon="5.38339">
        <ele>203.4</ele>
        <time>2022-04-16T13:19:51Z</time>
      </trkpt>
      <trkpt lat="46.61819" lon="5.38327">
        <ele>203.4</ele>
        <time>2022-04-16T13:19:53Z</time>
      </trkpt>
      <trkpt lat="46.61828" lon="5.38313">
        <ele>203.4</ele>
        <time>2022-04-16T13:19:55Z</time>
      </trkpt>
      <trkpt lat="46.61862" lon="5.38256">
        <ele>203.6</ele>
        <time>2022-04-16T13:20:03Z</time>
      </trkpt>
      <trkpt lat="46.61872" lon="5.38249">
        <ele>203.6</ele>
        <time>2022-04-16T13:20:05Z</time>
      </trkpt>
      <trkpt lat="46.61879" lon="5.38247">
        <ele>203.6</ele>
        <time>2022-04-16T13:20:06Z</time>
      </trkpt>
      <trkpt lat="46.61886" lon="5.38248">
        <ele>203.6</ele>
        <time>2022-04-16T13:20:07Z</time>
      </trkpt>
      <trkpt lat="46.61898" lon="5.38255">
        <ele>203.8</ele>
        <time>2022-04-16T13:20:09Z</time>
      </trkpt>
      <trkpt lat="46.61919" lon="5.38274">
        <ele>204.6</ele>
        <time>2022-04-16T13:20:13Z</time>
      </trkpt>
      <trkpt lat="46.61928" lon="5.38284">
        <ele>204.6</ele>
        <time>2022-04-16T13:20:15Z</time>
      </trkpt>
      <trkpt lat="46.61943" lon="5.38296">
        <ele>204.6</ele>
        <time>2022-04-16T13:20:18Z</time>
      </trkpt>
      <trkpt lat="46.61949" lon="5.38298">
        <ele>204.6</ele>
        <time>2022-04-16T13:20:19Z</time>
      </trkpt>
      <trkpt lat="46.61956" lon="5.38297">
        <ele>204.8</ele>
        <time>2022-04-16T13:20:20Z</time>
      </trkpt>
      <trkpt lat="46.61965" lon="5.38289">
        <ele>205</ele>
        <time>2022-04-16T13:20:22Z</time>
      </trkpt>
      <trkpt lat="46.61971" lon="5.38274">
        <ele>205</ele>
        <time>2022-04-16T13:20:24Z</time>
      </trkpt>
      <trkpt lat="46.61973" lon="5.38265">
        <ele>205</ele>
        <time>2022-04-16T13:20:25Z</time>
      </trkpt>
      <trkpt lat="46.6198" lon="5.38224">
        <ele>205.8</ele>
        <time>2022-04-16T13:20:30Z</time>
      </trkpt>
      <trkpt lat="46.61982" lon="5.38216">
        <ele>205.8</ele>
        <time>2022-04-16T13:20:31Z</time>
      </trkpt>
      <trkpt lat="46.61987" lon="5.3818">
        <ele>206.4</ele>
        <time>2022-04-16T13:20:35Z</time>
      </trkpt>
      <trkpt lat="46.6199" lon="5.38163">
        <ele>207</ele>
        <time>2022-04-16T13:20:37Z</time>
      </trkpt>
      <trkpt lat="46.61993" lon="5.38152">
        <ele>207</ele>
        <time>2022-04-16T13:20:38Z</time>
      </trkpt>
      <trkpt lat="46.61996" lon="5.38142">
        <ele>207</ele>
        <time>2022-04-16T13:20:39Z</time>
      </trkpt>
      <trkpt lat="46.62018" lon="5.38065">
        <ele>206</ele>
        <time>2022-04-16T13:20:47Z</time>
      </trkpt>
      <trkpt lat="46.62022" lon="5.38045">
        <ele>205.8</ele>
        <time>2022-04-16T13:20:49Z</time>
      </trkpt>
      <trkpt lat="46.62032" lon="5.37998">
        <ele>205.2</ele>
        <time>2022-04-16T13:20:54Z</time>
      </trkpt>
      <trkpt lat="46.62041" lon="5.37954">
        <ele>205.2</ele>
        <time>2022-04-16T13:20:59Z</time>
      </trkpt>
      <trkpt lat="46.62056" lon="5.37887">
        <ele>204.8</ele>
        <time>2022-04-16T13:21:06Z</time>
      </trkpt>
      <trkpt lat="46.62066" lon="5.3785">
        <ele>204.4</ele>
        <time>2022-04-16T13:21:10Z</time>
      </trkpt>
      <trkpt lat="46.62083" lon="5.37803">
        <ele>204.8</ele>
        <time>2022-04-16T13:21:16Z</time>
      </trkpt>
      <trkpt lat="46.62099" lon="5.37779">
        <ele>205.8</ele>
        <time>2022-04-16T13:21:20Z</time>
      </trkpt>
      <trkpt lat="46.62103" lon="5.37773">
        <ele>206</ele>
        <time>2022-04-16T13:21:21Z</time>
      </trkpt>
      <trkpt lat="46.62107" lon="5.37768">
        <ele>206.2</ele>
        <time>2022-04-16T13:21:22Z</time>
      </trkpt>
      <trkpt lat="46.62128" lon="5.37742">
        <ele>207</ele>
        <time>2022-04-16T13:21:27Z</time>
      </trkpt>
      <trkpt lat="46.62149" lon="5.37716">
        <ele>208.2</ele>
        <time>2022-04-16T13:21:32Z</time>
      </trkpt>
      <trkpt lat="46.62167" lon="5.37693">
        <ele>209.2</ele>
        <time>2022-04-16T13:21:36Z</time>
      </trkpt>
      <trkpt lat="46.62185" lon="5.37668">
        <ele>209.8</ele>
        <time>2022-04-16T13:21:40Z</time>
      </trkpt>
      <trkpt lat="46.62205" lon="5.37624">
        <ele>210</ele>
        <time>2022-04-16T13:21:46Z</time>
      </trkpt>
      <trkpt lat="46.62208" lon="5.37615">
        <ele>210.2</ele>
        <time>2022-04-16T13:21:47Z</time>
      </trkpt>
      <trkpt lat="46.62211" lon="5.37598">
        <ele>210.2</ele>
        <time>2022-04-16T13:21:49Z</time>
      </trkpt>
      <trkpt lat="46.62212" lon="5.3758">
        <ele>210.2</ele>
        <time>2022-04-16T13:21:51Z</time>
      </trkpt>
      <trkpt lat="46.62213" lon="5.37571">
        <ele>210.2</ele>
        <time>2022-04-16T13:21:52Z</time>
      </trkpt>
      <trkpt lat="46.6222" lon="5.37557">
        <ele>210.4</ele>
        <time>2022-04-16T13:21:54Z</time>
      </trkpt>
      <trkpt lat="46.62229" lon="5.37555">
        <ele>210.6</ele>
        <time>2022-04-16T13:21:56Z</time>
      </trkpt>
      <trkpt lat="46.62234" lon="5.37556">
        <ele>210.6</ele>
        <time>2022-04-16T13:21:57Z</time>
      </trkpt>
      <trkpt lat="46.62241" lon="5.37559">
        <ele>211</ele>
        <time>2022-04-16T13:22:01Z</time>
      </trkpt>
      <trkpt lat="46.62241" lon="5.3756">
        <ele>211.6</ele>
        <time>2022-04-16T13:22:04Z</time>
      </trkpt>
      <trkpt lat="46.62237" lon="5.37557">
        <ele>211.6</ele>
        <time>2022-04-16T13:23:03Z</time>
      </trkpt>
      <trkpt lat="46.62234" lon="5.37555">
        <ele>211.6</ele>
        <time>2022-04-16T13:23:04Z</time>
      </trkpt>
      <trkpt lat="46.6222" lon="5.3755">
        <ele>211.4</ele>
        <time>2022-04-16T13:23:07Z</time>
      </trkpt>
      <trkpt lat="46.62214" lon="5.37545">
        <ele>211.4</ele>
        <time>2022-04-16T13:23:08Z</time>
      </trkpt>
      <trkpt lat="46.62209" lon="5.37538">
        <ele>211.2</ele>
        <time>2022-04-16T13:23:09Z</time>
      </trkpt>
      <trkpt lat="46.62203" lon="5.3752">
        <ele>211</ele>
        <time>2022-04-16T13:23:11Z</time>
      </trkpt>
      <trkpt lat="46.62197" lon="5.375">
        <ele>210.4</ele>
        <time>2022-04-16T13:23:13Z</time>
      </trkpt>
      <trkpt lat="46.62188" lon="5.37483">
        <ele>210</ele>
        <time>2022-04-16T13:23:15Z</time>
      </trkpt>
      <trkpt lat="46.62177" lon="5.37467">
        <ele>209.6</ele>
        <time>2022-04-16T13:23:17Z</time>
      </trkpt>
      <trkpt lat="46.62171" lon="5.3746">
        <ele>209.2</ele>
        <time>2022-04-16T13:23:18Z</time>
      </trkpt>
      <trkpt lat="46.62159" lon="5.37446">
        <ele>209.2</ele>
        <time>2022-04-16T13:23:20Z</time>
      </trkpt>
      <trkpt lat="46.62117" lon="5.37397">
        <ele>208.6</ele>
        <time>2022-04-16T13:23:27Z</time>
      </trkpt>
      <trkpt lat="46.62111" lon="5.3739">
        <ele>208.2</ele>
        <time>2022-04-16T13:23:28Z</time>
      </trkpt>
      <trkpt lat="46.62067" lon="5.3734">
        <ele>207.4</ele>
        <time>2022-04-16T13:23:35Z</time>
      </trkpt>
      <trkpt lat="46.62047" lon="5.37318">
        <ele>207.2</ele>
        <time>2022-04-16T13:23:38Z</time>
      </trkpt>
      <trkpt lat="46.62021" lon="5.37288">
        <ele>206.4</ele>
        <time>2022-04-16T13:23:42Z</time>
      </trkpt>
      <trkpt lat="46.62001" lon="5.37262">
        <ele>206</ele>
        <time>2022-04-16T13:23:45Z</time>
      </trkpt>
      <trkpt lat="46.61989" lon="5.37242">
        <ele>205.4</ele>
        <time>2022-04-16T13:23:47Z</time>
      </trkpt>
      <trkpt lat="46.61971" lon="5.37194">
        <ele>204.6</ele>
        <time>2022-04-16T13:23:51Z</time>
      </trkpt>
      <trkpt lat="46.61959" lon="5.37155">
        <ele>203.4</ele>
        <time>2022-04-16T13:23:54Z</time>
      </trkpt>
      <trkpt lat="46.61951" lon="5.3713">
        <ele>202.2</ele>
        <time>2022-04-16T13:23:56Z</time>
      </trkpt>
      <trkpt lat="46.61946" lon="5.37117">
        <ele>202</ele>
        <time>2022-04-16T13:23:57Z</time>
      </trkpt>
      <trkpt lat="46.61928" lon="5.37068">
        <ele>201</ele>
        <time>2022-04-16T13:24:01Z</time>
      </trkpt>
      <trkpt lat="46.61913" lon="5.3703">
        <ele>201</ele>
        <time>2022-04-16T13:24:04Z</time>
      </trkpt>
      <trkpt lat="46.61894" lon="5.36961">
        <ele>200.8</ele>
        <time>2022-04-16T13:24:10Z</time>
      </trkpt>
      <trkpt lat="46.61891" lon="5.36936">
        <ele>201</ele>
        <time>2022-04-16T13:24:12Z</time>
      </trkpt>
      <trkpt lat="46.61891" lon="5.36912">
        <ele>201</ele>
        <time>2022-04-16T13:24:14Z</time>
      </trkpt>
      <trkpt lat="46.61899" lon="5.36842">
        <ele>201.6</ele>
        <time>2022-04-16T13:24:20Z</time>
      </trkpt>
      <trkpt lat="46.61915" lon="5.36781">
        <ele>201.8</ele>
        <time>2022-04-16T13:24:26Z</time>
      </trkpt>
      <trkpt lat="46.61926" lon="5.36744">
        <ele>202.2</ele>
        <time>2022-04-16T13:24:30Z</time>
      </trkpt>
      <trkpt lat="46.61936" lon="5.36709">
        <ele>202.2</ele>
        <time>2022-04-16T13:24:34Z</time>
      </trkpt>
      <trkpt lat="46.61955" lon="5.36645">
        <ele>202.8</ele>
        <time>2022-04-16T13:24:42Z</time>
      </trkpt>
      <trkpt lat="46.61957" lon="5.36637">
        <ele>202.8</ele>
        <time>2022-04-16T13:24:43Z</time>
      </trkpt>
      <trkpt lat="46.61958" lon="5.36621">
        <ele>203.2</ele>
        <time>2022-04-16T13:24:45Z</time>
      </trkpt>
      <trkpt lat="46.61958" lon="5.36614">
        <ele>203.4</ele>
        <time>2022-04-16T13:24:46Z</time>
      </trkpt>
      <trkpt lat="46.61955" lon="5.36601">
        <ele>203.8</ele>
        <time>2022-04-16T13:24:48Z</time>
      </trkpt>
      <trkpt lat="46.61953" lon="5.36596">
        <ele>204.2</ele>
        <time>2022-04-16T13:24:49Z</time>
      </trkpt>
      <trkpt lat="46.6195" lon="5.36591">
        <ele>204.6</ele>
        <time>2022-04-16T13:24:50Z</time>
      </trkpt>
      <trkpt lat="46.61943" lon="5.36581">
        <ele>205.4</ele>
        <time>2022-04-16T13:24:52Z</time>
      </trkpt>
      <trkpt lat="46.61935" lon="5.36572">
        <ele>206</ele>
        <time>2022-04-16T13:24:54Z</time>
      </trkpt>
      <trkpt lat="46.61927" lon="5.36564">
        <ele>206.8</ele>
        <time>2022-04-16T13:24:56Z</time>
      </trkpt>
      <trkpt lat="46.6191" lon="5.36547">
        <ele>207.8</ele>
        <time>2022-04-16T13:25:00Z</time>
      </trkpt>
      <trkpt lat="46.61897" lon="5.36535">
        <ele>208.6</ele>
        <time>2022-04-16T13:25:03Z</time>
      </trkpt>
      <trkpt lat="46.61888" lon="5.36527">
        <ele>209</ele>
        <time>2022-04-16T13:25:05Z</time>
      </trkpt>
      <trkpt lat="46.61865" lon="5.36508">
        <ele>210.2</ele>
        <time>2022-04-16T13:25:10Z</time>
      </trkpt>
      <trkpt lat="46.61849" lon="5.36496">
        <ele>210.4</ele>
        <time>2022-04-16T13:25:13Z</time>
      </trkpt>
      <trkpt lat="46.61818" lon="5.36474">
        <ele>211.2</ele>
        <time>2022-04-16T13:25:19Z</time>
      </trkpt>
      <trkpt lat="46.61807" lon="5.36466">
        <ele>211.2</ele>
        <time>2022-04-16T13:25:21Z</time>
      </trkpt>
      <trkpt lat="46.61773" lon="5.36436">
        <ele>211.2</ele>
        <time>2022-04-16T13:25:27Z</time>
      </trkpt>
      <trkpt lat="46.61768" lon="5.36429">
        <ele>211.2</ele>
        <time>2022-04-16T13:25:28Z</time>
      </trkpt>
      <trkpt lat="46.61749" lon="5.36402">
        <ele>211.2</ele>
        <time>2022-04-16T13:25:32Z</time>
      </trkpt>
      <trkpt lat="46.61731" lon="5.36387">
        <ele>211.6</ele>
        <time>2022-04-16T13:25:35Z</time>
      </trkpt>
      <trkpt lat="46.61725" lon="5.36385">
        <ele>211.6</ele>
        <time>2022-04-16T13:25:36Z</time>
      </trkpt>
      <trkpt lat="46.61712" lon="5.36382">
        <ele>212.2</ele>
        <time>2022-04-16T13:25:38Z</time>
      </trkpt>
      <trkpt lat="46.61698" lon="5.36383">
        <ele>212.6</ele>
        <time>2022-04-16T13:25:40Z</time>
      </trkpt>
      <trkpt lat="46.61669" lon="5.36394">
        <ele>212.6</ele>
        <time>2022-04-16T13:25:44Z</time>
      </trkpt>
      <trkpt lat="46.61654" lon="5.36394">
        <ele>212.6</ele>
        <time>2022-04-16T13:25:46Z</time>
      </trkpt>
      <trkpt lat="46.61647" lon="5.3639">
        <ele>212.2</ele>
        <time>2022-04-16T13:25:47Z</time>
      </trkpt>
      <trkpt lat="46.6164" lon="5.36385">
        <ele>212.2</ele>
        <time>2022-04-16T13:25:48Z</time>
      </trkpt>
      <trkpt lat="46.61631" lon="5.3637">
        <ele>211.8</ele>
        <time>2022-04-16T13:25:50Z</time>
      </trkpt>
      <trkpt lat="46.61621" lon="5.36334">
        <ele>212.4</ele>
        <time>2022-04-16T13:25:54Z</time>
      </trkpt>
      <trkpt lat="46.61617" lon="5.36326">
        <ele>212.4</ele>
        <time>2022-04-16T13:25:55Z</time>
      </trkpt>
      <trkpt lat="46.61607" lon="5.36312">
        <ele>213.2</ele>
        <time>2022-04-16T13:25:57Z</time>
      </trkpt>
      <trkpt lat="46.61601" lon="5.36307">
        <ele>213.8</ele>
        <time>2022-04-16T13:25:58Z</time>
      </trkpt>
      <trkpt lat="46.61595" lon="5.36302">
        <ele>214</ele>
        <time>2022-04-16T13:25:59Z</time>
      </trkpt>
      <trkpt lat="46.61561" lon="5.3628">
        <ele>214.8</ele>
        <time>2022-04-16T13:26:04Z</time>
      </trkpt>
      <trkpt lat="46.61554" lon="5.36276">
        <ele>215</ele>
        <time>2022-04-16T13:26:05Z</time>
      </trkpt>
      <trkpt lat="46.61512" lon="5.36251">
        <ele>215</ele>
        <time>2022-04-16T13:26:11Z</time>
      </trkpt>
      <trkpt lat="46.61505" lon="5.36249">
        <ele>215.2</ele>
        <time>2022-04-16T13:26:12Z</time>
      </trkpt>
      <trkpt lat="46.6149" lon="5.36246">
        <ele>215.4</ele>
        <time>2022-04-16T13:26:14Z</time>
      </trkpt>
      <trkpt lat="46.61475" lon="5.36248">
        <ele>215.4</ele>
        <time>2022-04-16T13:26:16Z</time>
      </trkpt>
      <trkpt lat="46.61429" lon="5.36255">
        <ele>215.4</ele>
        <time>2022-04-16T13:26:22Z</time>
      </trkpt>
      <trkpt lat="46.61414" lon="5.3625">
        <ele>215.4</ele>
        <time>2022-04-16T13:26:24Z</time>
      </trkpt>
      <trkpt lat="46.614" lon="5.36242">
        <ele>215.4</ele>
        <time>2022-04-16T13:26:26Z</time>
      </trkpt>
      <trkpt lat="46.61348" lon="5.36209">
        <ele>214.6</ele>
        <time>2022-04-16T13:26:33Z</time>
      </trkpt>
      <trkpt lat="46.61339" lon="5.36205">
        <ele>214.6</ele>
        <time>2022-04-16T13:26:34Z</time>
      </trkpt>
      <trkpt lat="46.61284" lon="5.36188">
        <ele>214.2</ele>
        <time>2022-04-16T13:26:40Z</time>
      </trkpt>
      <trkpt lat="46.61267" lon="5.36178">
        <ele>214</ele>
        <time>2022-04-16T13:26:42Z</time>
      </trkpt>
      <trkpt lat="46.61251" lon="5.36165">
        <ele>213.8</ele>
        <time>2022-04-16T13:26:44Z</time>
      </trkpt>
      <trkpt lat="46.61244" lon="5.36157">
        <ele>213.6</ele>
        <time>2022-04-16T13:26:45Z</time>
      </trkpt>
      <trkpt lat="46.6123" lon="5.36138">
        <ele>213.6</ele>
        <time>2022-04-16T13:26:47Z</time>
      </trkpt>
      <trkpt lat="46.61226" lon="5.3613">
        <ele>213.6</ele>
        <time>2022-04-16T13:26:48Z</time>
      </trkpt>
      <trkpt lat="46.61197" lon="5.36067">
        <ele>214.2</ele>
        <time>2022-04-16T13:26:54Z</time>
      </trkpt>
      <trkpt lat="46.61191" lon="5.36055">
        <ele>214.4</ele>
        <time>2022-04-16T13:26:55Z</time>
      </trkpt>
      <trkpt lat="46.61179" lon="5.36039">
        <ele>214.4</ele>
        <time>2022-04-16T13:26:57Z</time>
      </trkpt>
      <trkpt lat="46.61172" lon="5.36032">
        <ele>214.4</ele>
        <time>2022-04-16T13:26:58Z</time>
      </trkpt>
      <trkpt lat="46.61124" lon="5.35998">
        <ele>214.4</ele>
        <time>2022-04-16T13:27:04Z</time>
      </trkpt>
      <trkpt lat="46.61087" lon="5.3596">
        <ele>214</ele>
        <time>2022-04-16T13:27:09Z</time>
      </trkpt>
      <trkpt lat="46.61065" lon="5.35919">
        <ele>214</ele>
        <time>2022-04-16T13:27:13Z</time>
      </trkpt>
      <trkpt lat="46.6103" lon="5.35846">
        <ele>214.2</ele>
        <time>2022-04-16T13:27:20Z</time>
      </trkpt>
      <trkpt lat="46.61019" lon="5.35825">
        <ele>214.2</ele>
        <time>2022-04-16T13:27:22Z</time>
      </trkpt>
      <trkpt lat="46.60983" lon="5.35751">
        <ele>214.2</ele>
        <time>2022-04-16T13:27:29Z</time>
      </trkpt>
      <trkpt lat="46.60974" lon="5.3573">
        <ele>214.2</ele>
        <time>2022-04-16T13:27:31Z</time>
      </trkpt>
      <trkpt lat="46.60949" lon="5.35667">
        <ele>214.6</ele>
        <time>2022-04-16T13:27:37Z</time>
      </trkpt>
      <trkpt lat="46.60942" lon="5.35645">
        <ele>214.6</ele>
        <time>2022-04-16T13:27:39Z</time>
      </trkpt>
      <trkpt lat="46.60939" lon="5.35621">
        <ele>214.6</ele>
        <time>2022-04-16T13:27:41Z</time>
      </trkpt>
      <trkpt lat="46.60941" lon="5.35599">
        <ele>214.6</ele>
        <time>2022-04-16T13:27:43Z</time>
      </trkpt>
      <trkpt lat="46.60944" lon="5.35586">
        <ele>214.8</ele>
        <time>2022-04-16T13:27:44Z</time>
      </trkpt>
      <trkpt lat="46.60953" lon="5.35524">
        <ele>215.2</ele>
        <time>2022-04-16T13:27:50Z</time>
      </trkpt>
      <trkpt lat="46.6095" lon="5.35469">
        <ele>215.6</ele>
        <time>2022-04-16T13:27:55Z</time>
      </trkpt>
      <trkpt lat="46.60949" lon="5.35458">
        <ele>215.8</ele>
        <time>2022-04-16T13:27:56Z</time>
      </trkpt>
      <trkpt lat="46.60942" lon="5.35438">
        <ele>216</ele>
        <time>2022-04-16T13:27:58Z</time>
      </trkpt>
      <trkpt lat="46.60929" lon="5.35422">
        <ele>216.2</ele>
        <time>2022-04-16T13:28:00Z</time>
      </trkpt>
      <trkpt lat="46.60921" lon="5.35415">
        <ele>216.6</ele>
        <time>2022-04-16T13:28:01Z</time>
      </trkpt>
      <trkpt lat="46.60876" lon="5.35392">
        <ele>216.8</ele>
        <time>2022-04-16T13:28:07Z</time>
      </trkpt>
      <trkpt lat="46.60868" lon="5.35391">
        <ele>216.8</ele>
        <time>2022-04-16T13:28:08Z</time>
      </trkpt>
      <trkpt lat="46.60859" lon="5.35392">
        <ele>216.8</ele>
        <time>2022-04-16T13:28:09Z</time>
      </trkpt>
      <trkpt lat="46.60843" lon="5.35401">
        <ele>216.8</ele>
        <time>2022-04-16T13:28:11Z</time>
      </trkpt>
      <trkpt lat="46.60809" lon="5.35423">
        <ele>216.6</ele>
        <time>2022-04-16T13:28:15Z</time>
      </trkpt>
      <trkpt lat="46.60801" lon="5.35425">
        <ele>216.2</ele>
        <time>2022-04-16T13:28:16Z</time>
      </trkpt>
      <trkpt lat="46.60792" lon="5.35426">
        <ele>215.8</ele>
        <time>2022-04-16T13:28:17Z</time>
      </trkpt>
      <trkpt lat="46.60773" lon="5.3542">
        <ele>215.4</ele>
        <time>2022-04-16T13:28:19Z</time>
      </trkpt>
      <trkpt lat="46.60755" lon="5.3541">
        <ele>214.6</ele>
        <time>2022-04-16T13:28:21Z</time>
      </trkpt>
      <trkpt lat="46.60739" lon="5.35397">
        <ele>214</ele>
        <time>2022-04-16T13:28:23Z</time>
      </trkpt>
      <trkpt lat="46.60731" lon="5.35388">
        <ele>213.8</ele>
        <time>2022-04-16T13:28:24Z</time>
      </trkpt>
      <trkpt lat="46.60723" lon="5.35378">
        <ele>213.6</ele>
        <time>2022-04-16T13:28:25Z</time>
      </trkpt>
      <trkpt lat="46.60702" lon="5.35346">
        <ele>212.8</ele>
        <time>2022-04-16T13:28:28Z</time>
      </trkpt>
      <trkpt lat="46.60687" lon="5.35325">
        <ele>211.8</ele>
        <time>2022-04-16T13:28:30Z</time>
      </trkpt>
      <trkpt lat="46.60671" lon="5.35306">
        <ele>210.8</ele>
        <time>2022-04-16T13:28:32Z</time>
      </trkpt>
      <trkpt lat="46.60632" lon="5.35281">
        <ele>209.2</ele>
        <time>2022-04-16T13:28:36Z</time>
      </trkpt>
      <trkpt lat="46.60623" lon="5.35274">
        <ele>209</ele>
        <time>2022-04-16T13:28:37Z</time>
      </trkpt>
      <trkpt lat="46.60605" lon="5.35258">
        <ele>208.2</ele>
        <time>2022-04-16T13:28:39Z</time>
      </trkpt>
      <trkpt lat="46.60589" lon="5.35237">
        <ele>207.4</ele>
        <time>2022-04-16T13:28:41Z</time>
      </trkpt>
      <trkpt lat="46.60575" lon="5.35216">
        <ele>206.8</ele>
        <time>2022-04-16T13:28:43Z</time>
      </trkpt>
      <trkpt lat="46.60563" lon="5.35199">
        <ele>205.8</ele>
        <time>2022-04-16T13:28:45Z</time>
      </trkpt>
      <trkpt lat="46.60559" lon="5.35192">
        <ele>205.4</ele>
        <time>2022-04-16T13:28:46Z</time>
      </trkpt>
      <trkpt lat="46.60554" lon="5.35176">
        <ele>205</ele>
        <time>2022-04-16T13:28:48Z</time>
      </trkpt>
      <trkpt lat="46.60555" lon="5.35168">
        <ele>204.8</ele>
        <time>2022-04-16T13:28:49Z</time>
      </trkpt>
      <trkpt lat="46.60556" lon="5.35159">
        <ele>204.8</ele>
        <time>2022-04-16T13:28:50Z</time>
      </trkpt>
      <trkpt lat="46.6056" lon="5.3513">
        <ele>204.6</ele>
        <time>2022-04-16T13:28:53Z</time>
      </trkpt>
      <trkpt lat="46.60561" lon="5.3512">
        <ele>204.6</ele>
        <time>2022-04-16T13:28:54Z</time>
      </trkpt>
      <trkpt lat="46.6056" lon="5.35075">
        <ele>204.6</ele>
        <time>2022-04-16T13:28:58Z</time>
      </trkpt>
      <trkpt lat="46.60556" lon="5.35001">
        <ele>204</ele>
        <time>2022-04-16T13:29:04Z</time>
      </trkpt>
      <trkpt lat="46.60555" lon="5.34974">
        <ele>203.6</ele>
        <time>2022-04-16T13:29:06Z</time>
      </trkpt>
      <trkpt lat="46.60554" lon="5.34946">
        <ele>202.4</ele>
        <time>2022-04-16T13:29:08Z</time>
      </trkpt>
      <trkpt lat="46.60552" lon="5.34902">
        <ele>201.6</ele>
        <time>2022-04-16T13:29:11Z</time>
      </trkpt>
      <trkpt lat="46.60551" lon="5.34889">
        <ele>201.4</ele>
        <time>2022-04-16T13:29:12Z</time>
      </trkpt>
      <trkpt lat="46.60549" lon="5.34835">
        <ele>200.4</ele>
        <time>2022-04-16T13:29:16Z</time>
      </trkpt>
      <trkpt lat="46.60547" lon="5.348">
        <ele>200.2</ele>
        <time>2022-04-16T13:29:19Z</time>
      </trkpt>
      <trkpt lat="46.60544" lon="5.34736">
        <ele>201.4</ele>
        <time>2022-04-16T13:29:25Z</time>
      </trkpt>
      <trkpt lat="46.60542" lon="5.34706">
        <ele>202.8</ele>
        <time>2022-04-16T13:29:28Z</time>
      </trkpt>
      <trkpt lat="46.6054" lon="5.34669">
        <ele>203.8</ele>
        <time>2022-04-16T13:29:32Z</time>
      </trkpt>
      <trkpt lat="46.60537" lon="5.34594">
        <ele>205</ele>
        <time>2022-04-16T13:29:40Z</time>
      </trkpt>
      <trkpt lat="46.60536" lon="5.34584">
        <ele>205</ele>
        <time>2022-04-16T13:29:41Z</time>
      </trkpt>
      <trkpt lat="46.60533" lon="5.34511">
        <ele>204.6</ele>
        <time>2022-04-16T13:29:48Z</time>
      </trkpt>
      <trkpt lat="46.60529" lon="5.34431">
        <ele>205.8</ele>
        <time>2022-04-16T13:29:56Z</time>
      </trkpt>
      <trkpt lat="46.60529" lon="5.34424">
        <ele>206</ele>
        <time>2022-04-16T13:29:57Z</time>
      </trkpt>
      <trkpt lat="46.60529" lon="5.34413">
        <ele>206.2</ele>
        <time>2022-04-16T13:29:58Z</time>
      </trkpt>
      <trkpt lat="46.60527" lon="5.34375">
        <ele>207.2</ele>
        <time>2022-04-16T13:30:03Z</time>
      </trkpt>
      <trkpt lat="46.60526" lon="5.34366">
        <ele>207.4</ele>
        <time>2022-04-16T13:30:04Z</time>
      </trkpt>
      <trkpt lat="46.60526" lon="5.34344">
        <ele>208</ele>
        <time>2022-04-16T13:30:07Z</time>
      </trkpt>
      <trkpt lat="46.60526" lon="5.34337">
        <ele>208.2</ele>
        <time>2022-04-16T13:30:08Z</time>
      </trkpt>
      <trkpt lat="46.60525" lon="5.34331">
        <ele>208.4</ele>
        <time>2022-04-16T13:30:09Z</time>
      </trkpt>
      <trkpt lat="46.60524" lon="5.34302">
        <ele>209.6</ele>
        <time>2022-04-16T13:30:13Z</time>
      </trkpt>
      <trkpt lat="46.60523" lon="5.34281">
        <ele>210.8</ele>
        <time>2022-04-16T13:30:16Z</time>
      </trkpt>
      <trkpt lat="46.60522" lon="5.34273">
        <ele>211</ele>
        <time>2022-04-16T13:30:17Z</time>
      </trkpt>
      <trkpt lat="46.60521" lon="5.34246">
        <ele>212</ele>
        <time>2022-04-16T13:30:21Z</time>
      </trkpt>
      <trkpt lat="46.60519" lon="5.34212">
        <ele>213.4</ele>
        <time>2022-04-16T13:30:26Z</time>
      </trkpt>
      <trkpt lat="46.60518" lon="5.34205">
        <ele>213.4</ele>
        <time>2022-04-16T13:30:27Z</time>
      </trkpt>
      <trkpt lat="46.60516" lon="5.3419">
        <ele>214</ele>
        <time>2022-04-16T13:30:29Z</time>
      </trkpt>
      <trkpt lat="46.60513" lon="5.34177">
        <ele>214.4</ele>
        <time>2022-04-16T13:30:31Z</time>
      </trkpt>
      <trkpt lat="46.60508" lon="5.34165">
        <ele>214.6</ele>
        <time>2022-04-16T13:30:33Z</time>
      </trkpt>
      <trkpt lat="46.60495" lon="5.34141">
        <ele>215.6</ele>
        <time>2022-04-16T13:30:37Z</time>
      </trkpt>
      <trkpt lat="46.60487" lon="5.34127">
        <ele>216</ele>
        <time>2022-04-16T13:30:39Z</time>
      </trkpt>
      <trkpt lat="46.60471" lon="5.34102">
        <ele>216.6</ele>
        <time>2022-04-16T13:30:43Z</time>
      </trkpt>
      <trkpt lat="46.60458" lon="5.3408">
        <ele>217.2</ele>
        <time>2022-04-16T13:30:46Z</time>
      </trkpt>
      <trkpt lat="46.6045" lon="5.34062">
        <ele>217.4</ele>
        <time>2022-04-16T13:30:48Z</time>
      </trkpt>
      <trkpt lat="46.60448" lon="5.34055">
        <ele>217.8</ele>
        <time>2022-04-16T13:30:49Z</time>
      </trkpt>
      <trkpt lat="46.60442" lon="5.34034">
        <ele>218</ele>
        <time>2022-04-16T13:30:51Z</time>
      </trkpt>
      <trkpt lat="46.60431" lon="5.33971">
        <ele>218</ele>
        <time>2022-04-16T13:30:57Z</time>
      </trkpt>
      <trkpt lat="46.60422" lon="5.33892">
        <ele>217.8</ele>
        <time>2022-04-16T13:31:04Z</time>
      </trkpt>
      <trkpt lat="46.60421" lon="5.33881">
        <ele>217.8</ele>
        <time>2022-04-16T13:31:05Z</time>
      </trkpt>
      <trkpt lat="46.60426" lon="5.33815">
        <ele>217.8</ele>
        <time>2022-04-16T13:31:11Z</time>
      </trkpt>
      <trkpt lat="46.60434" lon="5.33734">
        <ele>217.2</ele>
        <time>2022-04-16T13:31:18Z</time>
      </trkpt>
      <trkpt lat="46.60436" lon="5.33703">
        <ele>217</ele>
        <time>2022-04-16T13:31:21Z</time>
      </trkpt>
      <trkpt lat="46.60447" lon="5.33616">
        <ele>217</ele>
        <time>2022-04-16T13:31:29Z</time>
      </trkpt>
      <trkpt lat="46.60463" lon="5.33539">
        <ele>217.4</ele>
        <time>2022-04-16T13:31:36Z</time>
      </trkpt>
      <trkpt lat="46.60468" lon="5.3352">
        <ele>217.6</ele>
        <time>2022-04-16T13:31:38Z</time>
      </trkpt>
      <trkpt lat="46.60487" lon="5.33443">
        <ele>217.4</ele>
        <time>2022-04-16T13:31:45Z</time>
      </trkpt>
      <trkpt lat="46.60495" lon="5.3341">
        <ele>217</ele>
        <time>2022-04-16T13:31:48Z</time>
      </trkpt>
      <trkpt lat="46.60497" lon="5.33398">
        <ele>216.8</ele>
        <time>2022-04-16T13:31:49Z</time>
      </trkpt>
      <trkpt lat="46.60506" lon="5.33364">
        <ele>215.6</ele>
        <time>2022-04-16T13:31:52Z</time>
      </trkpt>
      <trkpt lat="46.60517" lon="5.33317">
        <ele>215.2</ele>
        <time>2022-04-16T13:31:56Z</time>
      </trkpt>
      <trkpt lat="46.60534" lon="5.33244">
        <ele>214.6</ele>
        <time>2022-04-16T13:32:02Z</time>
      </trkpt>
      <trkpt lat="46.60536" lon="5.33235">
        <ele>214.4</ele>
        <time>2022-04-16T13:32:03Z</time>
      </trkpt>
      <trkpt lat="46.60552" lon="5.33163">
        <ele>215</ele>
        <time>2022-04-16T13:32:10Z</time>
      </trkpt>
      <trkpt lat="46.60556" lon="5.33121">
        <ele>215.6</ele>
        <time>2022-04-16T13:32:14Z</time>
      </trkpt>
      <trkpt lat="46.60557" lon="5.33098">
        <ele>215.8</ele>
        <time>2022-04-16T13:32:16Z</time>
      </trkpt>
      <trkpt lat="46.60557" lon="5.33006">
        <ele>215</ele>
        <time>2022-04-16T13:32:23Z</time>
      </trkpt>
      <trkpt lat="46.60557" lon="5.32982">
        <ele>214.6</ele>
        <time>2022-04-16T13:32:25Z</time>
      </trkpt>
      <trkpt lat="46.60557" lon="5.32941">
        <ele>213.4</ele>
        <time>2022-04-16T13:32:28Z</time>
      </trkpt>
      <trkpt lat="46.60557" lon="5.32911">
        <ele>212.2</ele>
        <time>2022-04-16T13:32:30Z</time>
      </trkpt>
      <trkpt lat="46.60557" lon="5.32885">
        <ele>211.4</ele>
        <time>2022-04-16T13:32:32Z</time>
      </trkpt>
      <trkpt lat="46.60557" lon="5.32859">
        <ele>211.2</ele>
        <time>2022-04-16T13:32:34Z</time>
      </trkpt>
      <trkpt lat="46.60557" lon="5.32788">
        <ele>211.2</ele>
        <time>2022-04-16T13:32:40Z</time>
      </trkpt>
      <trkpt lat="46.60557" lon="5.32723">
        <ele>211.8</ele>
        <time>2022-04-16T13:32:46Z</time>
      </trkpt>
      <trkpt lat="46.60558" lon="5.32703">
        <ele>212.6</ele>
        <time>2022-04-16T13:32:48Z</time>
      </trkpt>
      <trkpt lat="46.60558" lon="5.32681">
        <ele>214</ele>
        <time>2022-04-16T13:32:50Z</time>
      </trkpt>
      <trkpt lat="46.60558" lon="5.3263">
        <ele>214.6</ele>
        <time>2022-04-16T13:32:55Z</time>
      </trkpt>
      <trkpt lat="46.60554" lon="5.32587">
        <ele>215</ele>
        <time>2022-04-16T13:32:59Z</time>
      </trkpt>
      <trkpt lat="46.60552" lon="5.32577">
        <ele>215</ele>
        <time>2022-04-16T13:33:00Z</time>
      </trkpt>
      <trkpt lat="46.60549" lon="5.32566">
        <ele>215.4</ele>
        <time>2022-04-16T13:33:01Z</time>
      </trkpt>
      <trkpt lat="46.60527" lon="5.32495">
        <ele>215.4</ele>
        <time>2022-04-16T13:33:08Z</time>
      </trkpt>
      <trkpt lat="46.60513" lon="5.32455">
        <ele>215.2</ele>
        <time>2022-04-16T13:33:12Z</time>
      </trkpt>
      <trkpt lat="46.60497" lon="5.32406">
        <ele>215.2</ele>
        <time>2022-04-16T13:33:17Z</time>
      </trkpt>
      <trkpt lat="46.6047" lon="5.32325">
        <ele>215.6</ele>
        <time>2022-04-16T13:33:25Z</time>
      </trkpt>
      <trkpt lat="46.60441" lon="5.32255">
        <ele>215.2</ele>
        <time>2022-04-16T13:33:32Z</time>
      </trkpt>
      <trkpt lat="46.60438" lon="5.32246">
        <ele>215</ele>
        <time>2022-04-16T13:33:33Z</time>
      </trkpt>
      <trkpt lat="46.60404" lon="5.32178">
        <ele>214.6</ele>
        <time>2022-04-16T13:33:40Z</time>
      </trkpt>
      <trkpt lat="46.604" lon="5.32171">
        <ele>214.4</ele>
        <time>2022-04-16T13:33:41Z</time>
      </trkpt>
      <trkpt lat="46.60366" lon="5.32105">
        <ele>214.4</ele>
        <time>2022-04-16T13:33:48Z</time>
      </trkpt>
      <trkpt lat="46.60353" lon="5.32078">
        <ele>214.6</ele>
        <time>2022-04-16T13:33:51Z</time>
      </trkpt>
      <trkpt lat="46.60318" lon="5.3201">
        <ele>215.2</ele>
        <time>2022-04-16T13:33:59Z</time>
      </trkpt>
      <trkpt lat="46.60313" lon="5.31999">
        <ele>215.2</ele>
        <time>2022-04-16T13:34:00Z</time>
      </trkpt>
      <trkpt lat="46.6028" lon="5.31936">
        <ele>214.8</ele>
        <time>2022-04-16T13:34:07Z</time>
      </trkpt>
      <trkpt lat="46.60276" lon="5.31926">
        <ele>214.6</ele>
        <time>2022-04-16T13:34:08Z</time>
      </trkpt>
      <trkpt lat="46.60243" lon="5.3186">
        <ele>214</ele>
        <time>2022-04-16T13:34:15Z</time>
      </trkpt>
      <trkpt lat="46.60238" lon="5.31851">
        <ele>214</ele>
        <time>2022-04-16T13:34:16Z</time>
      </trkpt>
      <trkpt lat="46.60205" lon="5.31786">
        <ele>214</ele>
        <time>2022-04-16T13:34:23Z</time>
      </trkpt>
      <trkpt lat="46.602" lon="5.31776">
        <ele>214</ele>
        <time>2022-04-16T13:34:24Z</time>
      </trkpt>
      <trkpt lat="46.60195" lon="5.31766">
        <ele>214</ele>
        <time>2022-04-16T13:34:25Z</time>
      </trkpt>
      <trkpt lat="46.60165" lon="5.31705">
        <ele>212.6</ele>
        <time>2022-04-16T13:34:31Z</time>
      </trkpt>
      <trkpt lat="46.60149" lon="5.31672">
        <ele>211.8</ele>
        <time>2022-04-16T13:34:34Z</time>
      </trkpt>
      <trkpt lat="46.60138" lon="5.31651">
        <ele>211.4</ele>
        <time>2022-04-16T13:34:36Z</time>
      </trkpt>
      <trkpt lat="46.60122" lon="5.31618">
        <ele>210.2</ele>
        <time>2022-04-16T13:34:39Z</time>
      </trkpt>
      <trkpt lat="46.60105" lon="5.31585">
        <ele>209.6</ele>
        <time>2022-04-16T13:34:42Z</time>
      </trkpt>
      <trkpt lat="46.6007" lon="5.31513">
        <ele>209.6</ele>
        <time>2022-04-16T13:34:49Z</time>
      </trkpt>
      <trkpt lat="46.60056" lon="5.3146">
        <ele>210.2</ele>
        <time>2022-04-16T13:34:54Z</time>
      </trkpt>
      <trkpt lat="46.60053" lon="5.31412">
        <ele>210.2</ele>
        <time>2022-04-16T13:34:58Z</time>
      </trkpt>
      <trkpt lat="46.60058" lon="5.31349">
        <ele>210.6</ele>
        <time>2022-04-16T13:35:04Z</time>
      </trkpt>
      <trkpt lat="46.60059" lon="5.3132">
        <ele>211.4</ele>
        <time>2022-04-16T13:35:07Z</time>
      </trkpt>
      <trkpt lat="46.60061" lon="5.3129">
        <ele>211.6</ele>
        <time>2022-04-16T13:35:10Z</time>
      </trkpt>
      <trkpt lat="46.60064" lon="5.3123">
        <ele>212.2</ele>
        <time>2022-04-16T13:35:16Z</time>
      </trkpt>
      <trkpt lat="46.60068" lon="5.3117">
        <ele>212</ele>
        <time>2022-04-16T13:35:22Z</time>
      </trkpt>
      <trkpt lat="46.60071" lon="5.31117">
        <ele>212.4</ele>
        <time>2022-04-16T13:35:27Z</time>
      </trkpt>
      <trkpt lat="46.60076" lon="5.31085">
        <ele>212.2</ele>
        <time>2022-04-16T13:35:30Z</time>
      </trkpt>
      <trkpt lat="46.60078" lon="5.31074">
        <ele>212.2</ele>
        <time>2022-04-16T13:35:31Z</time>
      </trkpt>
      <trkpt lat="46.60085" lon="5.31056">
        <ele>212</ele>
        <time>2022-04-16T13:35:33Z</time>
      </trkpt>
      <trkpt lat="46.6009" lon="5.31048">
        <ele>212</ele>
        <time>2022-04-16T13:35:34Z</time>
      </trkpt>
      <trkpt lat="46.60104" lon="5.31021">
        <ele>212.2</ele>
        <time>2022-04-16T13:35:38Z</time>
      </trkpt>
      <trkpt lat="46.60107" lon="5.31016">
        <ele>212</ele>
        <time>2022-04-16T13:35:39Z</time>
      </trkpt>
      <trkpt lat="46.60109" lon="5.31007">
        <ele>212.2</ele>
        <time>2022-04-16T13:35:41Z</time>
      </trkpt>
      <trkpt lat="46.60108" lon="5.31">
        <ele>212.2</ele>
        <time>2022-04-16T13:35:42Z</time>
      </trkpt>
      <trkpt lat="46.601" lon="5.30989">
        <ele>212.6</ele>
        <time>2022-04-16T13:35:44Z</time>
      </trkpt>
      <trkpt lat="46.60073" lon="5.30959">
        <ele>212.8</ele>
        <time>2022-04-16T13:35:49Z</time>
      </trkpt>
      <trkpt lat="46.60034" lon="5.30913">
        <ele>211.8</ele>
        <time>2022-04-16T13:35:55Z</time>
      </trkpt>
      <trkpt lat="46.60021" lon="5.30899">
        <ele>211.2</ele>
        <time>2022-04-16T13:35:57Z</time>
      </trkpt>
      <trkpt lat="46.59993" lon="5.30868">
        <ele>210.8</ele>
        <time>2022-04-16T13:36:01Z</time>
      </trkpt>
      <trkpt lat="46.5997" lon="5.30845">
        <ele>209.8</ele>
        <time>2022-04-16T13:36:04Z</time>
      </trkpt>
      <trkpt lat="46.5996" lon="5.30837">
        <ele>209.6</ele>
        <time>2022-04-16T13:36:05Z</time>
      </trkpt>
      <trkpt lat="46.59953" lon="5.30834">
        <ele>209.4</ele>
        <time>2022-04-16T13:36:06Z</time>
      </trkpt>
      <trkpt lat="46.59944" lon="5.30831">
        <ele>208.8</ele>
        <time>2022-04-16T13:36:07Z</time>
      </trkpt>
      <trkpt lat="46.59906" lon="5.30825">
        <ele>207.8</ele>
        <time>2022-04-16T13:36:11Z</time>
      </trkpt>
      <trkpt lat="46.59857" lon="5.30814">
        <ele>206.8</ele>
        <time>2022-04-16T13:36:16Z</time>
      </trkpt>
      <trkpt lat="46.59838" lon="5.30809">
        <ele>206.4</ele>
        <time>2022-04-16T13:36:18Z</time>
      </trkpt>
      <trkpt lat="46.59809" lon="5.30797">
        <ele>205.4</ele>
        <time>2022-04-16T13:36:21Z</time>
      </trkpt>
      <trkpt lat="46.5978" lon="5.30786">
        <ele>204.4</ele>
        <time>2022-04-16T13:36:24Z</time>
      </trkpt>
      <trkpt lat="46.59769" lon="5.30784">
        <ele>204.2</ele>
        <time>2022-04-16T13:36:25Z</time>
      </trkpt>
      <trkpt lat="46.59747" lon="5.30785">
        <ele>203.4</ele>
        <time>2022-04-16T13:36:27Z</time>
      </trkpt>
      <trkpt lat="46.59734" lon="5.30786">
        <ele>202.8</ele>
        <time>2022-04-16T13:36:28Z</time>
      </trkpt>
      <trkpt lat="46.59691" lon="5.3079">
        <ele>201.8</ele>
        <time>2022-04-16T13:36:32Z</time>
      </trkpt>
      <trkpt lat="46.59679" lon="5.3079">
        <ele>201.4</ele>
        <time>2022-04-16T13:36:33Z</time>
      </trkpt>
      <trkpt lat="46.59667" lon="5.30791">
        <ele>200.4</ele>
        <time>2022-04-16T13:36:34Z</time>
      </trkpt>
      <trkpt lat="46.59631" lon="5.30794">
        <ele>199.2</ele>
        <time>2022-04-16T13:36:37Z</time>
      </trkpt>
      <trkpt lat="46.59608" lon="5.30797">
        <ele>197.6</ele>
        <time>2022-04-16T13:36:39Z</time>
      </trkpt>
      <trkpt lat="46.59597" lon="5.30798">
        <ele>197.2</ele>
        <time>2022-04-16T13:36:40Z</time>
      </trkpt>
      <trkpt lat="46.59575" lon="5.30802">
        <ele>196.6</ele>
        <time>2022-04-16T13:36:42Z</time>
      </trkpt>
      <trkpt lat="46.59532" lon="5.30808">
        <ele>196.4</ele>
        <time>2022-04-16T13:36:46Z</time>
      </trkpt>
      <trkpt lat="46.59474" lon="5.30815">
        <ele>196</ele>
        <time>2022-04-16T13:36:52Z</time>
      </trkpt>
      <trkpt lat="46.59446" lon="5.30819">
        <ele>196</ele>
        <time>2022-04-16T13:36:55Z</time>
      </trkpt>
      <trkpt lat="46.59384" lon="5.30828">
        <ele>196.8</ele>
        <time>2022-04-16T13:37:02Z</time>
      </trkpt>
      <trkpt lat="46.59375" lon="5.30829">
        <ele>196.8</ele>
        <time>2022-04-16T13:37:03Z</time>
      </trkpt>
      <trkpt lat="46.59328" lon="5.30835">
        <ele>197.8</ele>
        <time>2022-04-16T13:37:09Z</time>
      </trkpt>
      <trkpt lat="46.5932" lon="5.30836">
        <ele>198</ele>
        <time>2022-04-16T13:37:10Z</time>
      </trkpt>
      <trkpt lat="46.5929" lon="5.3084">
        <ele>199</ele>
        <time>2022-04-16T13:37:14Z</time>
      </trkpt>
      <trkpt lat="46.5926" lon="5.30845">
        <ele>199.8</ele>
        <time>2022-04-16T13:37:18Z</time>
      </trkpt>
      <trkpt lat="46.59253" lon="5.30846">
        <ele>200.2</ele>
        <time>2022-04-16T13:37:19Z</time>
      </trkpt>
      <trkpt lat="46.59218" lon="5.30849">
        <ele>201.6</ele>
        <time>2022-04-16T13:37:24Z</time>
      </trkpt>
      <trkpt lat="46.59211" lon="5.3085">
        <ele>201.8</ele>
        <time>2022-04-16T13:37:25Z</time>
      </trkpt>
      <trkpt lat="46.59192" lon="5.30853">
        <ele>203.2</ele>
        <time>2022-04-16T13:37:28Z</time>
      </trkpt>
      <trkpt lat="46.59171" lon="5.30855">
        <ele>204.2</ele>
        <time>2022-04-16T13:37:31Z</time>
      </trkpt>
      <trkpt lat="46.59164" lon="5.30856">
        <ele>204.2</ele>
        <time>2022-04-16T13:37:32Z</time>
      </trkpt>
      <trkpt lat="46.5913" lon="5.3086">
        <ele>205.2</ele>
        <time>2022-04-16T13:37:37Z</time>
      </trkpt>
      <trkpt lat="46.59108" lon="5.30864">
        <ele>206</ele>
        <time>2022-04-16T13:37:40Z</time>
      </trkpt>
      <trkpt lat="46.59095" lon="5.30866">
        <ele>206.4</ele>
        <time>2022-04-16T13:37:42Z</time>
      </trkpt>
      <trkpt lat="46.59071" lon="5.3087">
        <ele>207.4</ele>
        <time>2022-04-16T13:37:46Z</time>
      </trkpt>
      <trkpt lat="46.59046" lon="5.30872">
        <ele>208.6</ele>
        <time>2022-04-16T13:37:50Z</time>
      </trkpt>
      <trkpt lat="46.59029" lon="5.30874">
        <ele>210</ele>
        <time>2022-04-16T13:37:53Z</time>
      </trkpt>
      <trkpt lat="46.59013" lon="5.30876">
        <ele>211</ele>
        <time>2022-04-16T13:37:56Z</time>
      </trkpt>
      <trkpt lat="46.59003" lon="5.30878">
        <ele>211.4</ele>
        <time>2022-04-16T13:37:58Z</time>
      </trkpt>
      <trkpt lat="46.58987" lon="5.30879">
        <ele>212.6</ele>
        <time>2022-04-16T13:38:01Z</time>
      </trkpt>
      <trkpt lat="46.5896" lon="5.30883">
        <ele>214</ele>
        <time>2022-04-16T13:38:06Z</time>
      </trkpt>
      <trkpt lat="46.58944" lon="5.30885">
        <ele>214.4</ele>
        <time>2022-04-16T13:38:09Z</time>
      </trkpt>
      <trkpt lat="46.58927" lon="5.30888">
        <ele>215</ele>
        <time>2022-04-16T13:38:12Z</time>
      </trkpt>
      <trkpt lat="46.5891" lon="5.30889">
        <ele>215.6</ele>
        <time>2022-04-16T13:38:15Z</time>
      </trkpt>
      <trkpt lat="46.58892" lon="5.30892">
        <ele>216</ele>
        <time>2022-04-16T13:38:18Z</time>
      </trkpt>
      <trkpt lat="46.58854" lon="5.30897">
        <ele>216.6</ele>
        <time>2022-04-16T13:38:24Z</time>
      </trkpt>
      <trkpt lat="46.58811" lon="5.30908">
        <ele>216.6</ele>
        <time>2022-04-16T13:38:30Z</time>
      </trkpt>
      <trkpt lat="46.58799" lon="5.30917">
        <ele>216.6</ele>
        <time>2022-04-16T13:38:32Z</time>
      </trkpt>
      <trkpt lat="46.58783" lon="5.3093">
        <ele>216.4</ele>
        <time>2022-04-16T13:38:34Z</time>
      </trkpt>
      <trkpt lat="46.58739" lon="5.30977">
        <ele>216.2</ele>
        <time>2022-04-16T13:38:40Z</time>
      </trkpt>
      <trkpt lat="46.58698" lon="5.31019">
        <ele>214.8</ele>
        <time>2022-04-16T13:38:45Z</time>
      </trkpt>
      <trkpt lat="46.58682" lon="5.31036">
        <ele>214</ele>
        <time>2022-04-16T13:38:47Z</time>
      </trkpt>
      <trkpt lat="46.58674" lon="5.31044">
        <ele>213.6</ele>
        <time>2022-04-16T13:38:48Z</time>
      </trkpt>
      <trkpt lat="46.58627" lon="5.31093">
        <ele>212.6</ele>
        <time>2022-04-16T13:38:54Z</time>
      </trkpt>
      <trkpt lat="46.58582" lon="5.31138">
        <ele>213</ele>
        <time>2022-04-16T13:39:00Z</time>
      </trkpt>
      <trkpt lat="46.58575" lon="5.31145">
        <ele>213.2</ele>
        <time>2022-04-16T13:39:01Z</time>
      </trkpt>
      <trkpt lat="46.5853" lon="5.31182">
        <ele>213.4</ele>
        <time>2022-04-16T13:39:07Z</time>
      </trkpt>
      <trkpt lat="46.58483" lon="5.31205">
        <ele>213.6</ele>
        <time>2022-04-16T13:39:13Z</time>
      </trkpt>
      <trkpt lat="46.58432" lon="5.31227">
        <ele>213.6</ele>
        <time>2022-04-16T13:39:19Z</time>
      </trkpt>
      <trkpt lat="46.58415" lon="5.31234">
        <ele>213.8</ele>
        <time>2022-04-16T13:39:21Z</time>
      </trkpt>
      <trkpt lat="46.58357" lon="5.31259">
        <ele>214</ele>
        <time>2022-04-16T13:39:28Z</time>
      </trkpt>
      <trkpt lat="46.58341" lon="5.31267">
        <ele>214</ele>
        <time>2022-04-16T13:39:30Z</time>
      </trkpt>
      <trkpt lat="46.58296" lon="5.31299">
        <ele>213.8</ele>
        <time>2022-04-16T13:39:36Z</time>
      </trkpt>
      <trkpt lat="46.58246" lon="5.31338">
        <ele>214.2</ele>
        <time>2022-04-16T13:39:43Z</time>
      </trkpt>
      <trkpt lat="46.58239" lon="5.31344">
        <ele>214.2</ele>
        <time>2022-04-16T13:39:44Z</time>
      </trkpt>
      <trkpt lat="46.58197" lon="5.31378">
        <ele>214.8</ele>
        <time>2022-04-16T13:39:50Z</time>
      </trkpt>
      <trkpt lat="46.58171" lon="5.31398">
        <ele>215.6</ele>
        <time>2022-04-16T13:39:54Z</time>
      </trkpt>
      <trkpt lat="46.58151" lon="5.31414">
        <ele>216</ele>
        <time>2022-04-16T13:39:57Z</time>
      </trkpt>
      <trkpt lat="46.58121" lon="5.3143">
        <ele>216.6</ele>
        <time>2022-04-16T13:40:01Z</time>
      </trkpt>
      <trkpt lat="46.58105" lon="5.31431">
        <ele>217</ele>
        <time>2022-04-16T13:40:03Z</time>
      </trkpt>
      <trkpt lat="46.58089" lon="5.31429">
        <ele>217.2</ele>
        <time>2022-04-16T13:40:05Z</time>
      </trkpt>
      <trkpt lat="46.58038" lon="5.31427">
        <ele>217.2</ele>
        <time>2022-04-16T13:40:11Z</time>
      </trkpt>
      <trkpt lat="46.57995" lon="5.31436">
        <ele>217</ele>
        <time>2022-04-16T13:40:16Z</time>
      </trkpt>
      <trkpt lat="46.57944" lon="5.31452">
        <ele>217.6</ele>
        <time>2022-04-16T13:40:22Z</time>
      </trkpt>
      <trkpt lat="46.57893" lon="5.31467">
        <ele>218</ele>
        <time>2022-04-16T13:40:28Z</time>
      </trkpt>
      <trkpt lat="46.57876" lon="5.31473">
        <ele>218.2</ele>
        <time>2022-04-16T13:40:30Z</time>
      </trkpt>
      <trkpt lat="46.5782" lon="5.31494">
        <ele>218.8</ele>
        <time>2022-04-16T13:40:37Z</time>
      </trkpt>
      <trkpt lat="46.57812" lon="5.31498">
        <ele>219</ele>
        <time>2022-04-16T13:40:38Z</time>
      </trkpt>
      <trkpt lat="46.57797" lon="5.31507">
        <ele>219.2</ele>
        <time>2022-04-16T13:40:40Z</time>
      </trkpt>
      <trkpt lat="46.57783" lon="5.31517">
        <ele>219.4</ele>
        <time>2022-04-16T13:40:42Z</time>
      </trkpt>
      <trkpt lat="46.57769" lon="5.31529">
        <ele>219.8</ele>
        <time>2022-04-16T13:40:44Z</time>
      </trkpt>
      <trkpt lat="46.57741" lon="5.3155">
        <ele>220.4</ele>
        <time>2022-04-16T13:40:48Z</time>
      </trkpt>
      <trkpt lat="46.57706" lon="5.31573">
        <ele>220.2</ele>
        <time>2022-04-16T13:40:53Z</time>
      </trkpt>
      <trkpt lat="46.5766" lon="5.31587">
        <ele>220.4</ele>
        <time>2022-04-16T13:40:59Z</time>
      </trkpt>
      <trkpt lat="46.576" lon="5.31594">
        <ele>221.6</ele>
        <time>2022-04-16T13:41:06Z</time>
      </trkpt>
      <trkpt lat="46.57542" lon="5.31603">
        <ele>221.6</ele>
        <time>2022-04-16T13:41:13Z</time>
      </trkpt>
      <trkpt lat="46.57486" lon="5.31611">
        <ele>221</ele>
        <time>2022-04-16T13:41:20Z</time>
      </trkpt>
      <trkpt lat="46.57477" lon="5.31612">
        <ele>220.8</ele>
        <time>2022-04-16T13:41:21Z</time>
      </trkpt>
      <trkpt lat="46.57426" lon="5.31614">
        <ele>221.4</ele>
        <time>2022-04-16T13:41:27Z</time>
      </trkpt>
      <trkpt lat="46.57367" lon="5.31612">
        <ele>221.6</ele>
        <time>2022-04-16T13:41:34Z</time>
      </trkpt>
      <trkpt lat="46.57359" lon="5.3161">
        <ele>221.6</ele>
        <time>2022-04-16T13:41:35Z</time>
      </trkpt>
      <trkpt lat="46.57341" lon="5.316">
        <ele>221.6</ele>
        <time>2022-04-16T13:41:37Z</time>
      </trkpt>
      <trkpt lat="46.57314" lon="5.31568">
        <ele>221.4</ele>
        <time>2022-04-16T13:41:41Z</time>
      </trkpt>
      <trkpt lat="46.57274" lon="5.31506">
        <ele>221.8</ele>
        <time>2022-04-16T13:41:48Z</time>
      </trkpt>
      <trkpt lat="46.57268" lon="5.31497">
        <ele>221.8</ele>
        <time>2022-04-16T13:41:49Z</time>
      </trkpt>
      <trkpt lat="46.57246" lon="5.31458">
        <ele>222</ele>
        <time>2022-04-16T13:41:53Z</time>
      </trkpt>
      <trkpt lat="46.57242" lon="5.31447">
        <ele>222</ele>
        <time>2022-04-16T13:41:54Z</time>
      </trkpt>
      <trkpt lat="46.57225" lon="5.31387">
        <ele>221.6</ele>
        <time>2022-04-16T13:41:59Z</time>
      </trkpt>
      <trkpt lat="46.57217" lon="5.31364">
        <ele>221.4</ele>
        <time>2022-04-16T13:42:01Z</time>
      </trkpt>
      <trkpt lat="46.57205" lon="5.31344">
        <ele>221.2</ele>
        <time>2022-04-16T13:42:03Z</time>
      </trkpt>
      <trkpt lat="46.57175" lon="5.31308">
        <ele>220.6</ele>
        <time>2022-04-16T13:42:07Z</time>
      </trkpt>
      <trkpt lat="46.57166" lon="5.31302">
        <ele>220.6</ele>
        <time>2022-04-16T13:42:08Z</time>
      </trkpt>
      <trkpt lat="46.57156" lon="5.31298">
        <ele>220.4</ele>
        <time>2022-04-16T13:42:09Z</time>
      </trkpt>
      <trkpt lat="46.57146" lon="5.31295">
        <ele>220.2</ele>
        <time>2022-04-16T13:42:10Z</time>
      </trkpt>
      <trkpt lat="46.571" lon="5.31293">
        <ele>219.6</ele>
        <time>2022-04-16T13:42:14Z</time>
      </trkpt>
      <trkpt lat="46.57089" lon="5.3129">
        <ele>219.2</ele>
        <time>2022-04-16T13:42:15Z</time>
      </trkpt>
      <trkpt lat="46.57066" lon="5.31278">
        <ele>217.8</ele>
        <time>2022-04-16T13:42:17Z</time>
      </trkpt>
      <trkpt lat="46.57045" lon="5.31262">
        <ele>216.8</ele>
        <time>2022-04-16T13:42:19Z</time>
      </trkpt>
      <trkpt lat="46.57014" lon="5.31234">
        <ele>215.8</ele>
        <time>2022-04-16T13:42:22Z</time>
      </trkpt>
      <trkpt lat="46.56963" lon="5.31187">
        <ele>215</ele>
        <time>2022-04-16T13:42:27Z</time>
      </trkpt>
      <trkpt lat="46.56942" lon="5.31169">
        <ele>214.6</ele>
        <time>2022-04-16T13:42:29Z</time>
      </trkpt>
      <trkpt lat="46.56931" lon="5.31162">
        <ele>214.4</ele>
        <time>2022-04-16T13:42:30Z</time>
      </trkpt>
      <trkpt lat="46.56908" lon="5.31155">
        <ele>214.2</ele>
        <time>2022-04-16T13:42:32Z</time>
      </trkpt>
      <trkpt lat="46.56895" lon="5.31153">
        <ele>214</ele>
        <time>2022-04-16T13:42:33Z</time>
      </trkpt>
      <trkpt lat="46.56872" lon="5.31148">
        <ele>213.8</ele>
        <time>2022-04-16T13:42:35Z</time>
      </trkpt>
      <trkpt lat="46.5686" lon="5.31143">
        <ele>213.8</ele>
        <time>2022-04-16T13:42:36Z</time>
      </trkpt>
      <trkpt lat="46.56848" lon="5.31135">
        <ele>213.4</ele>
        <time>2022-04-16T13:42:37Z</time>
      </trkpt>
      <trkpt lat="46.56828" lon="5.31114">
        <ele>213</ele>
        <time>2022-04-16T13:42:39Z</time>
      </trkpt>
      <trkpt lat="46.56814" lon="5.31084">
        <ele>213</ele>
        <time>2022-04-16T13:42:41Z</time>
      </trkpt>
      <trkpt lat="46.56807" lon="5.3105">
        <ele>212.8</ele>
        <time>2022-04-16T13:42:43Z</time>
      </trkpt>
      <trkpt lat="46.56805" lon="5.31032">
        <ele>212.8</ele>
        <time>2022-04-16T13:42:44Z</time>
      </trkpt>
      <trkpt lat="46.56808" lon="5.30965">
        <ele>212.4</ele>
        <time>2022-04-16T13:42:48Z</time>
      </trkpt>
      <trkpt lat="46.56808" lon="5.30932">
        <ele>212.2</ele>
        <time>2022-04-16T13:42:50Z</time>
      </trkpt>
      <trkpt lat="46.56806" lon="5.30901">
        <ele>211.8</ele>
        <time>2022-04-16T13:42:52Z</time>
      </trkpt>
      <trkpt lat="46.56792" lon="5.30818">
        <ele>212.8</ele>
        <time>2022-04-16T13:42:58Z</time>
      </trkpt>
      <trkpt lat="46.56784" lon="5.30793">
        <ele>213</ele>
        <time>2022-04-16T13:43:00Z</time>
      </trkpt>
      <trkpt lat="46.56774" lon="5.30772">
        <ele>213.2</ele>
        <time>2022-04-16T13:43:02Z</time>
      </trkpt>
      <trkpt lat="46.56764" lon="5.30751">
        <ele>213.6</ele>
        <time>2022-04-16T13:43:04Z</time>
      </trkpt>
      <trkpt lat="46.56745" lon="5.30712">
        <ele>214.4</ele>
        <time>2022-04-16T13:43:08Z</time>
      </trkpt>
      <trkpt lat="46.5674" lon="5.30703">
        <ele>214.8</ele>
        <time>2022-04-16T13:43:09Z</time>
      </trkpt>
      <trkpt lat="46.56708" lon="5.30654">
        <ele>215.4</ele>
        <time>2022-04-16T13:43:15Z</time>
      </trkpt>
      <trkpt lat="46.56688" lon="5.30636">
        <ele>215.8</ele>
        <time>2022-04-16T13:43:18Z</time>
      </trkpt>
      <trkpt lat="46.56667" lon="5.3062">
        <ele>216.8</ele>
        <time>2022-04-16T13:43:21Z</time>
      </trkpt>
      <trkpt lat="46.5666" lon="5.30615">
        <ele>217</ele>
        <time>2022-04-16T13:43:22Z</time>
      </trkpt>
      <trkpt lat="46.5663" lon="5.30602">
        <ele>217.8</ele>
        <time>2022-04-16T13:43:26Z</time>
      </trkpt>
      <trkpt lat="46.566" lon="5.30597">
        <ele>218</ele>
        <time>2022-04-16T13:43:30Z</time>
      </trkpt>
      <trkpt lat="46.56584" lon="5.30596">
        <ele>218.4</ele>
        <time>2022-04-16T13:43:32Z</time>
      </trkpt>
      <trkpt lat="46.5653" lon="5.30601">
        <ele>218.2</ele>
        <time>2022-04-16T13:43:39Z</time>
      </trkpt>
      <trkpt lat="46.56478" lon="5.30611">
        <ele>217.8</ele>
        <time>2022-04-16T13:43:46Z</time>
      </trkpt>
      <trkpt lat="46.56463" lon="5.30615">
        <ele>217.8</ele>
        <time>2022-04-16T13:43:48Z</time>
      </trkpt>
      <trkpt lat="46.56456" lon="5.30617">
        <ele>217.8</ele>
        <time>2022-04-16T13:43:49Z</time>
      </trkpt>
      <trkpt lat="46.56443" lon="5.30622">
        <ele>218</ele>
        <time>2022-04-16T13:43:51Z</time>
      </trkpt>
      <trkpt lat="46.56437" lon="5.30622">
        <ele>218</ele>
        <time>2022-04-16T13:43:52Z</time>
      </trkpt>
      <trkpt lat="46.56432" lon="5.30619">
        <ele>218.2</ele>
        <time>2022-04-16T13:43:53Z</time>
      </trkpt>
      <trkpt lat="46.56425" lon="5.30615">
        <ele>218.2</ele>
        <time>2022-04-16T13:43:55Z</time>
      </trkpt>
      <trkpt lat="46.56417" lon="5.30614">
        <ele>218.2</ele>
        <time>2022-04-16T13:43:57Z</time>
      </trkpt>
      <trkpt lat="46.56406" lon="5.30609">
        <ele>218.2</ele>
        <time>2022-04-16T13:43:59Z</time>
      </trkpt>
      <trkpt lat="46.56386" lon="5.30582">
        <ele>218.2</ele>
        <time>2022-04-16T13:44:03Z</time>
      </trkpt>
      <trkpt lat="46.56354" lon="5.30538">
        <ele>218</ele>
        <time>2022-04-16T13:44:09Z</time>
      </trkpt>
      <trkpt lat="46.56321" lon="5.30491">
        <ele>219</ele>
        <time>2022-04-16T13:44:15Z</time>
      </trkpt>
      <trkpt lat="46.56315" lon="5.30483">
        <ele>219.2</ele>
        <time>2022-04-16T13:44:16Z</time>
      </trkpt>
      <trkpt lat="46.56274" lon="5.30427">
        <ele>219.6</ele>
        <time>2022-04-16T13:44:23Z</time>
      </trkpt>
      <trkpt lat="46.56268" lon="5.30419">
        <ele>219.6</ele>
        <time>2022-04-16T13:44:24Z</time>
      </trkpt>
      <trkpt lat="46.56234" lon="5.3037">
        <ele>219.4</ele>
        <time>2022-04-16T13:44:30Z</time>
      </trkpt>
      <trkpt lat="46.56204" lon="5.30314">
        <ele>219.2</ele>
        <time>2022-04-16T13:44:36Z</time>
      </trkpt>
      <trkpt lat="46.56168" lon="5.30263">
        <ele>218.8</ele>
        <time>2022-04-16T13:44:42Z</time>
      </trkpt>
      <trkpt lat="46.56125" lon="5.30206">
        <ele>218.8</ele>
        <time>2022-04-16T13:44:49Z</time>
      </trkpt>
      <trkpt lat="46.56112" lon="5.3019">
        <ele>219</ele>
        <time>2022-04-16T13:44:51Z</time>
      </trkpt>
      <trkpt lat="46.56069" lon="5.30133">
        <ele>219</ele>
        <time>2022-04-16T13:44:58Z</time>
      </trkpt>
      <trkpt lat="46.56056" lon="5.30115">
        <ele>219</ele>
        <time>2022-04-16T13:45:00Z</time>
      </trkpt>
      <trkpt lat="46.56023" lon="5.30069">
        <ele>218</ele>
        <time>2022-04-16T13:45:05Z</time>
      </trkpt>
      <trkpt lat="46.56008" lon="5.30049">
        <ele>217.4</ele>
        <time>2022-04-16T13:45:07Z</time>
      </trkpt>
      <trkpt lat="46.55992" lon="5.30029">
        <ele>217</ele>
        <time>2022-04-16T13:45:09Z</time>
      </trkpt>
      <trkpt lat="46.55968" lon="5.29996">
        <ele>215.8</ele>
        <time>2022-04-16T13:45:12Z</time>
      </trkpt>
      <trkpt lat="46.55952" lon="5.29975">
        <ele>215</ele>
        <time>2022-04-16T13:45:14Z</time>
      </trkpt>
      <trkpt lat="46.55936" lon="5.29954">
        <ele>214.4</ele>
        <time>2022-04-16T13:45:16Z</time>
      </trkpt>
      <trkpt lat="46.55901" lon="5.29905">
        <ele>213.6</ele>
        <time>2022-04-16T13:45:21Z</time>
      </trkpt>
      <trkpt lat="46.55864" lon="5.29856">
        <ele>214.8</ele>
        <time>2022-04-16T13:45:27Z</time>
      </trkpt>
      <trkpt lat="46.55858" lon="5.29849">
        <ele>215.4</ele>
        <time>2022-04-16T13:45:28Z</time>
      </trkpt>
      <trkpt lat="46.55853" lon="5.29841">
        <ele>215.8</ele>
        <time>2022-04-16T13:45:29Z</time>
      </trkpt>
      <trkpt lat="46.55836" lon="5.2982">
        <ele>217</ele>
        <time>2022-04-16T13:45:32Z</time>
      </trkpt>
      <trkpt lat="46.55825" lon="5.29805">
        <ele>217.4</ele>
        <time>2022-04-16T13:45:34Z</time>
      </trkpt>
      <trkpt lat="46.55799" lon="5.29768">
        <ele>218</ele>
        <time>2022-04-16T13:45:39Z</time>
      </trkpt>
      <trkpt lat="46.55783" lon="5.29746">
        <ele>218.2</ele>
        <time>2022-04-16T13:45:42Z</time>
      </trkpt>
      <trkpt lat="46.55775" lon="5.29731">
        <ele>218.2</ele>
        <time>2022-04-16T13:45:44Z</time>
      </trkpt>
      <trkpt lat="46.5577" lon="5.29724">
        <ele>218.2</ele>
        <time>2022-04-16T13:45:45Z</time>
      </trkpt>
      <trkpt lat="46.55765" lon="5.29718">
        <ele>218.2</ele>
        <time>2022-04-16T13:45:46Z</time>
      </trkpt>
      <trkpt lat="46.55744" lon="5.29704">
        <ele>218</ele>
        <time>2022-04-16T13:45:49Z</time>
      </trkpt>
      <trkpt lat="46.55708" lon="5.29691">
        <ele>217.6</ele>
        <time>2022-04-16T13:45:53Z</time>
      </trkpt>
      <trkpt lat="46.55698" lon="5.2969">
        <ele>217.4</ele>
        <time>2022-04-16T13:45:54Z</time>
      </trkpt>
      <trkpt lat="46.55677" lon="5.2969">
        <ele>216.8</ele>
        <time>2022-04-16T13:45:56Z</time>
      </trkpt>
      <trkpt lat="46.55645" lon="5.29684">
        <ele>215.2</ele>
        <time>2022-04-16T13:45:59Z</time>
      </trkpt>
      <trkpt lat="46.55625" lon="5.29675">
        <ele>213.6</ele>
        <time>2022-04-16T13:46:01Z</time>
      </trkpt>
      <trkpt lat="46.55595" lon="5.29659">
        <ele>213</ele>
        <time>2022-04-16T13:46:04Z</time>
      </trkpt>
      <trkpt lat="46.55585" lon="5.29654">
        <ele>212.6</ele>
        <time>2022-04-16T13:46:05Z</time>
      </trkpt>
      <trkpt lat="46.55526" lon="5.29614">
        <ele>212</ele>
        <time>2022-04-16T13:46:11Z</time>
      </trkpt>
      <trkpt lat="46.55498" lon="5.29593">
        <ele>211.4</ele>
        <time>2022-04-16T13:46:14Z</time>
      </trkpt>
      <trkpt lat="46.55452" lon="5.29558">
        <ele>210.2</ele>
        <time>2022-04-16T13:46:19Z</time>
      </trkpt>
      <trkpt lat="46.55434" lon="5.29545">
        <ele>210</ele>
        <time>2022-04-16T13:46:21Z</time>
      </trkpt>
      <trkpt lat="46.55379" lon="5.29516">
        <ele>209.6</ele>
        <time>2022-04-16T13:46:27Z</time>
      </trkpt>
      <trkpt lat="46.55333" lon="5.29505">
        <ele>209.8</ele>
        <time>2022-04-16T13:46:32Z</time>
      </trkpt>
      <trkpt lat="46.55298" lon="5.29497">
        <ele>210.6</ele>
        <time>2022-04-16T13:46:36Z</time>
      </trkpt>
      <trkpt lat="46.55283" lon="5.29485">
        <ele>211</ele>
        <time>2022-04-16T13:46:38Z</time>
      </trkpt>
      <trkpt lat="46.55276" lon="5.29478">
        <ele>211</ele>
        <time>2022-04-16T13:46:39Z</time>
      </trkpt>
      <trkpt lat="46.55271" lon="5.29468">
        <ele>211.2</ele>
        <time>2022-04-16T13:46:40Z</time>
      </trkpt>
      <trkpt lat="46.55268" lon="5.29458">
        <ele>211.2</ele>
        <time>2022-04-16T13:46:41Z</time>
      </trkpt>
      <trkpt lat="46.55266" lon="5.29448">
        <ele>211.6</ele>
        <time>2022-04-16T13:46:42Z</time>
      </trkpt>
      <trkpt lat="46.55259" lon="5.29417">
        <ele>212.6</ele>
        <time>2022-04-16T13:46:45Z</time>
      </trkpt>
      <trkpt lat="46.55253" lon="5.29388">
        <ele>213.8</ele>
        <time>2022-04-16T13:46:48Z</time>
      </trkpt>
      <trkpt lat="46.55251" lon="5.29377">
        <ele>214.4</ele>
        <time>2022-04-16T13:46:49Z</time>
      </trkpt>
      <trkpt lat="46.5525" lon="5.29366">
        <ele>214.6</ele>
        <time>2022-04-16T13:46:50Z</time>
      </trkpt>
      <trkpt lat="46.55251" lon="5.29354">
        <ele>215</ele>
        <time>2022-04-16T13:46:51Z</time>
      </trkpt>
      <trkpt lat="46.55253" lon="5.29343">
        <ele>215</ele>
        <time>2022-04-16T13:46:52Z</time>
      </trkpt>
      <trkpt lat="46.55259" lon="5.29322">
        <ele>215</ele>
        <time>2022-04-16T13:46:54Z</time>
      </trkpt>
      <trkpt lat="46.55262" lon="5.29309">
        <ele>215.2</ele>
        <time>2022-04-16T13:46:55Z</time>
      </trkpt>
      <trkpt lat="46.55277" lon="5.29258">
        <ele>213.2</ele>
        <time>2022-04-16T13:46:59Z</time>
      </trkpt>
      <trkpt lat="46.55284" lon="5.29231">
        <ele>211.6</ele>
        <time>2022-04-16T13:47:01Z</time>
      </trkpt>
      <trkpt lat="46.55287" lon="5.29218">
        <ele>211.4</ele>
        <time>2022-04-16T13:47:02Z</time>
      </trkpt>
      <trkpt lat="46.55288" lon="5.29191">
        <ele>210.4</ele>
        <time>2022-04-16T13:47:04Z</time>
      </trkpt>
      <trkpt lat="46.55281" lon="5.29167">
        <ele>209.6</ele>
        <time>2022-04-16T13:47:06Z</time>
      </trkpt>
      <trkpt lat="46.55275" lon="5.29156">
        <ele>209.4</ele>
        <time>2022-04-16T13:47:07Z</time>
      </trkpt>
      <trkpt lat="46.55238" lon="5.29107">
        <ele>208.4</ele>
        <time>2022-04-16T13:47:12Z</time>
      </trkpt>
      <trkpt lat="46.55231" lon="5.29096">
        <ele>208.2</ele>
        <time>2022-04-16T13:47:13Z</time>
      </trkpt>
      <trkpt lat="46.55217" lon="5.29071">
        <ele>207.2</ele>
        <time>2022-04-16T13:47:15Z</time>
      </trkpt>
      <trkpt lat="46.55203" lon="5.29045">
        <ele>206</ele>
        <time>2022-04-16T13:47:17Z</time>
      </trkpt>
      <trkpt lat="46.55188" lon="5.29018">
        <ele>204.2</ele>
        <time>2022-04-16T13:47:19Z</time>
      </trkpt>
      <trkpt lat="46.55172" lon="5.28991">
        <ele>202.6</ele>
        <time>2022-04-16T13:47:21Z</time>
      </trkpt>
      <trkpt lat="46.55164" lon="5.28977">
        <ele>201.4</ele>
        <time>2022-04-16T13:47:22Z</time>
      </trkpt>
      <trkpt lat="46.55152" lon="5.28947">
        <ele>199.4</ele>
        <time>2022-04-16T13:47:24Z</time>
      </trkpt>
      <trkpt lat="46.55149" lon="5.2893">
        <ele>198.8</ele>
        <time>2022-04-16T13:47:25Z</time>
      </trkpt>
      <trkpt lat="46.55147" lon="5.28913">
        <ele>198.4</ele>
        <time>2022-04-16T13:47:26Z</time>
      </trkpt>
      <trkpt lat="46.55148" lon="5.28881">
        <ele>197.6</ele>
        <time>2022-04-16T13:47:28Z</time>
      </trkpt>
      <trkpt lat="46.5515" lon="5.28865">
        <ele>197.2</ele>
        <time>2022-04-16T13:47:29Z</time>
      </trkpt>
      <trkpt lat="46.55154" lon="5.2882">
        <ele>196</ele>
        <time>2022-04-16T13:47:32Z</time>
      </trkpt>
      <trkpt lat="46.55154" lon="5.28793">
        <ele>195.6</ele>
        <time>2022-04-16T13:47:34Z</time>
      </trkpt>
      <trkpt lat="46.55147" lon="5.28768">
        <ele>196</ele>
        <time>2022-04-16T13:47:36Z</time>
      </trkpt>
      <trkpt lat="46.55128" lon="5.2874">
        <ele>196.4</ele>
        <time>2022-04-16T13:47:39Z</time>
      </trkpt>
      <trkpt lat="46.55105" lon="5.28704">
        <ele>196.4</ele>
        <time>2022-04-16T13:47:43Z</time>
      </trkpt>
      <trkpt lat="46.55067" lon="5.28637">
        <ele>196.4</ele>
        <time>2022-04-16T13:47:50Z</time>
      </trkpt>
      <trkpt lat="46.55057" lon="5.28618">
        <ele>196.4</ele>
        <time>2022-04-16T13:47:52Z</time>
      </trkpt>
      <trkpt lat="46.55032" lon="5.28573">
        <ele>197.2</ele>
        <time>2022-04-16T13:47:57Z</time>
      </trkpt>
      <trkpt lat="46.55024" lon="5.28558">
        <ele>197.6</ele>
        <time>2022-04-16T13:47:59Z</time>
      </trkpt>
      <trkpt lat="46.55011" lon="5.28534">
        <ele>198.2</ele>
        <time>2022-04-16T13:48:02Z</time>
      </trkpt>
      <trkpt lat="46.54989" lon="5.28496">
        <ele>199.2</ele>
        <time>2022-04-16T13:48:07Z</time>
      </trkpt>
      <trkpt lat="46.54985" lon="5.28489">
        <ele>199.4</ele>
        <time>2022-04-16T13:48:08Z</time>
      </trkpt>
      <trkpt lat="46.54959" lon="5.28458">
        <ele>200.4</ele>
        <time>2022-04-16T13:48:13Z</time>
      </trkpt>
      <trkpt lat="46.54949" lon="5.28452">
        <ele>200.8</ele>
        <time>2022-04-16T13:48:15Z</time>
      </trkpt>
      <trkpt lat="46.54931" lon="5.28445">
        <ele>201.4</ele>
        <time>2022-04-16T13:48:18Z</time>
      </trkpt>
      <trkpt lat="46.54919" lon="5.28439">
        <ele>201.8</ele>
        <time>2022-04-16T13:48:20Z</time>
      </trkpt>
      <trkpt lat="46.5489" lon="5.28419">
        <ele>203</ele>
        <time>2022-04-16T13:48:25Z</time>
      </trkpt>
      <trkpt lat="46.54883" lon="5.28413">
        <ele>203</ele>
        <time>2022-04-16T13:48:26Z</time>
      </trkpt>
      <trkpt lat="46.54849" lon="5.2839">
        <ele>204</ele>
        <time>2022-04-16T13:48:32Z</time>
      </trkpt>
      <trkpt lat="46.54838" lon="5.28383">
        <ele>204.2</ele>
        <time>2022-04-16T13:48:34Z</time>
      </trkpt>
      <trkpt lat="46.54831" lon="5.28379">
        <ele>204.2</ele>
        <time>2022-04-16T13:48:35Z</time>
      </trkpt>
      <trkpt lat="46.5481" lon="5.28366">
        <ele>205.4</ele>
        <time>2022-04-16T13:48:39Z</time>
      </trkpt>
      <trkpt lat="46.54805" lon="5.28363">
        <ele>206.2</ele>
        <time>2022-04-16T13:48:40Z</time>
      </trkpt>
      <trkpt lat="46.548" lon="5.2836">
        <ele>206.4</ele>
        <time>2022-04-16T13:48:41Z</time>
      </trkpt>
      <trkpt lat="46.54794" lon="5.28358">
        <ele>206.4</ele>
        <time>2022-04-16T13:48:42Z</time>
      </trkpt>
      <trkpt lat="46.54788" lon="5.28358">
        <ele>207</ele>
        <time>2022-04-16T13:48:43Z</time>
      </trkpt>
      <trkpt lat="46.54781" lon="5.2836">
        <ele>207.4</ele>
        <time>2022-04-16T13:48:44Z</time>
      </trkpt>
      <trkpt lat="46.54775" lon="5.28364">
        <ele>207.6</ele>
        <time>2022-04-16T13:48:45Z</time>
      </trkpt>
      <trkpt lat="46.54764" lon="5.28377">
        <ele>207.6</ele>
        <time>2022-04-16T13:48:47Z</time>
      </trkpt>
      <trkpt lat="46.54746" lon="5.28395">
        <ele>207.6</ele>
        <time>2022-04-16T13:48:50Z</time>
      </trkpt>
      <trkpt lat="46.54731" lon="5.28404">
        <ele>207.6</ele>
        <time>2022-04-16T13:48:52Z</time>
      </trkpt>
      <trkpt lat="46.54688" lon="5.28424">
        <ele>207</ele>
        <time>2022-04-16T13:48:57Z</time>
      </trkpt>
      <trkpt lat="46.5467" lon="5.28435">
        <ele>206.4</ele>
        <time>2022-04-16T13:48:59Z</time>
      </trkpt>
      <trkpt lat="46.5464" lon="5.28448">
        <ele>205.4</ele>
        <time>2022-04-16T13:49:02Z</time>
      </trkpt>
      <trkpt lat="46.5463" lon="5.2845">
        <ele>205</ele>
        <time>2022-04-16T13:49:03Z</time>
      </trkpt>
      <trkpt lat="46.54619" lon="5.28452">
        <ele>204.2</ele>
        <time>2022-04-16T13:49:04Z</time>
      </trkpt>
      <trkpt lat="46.54576" lon="5.28453">
        <ele>202.8</ele>
        <time>2022-04-16T13:49:08Z</time>
      </trkpt>
      <trkpt lat="46.54543" lon="5.28446">
        <ele>201.8</ele>
        <time>2022-04-16T13:49:11Z</time>
      </trkpt>
      <trkpt lat="46.54533" lon="5.28446">
        <ele>201.6</ele>
        <time>2022-04-16T13:49:12Z</time>
      </trkpt>
      <trkpt lat="46.54522" lon="5.28448">
        <ele>201.4</ele>
        <time>2022-04-16T13:49:13Z</time>
      </trkpt>
      <trkpt lat="46.54469" lon="5.28449">
        <ele>200.8</ele>
        <time>2022-04-16T13:49:18Z</time>
      </trkpt>
      <trkpt lat="46.54437" lon="5.28451">
        <ele>201</ele>
        <time>2022-04-16T13:49:21Z</time>
      </trkpt>
      <trkpt lat="46.54427" lon="5.28455">
        <ele>201</ele>
        <time>2022-04-16T13:49:22Z</time>
      </trkpt>
      <trkpt lat="46.54417" lon="5.28461">
        <ele>201</ele>
        <time>2022-04-16T13:49:23Z</time>
      </trkpt>
      <trkpt lat="46.54392" lon="5.28484">
        <ele>201.4</ele>
        <time>2022-04-16T13:49:26Z</time>
      </trkpt>
      <trkpt lat="46.54341" lon="5.28525">
        <ele>202.6</ele>
        <time>2022-04-16T13:49:32Z</time>
      </trkpt>
      <trkpt lat="46.54326" lon="5.28537">
        <ele>202.8</ele>
        <time>2022-04-16T13:49:34Z</time>
      </trkpt>
      <trkpt lat="46.54298" lon="5.28557">
        <ele>203.2</ele>
        <time>2022-04-16T13:49:38Z</time>
      </trkpt>
      <trkpt lat="46.54279" lon="5.28571">
        <ele>204</ele>
        <time>2022-04-16T13:49:41Z</time>
      </trkpt>
      <trkpt lat="46.54266" lon="5.2858">
        <ele>205.2</ele>
        <time>2022-04-16T13:49:43Z</time>
      </trkpt>
      <trkpt lat="46.5426" lon="5.28585">
        <ele>205.4</ele>
        <time>2022-04-16T13:49:44Z</time>
      </trkpt>
      <trkpt lat="46.54249" lon="5.28593">
        <ele>206.2</ele>
        <time>2022-04-16T13:49:46Z</time>
      </trkpt>
      <trkpt lat="46.54243" lon="5.28596">
        <ele>206.6</ele>
        <time>2022-04-16T13:49:47Z</time>
      </trkpt>
      <trkpt lat="46.54238" lon="5.28599">
        <ele>207</ele>
        <time>2022-04-16T13:49:48Z</time>
      </trkpt>
      <trkpt lat="46.54226" lon="5.28605">
        <ele>207.4</ele>
        <time>2022-04-16T13:49:50Z</time>
      </trkpt>
      <trkpt lat="46.54204" lon="5.28617">
        <ele>208.4</ele>
        <time>2022-04-16T13:49:54Z</time>
      </trkpt>
      <trkpt lat="46.54182" lon="5.28631">
        <ele>209.6</ele>
        <time>2022-04-16T13:49:58Z</time>
      </trkpt>
      <trkpt lat="46.54176" lon="5.28634">
        <ele>210</ele>
        <time>2022-04-16T13:49:59Z</time>
      </trkpt>
      <trkpt lat="46.54171" lon="5.28635">
        <ele>210.8</ele>
        <time>2022-04-16T13:50:00Z</time>
      </trkpt>
      <trkpt lat="46.54165" lon="5.28637">
        <ele>211</ele>
        <time>2022-04-16T13:50:01Z</time>
      </trkpt>
      <trkpt lat="46.54154" lon="5.2864">
        <ele>212</ele>
        <time>2022-04-16T13:50:03Z</time>
      </trkpt>
      <trkpt lat="46.54138" lon="5.28642">
        <ele>213.2</ele>
        <time>2022-04-16T13:50:06Z</time>
      </trkpt>
      <trkpt lat="46.54121" lon="5.28644">
        <ele>213.6</ele>
        <time>2022-04-16T13:50:09Z</time>
      </trkpt>
      <trkpt lat="46.5411" lon="5.28644">
        <ele>214.6</ele>
        <time>2022-04-16T13:50:11Z</time>
      </trkpt>
      <trkpt lat="46.54085" lon="5.28643">
        <ele>215.6</ele>
        <time>2022-04-16T13:50:15Z</time>
      </trkpt>
      <trkpt lat="46.54079" lon="5.28642">
        <ele>215.8</ele>
        <time>2022-04-16T13:50:16Z</time>
      </trkpt>
      <trkpt lat="46.54027" lon="5.28637">
        <ele>216.8</ele>
        <time>2022-04-16T13:50:24Z</time>
      </trkpt>
      <trkpt lat="46.53971" lon="5.28634">
        <ele>217.4</ele>
        <time>2022-04-16T13:50:33Z</time>
      </trkpt>
      <trkpt lat="46.53957" lon="5.28633">
        <ele>217.8</ele>
        <time>2022-04-16T13:50:35Z</time>
      </trkpt>
      <trkpt lat="46.53919" lon="5.2863">
        <ele>219</ele>
        <time>2022-04-16T13:50:41Z</time>
      </trkpt>
      <trkpt lat="46.53869" lon="5.28627">
        <ele>219.8</ele>
        <time>2022-04-16T13:50:49Z</time>
      </trkpt>
      <trkpt lat="46.53839" lon="5.28625">
        <ele>220.2</ele>
        <time>2022-04-16T13:50:53Z</time>
      </trkpt>
      <trkpt lat="46.53811" lon="5.28622">
        <ele>220.2</ele>
        <time>2022-04-16T13:50:57Z</time>
      </trkpt>
      <trkpt lat="46.53764" lon="5.28619">
        <ele>220.2</ele>
        <time>2022-04-16T13:51:03Z</time>
      </trkpt>
      <trkpt lat="46.53708" lon="5.28614">
        <ele>220.6</ele>
        <time>2022-04-16T13:51:10Z</time>
      </trkpt>
      <trkpt lat="46.53691" lon="5.28613">
        <ele>220.6</ele>
        <time>2022-04-16T13:51:12Z</time>
      </trkpt>
      <trkpt lat="46.53628" lon="5.28609">
        <ele>220</ele>
        <time>2022-04-16T13:51:19Z</time>
      </trkpt>
      <trkpt lat="46.53612" lon="5.28608">
        <ele>219.8</ele>
        <time>2022-04-16T13:51:21Z</time>
      </trkpt>
      <trkpt lat="46.53576" lon="5.28605">
        <ele>218.8</ele>
        <time>2022-04-16T13:51:25Z</time>
      </trkpt>
      <trkpt lat="46.53533" lon="5.28601">
        <ele>218</ele>
        <time>2022-04-16T13:51:30Z</time>
      </trkpt>
      <trkpt lat="46.53479" lon="5.28597">
        <ele>217.6</ele>
        <time>2022-04-16T13:51:36Z</time>
      </trkpt>
      <trkpt lat="46.53469" lon="5.28596">
        <ele>217.6</ele>
        <time>2022-04-16T13:51:37Z</time>
      </trkpt>
      <trkpt lat="46.53439" lon="5.2859">
        <ele>216.4</ele>
        <time>2022-04-16T13:51:40Z</time>
      </trkpt>
      <trkpt lat="46.53428" lon="5.28586">
        <ele>216</ele>
        <time>2022-04-16T13:51:41Z</time>
      </trkpt>
      <trkpt lat="46.53418" lon="5.28581">
        <ele>215.2</ele>
        <time>2022-04-16T13:51:42Z</time>
      </trkpt>
      <trkpt lat="46.53387" lon="5.28562">
        <ele>214.2</ele>
        <time>2022-04-16T13:51:45Z</time>
      </trkpt>
      <trkpt lat="46.53376" lon="5.28554">
        <ele>213.6</ele>
        <time>2022-04-16T13:51:46Z</time>
      </trkpt>
      <trkpt lat="46.53365" lon="5.28547">
        <ele>212.4</ele>
        <time>2022-04-16T13:51:47Z</time>
      </trkpt>
      <trkpt lat="46.53343" lon="5.28533">
        <ele>210.6</ele>
        <time>2022-04-16T13:51:49Z</time>
      </trkpt>
      <trkpt lat="46.53318" lon="5.28521">
        <ele>209</ele>
        <time>2022-04-16T13:51:51Z</time>
      </trkpt>
      <trkpt lat="46.53294" lon="5.28516">
        <ele>208</ele>
        <time>2022-04-16T13:51:53Z</time>
      </trkpt>
      <trkpt lat="46.53284" lon="5.28516">
        <ele>207.2</ele>
        <time>2022-04-16T13:51:54Z</time>
      </trkpt>
      <trkpt lat="46.53262" lon="5.28517">
        <ele>206.8</ele>
        <time>2022-04-16T13:51:56Z</time>
      </trkpt>
      <trkpt lat="46.53232" lon="5.28518">
        <ele>206.6</ele>
        <time>2022-04-16T13:51:59Z</time>
      </trkpt>
      <trkpt lat="46.53187" lon="5.28523">
        <ele>207.4</ele>
        <time>2022-04-16T13:52:04Z</time>
      </trkpt>
      <trkpt lat="46.53179" lon="5.28524">
        <ele>208</ele>
        <time>2022-04-16T13:52:05Z</time>
      </trkpt>
      <trkpt lat="46.53161" lon="5.28526">
        <ele>209</ele>
        <time>2022-04-16T13:52:07Z</time>
      </trkpt>
      <trkpt lat="46.53145" lon="5.28529">
        <ele>209.6</ele>
        <time>2022-04-16T13:52:09Z</time>
      </trkpt>
      <trkpt lat="46.53137" lon="5.2853">
        <ele>210.6</ele>
        <time>2022-04-16T13:52:10Z</time>
      </trkpt>
      <trkpt lat="46.53114" lon="5.28532">
        <ele>211.6</ele>
        <time>2022-04-16T13:52:13Z</time>
      </trkpt>
      <trkpt lat="46.53099" lon="5.28535">
        <ele>212.8</ele>
        <time>2022-04-16T13:52:15Z</time>
      </trkpt>
      <trkpt lat="46.53082" lon="5.2854">
        <ele>213.6</ele>
        <time>2022-04-16T13:52:17Z</time>
      </trkpt>
      <trkpt lat="46.53065" lon="5.28546">
        <ele>213.8</ele>
        <time>2022-04-16T13:52:19Z</time>
      </trkpt>
      <trkpt lat="46.53049" lon="5.2855">
        <ele>214</ele>
        <time>2022-04-16T13:52:21Z</time>
      </trkpt>
      <trkpt lat="46.53017" lon="5.28556">
        <ele>214.8</ele>
        <time>2022-04-16T13:52:25Z</time>
      </trkpt>
      <trkpt lat="46.5301" lon="5.28558">
        <ele>216</ele>
        <time>2022-04-16T13:52:26Z</time>
      </trkpt>
      <trkpt lat="46.52988" lon="5.28563">
        <ele>217.2</ele>
        <time>2022-04-16T13:52:29Z</time>
      </trkpt>
      <trkpt lat="46.52974" lon="5.28566">
        <ele>217.8</ele>
        <time>2022-04-16T13:52:31Z</time>
      </trkpt>
      <trkpt lat="46.52952" lon="5.28572">
        <ele>218.2</ele>
        <time>2022-04-16T13:52:34Z</time>
      </trkpt>
      <trkpt lat="46.52938" lon="5.28575">
        <ele>218.6</ele>
        <time>2022-04-16T13:52:36Z</time>
      </trkpt>
      <trkpt lat="46.52931" lon="5.28577">
        <ele>219</ele>
        <time>2022-04-16T13:52:37Z</time>
      </trkpt>
      <trkpt lat="46.52922" lon="5.28579">
        <ele>219.4</ele>
        <time>2022-04-16T13:52:38Z</time>
      </trkpt>
      <trkpt lat="46.52889" lon="5.28585">
        <ele>219.8</ele>
        <time>2022-04-16T13:52:43Z</time>
      </trkpt>
      <trkpt lat="46.52835" lon="5.28592">
        <ele>219.8</ele>
        <time>2022-04-16T13:52:50Z</time>
      </trkpt>
      <trkpt lat="46.52827" lon="5.28593">
        <ele>219.8</ele>
        <time>2022-04-16T13:52:51Z</time>
      </trkpt>
      <trkpt lat="46.52786" lon="5.28597">
        <ele>219.8</ele>
        <time>2022-04-16T13:52:57Z</time>
      </trkpt>
      <trkpt lat="46.52778" lon="5.28599">
        <ele>219.8</ele>
        <time>2022-04-16T13:52:58Z</time>
      </trkpt>
      <trkpt lat="46.52768" lon="5.286">
        <ele>219.6</ele>
        <time>2022-04-16T13:52:59Z</time>
      </trkpt>
      <trkpt lat="46.52754" lon="5.28602">
        <ele>219.4</ele>
        <time>2022-04-16T13:53:01Z</time>
      </trkpt>
      <trkpt lat="46.52712" lon="5.28615">
        <ele>218.8</ele>
        <time>2022-04-16T13:53:06Z</time>
      </trkpt>
      <trkpt lat="46.52685" lon="5.2862">
        <ele>218.2</ele>
        <time>2022-04-16T13:53:09Z</time>
      </trkpt>
      <trkpt lat="46.52667" lon="5.28619">
        <ele>217.8</ele>
        <time>2022-04-16T13:53:11Z</time>
      </trkpt>
      <trkpt lat="46.52633" lon="5.2861">
        <ele>217.2</ele>
        <time>2022-04-16T13:53:15Z</time>
      </trkpt>
      <trkpt lat="46.52622" lon="5.28607">
        <ele>217.2</ele>
        <time>2022-04-16T13:53:16Z</time>
      </trkpt>
      <trkpt lat="46.52594" lon="5.28604">
        <ele>216.6</ele>
        <time>2022-04-16T13:53:19Z</time>
      </trkpt>
      <trkpt lat="46.52586" lon="5.28606">
        <ele>216.6</ele>
        <time>2022-04-16T13:53:20Z</time>
      </trkpt>
      <trkpt lat="46.52556" lon="5.2861">
        <ele>216.2</ele>
        <time>2022-04-16T13:53:23Z</time>
      </trkpt>
      <trkpt lat="46.52526" lon="5.28616">
        <ele>214.8</ele>
        <time>2022-04-16T13:53:26Z</time>
      </trkpt>
      <trkpt lat="46.52493" lon="5.28621">
        <ele>213.4</ele>
        <time>2022-04-16T13:53:29Z</time>
      </trkpt>
      <trkpt lat="46.52457" lon="5.28628">
        <ele>212.4</ele>
        <time>2022-04-16T13:53:32Z</time>
      </trkpt>
      <trkpt lat="46.52447" lon="5.2863">
        <ele>212</ele>
        <time>2022-04-16T13:53:33Z</time>
      </trkpt>
      <trkpt lat="46.5241" lon="5.28638">
        <ele>210.6</ele>
        <time>2022-04-16T13:53:36Z</time>
      </trkpt>
      <trkpt lat="46.52387" lon="5.28641">
        <ele>209</ele>
        <time>2022-04-16T13:53:38Z</time>
      </trkpt>
      <trkpt lat="46.52364" lon="5.28645">
        <ele>207.4</ele>
        <time>2022-04-16T13:53:40Z</time>
      </trkpt>
      <trkpt lat="46.5233" lon="5.28651">
        <ele>206</ele>
        <time>2022-04-16T13:53:43Z</time>
      </trkpt>
      <trkpt lat="46.52309" lon="5.28654">
        <ele>204.8</ele>
        <time>2022-04-16T13:53:45Z</time>
      </trkpt>
      <trkpt lat="46.52283" lon="5.28656">
        <ele>203.6</ele>
        <time>2022-04-16T13:53:47Z</time>
      </trkpt>
      <trkpt lat="46.52271" lon="5.28657">
        <ele>203.4</ele>
        <time>2022-04-16T13:53:48Z</time>
      </trkpt>
      <trkpt lat="46.52226" lon="5.28663">
        <ele>202</ele>
        <time>2022-04-16T13:53:52Z</time>
      </trkpt>
      <trkpt lat="46.52203" lon="5.28669">
        <ele>201.2</ele>
        <time>2022-04-16T13:53:54Z</time>
      </trkpt>
      <trkpt lat="46.5218" lon="5.28678">
        <ele>200.8</ele>
        <time>2022-04-16T13:53:56Z</time>
      </trkpt>
      <trkpt lat="46.52157" lon="5.28686">
        <ele>199.6</ele>
        <time>2022-04-16T13:53:58Z</time>
      </trkpt>
      <trkpt lat="46.52136" lon="5.28695">
        <ele>199.2</ele>
        <time>2022-04-16T13:54:00Z</time>
      </trkpt>
      <trkpt lat="46.52123" lon="5.28699">
        <ele>198.8</ele>
        <time>2022-04-16T13:54:01Z</time>
      </trkpt>
      <trkpt lat="46.52063" lon="5.28715">
        <ele>199</ele>
        <time>2022-04-16T13:54:07Z</time>
      </trkpt>
      <trkpt lat="46.52021" lon="5.28727">
        <ele>199.2</ele>
        <time>2022-04-16T13:54:11Z</time>
      </trkpt>
      <trkpt lat="46.51983" lon="5.28747">
        <ele>199.6</ele>
        <time>2022-04-16T13:54:15Z</time>
      </trkpt>
      <trkpt lat="46.51974" lon="5.2875">
        <ele>199.8</ele>
        <time>2022-04-16T13:54:16Z</time>
      </trkpt>
      <trkpt lat="46.51966" lon="5.28751">
        <ele>200.2</ele>
        <time>2022-04-16T13:54:17Z</time>
      </trkpt>
      <trkpt lat="46.51957" lon="5.28752">
        <ele>200.6</ele>
        <time>2022-04-16T13:54:18Z</time>
      </trkpt>
      <trkpt lat="46.51939" lon="5.2875">
        <ele>201.2</ele>
        <time>2022-04-16T13:54:20Z</time>
      </trkpt>
      <trkpt lat="46.5193" lon="5.28749">
        <ele>201.4</ele>
        <time>2022-04-16T13:54:21Z</time>
      </trkpt>
      <trkpt lat="46.51902" lon="5.28742">
        <ele>201.8</ele>
        <time>2022-04-16T13:54:24Z</time>
      </trkpt>
      <trkpt lat="46.51894" lon="5.28736">
        <ele>201.8</ele>
        <time>2022-04-16T13:54:25Z</time>
      </trkpt>
      <trkpt lat="46.5187" lon="5.28716">
        <ele>202.4</ele>
        <time>2022-04-16T13:54:28Z</time>
      </trkpt>
      <trkpt lat="46.51862" lon="5.28709">
        <ele>202.6</ele>
        <time>2022-04-16T13:54:29Z</time>
      </trkpt>
      <trkpt lat="46.51853" lon="5.28704">
        <ele>202.8</ele>
        <time>2022-04-16T13:54:30Z</time>
      </trkpt>
      <trkpt lat="46.5181" lon="5.2869">
        <ele>203.2</ele>
        <time>2022-04-16T13:54:35Z</time>
      </trkpt>
      <trkpt lat="46.51791" lon="5.28688">
        <ele>203.6</ele>
        <time>2022-04-16T13:54:37Z</time>
      </trkpt>
      <trkpt lat="46.51781" lon="5.28686">
        <ele>203.8</ele>
        <time>2022-04-16T13:54:38Z</time>
      </trkpt>
      <trkpt lat="46.51772" lon="5.28682">
        <ele>204</ele>
        <time>2022-04-16T13:54:39Z</time>
      </trkpt>
      <trkpt lat="46.5174" lon="5.28656">
        <ele>204.8</ele>
        <time>2022-04-16T13:54:43Z</time>
      </trkpt>
      <trkpt lat="46.51731" lon="5.28649">
        <ele>205</ele>
        <time>2022-04-16T13:54:44Z</time>
      </trkpt>
      <trkpt lat="46.51713" lon="5.28642">
        <ele>205.2</ele>
        <time>2022-04-16T13:54:46Z</time>
      </trkpt>
      <trkpt lat="46.51706" lon="5.28641">
        <ele>205.4</ele>
        <time>2022-04-16T13:54:47Z</time>
      </trkpt>
      <trkpt lat="46.5166" lon="5.28647">
        <ele>205.6</ele>
        <time>2022-04-16T13:54:52Z</time>
      </trkpt>
      <trkpt lat="46.51608" lon="5.28657">
        <ele>205</ele>
        <time>2022-04-16T13:54:57Z</time>
      </trkpt>
      <trkpt lat="46.5159" lon="5.28669">
        <ele>204.6</ele>
        <time>2022-04-16T13:54:59Z</time>
      </trkpt>
      <trkpt lat="46.51582" lon="5.28679">
        <ele>204.4</ele>
        <time>2022-04-16T13:55:00Z</time>
      </trkpt>
      <trkpt lat="46.51575" lon="5.2869">
        <ele>203.8</ele>
        <time>2022-04-16T13:55:01Z</time>
      </trkpt>
      <trkpt lat="46.51555" lon="5.28727">
        <ele>202.6</ele>
        <time>2022-04-16T13:55:04Z</time>
      </trkpt>
      <trkpt lat="46.51529" lon="5.28777">
        <ele>201.2</ele>
        <time>2022-04-16T13:55:08Z</time>
      </trkpt>
      <trkpt lat="46.51511" lon="5.28815">
        <ele>200.6</ele>
        <time>2022-04-16T13:55:11Z</time>
      </trkpt>
      <trkpt lat="46.51502" lon="5.28845">
        <ele>200</ele>
        <time>2022-04-16T13:55:13Z</time>
      </trkpt>
      <trkpt lat="46.51497" lon="5.2887">
        <ele>199.4</ele>
        <time>2022-04-16T13:55:15Z</time>
      </trkpt>
      <trkpt lat="46.51483" lon="5.28951">
        <ele>199</ele>
        <time>2022-04-16T13:55:21Z</time>
      </trkpt>
      <trkpt lat="46.51481" lon="5.28963">
        <ele>199</ele>
        <time>2022-04-16T13:55:22Z</time>
      </trkpt>
      <trkpt lat="46.51468" lon="5.29041">
        <ele>199.4</ele>
        <time>2022-04-16T13:55:29Z</time>
      </trkpt>
      <trkpt lat="46.5146" lon="5.29092">
        <ele>199.6</ele>
        <time>2022-04-16T13:55:34Z</time>
      </trkpt>
      <trkpt lat="46.51449" lon="5.29152">
        <ele>200</ele>
        <time>2022-04-16T13:55:40Z</time>
      </trkpt>
      <trkpt lat="46.51443" lon="5.29182">
        <ele>201</ele>
        <time>2022-04-16T13:55:43Z</time>
      </trkpt>
      <trkpt lat="46.51431" lon="5.29219">
        <ele>201.8</ele>
        <time>2022-04-16T13:55:47Z</time>
      </trkpt>
      <trkpt lat="46.51422" lon="5.29235">
        <ele>202</ele>
        <time>2022-04-16T13:55:49Z</time>
      </trkpt>
      <trkpt lat="46.51406" lon="5.29258">
        <ele>202</ele>
        <time>2022-04-16T13:55:52Z</time>
      </trkpt>
      <trkpt lat="46.514" lon="5.29266">
        <ele>202.2</ele>
        <time>2022-04-16T13:55:53Z</time>
      </trkpt>
      <trkpt lat="46.51365" lon="5.29328">
        <ele>202</ele>
        <time>2022-04-16T13:56:00Z</time>
      </trkpt>
      <trkpt lat="46.51352" lon="5.29343">
        <ele>201.8</ele>
        <time>2022-04-16T13:56:02Z</time>
      </trkpt>
      <trkpt lat="46.51338" lon="5.29354">
        <ele>201.8</ele>
        <time>2022-04-16T13:56:04Z</time>
      </trkpt>
      <trkpt lat="46.51284" lon="5.29386">
        <ele>201.6</ele>
        <time>2022-04-16T13:56:11Z</time>
      </trkpt>
      <trkpt lat="46.51276" lon="5.2939">
        <ele>201.6</ele>
        <time>2022-04-16T13:56:12Z</time>
      </trkpt>
      <trkpt lat="46.51235" lon="5.29403">
        <ele>202</ele>
        <time>2022-04-16T13:56:17Z</time>
      </trkpt>
      <trkpt lat="46.51179" lon="5.29416">
        <ele>202.2</ele>
        <time>2022-04-16T13:56:24Z</time>
      </trkpt>
      <trkpt lat="46.51156" lon="5.29422">
        <ele>202.2</ele>
        <time>2022-04-16T13:56:27Z</time>
      </trkpt>
      <trkpt lat="46.511" lon="5.29439">
        <ele>202.6</ele>
        <time>2022-04-16T13:56:34Z</time>
      </trkpt>
      <trkpt lat="46.51078" lon="5.29446">
        <ele>202.8</ele>
        <time>2022-04-16T13:56:37Z</time>
      </trkpt>
      <trkpt lat="46.51035" lon="5.29469">
        <ele>203</ele>
        <time>2022-04-16T13:56:43Z</time>
      </trkpt>
      <trkpt lat="46.51021" lon="5.29479">
        <ele>203.4</ele>
        <time>2022-04-16T13:56:45Z</time>
      </trkpt>
      <trkpt lat="46.50994" lon="5.29501">
        <ele>204.6</ele>
        <time>2022-04-16T13:56:50Z</time>
      </trkpt>
      <trkpt lat="46.50983" lon="5.29509">
        <ele>206</ele>
        <time>2022-04-16T13:56:52Z</time>
      </trkpt>
      <trkpt lat="46.50958" lon="5.29528">
        <ele>207</ele>
        <time>2022-04-16T13:56:57Z</time>
      </trkpt>
      <trkpt lat="46.50935" lon="5.29545">
        <ele>208.2</ele>
        <time>2022-04-16T13:57:02Z</time>
      </trkpt>
      <trkpt lat="46.50923" lon="5.29555">
        <ele>209.2</ele>
        <time>2022-04-16T13:57:05Z</time>
      </trkpt>
      <trkpt lat="46.50919" lon="5.29559">
        <ele>209.6</ele>
        <time>2022-04-16T13:57:06Z</time>
      </trkpt>
      <trkpt lat="46.50902" lon="5.29569">
        <ele>211</ele>
        <time>2022-04-16T13:57:10Z</time>
      </trkpt>
      <trkpt lat="46.50892" lon="5.29573">
        <ele>211.8</ele>
        <time>2022-04-16T13:57:12Z</time>
      </trkpt>
      <trkpt lat="46.50887" lon="5.29573">
        <ele>212.2</ele>
        <time>2022-04-16T13:57:13Z</time>
      </trkpt>
      <trkpt lat="46.50872" lon="5.29574">
        <ele>213.2</ele>
        <time>2022-04-16T13:57:16Z</time>
      </trkpt>
      <trkpt lat="46.50857" lon="5.29571">
        <ele>213.8</ele>
        <time>2022-04-16T13:57:19Z</time>
      </trkpt>
      <trkpt lat="46.50852" lon="5.29571">
        <ele>214.2</ele>
        <time>2022-04-16T13:57:20Z</time>
      </trkpt>
      <trkpt lat="46.50836" lon="5.29569">
        <ele>215.4</ele>
        <time>2022-04-16T13:57:23Z</time>
      </trkpt>
      <trkpt lat="46.50821" lon="5.29567">
        <ele>216.2</ele>
        <time>2022-04-16T13:57:26Z</time>
      </trkpt>
      <trkpt lat="46.50816" lon="5.29567">
        <ele>216.6</ele>
        <time>2022-04-16T13:57:27Z</time>
      </trkpt>
      <trkpt lat="46.50792" lon="5.29565">
        <ele>217.8</ele>
        <time>2022-04-16T13:57:32Z</time>
      </trkpt>
      <trkpt lat="46.50777" lon="5.29565">
        <ele>218.4</ele>
        <time>2022-04-16T13:57:35Z</time>
      </trkpt>
      <trkpt lat="46.50768" lon="5.29563">
        <ele>218.8</ele>
        <time>2022-04-16T13:57:37Z</time>
      </trkpt>
      <trkpt lat="46.50741" lon="5.29556">
        <ele>219.8</ele>
        <time>2022-04-16T13:57:43Z</time>
      </trkpt>
      <trkpt lat="46.50716" lon="5.29545">
        <ele>221.2</ele>
        <time>2022-04-16T13:57:48Z</time>
      </trkpt>
      <trkpt lat="46.50687" lon="5.29531">
        <ele>222</ele>
        <time>2022-04-16T13:57:54Z</time>
      </trkpt>
      <trkpt lat="46.50683" lon="5.29529">
        <ele>222.4</ele>
        <time>2022-04-16T13:57:55Z</time>
      </trkpt>
      <trkpt lat="46.50672" lon="5.29525">
        <ele>223.4</ele>
        <time>2022-04-16T13:57:57Z</time>
      </trkpt>
      <trkpt lat="46.50658" lon="5.29523">
        <ele>224.2</ele>
        <time>2022-04-16T13:58:00Z</time>
      </trkpt>
      <trkpt lat="46.50652" lon="5.29523">
        <ele>224.6</ele>
        <time>2022-04-16T13:58:01Z</time>
      </trkpt>
      <trkpt lat="46.50641" lon="5.29526">
        <ele>225</ele>
        <time>2022-04-16T13:58:03Z</time>
      </trkpt>
      <trkpt lat="46.50637" lon="5.29528">
        <ele>225</ele>
        <time>2022-04-16T13:58:04Z</time>
      </trkpt>
      <trkpt lat="46.50616" lon="5.29541">
        <ele>225.4</ele>
        <time>2022-04-16T13:58:08Z</time>
      </trkpt>
      <trkpt lat="46.50605" lon="5.2955">
        <ele>225.6</ele>
        <time>2022-04-16T13:58:10Z</time>
      </trkpt>
      <trkpt lat="46.50599" lon="5.29555">
        <ele>225.6</ele>
        <time>2022-04-16T13:58:11Z</time>
      </trkpt>
      <trkpt lat="46.50563" lon="5.29584">
        <ele>225.8</ele>
        <time>2022-04-16T13:58:17Z</time>
      </trkpt>
      <trkpt lat="46.50509" lon="5.29624">
        <ele>226.6</ele>
        <time>2022-04-16T13:58:25Z</time>
      </trkpt>
      <trkpt lat="46.50459" lon="5.29659">
        <ele>226.8</ele>
        <time>2022-04-16T13:58:32Z</time>
      </trkpt>
      <trkpt lat="46.50445" lon="5.29669">
        <ele>226.8</ele>
        <time>2022-04-16T13:58:34Z</time>
      </trkpt>
      <trkpt lat="46.50422" lon="5.29683">
        <ele>227.2</ele>
        <time>2022-04-16T13:58:37Z</time>
      </trkpt>
      <trkpt lat="46.50408" lon="5.29692">
        <ele>227.6</ele>
        <time>2022-04-16T13:58:39Z</time>
      </trkpt>
      <trkpt lat="46.50356" lon="5.29722">
        <ele>227.6</ele>
        <time>2022-04-16T13:58:46Z</time>
      </trkpt>
      <trkpt lat="46.503" lon="5.29746">
        <ele>227.2</ele>
        <time>2022-04-16T13:58:53Z</time>
      </trkpt>
      <trkpt lat="46.50275" lon="5.29757">
        <ele>226.8</ele>
        <time>2022-04-16T13:58:56Z</time>
      </trkpt>
      <trkpt lat="46.50222" lon="5.2977">
        <ele>226.2</ele>
        <time>2022-04-16T13:59:02Z</time>
      </trkpt>
      <trkpt lat="46.5017" lon="5.29768">
        <ele>226</ele>
        <time>2022-04-16T13:59:08Z</time>
      </trkpt>
      <trkpt lat="46.50134" lon="5.29775">
        <ele>225.6</ele>
        <time>2022-04-16T13:59:12Z</time>
      </trkpt>
      <trkpt lat="46.50105" lon="5.29783">
        <ele>224.8</ele>
        <time>2022-04-16T13:59:15Z</time>
      </trkpt>
      <trkpt lat="46.50096" lon="5.29786">
        <ele>224.6</ele>
        <time>2022-04-16T13:59:16Z</time>
      </trkpt>
      <trkpt lat="46.50056" lon="5.29803">
        <ele>223.4</ele>
        <time>2022-04-16T13:59:20Z</time>
      </trkpt>
      <trkpt lat="46.5004" lon="5.29817">
        <ele>222.6</ele>
        <time>2022-04-16T13:59:22Z</time>
      </trkpt>
      <trkpt lat="46.50034" lon="5.29825">
        <ele>222.4</ele>
        <time>2022-04-16T13:59:23Z</time>
      </trkpt>
      <trkpt lat="46.50028" lon="5.29833">
        <ele>222.2</ele>
        <time>2022-04-16T13:59:24Z</time>
      </trkpt>
      <trkpt lat="46.50019" lon="5.29848">
        <ele>221.8</ele>
        <time>2022-04-16T13:59:26Z</time>
      </trkpt>
      <trkpt lat="46.50017" lon="5.29856">
        <ele>221.4</ele>
        <time>2022-04-16T13:59:27Z</time>
      </trkpt>
      <trkpt lat="46.50016" lon="5.29864">
        <ele>221.4</ele>
        <time>2022-04-16T13:59:28Z</time>
      </trkpt>
      <trkpt lat="46.50021" lon="5.29878">
        <ele>221.2</ele>
        <time>2022-04-16T13:59:30Z</time>
      </trkpt>
      <trkpt lat="46.50025" lon="5.29883">
        <ele>220.8</ele>
        <time>2022-04-16T13:59:31Z</time>
      </trkpt>
      <trkpt lat="46.50034" lon="5.29894">
        <ele>220.6</ele>
        <time>2022-04-16T13:59:33Z</time>
      </trkpt>
      <trkpt lat="46.50044" lon="5.29909">
        <ele>220.4</ele>
        <time>2022-04-16T13:59:35Z</time>
      </trkpt>
      <trkpt lat="46.50058" lon="5.29931">
        <ele>220.2</ele>
        <time>2022-04-16T13:59:38Z</time>
      </trkpt>
      <trkpt lat="46.50061" lon="5.29939">
        <ele>220.4</ele>
        <time>2022-04-16T13:59:39Z</time>
      </trkpt>
      <trkpt lat="46.50074" lon="5.29976">
        <ele>220.8</ele>
        <time>2022-04-16T13:59:43Z</time>
      </trkpt>
      <trkpt lat="46.50077" lon="5.29994">
        <ele>220.8</ele>
        <time>2022-04-16T13:59:44Z</time>
      </trkpt>
      <trkpt lat="46.50082" lon="5.30036">
        <ele>222.2</ele>
        <time>2022-04-16T13:59:48Z</time>
      </trkpt>
      <trkpt lat="46.50083" lon="5.30064">
        <ele>222.6</ele>
        <time>2022-04-16T13:59:51Z</time>
      </trkpt>
      <trkpt lat="46.50083" lon="5.30107">
        <ele>223.4</ele>
        <time>2022-04-16T13:59:55Z</time>
      </trkpt>
      <trkpt lat="46.50084" lon="5.30128">
        <ele>223.4</ele>
        <time>2022-04-16T13:59:57Z</time>
      </trkpt>
      <trkpt lat="46.50083" lon="5.30207">
        <ele>223.2</ele>
        <time>2022-04-16T14:00:04Z</time>
      </trkpt>
      <trkpt lat="46.50083" lon="5.30217">
        <ele>223.2</ele>
        <time>2022-04-16T14:00:05Z</time>
      </trkpt>
      <trkpt lat="46.50079" lon="5.30296">
        <ele>222.4</ele>
        <time>2022-04-16T14:00:12Z</time>
      </trkpt>
      <trkpt lat="46.50076" lon="5.3031">
        <ele>222.2</ele>
        <time>2022-04-16T14:00:13Z</time>
      </trkpt>
      <trkpt lat="46.50071" lon="5.30332">
        <ele>221.6</ele>
        <time>2022-04-16T14:00:15Z</time>
      </trkpt>
      <trkpt lat="46.50061" lon="5.30356">
        <ele>221.2</ele>
        <time>2022-04-16T14:00:17Z</time>
      </trkpt>
      <trkpt lat="46.50056" lon="5.30365">
        <ele>221.2</ele>
        <time>2022-04-16T14:00:18Z</time>
      </trkpt>
      <trkpt lat="46.50043" lon="5.30384">
        <ele>220.8</ele>
        <time>2022-04-16T14:00:20Z</time>
      </trkpt>
      <trkpt lat="46.50035" lon="5.30392">
        <ele>220.6</ele>
        <time>2022-04-16T14:00:21Z</time>
      </trkpt>
      <trkpt lat="46.50028" lon="5.304">
        <ele>220.4</ele>
        <time>2022-04-16T14:00:22Z</time>
      </trkpt>
      <trkpt lat="46.50012" lon="5.30412">
        <ele>220</ele>
        <time>2022-04-16T14:00:24Z</time>
      </trkpt>
      <trkpt lat="46.49997" lon="5.30423">
        <ele>219.6</ele>
        <time>2022-04-16T14:00:26Z</time>
      </trkpt>
      <trkpt lat="46.49975" lon="5.30443">
        <ele>219.2</ele>
        <time>2022-04-16T14:00:29Z</time>
      </trkpt>
      <trkpt lat="46.49964" lon="5.30455">
        <ele>219.2</ele>
        <time>2022-04-16T14:00:31Z</time>
      </trkpt>
      <trkpt lat="46.49954" lon="5.3047">
        <ele>219.6</ele>
        <time>2022-04-16T14:00:33Z</time>
      </trkpt>
      <trkpt lat="46.49946" lon="5.30488">
        <ele>219.8</ele>
        <time>2022-04-16T14:00:35Z</time>
      </trkpt>
      <trkpt lat="46.49943" lon="5.30497">
        <ele>220</ele>
        <time>2022-04-16T14:00:36Z</time>
      </trkpt>
      <trkpt lat="46.49931" lon="5.3054">
        <ele>221.2</ele>
        <time>2022-04-16T14:00:41Z</time>
      </trkpt>
      <trkpt lat="46.49929" lon="5.30559">
        <ele>221.8</ele>
        <time>2022-04-16T14:00:43Z</time>
      </trkpt>
      <trkpt lat="46.4993" lon="5.30589">
        <ele>222.2</ele>
        <time>2022-04-16T14:00:46Z</time>
      </trkpt>
      <trkpt lat="46.49931" lon="5.30598">
        <ele>222.4</ele>
        <time>2022-04-16T14:00:47Z</time>
      </trkpt>
      <trkpt lat="46.49937" lon="5.30635">
        <ele>223.6</ele>
        <time>2022-04-16T14:00:52Z</time>
      </trkpt>
      <trkpt lat="46.4994" lon="5.30653">
        <ele>223.8</ele>
        <time>2022-04-16T14:00:53Z</time>
      </trkpt>
      <trkpt lat="46.49943" lon="5.3067">
        <ele>224.6</ele>
        <time>2022-04-16T14:00:55Z</time>
      </trkpt>
      <trkpt lat="46.49953" lon="5.30721">
        <ele>225.8</ele>
        <time>2022-04-16T14:01:01Z</time>
      </trkpt>
      <trkpt lat="46.49954" lon="5.30729">
        <ele>226</ele>
        <time>2022-04-16T14:01:02Z</time>
      </trkpt>
      <trkpt lat="46.49962" lon="5.30772">
        <ele>227</ele>
        <time>2022-04-16T14:01:07Z</time>
      </trkpt>
      <trkpt lat="46.49967" lon="5.30798">
        <ele>227.4</ele>
        <time>2022-04-16T14:01:10Z</time>
      </trkpt>
      <trkpt lat="46.49969" lon="5.30806">
        <ele>227.4</ele>
        <time>2022-04-16T14:01:11Z</time>
      </trkpt>
      <trkpt lat="46.49982" lon="5.30852">
        <ele>227</ele>
        <time>2022-04-16T14:01:17Z</time>
      </trkpt>
      <trkpt lat="46.50001" lon="5.30903">
        <ele>226.8</ele>
        <time>2022-04-16T14:01:23Z</time>
      </trkpt>
      <trkpt lat="46.50015" lon="5.3094">
        <ele>225.6</ele>
        <time>2022-04-16T14:01:27Z</time>
      </trkpt>
      <trkpt lat="46.50026" lon="5.30972">
        <ele>224.6</ele>
        <time>2022-04-16T14:01:30Z</time>
      </trkpt>
      <trkpt lat="46.50037" lon="5.31006">
        <ele>223.4</ele>
        <time>2022-04-16T14:01:33Z</time>
      </trkpt>
      <trkpt lat="46.50048" lon="5.3104">
        <ele>221.8</ele>
        <time>2022-04-16T14:01:36Z</time>
      </trkpt>
      <trkpt lat="46.50052" lon="5.31051">
        <ele>221.4</ele>
        <time>2022-04-16T14:01:37Z</time>
      </trkpt>
      <trkpt lat="46.50056" lon="5.31062">
        <ele>220.4</ele>
        <time>2022-04-16T14:01:38Z</time>
      </trkpt>
      <trkpt lat="46.50068" lon="5.31099">
        <ele>219</ele>
        <time>2022-04-16T14:01:41Z</time>
      </trkpt>
      <trkpt lat="46.50085" lon="5.31148">
        <ele>217.2</ele>
        <time>2022-04-16T14:01:45Z</time>
      </trkpt>
      <trkpt lat="46.501" lon="5.31193">
        <ele>216.4</ele>
        <time>2022-04-16T14:01:49Z</time>
      </trkpt>
      <trkpt lat="46.50107" lon="5.31213">
        <ele>216.2</ele>
        <time>2022-04-16T14:01:51Z</time>
      </trkpt>
      <trkpt lat="46.50124" lon="5.31261">
        <ele>216</ele>
        <time>2022-04-16T14:01:57Z</time>
      </trkpt>
      <trkpt lat="46.50148" lon="5.31329">
        <ele>217.4</ele>
        <time>2022-04-16T14:02:03Z</time>
      </trkpt>
      <trkpt lat="46.50148" lon="5.31329">
        <ele>217.6</ele>
        <time>2022-04-16T14:02:04Z</time>
      </trkpt>
      <trkpt lat="46.50173" lon="5.31403">
        <ele>217.6</ele>
        <time>2022-04-16T14:02:10Z</time>
      </trkpt>
      <trkpt lat="46.50176" lon="5.31413">
        <ele>217.6</ele>
        <time>2022-04-16T14:02:11Z</time>
      </trkpt>
      <trkpt lat="46.50192" lon="5.31461">
        <ele>216</ele>
        <time>2022-04-16T14:02:15Z</time>
      </trkpt>
      <trkpt lat="46.50203" lon="5.31493">
        <ele>215</ele>
        <time>2022-04-16T14:02:18Z</time>
      </trkpt>
      <trkpt lat="46.50212" lon="5.31517">
        <ele>214.2</ele>
        <time>2022-04-16T14:02:20Z</time>
      </trkpt>
      <trkpt lat="46.50215" lon="5.31526">
        <ele>214</ele>
        <time>2022-04-16T14:02:21Z</time>
      </trkpt>
      <trkpt lat="46.50231" lon="5.31554">
        <ele>211.6</ele>
        <time>2022-04-16T14:02:24Z</time>
      </trkpt>
      <trkpt lat="46.50235" lon="5.31563">
        <ele>211</ele>
        <time>2022-04-16T14:02:25Z</time>
      </trkpt>
      <trkpt lat="46.50236" lon="5.31572">
        <ele>210.4</ele>
        <time>2022-04-16T14:02:26Z</time>
      </trkpt>
      <trkpt lat="46.50235" lon="5.31583">
        <ele>210</ele>
        <time>2022-04-16T14:02:27Z</time>
      </trkpt>
      <trkpt lat="46.50227" lon="5.31597">
        <ele>209.8</ele>
        <time>2022-04-16T14:02:29Z</time>
      </trkpt>
      <trkpt lat="46.50221" lon="5.31601">
        <ele>209.6</ele>
        <time>2022-04-16T14:02:30Z</time>
      </trkpt>
      <trkpt lat="46.50208" lon="5.31604">
        <ele>209.6</ele>
        <time>2022-04-16T14:02:32Z</time>
      </trkpt>
      <trkpt lat="46.50196" lon="5.31604">
        <ele>209.8</ele>
        <time>2022-04-16T14:02:34Z</time>
      </trkpt>
      <trkpt lat="46.50177" lon="5.31599">
        <ele>210.6</ele>
        <time>2022-04-16T14:02:37Z</time>
      </trkpt>
      <trkpt lat="46.50171" lon="5.31596">
        <ele>210.8</ele>
        <time>2022-04-16T14:02:38Z</time>
      </trkpt>
      <trkpt lat="46.50153" lon="5.3159">
        <ele>211.4</ele>
        <time>2022-04-16T14:02:41Z</time>
      </trkpt>
      <trkpt lat="46.50129" lon="5.31582">
        <ele>213</ele>
        <time>2022-04-16T14:02:45Z</time>
      </trkpt>
      <trkpt lat="46.50105" lon="5.31578">
        <ele>214.2</ele>
        <time>2022-04-16T14:02:49Z</time>
      </trkpt>
      <trkpt lat="46.50099" lon="5.31578">
        <ele>214.6</ele>
        <time>2022-04-16T14:02:50Z</time>
      </trkpt>
      <trkpt lat="46.50087" lon="5.31578">
        <ele>215</ele>
        <time>2022-04-16T14:02:52Z</time>
      </trkpt>
      <trkpt lat="46.50075" lon="5.3158">
        <ele>215.4</ele>
        <time>2022-04-16T14:02:54Z</time>
      </trkpt>
      <trkpt lat="46.50057" lon="5.31585">
        <ele>215.8</ele>
        <time>2022-04-16T14:02:57Z</time>
      </trkpt>
      <trkpt lat="46.50051" lon="5.31588">
        <ele>216</ele>
        <time>2022-04-16T14:02:58Z</time>
      </trkpt>
      <trkpt lat="46.50039" lon="5.31595">
        <ele>216.4</ele>
        <time>2022-04-16T14:03:00Z</time>
      </trkpt>
      <trkpt lat="46.50028" lon="5.31603">
        <ele>216.4</ele>
        <time>2022-04-16T14:03:02Z</time>
      </trkpt>
      <trkpt lat="46.50017" lon="5.31613">
        <ele>216.4</ele>
        <time>2022-04-16T14:03:04Z</time>
      </trkpt>
      <trkpt lat="46.49992" lon="5.31648">
        <ele>216</ele>
        <time>2022-04-16T14:03:09Z</time>
      </trkpt>
      <trkpt lat="46.49974" lon="5.31686">
        <ele>215.4</ele>
        <time>2022-04-16T14:03:13Z</time>
      </trkpt>
      <trkpt lat="46.49969" lon="5.31697">
        <ele>215.2</ele>
        <time>2022-04-16T14:03:14Z</time>
      </trkpt>
      <trkpt lat="46.49959" lon="5.31718">
        <ele>214.6</ele>
        <time>2022-04-16T14:03:16Z</time>
      </trkpt>
      <trkpt lat="46.49953" lon="5.31728">
        <ele>214.2</ele>
        <time>2022-04-16T14:03:17Z</time>
      </trkpt>
      <trkpt lat="46.49946" lon="5.31737">
        <ele>214</ele>
        <time>2022-04-16T14:03:18Z</time>
      </trkpt>
      <trkpt lat="46.49918" lon="5.31759">
        <ele>213</ele>
        <time>2022-04-16T14:03:21Z</time>
      </trkpt>
      <trkpt lat="46.49909" lon="5.31763">
        <ele>212.8</ele>
        <time>2022-04-16T14:03:22Z</time>
      </trkpt>
      <trkpt lat="46.49899" lon="5.31765">
        <ele>212.6</ele>
        <time>2022-04-16T14:03:23Z</time>
      </trkpt>
      <trkpt lat="46.49879" lon="5.31767">
        <ele>211.6</ele>
        <time>2022-04-16T14:03:25Z</time>
      </trkpt>
      <trkpt lat="46.4985" lon="5.31768">
        <ele>210.4</ele>
        <time>2022-04-16T14:03:28Z</time>
      </trkpt>
      <trkpt lat="46.49823" lon="5.3177">
        <ele>209.8</ele>
        <time>2022-04-16T14:03:31Z</time>
      </trkpt>
      <trkpt lat="46.49771" lon="5.31773">
        <ele>210.4</ele>
        <time>2022-04-16T14:03:37Z</time>
      </trkpt>
      <trkpt lat="46.49719" lon="5.31781">
        <ele>211.2</ele>
        <time>2022-04-16T14:03:43Z</time>
      </trkpt>
      <trkpt lat="46.49713" lon="5.31784">
        <ele>211.4</ele>
        <time>2022-04-16T14:03:44Z</time>
      </trkpt>
      <trkpt lat="46.49705" lon="5.3179">
        <ele>211.4</ele>
        <time>2022-04-16T14:03:45Z</time>
      </trkpt>
      <trkpt lat="46.49694" lon="5.31806">
        <ele>211</ele>
        <time>2022-04-16T14:03:47Z</time>
      </trkpt>
      <trkpt lat="46.49679" lon="5.31842">
        <ele>211</ele>
        <time>2022-04-16T14:03:51Z</time>
      </trkpt>
      <trkpt lat="46.49666" lon="5.31902">
        <ele>211</ele>
        <time>2022-04-16T14:03:57Z</time>
      </trkpt>
      <trkpt lat="46.49662" lon="5.31929">
        <ele>211.8</ele>
        <time>2022-04-16T14:04:00Z</time>
      </trkpt>
      <trkpt lat="46.49659" lon="5.31947">
        <ele>212.4</ele>
        <time>2022-04-16T14:04:02Z</time>
      </trkpt>
      <trkpt lat="46.49658" lon="5.31955">
        <ele>212.8</ele>
        <time>2022-04-16T14:04:03Z</time>
      </trkpt>
      <trkpt lat="46.49657" lon="5.31962">
        <ele>213.2</ele>
        <time>2022-04-16T14:04:04Z</time>
      </trkpt>
      <trkpt lat="46.49655" lon="5.31976">
        <ele>214</ele>
        <time>2022-04-16T14:04:06Z</time>
      </trkpt>
      <trkpt lat="46.49653" lon="5.31991">
        <ele>214.8</ele>
        <time>2022-04-16T14:04:08Z</time>
      </trkpt>
      <trkpt lat="46.49652" lon="5.31997">
        <ele>215.2</ele>
        <time>2022-04-16T14:04:09Z</time>
      </trkpt>
      <trkpt lat="46.49646" lon="5.32008">
        <ele>216.2</ele>
        <time>2022-04-16T14:04:11Z</time>
      </trkpt>
      <trkpt lat="46.49643" lon="5.32013">
        <ele>216.6</ele>
        <time>2022-04-16T14:04:12Z</time>
      </trkpt>
      <trkpt lat="46.49639" lon="5.32016">
        <ele>216.8</ele>
        <time>2022-04-16T14:04:13Z</time>
      </trkpt>
      <trkpt lat="46.4963" lon="5.32021">
        <ele>217.8</ele>
        <time>2022-04-16T14:04:15Z</time>
      </trkpt>
      <trkpt lat="46.49626" lon="5.32022">
        <ele>218</ele>
        <time>2022-04-16T14:04:16Z</time>
      </trkpt>
      <trkpt lat="46.49607" lon="5.32027">
        <ele>218.6</ele>
        <time>2022-04-16T14:04:20Z</time>
      </trkpt>
      <trkpt lat="46.49596" lon="5.32028">
        <ele>218.8</ele>
        <time>2022-04-16T14:04:22Z</time>
      </trkpt>
      <trkpt lat="46.49592" lon="5.3203">
        <ele>219.2</ele>
        <time>2022-04-16T14:04:23Z</time>
      </trkpt>
      <trkpt lat="46.49579" lon="5.32032">
        <ele>220</ele>
        <time>2022-04-16T14:04:26Z</time>
      </trkpt>
      <trkpt lat="46.49555" lon="5.32038">
        <ele>221</ele>
        <time>2022-04-16T14:04:31Z</time>
      </trkpt>
      <trkpt lat="46.49523" lon="5.32045">
        <ele>222</ele>
        <time>2022-04-16T14:04:38Z</time>
      </trkpt>
      <trkpt lat="46.49513" lon="5.32045">
        <ele>222.6</ele>
        <time>2022-04-16T14:04:40Z</time>
      </trkpt>
      <trkpt lat="46.49508" lon="5.32044">
        <ele>222.6</ele>
        <time>2022-04-16T14:04:41Z</time>
      </trkpt>
      <trkpt lat="46.49503" lon="5.32043">
        <ele>222.6</ele>
        <time>2022-04-16T14:04:42Z</time>
      </trkpt>
      <trkpt lat="46.49492" lon="5.32036">
        <ele>222.8</ele>
        <time>2022-04-16T14:04:44Z</time>
      </trkpt>
      <trkpt lat="46.49488" lon="5.32032">
        <ele>223</ele>
        <time>2022-04-16T14:04:45Z</time>
      </trkpt>
      <trkpt lat="46.49471" lon="5.32015">
        <ele>223</ele>
        <time>2022-04-16T14:04:49Z</time>
      </trkpt>
      <trkpt lat="46.49456" lon="5.31999">
        <ele>223.4</ele>
        <time>2022-04-16T14:04:52Z</time>
      </trkpt>
      <trkpt lat="46.49444" lon="5.31989">
        <ele>223.6</ele>
        <time>2022-04-16T14:04:54Z</time>
      </trkpt>
      <trkpt lat="46.49432" lon="5.31986">
        <ele>223.6</ele>
        <time>2022-04-16T14:04:56Z</time>
      </trkpt>
      <trkpt lat="46.49417" lon="5.31991">
        <ele>223.6</ele>
        <time>2022-04-16T14:04:58Z</time>
      </trkpt>
      <trkpt lat="46.49411" lon="5.31996">
        <ele>223.6</ele>
        <time>2022-04-16T14:04:59Z</time>
      </trkpt>
      <trkpt lat="46.49401" lon="5.32009">
        <ele>223.6</ele>
        <time>2022-04-16T14:05:01Z</time>
      </trkpt>
      <trkpt lat="46.49387" lon="5.32028">
        <ele>223.6</ele>
        <time>2022-04-16T14:05:04Z</time>
      </trkpt>
      <trkpt lat="46.49369" lon="5.32048">
        <ele>224</ele>
        <time>2022-04-16T14:05:07Z</time>
      </trkpt>
      <trkpt lat="46.49357" lon="5.32056">
        <ele>224.2</ele>
        <time>2022-04-16T14:05:09Z</time>
      </trkpt>
      <trkpt lat="46.49343" lon="5.32063">
        <ele>224.2</ele>
        <time>2022-04-16T14:05:11Z</time>
      </trkpt>
      <trkpt lat="46.49318" lon="5.32073">
        <ele>224.2</ele>
        <time>2022-04-16T14:05:14Z</time>
      </trkpt>
      <trkpt lat="46.4927" lon="5.32088">
        <ele>223.2</ele>
        <time>2022-04-16T14:05:20Z</time>
      </trkpt>
      <trkpt lat="46.49261" lon="5.3209">
        <ele>223.2</ele>
        <time>2022-04-16T14:05:21Z</time>
      </trkpt>
      <trkpt lat="46.49211" lon="5.32103">
        <ele>222.2</ele>
        <time>2022-04-16T14:05:27Z</time>
      </trkpt>
      <trkpt lat="46.49204" lon="5.32105">
        <ele>222</ele>
        <time>2022-04-16T14:05:28Z</time>
      </trkpt>
      <trkpt lat="46.49162" lon="5.32112">
        <ele>221</ele>
        <time>2022-04-16T14:05:33Z</time>
      </trkpt>
      <trkpt lat="46.49128" lon="5.32117">
        <ele>220.6</ele>
        <time>2022-04-16T14:05:37Z</time>
      </trkpt>
      <trkpt lat="46.49083" lon="5.3212">
        <ele>220</ele>
        <time>2022-04-16T14:05:42Z</time>
      </trkpt>
      <trkpt lat="46.49056" lon="5.3212">
        <ele>219.6</ele>
        <time>2022-04-16T14:05:45Z</time>
      </trkpt>
      <trkpt lat="46.49011" lon="5.32123">
        <ele>219.4</ele>
        <time>2022-04-16T14:05:50Z</time>
      </trkpt>
      <trkpt lat="46.48994" lon="5.32129">
        <ele>219.4</ele>
        <time>2022-04-16T14:05:52Z</time>
      </trkpt>
      <trkpt lat="46.48978" lon="5.32139">
        <ele>219.4</ele>
        <time>2022-04-16T14:05:54Z</time>
      </trkpt>
      <trkpt lat="46.48966" lon="5.32156">
        <ele>219.6</ele>
        <time>2022-04-16T14:05:56Z</time>
      </trkpt>
      <trkpt lat="46.48962" lon="5.32166">
        <ele>219.6</ele>
        <time>2022-04-16T14:05:57Z</time>
      </trkpt>
      <trkpt lat="46.48959" lon="5.32177">
        <ele>219.8</ele>
        <time>2022-04-16T14:05:58Z</time>
      </trkpt>
      <trkpt lat="46.48956" lon="5.32198">
        <ele>220</ele>
        <time>2022-04-16T14:06:00Z</time>
      </trkpt>
      <trkpt lat="46.48953" lon="5.32234">
        <ele>220.2</ele>
        <time>2022-04-16T14:06:03Z</time>
      </trkpt>
      <trkpt lat="46.48948" lon="5.32255">
        <ele>220.2</ele>
        <time>2022-04-16T14:06:05Z</time>
      </trkpt>
      <trkpt lat="46.48944" lon="5.32268">
        <ele>220.2</ele>
        <time>2022-04-16T14:06:06Z</time>
      </trkpt>
      <trkpt lat="46.48934" lon="5.32289">
        <ele>220</ele>
        <time>2022-04-16T14:06:08Z</time>
      </trkpt>
      <trkpt lat="46.48929" lon="5.32299">
        <ele>219.8</ele>
        <time>2022-04-16T14:06:09Z</time>
      </trkpt>
      <trkpt lat="46.48913" lon="5.32332">
        <ele>219.2</ele>
        <time>2022-04-16T14:06:12Z</time>
      </trkpt>
      <trkpt lat="46.48909" lon="5.32345">
        <ele>219</ele>
        <time>2022-04-16T14:06:13Z</time>
      </trkpt>
      <trkpt lat="46.48907" lon="5.32358">
        <ele>218.8</ele>
        <time>2022-04-16T14:06:14Z</time>
      </trkpt>
      <trkpt lat="46.4891" lon="5.32384">
        <ele>217.2</ele>
        <time>2022-04-16T14:06:16Z</time>
      </trkpt>
      <trkpt lat="46.4892" lon="5.32418">
        <ele>216</ele>
        <time>2022-04-16T14:06:19Z</time>
      </trkpt>
      <trkpt lat="46.48927" lon="5.32439">
        <ele>215.8</ele>
        <time>2022-04-16T14:06:21Z</time>
      </trkpt>
      <trkpt lat="46.48944" lon="5.32496">
        <ele>215.2</ele>
        <time>2022-04-16T14:06:26Z</time>
      </trkpt>
      <trkpt lat="46.48951" lon="5.32531">
        <ele>215.2</ele>
        <time>2022-04-16T14:06:29Z</time>
      </trkpt>
      <trkpt lat="46.4895" lon="5.32545">
        <ele>215.2</ele>
        <time>2022-04-16T14:06:30Z</time>
      </trkpt>
      <trkpt lat="46.48947" lon="5.32556">
        <ele>215.2</ele>
        <time>2022-04-16T14:06:31Z</time>
      </trkpt>
      <trkpt lat="46.48938" lon="5.32574">
        <ele>215.2</ele>
        <time>2022-04-16T14:06:33Z</time>
      </trkpt>
      <trkpt lat="46.48919" lon="5.32601">
        <ele>215.6</ele>
        <time>2022-04-16T14:06:37Z</time>
      </trkpt>
      <trkpt lat="46.48916" lon="5.3261">
        <ele>215.8</ele>
        <time>2022-04-16T14:06:38Z</time>
      </trkpt>
      <trkpt lat="46.48914" lon="5.32618">
        <ele>216</ele>
        <time>2022-04-16T14:06:39Z</time>
      </trkpt>
      <trkpt lat="46.48913" lon="5.32635">
        <ele>216.4</ele>
        <time>2022-04-16T14:06:41Z</time>
      </trkpt>
      <trkpt lat="46.48917" lon="5.3265">
        <ele>216.6</ele>
        <time>2022-04-16T14:06:43Z</time>
      </trkpt>
      <trkpt lat="46.48922" lon="5.32663">
        <ele>217</ele>
        <time>2022-04-16T14:06:45Z</time>
      </trkpt>
      <trkpt lat="46.48926" lon="5.32667">
        <ele>217.2</ele>
        <time>2022-04-16T14:06:46Z</time>
      </trkpt>
      <trkpt lat="46.48929" lon="5.32671">
        <ele>217.4</ele>
        <time>2022-04-16T14:06:47Z</time>
      </trkpt>
      <trkpt lat="46.48936" lon="5.32681">
        <ele>218.4</ele>
        <time>2022-04-16T14:06:49Z</time>
      </trkpt>
      <trkpt lat="46.4894" lon="5.32686">
        <ele>218.8</ele>
        <time>2022-04-16T14:06:50Z</time>
      </trkpt>
      <trkpt lat="46.48944" lon="5.3269">
        <ele>219.2</ele>
        <time>2022-04-16T14:06:51Z</time>
      </trkpt>
      <trkpt lat="46.48948" lon="5.32694">
        <ele>219.4</ele>
        <time>2022-04-16T14:06:52Z</time>
      </trkpt>
      <trkpt lat="46.48956" lon="5.327">
        <ele>220</ele>
        <time>2022-04-16T14:06:54Z</time>
      </trkpt>
      <trkpt lat="46.4896" lon="5.32703">
        <ele>220.6</ele>
        <time>2022-04-16T14:06:55Z</time>
      </trkpt>
      <trkpt lat="46.48971" lon="5.32709">
        <ele>222</ele>
        <time>2022-04-16T14:06:58Z</time>
      </trkpt>
      <trkpt lat="46.48985" lon="5.3271">
        <ele>223</ele>
        <time>2022-04-16T14:07:01Z</time>
      </trkpt>
      <trkpt lat="46.49003" lon="5.3271">
        <ele>223.8</ele>
        <time>2022-04-16T14:07:05Z</time>
      </trkpt>
      <trkpt lat="46.49007" lon="5.3271">
        <ele>224.2</ele>
        <time>2022-04-16T14:07:06Z</time>
      </trkpt>
      <trkpt lat="46.49028" lon="5.32707">
        <ele>225.4</ele>
        <time>2022-04-16T14:07:11Z</time>
      </trkpt>
      <trkpt lat="46.49032" lon="5.32707">
        <ele>225.8</ele>
        <time>2022-04-16T14:07:12Z</time>
      </trkpt>
      <trkpt lat="46.49055" lon="5.32702">
        <ele>226.6</ele>
        <time>2022-04-16T14:07:18Z</time>
      </trkpt>
      <trkpt lat="46.49062" lon="5.32701">
        <ele>227</ele>
        <time>2022-04-16T14:07:20Z</time>
      </trkpt>
      <trkpt lat="46.49073" lon="5.32699">
        <ele>227.6</ele>
        <time>2022-04-16T14:07:23Z</time>
      </trkpt>
      <trkpt lat="46.49088" lon="5.32697">
        <ele>228.4</ele>
        <time>2022-04-16T14:07:27Z</time>
      </trkpt>
      <trkpt lat="46.49092" lon="5.32696">
        <ele>228.6</ele>
        <time>2022-04-16T14:07:28Z</time>
      </trkpt>
      <trkpt lat="46.49107" lon="5.32695">
        <ele>229.8</ele>
        <time>2022-04-16T14:07:32Z</time>
      </trkpt>
      <trkpt lat="46.49114" lon="5.32699">
        <ele>230.4</ele>
        <time>2022-04-16T14:07:34Z</time>
      </trkpt>
      <trkpt lat="46.49121" lon="5.32706">
        <ele>230.8</ele>
        <time>2022-04-16T14:07:36Z</time>
      </trkpt>
      <trkpt lat="46.49129" lon="5.32722">
        <ele>231.4</ele>
        <time>2022-04-16T14:07:39Z</time>
      </trkpt>
      <trkpt lat="46.49134" lon="5.32741">
        <ele>231.8</ele>
        <time>2022-04-16T14:07:42Z</time>
      </trkpt>
      <trkpt lat="46.49137" lon="5.32756">
        <ele>232.2</ele>
        <time>2022-04-16T14:07:44Z</time>
      </trkpt>
      <trkpt lat="46.49139" lon="5.32769">
        <ele>232.4</ele>
        <time>2022-04-16T14:07:46Z</time>
      </trkpt>
      <trkpt lat="46.49143" lon="5.32803">
        <ele>232.6</ele>
        <time>2022-04-16T14:07:50Z</time>
      </trkpt>
      <trkpt lat="46.49143" lon="5.32813">
        <ele>232.6</ele>
        <time>2022-04-16T14:07:51Z</time>
      </trkpt>
      <trkpt lat="46.49142" lon="5.32825">
        <ele>232.6</ele>
        <time>2022-04-16T14:07:52Z</time>
      </trkpt>
      <trkpt lat="46.49137" lon="5.32852">
        <ele>232.6</ele>
        <time>2022-04-16T14:07:55Z</time>
      </trkpt>
      <trkpt lat="46.49125" lon="5.32899">
        <ele>232</ele>
        <time>2022-04-16T14:08:00Z</time>
      </trkpt>
      <trkpt lat="46.49123" lon="5.3293">
        <ele>231.8</ele>
        <time>2022-04-16T14:08:03Z</time>
      </trkpt>
      <trkpt lat="46.49124" lon="5.32951">
        <ele>231.8</ele>
        <time>2022-04-16T14:08:05Z</time>
      </trkpt>
      <trkpt lat="46.49129" lon="5.33019">
        <ele>232.2</ele>
        <time>2022-04-16T14:08:12Z</time>
      </trkpt>
      <trkpt lat="46.49138" lon="5.33063">
        <ele>233.2</ele>
        <time>2022-04-16T14:08:17Z</time>
      </trkpt>
      <trkpt lat="46.49142" lon="5.33081">
        <ele>234</ele>
        <time>2022-04-16T14:08:19Z</time>
      </trkpt>
      <trkpt lat="46.49145" lon="5.3309">
        <ele>234.2</ele>
        <time>2022-04-16T14:08:20Z</time>
      </trkpt>
      <trkpt lat="46.49162" lon="5.33125">
        <ele>234.4</ele>
        <time>2022-04-16T14:08:24Z</time>
      </trkpt>
      <trkpt lat="46.4919" lon="5.33155">
        <ele>234</ele>
        <time>2022-04-16T14:08:29Z</time>
      </trkpt>
      <trkpt lat="46.49224" lon="5.33182">
        <ele>233.8</ele>
        <time>2022-04-16T14:08:35Z</time>
      </trkpt>
      <trkpt lat="46.49243" lon="5.332">
        <ele>233.8</ele>
        <time>2022-04-16T14:08:39Z</time>
      </trkpt>
      <trkpt lat="46.49251" lon="5.33212">
        <ele>233.8</ele>
        <time>2022-04-16T14:08:41Z</time>
      </trkpt>
      <trkpt lat="46.49255" lon="5.33218">
        <ele>233.8</ele>
        <time>2022-04-16T14:08:42Z</time>
      </trkpt>
      <trkpt lat="46.49267" lon="5.33247">
        <ele>234.4</ele>
        <time>2022-04-16T14:08:46Z</time>
      </trkpt>
      <trkpt lat="46.49269" lon="5.33255">
        <ele>234.4</ele>
        <time>2022-04-16T14:08:47Z</time>
      </trkpt>
      <trkpt lat="46.49275" lon="5.33296">
        <ele>235.4</ele>
        <time>2022-04-16T14:08:52Z</time>
      </trkpt>
      <trkpt lat="46.49277" lon="5.33305">
        <ele>235.4</ele>
        <time>2022-04-16T14:08:53Z</time>
      </trkpt>
      <trkpt lat="46.49289" lon="5.3337">
        <ele>236.4</ele>
        <time>2022-04-16T14:09:01Z</time>
      </trkpt>
      <trkpt lat="46.49291" lon="5.33378">
        <ele>236.4</ele>
        <time>2022-04-16T14:09:02Z</time>
      </trkpt>
      <trkpt lat="46.49303" lon="5.33438">
        <ele>236.8</ele>
        <time>2022-04-16T14:09:10Z</time>
      </trkpt>
      <trkpt lat="46.4931" lon="5.33489">
        <ele>237.4</ele>
        <time>2022-04-16T14:09:16Z</time>
      </trkpt>
      <trkpt lat="46.49312" lon="5.33499">
        <ele>237.4</ele>
        <time>2022-04-16T14:09:17Z</time>
      </trkpt>
      <trkpt lat="46.49313" lon="5.33508">
        <ele>237.6</ele>
        <time>2022-04-16T14:09:18Z</time>
      </trkpt>
      <trkpt lat="46.49315" lon="5.33557">
        <ele>238</ele>
        <time>2022-04-16T14:09:23Z</time>
      </trkpt>
      <trkpt lat="46.49306" lon="5.33605">
        <ele>237.8</ele>
        <time>2022-04-16T14:09:28Z</time>
      </trkpt>
      <trkpt lat="46.493" lon="5.33663">
        <ele>238.2</ele>
        <time>2022-04-16T14:09:34Z</time>
      </trkpt>
      <trkpt lat="46.49299" lon="5.3371">
        <ele>238.4</ele>
        <time>2022-04-16T14:09:39Z</time>
      </trkpt>
      <trkpt lat="46.49296" lon="5.33747">
        <ele>238.6</ele>
        <time>2022-04-16T14:09:43Z</time>
      </trkpt>
      <trkpt lat="46.49293" lon="5.33765">
        <ele>238.6</ele>
        <time>2022-04-16T14:09:45Z</time>
      </trkpt>
      <trkpt lat="46.49286" lon="5.33802">
        <ele>239</ele>
        <time>2022-04-16T14:09:49Z</time>
      </trkpt>
      <trkpt lat="46.49277" lon="5.3385">
        <ele>239.6</ele>
        <time>2022-04-16T14:09:54Z</time>
      </trkpt>
      <trkpt lat="46.49272" lon="5.33879">
        <ele>239.8</ele>
        <time>2022-04-16T14:09:57Z</time>
      </trkpt>
      <trkpt lat="46.49256" lon="5.33962">
        <ele>240</ele>
        <time>2022-04-16T14:10:05Z</time>
      </trkpt>
      <trkpt lat="46.49254" lon="5.33972">
        <ele>240.2</ele>
        <time>2022-04-16T14:10:06Z</time>
      </trkpt>
      <trkpt lat="46.49239" lon="5.34051">
        <ele>240.2</ele>
        <time>2022-04-16T14:10:14Z</time>
      </trkpt>
      <trkpt lat="46.49237" lon="5.34061">
        <ele>240.2</ele>
        <time>2022-04-16T14:10:15Z</time>
      </trkpt>
      <trkpt lat="46.49222" lon="5.3413">
        <ele>240</ele>
        <time>2022-04-16T14:10:21Z</time>
      </trkpt>
      <trkpt lat="46.4921" lon="5.34197">
        <ele>238.4</ele>
        <time>2022-04-16T14:10:26Z</time>
      </trkpt>
      <trkpt lat="46.49205" lon="5.34222">
        <ele>237.8</ele>
        <time>2022-04-16T14:10:28Z</time>
      </trkpt>
      <trkpt lat="46.49198" lon="5.34259">
        <ele>237.2</ele>
        <time>2022-04-16T14:10:31Z</time>
      </trkpt>
      <trkpt lat="46.49192" lon="5.34292">
        <ele>237</ele>
        <time>2022-04-16T14:10:34Z</time>
      </trkpt>
      <trkpt lat="46.49181" lon="5.34353">
        <ele>237.6</ele>
        <time>2022-04-16T14:10:40Z</time>
      </trkpt>
      <trkpt lat="46.49177" lon="5.34373">
        <ele>238.4</ele>
        <time>2022-04-16T14:10:42Z</time>
      </trkpt>
      <trkpt lat="46.49168" lon="5.34421">
        <ele>239</ele>
        <time>2022-04-16T14:10:46Z</time>
      </trkpt>
      <trkpt lat="46.49152" lon="5.34507">
        <ele>238.4</ele>
        <time>2022-04-16T14:10:53Z</time>
      </trkpt>
      <trkpt lat="46.49147" lon="5.3453">
        <ele>238</ele>
        <time>2022-04-16T14:10:55Z</time>
      </trkpt>
      <trkpt lat="46.49137" lon="5.34585">
        <ele>237.8</ele>
        <time>2022-04-16T14:11:00Z</time>
      </trkpt>
      <trkpt lat="46.49124" lon="5.34646">
        <ele>238</ele>
        <time>2022-04-16T14:11:06Z</time>
      </trkpt>
      <trkpt lat="46.49113" lon="5.34705">
        <ele>237.8</ele>
        <time>2022-04-16T14:11:11Z</time>
      </trkpt>
      <trkpt lat="46.49111" lon="5.34716">
        <ele>237.2</ele>
        <time>2022-04-16T14:11:12Z</time>
      </trkpt>
      <trkpt lat="46.49097" lon="5.34791">
        <ele>237</ele>
        <time>2022-04-16T14:11:19Z</time>
      </trkpt>
      <trkpt lat="46.49087" lon="5.34839">
        <ele>238.4</ele>
        <time>2022-04-16T14:11:24Z</time>
      </trkpt>
      <trkpt lat="46.49083" lon="5.34859">
        <ele>239</ele>
        <time>2022-04-16T14:11:26Z</time>
      </trkpt>
      <trkpt lat="46.49075" lon="5.34905">
        <ele>239.6</ele>
        <time>2022-04-16T14:11:31Z</time>
      </trkpt>
      <trkpt lat="46.49069" lon="5.34932">
        <ele>239.8</ele>
        <time>2022-04-16T14:11:34Z</time>
      </trkpt>
      <trkpt lat="46.49063" lon="5.34966">
        <ele>240.6</ele>
        <time>2022-04-16T14:11:38Z</time>
      </trkpt>
      <trkpt lat="46.49055" lon="5.35002">
        <ele>241.2</ele>
        <time>2022-04-16T14:11:42Z</time>
      </trkpt>
      <trkpt lat="46.4905" lon="5.35027">
        <ele>241.8</ele>
        <time>2022-04-16T14:11:45Z</time>
      </trkpt>
      <trkpt lat="46.49042" lon="5.35065">
        <ele>242.6</ele>
        <time>2022-04-16T14:11:50Z</time>
      </trkpt>
      <trkpt lat="46.49041" lon="5.35074">
        <ele>242.8</ele>
        <time>2022-04-16T14:11:51Z</time>
      </trkpt>
      <trkpt lat="46.4903" lon="5.35118">
        <ele>243.2</ele>
        <time>2022-04-16T14:11:56Z</time>
      </trkpt>
      <trkpt lat="46.49006" lon="5.35172">
        <ele>244</ele>
        <time>2022-04-16T14:12:03Z</time>
      </trkpt>
      <trkpt lat="46.48984" lon="5.35222">
        <ele>244</ele>
        <time>2022-04-16T14:12:08Z</time>
      </trkpt>
      <trkpt lat="46.48957" lon="5.35281">
        <ele>242.6</ele>
        <time>2022-04-16T14:12:14Z</time>
      </trkpt>
      <trkpt lat="46.48928" lon="5.35353">
        <ele>241.6</ele>
        <time>2022-04-16T14:12:21Z</time>
      </trkpt>
      <trkpt lat="46.48923" lon="5.35363">
        <ele>241.6</ele>
        <time>2022-04-16T14:12:22Z</time>
      </trkpt>
      <trkpt lat="46.489" lon="5.35414">
        <ele>241.4</ele>
        <time>2022-04-16T14:12:28Z</time>
      </trkpt>
      <trkpt lat="46.48869" lon="5.35485">
        <ele>242.2</ele>
        <time>2022-04-16T14:12:36Z</time>
      </trkpt>
      <trkpt lat="46.48847" lon="5.35534">
        <ele>242.6</ele>
        <time>2022-04-16T14:12:42Z</time>
      </trkpt>
      <trkpt lat="46.48828" lon="5.3558">
        <ele>242.8</ele>
        <time>2022-04-16T14:12:47Z</time>
      </trkpt>
      <trkpt lat="46.48815" lon="5.35606">
        <ele>243</ele>
        <time>2022-04-16T14:12:50Z</time>
      </trkpt>
      <trkpt lat="46.48785" lon="5.35681">
        <ele>242.4</ele>
        <time>2022-04-16T14:12:58Z</time>
      </trkpt>
      <trkpt lat="46.48774" lon="5.35707">
        <ele>242.4</ele>
        <time>2022-04-16T14:13:01Z</time>
      </trkpt>
      <trkpt lat="46.48743" lon="5.35776">
        <ele>242.6</ele>
        <time>2022-04-16T14:13:09Z</time>
      </trkpt>
      <trkpt lat="46.48719" lon="5.35831">
        <ele>243</ele>
        <time>2022-04-16T14:13:16Z</time>
      </trkpt>
      <trkpt lat="46.48716" lon="5.35838">
        <ele>243</ele>
        <time>2022-04-16T14:13:17Z</time>
      </trkpt>
      <trkpt lat="46.48704" lon="5.35858">
        <ele>243</ele>
        <time>2022-04-16T14:13:20Z</time>
      </trkpt>
      <trkpt lat="46.487" lon="5.35866">
        <ele>243</ele>
        <time>2022-04-16T14:13:21Z</time>
      </trkpt>
      <trkpt lat="46.48695" lon="5.3588">
        <ele>243</ele>
        <time>2022-04-16T14:13:23Z</time>
      </trkpt>
      <trkpt lat="46.48693" lon="5.35886">
        <ele>243.2</ele>
        <time>2022-04-16T14:13:24Z</time>
      </trkpt>
      <trkpt lat="46.48686" lon="5.3591">
        <ele>243.4</ele>
        <time>2022-04-16T14:13:27Z</time>
      </trkpt>
      <trkpt lat="46.48683" lon="5.35926">
        <ele>244.2</ele>
        <time>2022-04-16T14:13:29Z</time>
      </trkpt>
      <trkpt lat="46.48682" lon="5.35934">
        <ele>244.4</ele>
        <time>2022-04-16T14:13:30Z</time>
      </trkpt>
      <trkpt lat="46.48678" lon="5.3596">
        <ele>245.2</ele>
        <time>2022-04-16T14:13:33Z</time>
      </trkpt>
      <trkpt lat="46.48672" lon="5.36009">
        <ele>246</ele>
        <time>2022-04-16T14:13:39Z</time>
      </trkpt>
      <trkpt lat="46.4866" lon="5.36059">
        <ele>246</ele>
        <time>2022-04-16T14:13:44Z</time>
      </trkpt>
      <trkpt lat="46.48644" lon="5.36138">
        <ele>244.6</ele>
        <time>2022-04-16T14:13:51Z</time>
      </trkpt>
      <trkpt lat="46.48639" lon="5.3619">
        <ele>244.4</ele>
        <time>2022-04-16T14:13:56Z</time>
      </trkpt>
      <trkpt lat="46.48631" lon="5.36267">
        <ele>244.6</ele>
        <time>2022-04-16T14:14:04Z</time>
      </trkpt>
      <trkpt lat="46.48627" lon="5.36293">
        <ele>244.8</ele>
        <time>2022-04-16T14:14:07Z</time>
      </trkpt>
      <trkpt lat="46.48621" lon="5.36307">
        <ele>245</ele>
        <time>2022-04-16T14:14:09Z</time>
      </trkpt>
      <trkpt lat="46.48612" lon="5.36317">
        <ele>245.2</ele>
        <time>2022-04-16T14:14:11Z</time>
      </trkpt>
      <trkpt lat="46.48607" lon="5.3632">
        <ele>245.4</ele>
        <time>2022-04-16T14:14:12Z</time>
      </trkpt>
      <trkpt lat="46.48601" lon="5.36321">
        <ele>245.6</ele>
        <time>2022-04-16T14:14:13Z</time>
      </trkpt>
      <trkpt lat="46.48585" lon="5.36324">
        <ele>246.4</ele>
        <time>2022-04-16T14:14:16Z</time>
      </trkpt>
      <trkpt lat="46.4858" lon="5.36324">
        <ele>246.8</ele>
        <time>2022-04-16T14:14:17Z</time>
      </trkpt>
      <trkpt lat="46.48569" lon="5.36326">
        <ele>247.4</ele>
        <time>2022-04-16T14:14:19Z</time>
      </trkpt>
      <trkpt lat="46.48546" lon="5.36328">
        <ele>248.6</ele>
        <time>2022-04-16T14:14:23Z</time>
      </trkpt>
      <trkpt lat="46.48527" lon="5.36332">
        <ele>249</ele>
        <time>2022-04-16T14:14:26Z</time>
      </trkpt>
      <trkpt lat="46.48507" lon="5.36336">
        <ele>249.6</ele>
        <time>2022-04-16T14:14:29Z</time>
      </trkpt>
      <trkpt lat="46.48488" lon="5.36339">
        <ele>249.8</ele>
        <time>2022-04-16T14:14:32Z</time>
      </trkpt>
      <trkpt lat="46.48434" lon="5.3635">
        <ele>250.4</ele>
        <time>2022-04-16T14:14:40Z</time>
      </trkpt>
      <trkpt lat="46.48427" lon="5.36352">
        <ele>250.4</ele>
        <time>2022-04-16T14:14:41Z</time>
      </trkpt>
      <trkpt lat="46.48394" lon="5.36372">
        <ele>250.4</ele>
        <time>2022-04-16T14:14:46Z</time>
      </trkpt>
      <trkpt lat="46.48359" lon="5.36408">
        <ele>250.6</ele>
        <time>2022-04-16T14:14:52Z</time>
      </trkpt>
      <trkpt lat="46.48316" lon="5.36454">
        <ele>251.4</ele>
        <time>2022-04-16T14:15:00Z</time>
      </trkpt>
      <trkpt lat="46.48311" lon="5.3646">
        <ele>251.8</ele>
        <time>2022-04-16T14:15:01Z</time>
      </trkpt>
      <trkpt lat="46.4829" lon="5.36483">
        <ele>252.8</ele>
        <time>2022-04-16T14:15:05Z</time>
      </trkpt>
      <trkpt lat="46.4827" lon="5.36506">
        <ele>254</ele>
        <time>2022-04-16T14:15:09Z</time>
      </trkpt>
      <trkpt lat="46.48266" lon="5.36511">
        <ele>254</ele>
        <time>2022-04-16T14:15:10Z</time>
      </trkpt>
      <trkpt lat="46.48237" lon="5.36543">
        <ele>255.6</ele>
        <time>2022-04-16T14:15:16Z</time>
      </trkpt>
      <trkpt lat="46.48227" lon="5.36554">
        <ele>255.8</ele>
        <time>2022-04-16T14:15:18Z</time>
      </trkpt>
      <trkpt lat="46.48217" lon="5.3656">
        <ele>256</ele>
        <time>2022-04-16T14:15:20Z</time>
      </trkpt>
      <trkpt lat="46.48205" lon="5.36561">
        <ele>256.2</ele>
        <time>2022-04-16T14:15:22Z</time>
      </trkpt>
      <trkpt lat="46.48195" lon="5.36567">
        <ele>256.4</ele>
        <time>2022-04-16T14:15:24Z</time>
      </trkpt>
      <trkpt lat="46.48187" lon="5.3658">
        <ele>256.8</ele>
        <time>2022-04-16T14:15:26Z</time>
      </trkpt>
      <trkpt lat="46.48185" lon="5.36588">
        <ele>257</ele>
        <time>2022-04-16T14:15:27Z</time>
      </trkpt>
      <trkpt lat="46.48182" lon="5.36596">
        <ele>257.2</ele>
        <time>2022-04-16T14:15:28Z</time>
      </trkpt>
      <trkpt lat="46.48174" lon="5.3661">
        <ele>257.4</ele>
        <time>2022-04-16T14:15:30Z</time>
      </trkpt>
      <trkpt lat="46.48169" lon="5.36616">
        <ele>257.4</ele>
        <time>2022-04-16T14:15:31Z</time>
      </trkpt>
      <trkpt lat="46.48146" lon="5.36641">
        <ele>257.6</ele>
        <time>2022-04-16T14:15:36Z</time>
      </trkpt>
      <trkpt lat="46.48138" lon="5.36649">
        <ele>257.8</ele>
        <time>2022-04-16T14:15:38Z</time>
      </trkpt>
      <trkpt lat="46.48133" lon="5.36653">
        <ele>258</ele>
        <time>2022-04-16T14:15:39Z</time>
      </trkpt>
      <trkpt lat="46.48118" lon="5.36668">
        <ele>258.2</ele>
        <time>2022-04-16T14:15:42Z</time>
      </trkpt>
      <trkpt lat="46.48114" lon="5.36672">
        <ele>258.2</ele>
        <time>2022-04-16T14:15:43Z</time>
      </trkpt>
      <trkpt lat="46.48103" lon="5.36688">
        <ele>258.6</ele>
        <time>2022-04-16T14:15:47Z</time>
      </trkpt>
      <trkpt lat="46.48101" lon="5.36699">
        <ele>259.4</ele>
        <time>2022-04-16T14:15:49Z</time>
      </trkpt>
      <trkpt lat="46.48103" lon="5.36704">
        <ele>259.6</ele>
        <time>2022-04-16T14:15:50Z</time>
      </trkpt>
      <trkpt lat="46.48128" lon="5.36725">
        <ele>260</ele>
        <time>2022-04-16T14:15:56Z</time>
      </trkpt>
      <trkpt lat="46.48144" lon="5.36737">
        <ele>260.4</ele>
        <time>2022-04-16T14:16:00Z</time>
      </trkpt>
      <trkpt lat="46.48159" lon="5.36748">
        <ele>261.6</ele>
        <time>2022-04-16T14:16:04Z</time>
      </trkpt>
      <trkpt lat="46.48166" lon="5.36754">
        <ele>262.2</ele>
        <time>2022-04-16T14:16:06Z</time>
      </trkpt>
      <trkpt lat="46.48173" lon="5.36759">
        <ele>262.6</ele>
        <time>2022-04-16T14:16:08Z</time>
      </trkpt>
      <trkpt lat="46.48187" lon="5.36771">
        <ele>263.8</ele>
        <time>2022-04-16T14:16:12Z</time>
      </trkpt>
      <trkpt lat="46.48201" lon="5.36783">
        <ele>264.4</ele>
        <time>2022-04-16T14:16:16Z</time>
      </trkpt>
      <trkpt lat="46.48207" lon="5.36789">
        <ele>264.8</ele>
        <time>2022-04-16T14:16:18Z</time>
      </trkpt>
      <trkpt lat="46.48217" lon="5.36798">
        <ele>266</ele>
        <time>2022-04-16T14:16:21Z</time>
      </trkpt>
      <trkpt lat="46.4823" lon="5.36808">
        <ele>267</ele>
        <time>2022-04-16T14:16:25Z</time>
      </trkpt>
      <trkpt lat="46.48243" lon="5.36819">
        <ele>268.2</ele>
        <time>2022-04-16T14:16:29Z</time>
      </trkpt>
      <trkpt lat="46.48254" lon="5.3683">
        <ele>268.6</ele>
        <time>2022-04-16T14:16:33Z</time>
      </trkpt>
    </trkseg>
  </trk>
</gpx>